<?xml version='1.0' encoding='UTF-8'?><gpx version="1.1" creator="JPX - https://github.com/jenetics/jpx" xmlns="http://www.topografix.com/GPX/1/1"><trk><trkseg><trkpt lat="45.67114788455139" lon="3.112962878898311"><ele>439.0</ele><time>2026-05-02T09:37:18.999Z</time></trkpt><trkpt lat="45.67111019132471" lon="3.1128193837674054"><ele>439.0</ele><time>2026-05-02T09:37:20.999Z</time></trkpt><trkpt lat="45.67107120229989" lon="3.112703493751093"><ele>439.0</ele><time>2026-05-02T09:37:22.999Z</time></trkpt><trkpt lat="45.67097356019468" lon="3.112732265931465"><ele>439.0</ele><time>2026-05-02T09:37:52.999Z</time></trkpt><trkpt lat="45.67087225840767" lon="3.112810967247229"><ele>439.0</ele><time>2026-05-02T09:37:54.999Z</time></trkpt><trkpt lat="45.67076163116905" lon="3.1128499816538033"><ele>439.2</ele><time>2026-05-02T09:37:56.999Z</time></trkpt><trkpt lat="45.67067732606824" lon="3.1129030499251877"><ele>439.4</ele><time>2026-05-02T09:37:58.999Z</time></trkpt><trkpt lat="45.6706169425198" lon="3.112950228085616"><ele>439.6</ele><time>2026-05-02T09:38:01.998Z</time></trkpt><trkpt lat="45.67058575030133" lon="3.1128026744429427"><ele>439.8</ele><time>2026-05-02T09:38:05.998Z</time></trkpt><trkpt lat="45.6705577456225" lon="3.1126348980207013"><ele>440.0</ele><time>2026-05-02T09:38:07.998Z</time></trkpt><trkpt lat="45.670553651090806" lon="3.112542753952307"><ele>439.99999999999994</ele><time>2026-05-02T09:38:08.998Z</time></trkpt><trkpt lat="45.67055043640702" lon="3.1124419576785582"><ele>440.0</ele><time>2026-05-02T09:38:09.998Z</time></trkpt><trkpt lat="45.67054338935319" lon="3.1123237108506627"><ele>440.0</ele><time>2026-05-02T09:38:10.998Z</time></trkpt><trkpt lat="45.67053245283758" lon="3.1122018616396465"><ele>440.0</ele><time>2026-05-02T09:38:11.998Z</time></trkpt><trkpt lat="45.670516838963735" lon="3.1120687162102305"><ele>439.99999999999994</ele><time>2026-05-02T09:38:12.998Z</time></trkpt><trkpt lat="45.670503237371" lon="3.111934412467865"><ele>440.0</ele><time>2026-05-02T09:38:13.998Z</time></trkpt><trkpt lat="45.670473293489195" lon="3.1117942703009134"><ele>440.8333333333333</ele><time>2026-05-02T09:38:14.998Z</time></trkpt><trkpt lat="45.67042403506823" lon="3.1116802082345325"><ele>441.66666666666663</ele><time>2026-05-02T09:38:15.998Z</time></trkpt><trkpt lat="45.670381014174765" lon="3.111564612079392"><ele>442.5</ele><time>2026-05-02T09:38:16.998Z</time></trkpt><trkpt lat="45.670342459654044" lon="3.1114650338171357"><ele>443.33333333333337</ele><time>2026-05-02T09:38:17.998Z</time></trkpt><trkpt lat="45.670300518759056" lon="3.1113528647065216"><ele>444.1666666666667</ele><time>2026-05-02T09:38:18.998Z</time></trkpt><trkpt lat="45.67025678219914" lon="3.111240929175752"><ele>445.0</ele><time>2026-05-02T09:38:19.999Z</time></trkpt><trkpt lat="45.670214383866146" lon="3.1111305970866345"><ele>446.0</ele><time>2026-05-02T09:38:20.999Z</time></trkpt><trkpt lat="45.670163053660204" lon="3.11101863238598"><ele>447.0</ele><time>2026-05-02T09:38:21.999Z</time></trkpt><trkpt lat="45.67011575643607" lon="3.110900412038405"><ele>448.0</ele><time>2026-05-02T09:38:22.999Z</time></trkpt><trkpt lat="45.67006040492448" lon="3.1107722181754713"><ele>449.0</ele><time>2026-05-02T09:38:23.999Z</time></trkpt><trkpt lat="45.67000847297993" lon="3.1106518417975693"><ele>450.0</ele><time>2026-05-02T09:38:24.999Z</time></trkpt><trkpt lat="45.66995455473591" lon="3.1105299106796047"><ele>450.4</ele><time>2026-05-02T09:38:25.999Z</time></trkpt><trkpt lat="45.66990193190964" lon="3.110411248126775"><ele>450.8</ele><time>2026-05-02T09:38:26.999Z</time></trkpt><trkpt lat="45.66984843089073" lon="3.1102886795601017"><ele>451.20000000000005</ele><time>2026-05-02T09:38:27.999Z</time></trkpt><trkpt lat="45.669797304375386" lon="3.110166994028917"><ele>451.6</ele><time>2026-05-02T09:38:28.999Z</time></trkpt><trkpt lat="45.66975144183847" lon="3.110046438782696"><ele>452.0</ele><time>2026-05-02T09:38:29.999Z</time></trkpt><trkpt lat="45.66971010115892" lon="3.1099231580619424"><ele>452.3333333333333</ele><time>2026-05-02T09:38:30.999Z</time></trkpt><trkpt lat="45.66967463776477" lon="3.1098027339170637"><ele>452.66666666666663</ele><time>2026-05-02T09:38:31.999Z</time></trkpt><trkpt lat="45.66963935682156" lon="3.1096743798136033"><ele>453.0</ele><time>2026-05-02T09:38:32.999Z</time></trkpt><trkpt lat="45.66962123328482" lon="3.1095482183296532"><ele>453.33333333333337</ele><time>2026-05-02T09:38:33.999Z</time></trkpt><trkpt lat="45.66957748809628" lon="3.10944950213289"><ele>453.6666666666667</ele><time>2026-05-02T09:38:34.999Z</time></trkpt><trkpt lat="45.669555593018714" lon="3.109358560500286"><ele>454.0</ele><time>2026-05-02T09:38:35.999Z</time></trkpt><trkpt lat="45.66951284335111" lon="3.109200449995166"><ele>454.25</ele><time>2026-05-02T09:38:37.999Z</time></trkpt><trkpt lat="45.66948191830977" lon="3.1090421965916972"><ele>454.5</ele><time>2026-05-02T09:38:39.999Z</time></trkpt><trkpt lat="45.66941757841713" lon="3.108908534320402"><ele>454.75</ele><time>2026-05-02T09:38:41.999Z</time></trkpt><trkpt lat="45.669403193130684" lon="3.1087571753786145"><ele>455.0</ele><time>2026-05-02T09:38:43.999Z</time></trkpt><trkpt lat="45.66941457190182" lon="3.1085864600786692"><ele>455.16666666666663</ele><time>2026-05-02T09:38:45.998Z</time></trkpt><trkpt lat="45.66941508830143" lon="3.108490628198471"><ele>455.3333333333333</ele><time>2026-05-02T09:38:46.998Z</time></trkpt><trkpt lat="45.669413934759824" lon="3.1083842861168853"><ele>455.5</ele><time>2026-05-02T09:38:47.998Z</time></trkpt><trkpt lat="45.66941541874605" lon="3.1082773149416463"><ele>455.66666666666663</ele><time>2026-05-02T09:38:48.998Z</time></trkpt><trkpt lat="45.66941499874014" lon="3.1081592083554677"><ele>455.8333333333333</ele><time>2026-05-02T09:38:49.998Z</time></trkpt><trkpt lat="45.6694161249663" lon="3.108045907582054"><ele>456.0</ele><time>2026-05-02T09:38:50.998Z</time></trkpt><trkpt lat="45.669415947310924" lon="3.1079288517419115"><ele>456.5</ele><time>2026-05-02T09:38:51.998Z</time></trkpt><trkpt lat="45.66941411416175" lon="3.1078078244825713"><ele>457.0</ele><time>2026-05-02T09:38:52.998Z</time></trkpt><trkpt lat="45.66941037446105" lon="3.1076846547071195"><ele>457.5</ele><time>2026-05-02T09:38:53.998Z</time></trkpt><trkpt lat="45.66940137057492" lon="3.1075561420731574"><ele>458.0</ele><time>2026-05-02T09:38:54.998Z</time></trkpt><trkpt lat="45.66940015500311" lon="3.107454330981612"><ele>458.5</ele><time>2026-05-02T09:38:55.998Z</time></trkpt><trkpt lat="45.669406650952524" lon="3.1073348252746364"><ele>459.0</ele><time>2026-05-02T09:38:57.998Z</time></trkpt><trkpt lat="45.669421149704604" lon="3.1072145029730107"><ele>459.0</ele><time>2026-05-02T09:39:02.998Z</time></trkpt><trkpt lat="45.66943545081692" lon="3.1070852719986513"><ele>459.0</ele><time>2026-05-02T09:39:04.998Z</time></trkpt><trkpt lat="45.66944855457419" lon="3.1069894225457637"><ele>459.0</ele><time>2026-05-02T09:39:06.998Z</time></trkpt><trkpt lat="45.66938709118271" lon="3.1069224573647323"><ele>459.0</ele><time>2026-05-02T09:39:07.998Z</time></trkpt><trkpt lat="45.66928222721159" lon="3.106817034699947"><ele>459.0</ele><time>2026-05-02T09:39:09.998Z</time></trkpt><trkpt lat="45.669232762321435" lon="3.1067296898014147"><ele>459.0</ele><time>2026-05-02T09:39:10.998Z</time></trkpt><trkpt lat="45.66918051580518" lon="3.106663974841318"><ele>459.0</ele><time>2026-05-02T09:39:11.998Z</time></trkpt><trkpt lat="45.6691271112938" lon="3.106596803377132"><ele>459.0</ele><time>2026-05-02T09:39:12.998Z</time></trkpt><trkpt lat="45.66904687096811" lon="3.1064958781558136"><ele>459.0</ele><time>2026-05-02T09:39:14.998Z</time></trkpt><trkpt lat="45.6689856592254" lon="3.106421359058792"><ele>459.0</ele><time>2026-05-02T09:39:16.998Z</time></trkpt><trkpt lat="45.66891274568087" lon="3.1063348615711575"><ele>459.0</ele><time>2026-05-02T09:39:19.998Z</time></trkpt><trkpt lat="45.66884512611549" lon="3.106255239350901"><ele>459.0</ele><time>2026-05-02T09:39:21.998Z</time></trkpt><trkpt lat="45.668764504450614" lon="3.1061579200463885"><ele>459.2</ele><time>2026-05-02T09:39:23.998Z</time></trkpt><trkpt lat="45.66868556164721" lon="3.106038976793678"><ele>459.4</ele><time>2026-05-02T09:39:25.998Z</time></trkpt><trkpt lat="45.66864807741708" lon="3.1058682117077585"><ele>459.6</ele><time>2026-05-02T09:39:27.998Z</time></trkpt><trkpt lat="45.66862203875106" lon="3.1057582708430376"><ele>459.8</ele><time>2026-05-02T09:39:28.998Z</time></trkpt><trkpt lat="45.668602762871394" lon="3.1056292101822485"><ele>460.0</ele><time>2026-05-02T09:39:29.997Z</time></trkpt><trkpt lat="45.668603112916266" lon="3.105496144428743"><ele>460.4</ele><time>2026-05-02T09:39:30.997Z</time></trkpt><trkpt lat="45.66858683988723" lon="3.105374724676457"><ele>460.8</ele><time>2026-05-02T09:39:31.997Z</time></trkpt><trkpt lat="45.66854714853838" lon="3.105263286953614"><ele>461.20000000000005</ele><time>2026-05-02T09:39:32.997Z</time></trkpt><trkpt lat="45.66851337781172" lon="3.1051360346855414"><ele>461.6</ele><time>2026-05-02T09:39:33.997Z</time></trkpt><trkpt lat="45.668480649611965" lon="3.1050067757459012"><ele>462.0</ele><time>2026-05-02T09:39:34.997Z</time></trkpt><trkpt lat="45.66840067294163" lon="3.104889639580962"><ele>462.40000000000003</ele><time>2026-05-02T09:39:35.997Z</time></trkpt><trkpt lat="45.668326448852476" lon="3.104781567401561"><ele>462.80000000000007</ele><time>2026-05-02T09:39:36.997Z</time></trkpt><trkpt lat="45.6682591720091" lon="3.104659596896309"><ele>463.2</ele><time>2026-05-02T09:39:37.997Z</time></trkpt><trkpt lat="45.66817362407968" lon="3.1045683460939677"><ele>463.6</ele><time>2026-05-02T09:39:38.997Z</time></trkpt><trkpt lat="45.66809340698069" lon="3.1044707987881375"><ele>464.0</ele><time>2026-05-02T09:39:39.997Z</time></trkpt><trkpt lat="45.66801665786548" lon="3.1043752819884056"><ele>464.0</ele><time>2026-05-02T09:39:40.997Z</time></trkpt><trkpt lat="45.667941154054624" lon="3.1042813150744717"><ele>464.0</ele><time>2026-05-02T09:39:41.997Z</time></trkpt><trkpt lat="45.66785888665506" lon="3.104189221903541"><ele>464.0</ele><time>2026-05-02T09:39:42.997Z</time></trkpt><trkpt lat="45.66777072549256" lon="3.104108055273957"><ele>464.0</ele><time>2026-05-02T09:39:43.997Z</time></trkpt><trkpt lat="45.66767892239793" lon="3.104041600300004"><ele>464.0</ele><time>2026-05-02T09:39:44.997Z</time></trkpt><trkpt lat="45.667565448606965" lon="3.104040043366493"><ele>465.0</ele><time>2026-05-02T09:39:45.997Z</time></trkpt><trkpt lat="45.66746310451443" lon="3.1040152269419385"><ele>466.0</ele><time>2026-05-02T09:39:46.997Z</time></trkpt><trkpt lat="45.66735814167773" lon="3.104005231858125"><ele>467.0</ele><time>2026-05-02T09:39:47.997Z</time></trkpt><trkpt lat="45.667251534607374" lon="3.103987109535695"><ele>468.0</ele><time>2026-05-02T09:39:48.997Z</time></trkpt><trkpt lat="45.66715923904733" lon="3.1039513894829436"><ele>469.0</ele><time>2026-05-02T09:39:49.997Z</time></trkpt><trkpt lat="45.667062582937454" lon="3.1039002896192693"><ele>469.0</ele><time>2026-05-02T09:39:50.997Z</time></trkpt><trkpt lat="45.66695992495497" lon="3.1038479746192853"><ele>469.0</ele><time>2026-05-02T09:39:51.997Z</time></trkpt><trkpt lat="45.666858116119556" lon="3.103796366435779"><ele>469.0</ele><time>2026-05-02T09:39:52.997Z</time></trkpt><trkpt lat="45.66675710640854" lon="3.103745576218502"><ele>469.0</ele><time>2026-05-02T09:39:53.997Z</time></trkpt><trkpt lat="45.66666050825443" lon="3.103678235627425"><ele>469.0</ele><time>2026-05-02T09:39:54.997Z</time></trkpt><trkpt lat="45.666570927776924" lon="3.1035980211157566"><ele>469.0</ele><time>2026-05-02T09:39:55.997Z</time></trkpt><trkpt lat="45.6665053510274" lon="3.103489862154505"><ele>469.0</ele><time>2026-05-02T09:39:56.997Z</time></trkpt><trkpt lat="45.66642890728656" lon="3.1033611728966437"><ele>469.0</ele><time>2026-05-02T09:39:57.997Z</time></trkpt><trkpt lat="45.66634898141682" lon="3.1032221392510704"><ele>469.0</ele><time>2026-05-02T09:39:58.997Z</time></trkpt><trkpt lat="45.66626731309405" lon="3.1030775245803657"><ele>469.75</ele><time>2026-05-02T09:39:59.997Z</time></trkpt><trkpt lat="45.66618654957389" lon="3.102932005859493"><ele>470.5</ele><time>2026-05-02T09:40:00.997Z</time></trkpt><trkpt lat="45.66610475220897" lon="3.1027846229560696"><ele>471.25</ele><time>2026-05-02T09:40:01.997Z</time></trkpt><trkpt lat="45.66603084859361" lon="3.1026400277261112"><ele>472.0</ele><time>2026-05-02T09:40:02.997Z</time></trkpt><trkpt lat="45.66595848458492" lon="3.1024973630851083"><ele>473.0</ele><time>2026-05-02T09:40:03.997Z</time></trkpt><trkpt lat="45.66588489038744" lon="3.1023561107351907"><ele>474.0</ele><time>2026-05-02T09:40:04.997Z</time></trkpt><trkpt lat="45.66580864619952" lon="3.102215201542748"><ele>475.0</ele><time>2026-05-02T09:40:05.997Z</time></trkpt><trkpt lat="45.66573080630028" lon="3.102077254663944"><ele>476.0</ele><time>2026-05-02T09:40:06.997Z</time></trkpt><trkpt lat="45.66565316574173" lon="3.1019404503939425"><ele>476.0</ele><time>2026-05-02T09:40:07.997Z</time></trkpt><trkpt lat="45.66557712420519" lon="3.1018093410231833"><ele>476.0</ele><time>2026-05-02T09:40:08.997Z</time></trkpt><trkpt lat="45.66550056749094" lon="3.1016773433987743"><ele>476.0</ele><time>2026-05-02T09:40:09.997Z</time></trkpt><trkpt lat="45.665425630236776" lon="3.101548138014605"><ele>476.0</ele><time>2026-05-02T09:40:10.997Z</time></trkpt><trkpt lat="45.66534905202855" lon="3.1014161033282743"><ele>476.75</ele><time>2026-05-02T09:40:11.997Z</time></trkpt><trkpt lat="45.66527372293551" lon="3.1012814439455556"><ele>477.5</ele><time>2026-05-02T09:40:12.997Z</time></trkpt><trkpt lat="45.66519872960323" lon="3.101146880187429"><ele>478.25</ele><time>2026-05-02T09:40:13.998Z</time></trkpt><trkpt lat="45.665122675629405" lon="3.1010099781241363"><ele>479.0</ele><time>2026-05-02T09:40:14.998Z</time></trkpt><trkpt lat="45.665045481390926" lon="3.1008707875326977"><ele>479.0</ele><time>2026-05-02T09:40:15.998Z</time></trkpt><trkpt lat="45.66496649307951" lon="3.100728009501699"><ele>479.0</ele><time>2026-05-02T09:40:16.998Z</time></trkpt><trkpt lat="45.664890406765274" lon="3.100588797601328"><ele>479.0</ele><time>2026-05-02T09:40:17.998Z</time></trkpt><trkpt lat="45.66481324071525" lon="3.1004405760217577"><ele>479.0</ele><time>2026-05-02T09:40:18.998Z</time></trkpt><trkpt lat="45.66473757739347" lon="3.1002944497609963"><ele>479.0</ele><time>2026-05-02T09:40:19.998Z</time></trkpt><trkpt lat="45.66466040947006" lon="3.10014855695204"><ele>479.0</ele><time>2026-05-02T09:40:20.998Z</time></trkpt><trkpt lat="45.66458131871464" lon="3.100006058367219"><ele>479.0</ele><time>2026-05-02T09:40:21.998Z</time></trkpt><trkpt lat="45.66448987663661" lon="3.0998795202622635"><ele>479.0</ele><time>2026-05-02T09:40:22.998Z</time></trkpt><trkpt lat="45.66440967209809" lon="3.099739367087166"><ele>479.75</ele><time>2026-05-02T09:40:23.998Z</time></trkpt><trkpt lat="45.66433678661484" lon="3.0995758611428443"><ele>480.5</ele><time>2026-05-02T09:40:24.998Z</time></trkpt><trkpt lat="45.66423870154105" lon="3.099442100518111"><ele>481.25</ele><time>2026-05-02T09:40:25.998Z</time></trkpt><trkpt lat="45.66415611373772" lon="3.099292962486401"><ele>482.0</ele><time>2026-05-02T09:40:26.998Z</time></trkpt><trkpt lat="45.66407201919428" lon="3.09914044958933"><ele>482.5</ele><time>2026-05-02T09:40:27.998Z</time></trkpt><trkpt lat="45.66398641466204" lon="3.098990550426867"><ele>483.0</ele><time>2026-05-02T09:40:28.999Z</time></trkpt><trkpt lat="45.663904252282116" lon="3.0988396373334695"><ele>483.5</ele><time>2026-05-02T09:40:29.999Z</time></trkpt><trkpt lat="45.663815598315786" lon="3.098685731891719"><ele>484.0</ele><time>2026-05-02T09:40:30.999Z</time></trkpt><trkpt lat="45.66373277554924" lon="3.0985392996151986"><ele>484.0</ele><time>2026-05-02T09:40:31.999Z</time></trkpt><trkpt lat="45.66366941013288" lon="3.0983948017398273"><ele>484.0</ele><time>2026-05-02T09:40:32.999Z</time></trkpt><trkpt lat="45.663604196235724" lon="3.0982786147102552"><ele>484.0</ele><time>2026-05-02T09:40:33.999Z</time></trkpt><trkpt lat="45.66354412665875" lon="3.098171592963095"><ele>484.0</ele><time>2026-05-02T09:40:34.999Z</time></trkpt><trkpt lat="45.6634696325968" lon="3.098066804632568"><ele>484.0</ele><time>2026-05-02T09:40:35.999Z</time></trkpt><trkpt lat="45.663413475090124" lon="3.097963768774585"><ele>484.83333333333337</ele><time>2026-05-02T09:40:36.999Z</time></trkpt><trkpt lat="45.66337834020525" lon="3.0978578150977927"><ele>485.6666666666667</ele><time>2026-05-02T09:40:37.999Z</time></trkpt><trkpt lat="45.66333315978002" lon="3.097781559960489"><ele>486.5</ele><time>2026-05-02T09:40:38.999Z</time></trkpt><trkpt lat="45.663312434193934" lon="3.0976923998659145"><ele>487.33333333333337</ele><time>2026-05-02T09:40:39.999Z</time></trkpt><trkpt lat="45.66325420682737" lon="3.0975634046846707"><ele>488.1666666666667</ele><time>2026-05-02T09:40:41.999Z</time></trkpt><trkpt lat="45.66317755862392" lon="3.0975190166660465"><ele>489.0</ele><time>2026-05-02T09:40:42.999Z</time></trkpt><trkpt lat="45.66312786038421" lon="3.097422597974616"><ele>489.6</ele><time>2026-05-02T09:40:43.999Z</time></trkpt><trkpt lat="45.66307132633179" lon="3.0973171397838004"><ele>490.2</ele><time>2026-05-02T09:40:44.999Z</time></trkpt><trkpt lat="45.66301747439591" lon="3.097211522052951"><ele>490.80000000000007</ele><time>2026-05-02T09:40:45.999Z</time></trkpt><trkpt lat="45.66294761332141" lon="3.097097557106699"><ele>491.40000000000003</ele><time>2026-05-02T09:40:47Z</time></trkpt><trkpt lat="45.66289952132668" lon="3.096974863893517"><ele>492.0</ele><time>2026-05-02T09:40:48Z</time></trkpt><trkpt lat="45.66286080837092" lon="3.0968219488647004"><ele>492.0</ele><time>2026-05-02T09:40:49Z</time></trkpt><trkpt lat="45.66283173803624" lon="3.0966466600115172"><ele>492.0</ele><time>2026-05-02T09:40:50Z</time></trkpt><trkpt lat="45.66282992007188" lon="3.0964331443306468"><ele>492.0</ele><time>2026-05-02T09:40:51Z</time></trkpt><trkpt lat="45.66279650755416" lon="3.096197414227298"><ele>492.0</ele><time>2026-05-02T09:40:52Z</time></trkpt><trkpt lat="45.66277617265325" lon="3.095972951609817"><ele>493.5</ele><time>2026-05-02T09:40:53Z</time></trkpt><trkpt lat="45.66274654178851" lon="3.095786206082137"><ele>495.0</ele><time>2026-05-02T09:40:54Z</time></trkpt><trkpt lat="45.66271062285691" lon="3.0956182459781862"><ele>496.5</ele><time>2026-05-02T09:40:55Z</time></trkpt><trkpt lat="45.662661650273186" lon="3.0954508795638658"><ele>498.0</ele><time>2026-05-02T09:40:56Z</time></trkpt><trkpt lat="45.66260054172155" lon="3.095284586817335"><ele>499.0</ele><time>2026-05-02T09:40:57Z</time></trkpt><trkpt lat="45.66254009561398" lon="3.095107395313547"><ele>500.0</ele><time>2026-05-02T09:40:58Z</time></trkpt><trkpt lat="45.66247552570982" lon="3.0949349494298137"><ele>501.0</ele><time>2026-05-02T09:40:59Z</time></trkpt><trkpt lat="45.662409529469386" lon="3.0947562453223902"><ele>502.0</ele><time>2026-05-02T09:41:00Z</time></trkpt><trkpt lat="45.66234428153783" lon="3.0945732785100897"><ele>502.0</ele><time>2026-05-02T09:41:01Z</time></trkpt><trkpt lat="45.66221903231555" lon="3.094205970420535"><ele>502.0</ele><time>2026-05-02T09:41:03Z</time></trkpt><trkpt lat="45.66215878632351" lon="3.0940465842228093"><ele>502.0</ele><time>2026-05-02T09:41:04Z</time></trkpt><trkpt lat="45.662100418433226" lon="3.0939038583661778"><ele>501.75</ele><time>2026-05-02T09:41:05Z</time></trkpt><trkpt lat="45.6620229033456" lon="3.0937782966770295"><ele>501.5</ele><time>2026-05-02T09:41:06Z</time></trkpt><trkpt lat="45.661918523128655" lon="3.0936750517064957"><ele>501.25</ele><time>2026-05-02T09:41:07Z</time></trkpt><trkpt lat="45.66179400346851" lon="3.0936011087093314"><ele>501.0</ele><time>2026-05-02T09:41:08Z</time></trkpt><trkpt lat="45.66166446459722" lon="3.0935456242719903"><ele>502.25</ele><time>2026-05-02T09:41:09Z</time></trkpt><trkpt lat="45.66152960134337" lon="3.093488639969119"><ele>503.5</ele><time>2026-05-02T09:41:10Z</time></trkpt><trkpt lat="45.66140237850232" lon="3.0934081280884356"><ele>504.75</ele><time>2026-05-02T09:41:11Z</time></trkpt><trkpt lat="45.6612849407108" lon="3.0933492658393775"><ele>506.0</ele><time>2026-05-02T09:41:12Z</time></trkpt><trkpt lat="45.66117575409501" lon="3.0932945392519895"><ele>505.5</ele><time>2026-05-02T09:41:13Z</time></trkpt><trkpt lat="45.66106585060691" lon="3.093239453357464"><ele>505.0</ele><time>2026-05-02T09:41:14Z</time></trkpt><trkpt lat="45.66095229344726" lon="3.0931821014908385"><ele>504.5</ele><time>2026-05-02T09:41:15Z</time></trkpt><trkpt lat="45.66084123687582" lon="3.093124081169369"><ele>504.0</ele><time>2026-05-02T09:41:16Z</time></trkpt><trkpt lat="45.660729339690306" lon="3.093063022957155"><ele>504.0</ele><time>2026-05-02T09:41:17Z</time></trkpt><trkpt lat="45.66061765296744" lon="3.092998752905544"><ele>504.0</ele><time>2026-05-02T09:41:18Z</time></trkpt><trkpt lat="45.66050394268685" lon="3.092931509994158"><ele>504.0</ele><time>2026-05-02T09:41:19Z</time></trkpt><trkpt lat="45.66038747448246" lon="3.092858468022424"><ele>504.0</ele><time>2026-05-02T09:41:20Z</time></trkpt><trkpt lat="45.660286104299125" lon="3.092779047619832"><ele>504.6</ele><time>2026-05-02T09:41:21Z</time></trkpt><trkpt lat="45.66019581934158" lon="3.0926847013804237"><ele>505.2</ele><time>2026-05-02T09:41:22Z</time></trkpt><trkpt lat="45.660111272993625" lon="3.0925874928473642"><ele>505.80000000000007</ele><time>2026-05-02T09:41:23Z</time></trkpt><trkpt lat="45.660030937699325" lon="3.0924911207238983"><ele>506.40000000000003</ele><time>2026-05-02T09:41:24Z</time></trkpt><trkpt lat="45.65995804906838" lon="3.092396423951935"><ele>507.0</ele><time>2026-05-02T09:41:25Z</time></trkpt><trkpt lat="45.65989791069194" lon="3.092299875089649"><ele>507.0</ele><time>2026-05-02T09:41:26Z</time></trkpt><trkpt lat="45.659843785335504" lon="3.092207129268928"><ele>507.0</ele><time>2026-05-02T09:41:27Z</time></trkpt><trkpt lat="45.65982378975135" lon="3.092102129507255"><ele>507.0</ele><time>2026-05-02T09:41:28Z</time></trkpt><trkpt lat="45.659805719905286" lon="3.0919745825343363"><ele>507.0</ele><time>2026-05-02T09:41:29Z</time></trkpt><trkpt lat="45.65979039112007" lon="3.09184294032439"><ele>507.0</ele><time>2026-05-02T09:41:30Z</time></trkpt><trkpt lat="45.659769382430134" lon="3.0917019888064083"><ele>507.0</ele><time>2026-05-02T09:41:31Z</time></trkpt><trkpt lat="45.65974673593726" lon="3.0915611802236738"><ele>507.1666666666667</ele><time>2026-05-02T09:41:32Z</time></trkpt><trkpt lat="45.65971767525314" lon="3.091428798132581"><ele>507.33333333333337</ele><time>2026-05-02T09:41:33Z</time></trkpt><trkpt lat="45.65966211396104" lon="3.0913117128122605"><ele>507.5</ele><time>2026-05-02T09:41:34Z</time></trkpt><trkpt lat="45.65962015425321" lon="3.0912061069155734"><ele>507.6666666666667</ele><time>2026-05-02T09:41:35Z</time></trkpt><trkpt lat="45.659563460075475" lon="3.0911227512825032"><ele>507.83333333333337</ele><time>2026-05-02T09:41:36Z</time></trkpt><trkpt lat="45.659491177883744" lon="3.091052499609813"><ele>508.0</ele><time>2026-05-02T09:41:37Z</time></trkpt><trkpt lat="45.6594324692559" lon="3.0909576628137607"><ele>508.33333333333337</ele><time>2026-05-02T09:41:38Z</time></trkpt><trkpt lat="45.65935134353811" lon="3.0909020365988544"><ele>508.6666666666667</ele><time>2026-05-02T09:41:39Z</time></trkpt><trkpt lat="45.65928016072393" lon="3.090853960353958"><ele>509.0</ele><time>2026-05-02T09:41:40Z</time></trkpt><trkpt lat="45.65922135301911" lon="3.090816418316091"><ele>509.33333333333337</ele><time>2026-05-02T09:41:41Z</time></trkpt><trkpt lat="45.65915658072323" lon="3.0907741724974893"><ele>509.6666666666667</ele><time>2026-05-02T09:41:42Z</time></trkpt><trkpt lat="45.65908013901679" lon="3.0907219976106672"><ele>510.0</ele><time>2026-05-02T09:41:43Z</time></trkpt><trkpt lat="45.659000309148965" lon="3.090667510138613"><ele>510.0</ele><time>2026-05-02T09:41:44Z</time></trkpt><trkpt lat="45.65892255120517" lon="3.090614436860946"><ele>510.0</ele><time>2026-05-02T09:41:44.999Z</time></trkpt><trkpt lat="45.658837121465375" lon="3.0905553508491588"><ele>510.0</ele><time>2026-05-02T09:41:45.999Z</time></trkpt><trkpt lat="45.65875036102327" lon="3.090494083326886"><ele>510.0</ele><time>2026-05-02T09:41:46.999Z</time></trkpt><trkpt lat="45.658652031207204" lon="3.0904246458824196"><ele>510.0</ele><time>2026-05-02T09:41:47.999Z</time></trkpt><trkpt lat="45.65855837679832" lon="3.0903585100592696"><ele>511.0</ele><time>2026-05-02T09:41:48.999Z</time></trkpt><trkpt lat="45.658464088509874" lon="3.0902919266143"><ele>512.0</ele><time>2026-05-02T09:41:49.999Z</time></trkpt><trkpt lat="45.65836526304873" lon="3.0902230616874657"><ele>513.0</ele><time>2026-05-02T09:41:50.999Z</time></trkpt><trkpt lat="45.65826589128771" lon="3.090154134535531"><ele>514.0</ele><time>2026-05-02T09:41:51.999Z</time></trkpt><trkpt lat="45.658165327876524" lon="3.0900843808141585"><ele>515.0</ele><time>2026-05-02T09:41:52.999Z</time></trkpt><trkpt lat="45.6580676887837" lon="3.090016655493981"><ele>515.0</ele><time>2026-05-02T09:41:53.999Z</time></trkpt><trkpt lat="45.65797134288773" lon="3.0899498271703454"><ele>515.0</ele><time>2026-05-02T09:41:54.999Z</time></trkpt><trkpt lat="45.65787553782834" lon="3.089883275216496"><ele>515.0</ele><time>2026-05-02T09:41:55.999Z</time></trkpt><trkpt lat="45.65778276161637" lon="3.0898120295693166"><ele>515.0</ele><time>2026-05-02T09:41:56.999Z</time></trkpt><trkpt lat="45.65769277880935" lon="3.0897383700463306"><ele>515.0</ele><time>2026-05-02T09:41:57.999Z</time></trkpt><trkpt lat="45.65761437504532" lon="3.0896418901393834"><ele>515.6</ele><time>2026-05-02T09:41:58.999Z</time></trkpt><trkpt lat="45.65754007432162" lon="3.0895461116822243"><ele>516.2</ele><time>2026-05-02T09:41:59.999Z</time></trkpt><trkpt lat="45.657462916136296" lon="3.0894395762361397"><ele>516.8</ele><time>2026-05-02T09:42:00.999Z</time></trkpt><trkpt lat="45.657382267827536" lon="3.0893294806138796"><ele>517.4</ele><time>2026-05-02T09:42:01.999Z</time></trkpt><trkpt lat="45.65730482484301" lon="3.0892257567089225"><ele>518.0</ele><time>2026-05-02T09:42:02.999Z</time></trkpt><trkpt lat="45.65722665496829" lon="3.0891210592324225"><ele>518.6</ele><time>2026-05-02T09:42:03.999Z</time></trkpt><trkpt lat="45.65715043102471" lon="3.0890201154202734"><ele>519.1999999999999</ele><time>2026-05-02T09:42:04.999Z</time></trkpt><trkpt lat="45.65707384544098" lon="3.0889218100642326"><ele>519.8</ele><time>2026-05-02T09:42:05.999Z</time></trkpt><trkpt lat="45.65699735241409" lon="3.088827262813674"><ele>520.4</ele><time>2026-05-02T09:42:06.999Z</time></trkpt><trkpt lat="45.65693551603349" lon="3.088725478374021"><ele>521.0</ele><time>2026-05-02T09:42:07.999Z</time></trkpt><trkpt lat="45.65688514802991" lon="3.0886236261756084"><ele>521.0</ele><time>2026-05-02T09:42:08.999Z</time></trkpt><trkpt lat="45.656854955713946" lon="3.0885273437214344"><ele>521.0</ele><time>2026-05-02T09:42:09.999Z</time></trkpt><trkpt lat="45.65683418275262" lon="3.0884217927352555"><ele>521.0</ele><time>2026-05-02T09:42:10.999Z</time></trkpt><trkpt lat="45.65680911719282" lon="3.088305093391265"><ele>521.0</ele><time>2026-05-02T09:42:11.999Z</time></trkpt><trkpt lat="45.656832750645926" lon="3.0881573465789947"><ele>521.0</ele><time>2026-05-02T09:42:12.999Z</time></trkpt><trkpt lat="45.6568490725116" lon="3.088013882597004"><ele>521.0</ele><time>2026-05-02T09:42:13.999Z</time></trkpt><trkpt lat="45.65687609927136" lon="3.0878709796309045"><ele>521.0</ele><time>2026-05-02T09:42:14.999Z</time></trkpt><trkpt lat="45.656900742775676" lon="3.0877380798742413"><ele>521.0</ele><time>2026-05-02T09:42:15.999Z</time></trkpt><trkpt lat="45.6569223231746" lon="3.0876160897906706"><ele>521.0</ele><time>2026-05-02T09:42:16.999Z</time></trkpt><trkpt lat="45.65694430206406" lon="3.0874975154139483"><ele>521.0</ele><time>2026-05-02T09:42:17.999Z</time></trkpt><trkpt lat="45.65696701391044" lon="3.0873947008141407"><ele>521.0</ele><time>2026-05-02T09:42:18.999Z</time></trkpt><trkpt lat="45.65699955992989" lon="3.0873032578137685"><ele>521.0</ele><time>2026-05-02T09:42:19.999Z</time></trkpt><trkpt lat="45.65703274632531" lon="3.0872061885751374"><ele>521.0</ele><time>2026-05-02T09:42:20.999Z</time></trkpt><trkpt lat="45.657105052870676" lon="3.087137550633404"><ele>521.0</ele><time>2026-05-02T09:42:21.999Z</time></trkpt><trkpt lat="45.65718416450171" lon="3.087079437437311"><ele>521.0</ele><time>2026-05-02T09:42:22.999Z</time></trkpt><trkpt lat="45.65728187705854" lon="3.0870260842417854"><ele>521.0</ele><time>2026-05-02T09:42:23.999Z</time></trkpt><trkpt lat="45.657376562110336" lon="3.0869837171803356"><ele>521.0</ele><time>2026-05-02T09:42:24.999Z</time></trkpt><trkpt lat="45.65745529431805" lon="3.0869390194057282"><ele>521.0</ele><time>2026-05-02T09:42:25.999Z</time></trkpt><trkpt lat="45.65752406758511" lon="3.0868900102137196"><ele>521.0</ele><time>2026-05-02T09:42:26.999Z</time></trkpt><trkpt lat="45.65757757329213" lon="3.086836858558245"><ele>521.0</ele><time>2026-05-02T09:42:27.999Z</time></trkpt><trkpt lat="45.657617578619146" lon="3.0866646943049205"><ele>521.0</ele><time>2026-05-02T09:42:29.999Z</time></trkpt><trkpt lat="45.65760465401659" lon="3.0865514562303153"><ele>521.0</ele><time>2026-05-02T09:42:30.999Z</time></trkpt><trkpt lat="45.65758692099256" lon="3.0864349835439913"><ele>521.0</ele><time>2026-05-02T09:42:32Z</time></trkpt><trkpt lat="45.657568263703084" lon="3.0863093953468073"><ele>521.4</ele><time>2026-05-02T09:42:33Z</time></trkpt><trkpt lat="45.65755408935226" lon="3.086183341203603"><ele>521.8</ele><time>2026-05-02T09:42:34Z</time></trkpt><trkpt lat="45.65755455981908" lon="3.086045770929344"><ele>522.1999999999999</ele><time>2026-05-02T09:42:35Z</time></trkpt><trkpt lat="45.65758209470438" lon="3.085906400205204"><ele>522.6</ele><time>2026-05-02T09:42:36Z</time></trkpt><trkpt lat="45.65763995800827" lon="3.085775534561999"><ele>523.0</ele><time>2026-05-02T09:42:37Z</time></trkpt><trkpt lat="45.65770582125209" lon="3.0856722036018196"><ele>523.5</ele><time>2026-05-02T09:42:38Z</time></trkpt><trkpt lat="45.65777309833629" lon="3.085602442029596"><ele>524.0</ele><time>2026-05-02T09:42:39Z</time></trkpt><trkpt lat="45.65782475841579" lon="3.085541704446743"><ele>524.5</ele><time>2026-05-02T09:42:40Z</time></trkpt><trkpt lat="45.65787464091966" lon="3.0854677963986146"><ele>525.0</ele><time>2026-05-02T09:42:41Z</time></trkpt><trkpt lat="45.65793371680961" lon="3.0853972478746976"><ele>525.5</ele><time>2026-05-02T09:42:42Z</time></trkpt><trkpt lat="45.65801521870895" lon="3.0852948029485643"><ele>526.0</ele><time>2026-05-02T09:42:44Z</time></trkpt><trkpt lat="45.658049164281735" lon="3.0851858407312753"><ele>526.0</ele><time>2026-05-02T09:43:04Z</time></trkpt><trkpt lat="45.658062661020566" lon="3.085088996039577"><ele>526.0</ele><time>2026-05-02T09:43:07Z</time></trkpt><trkpt lat="45.65797674697313" lon="3.084972294082366"><ele>526.0</ele><time>2026-05-02T09:43:09Z</time></trkpt><trkpt lat="45.6578834864249" lon="3.0849442546539367"><ele>526.0</ele><time>2026-05-02T09:43:11Z</time></trkpt><trkpt lat="45.65776767764058" lon="3.0849145926084875"><ele>526.0</ele><time>2026-05-02T09:43:13Z</time></trkpt><trkpt lat="45.657694465115945" lon="3.0848929072885345"><ele>526.6</ele><time>2026-05-02T09:43:14Z</time></trkpt><trkpt lat="45.65761168537233" lon="3.0848816988202823"><ele>527.2</ele><time>2026-05-02T09:43:15Z</time></trkpt><trkpt lat="45.65752494252682" lon="3.084876587770821"><ele>527.8</ele><time>2026-05-02T09:43:16Z</time></trkpt><trkpt lat="45.6574358393854" lon="3.0848740389351668"><ele>528.4</ele><time>2026-05-02T09:43:17Z</time></trkpt><trkpt lat="45.65733134958028" lon="3.0848713698638663"><ele>529.0</ele><time>2026-05-02T09:43:18Z</time></trkpt><trkpt lat="45.65723084224592" lon="3.0848698593990305"><ele>529.0</ele><time>2026-05-02T09:43:19Z</time></trkpt><trkpt lat="45.65713169148812" lon="3.0848725576700935"><ele>529.0</ele><time>2026-05-02T09:43:20Z</time></trkpt><trkpt lat="45.65704399049995" lon="3.0848523729944506"><ele>529.0</ele><time>2026-05-02T09:43:21Z</time></trkpt><trkpt lat="45.6569323472963" lon="3.0848470275897983"><ele>529.0</ele><time>2026-05-02T09:43:22Z</time></trkpt><trkpt lat="45.65682565905981" lon="3.0848451833375035"><ele>529.0</ele><time>2026-05-02T09:43:23Z</time></trkpt><trkpt lat="45.65671457583395" lon="3.0848432631120737"><ele>528.8</ele><time>2026-05-02T09:43:24Z</time></trkpt><trkpt lat="45.656606142897026" lon="3.0848393471984314"><ele>528.5999999999999</ele><time>2026-05-02T09:43:25Z</time></trkpt><trkpt lat="45.656494884344966" lon="3.0848522825699356"><ele>528.4</ele><time>2026-05-02T09:43:26Z</time></trkpt><trkpt lat="45.65638490277394" lon="3.0848333832860555"><ele>528.1999999999999</ele><time>2026-05-02T09:43:27Z</time></trkpt><trkpt lat="45.656270909071225" lon="3.084829015953143"><ele>528.0</ele><time>2026-05-02T09:43:28Z</time></trkpt><trkpt lat="45.65616436585257" lon="3.0848227049992367"><ele>526.75</ele><time>2026-05-02T09:43:29Z</time></trkpt><trkpt lat="45.65604999361745" lon="3.084810195288836"><ele>525.5</ele><time>2026-05-02T09:43:30Z</time></trkpt><trkpt lat="45.6559300769865" lon="3.0847976796222856"><ele>524.25</ele><time>2026-05-02T09:43:31Z</time></trkpt><trkpt lat="45.65580712052999" lon="3.08478576724497"><ele>523.0</ele><time>2026-05-02T09:43:32Z</time></trkpt><trkpt lat="45.65568235236431" lon="3.0847729671974142"><ele>523.0</ele><time>2026-05-02T09:43:33Z</time></trkpt><trkpt lat="45.65555986599027" lon="3.084759198815769"><ele>523.0</ele><time>2026-05-02T09:43:34Z</time></trkpt><trkpt lat="45.65544668344257" lon="3.0847443182967877"><ele>523.0</ele><time>2026-05-02T09:43:35Z</time></trkpt><trkpt lat="45.65533901869539" lon="3.084733820729906"><ele>523.0</ele><time>2026-05-02T09:43:36Z</time></trkpt><trkpt lat="45.6552337487127" lon="3.0847264403055212"><ele>522.25</ele><time>2026-05-02T09:43:37Z</time></trkpt><trkpt lat="45.65513132619361" lon="3.084694818020512"><ele>521.5</ele><time>2026-05-02T09:43:38Z</time></trkpt><trkpt lat="45.65501595169462" lon="3.084703182312356"><ele>520.75</ele><time>2026-05-02T09:43:39Z</time></trkpt><trkpt lat="45.654902105982" lon="3.084739394529229"><ele>520.0</ele><time>2026-05-02T09:43:40Z</time></trkpt><trkpt lat="45.65478182656931" lon="3.084745146139351"><ele>520.0</ele><time>2026-05-02T09:43:41Z</time></trkpt><trkpt lat="45.65465704415011" lon="3.0847509260237556"><ele>520.0</ele><time>2026-05-02T09:43:42Z</time></trkpt><trkpt lat="45.654533371075985" lon="3.084708970271123"><ele>520.0</ele><time>2026-05-02T09:43:43Z</time></trkpt><trkpt lat="45.65442319413361" lon="3.0846616019485675"><ele>520.0</ele><time>2026-05-02T09:43:44Z</time></trkpt><trkpt lat="45.65431262287519" lon="3.0846066379324637"><ele>519.25</ele><time>2026-05-02T09:43:45Z</time></trkpt><trkpt lat="45.65419810257976" lon="3.084547639714483"><ele>518.5</ele><time>2026-05-02T09:43:46Z</time></trkpt><trkpt lat="45.65408104370635" lon="3.084511238099621"><ele>517.75</ele><time>2026-05-02T09:43:47Z</time></trkpt><trkpt lat="45.653970024150354" lon="3.0844655424727523"><ele>517.0</ele><time>2026-05-02T09:43:47.999Z</time></trkpt><trkpt lat="45.65385718008724" lon="3.0844346303356156"><ele>517.0</ele><time>2026-05-02T09:43:48.999Z</time></trkpt><trkpt lat="45.653736217729396" lon="3.084418402647142"><ele>517.0</ele><time>2026-05-02T09:43:49.999Z</time></trkpt><trkpt lat="45.65362209634669" lon="3.084401061892671"><ele>517.0</ele><time>2026-05-02T09:43:50.999Z</time></trkpt><trkpt lat="45.65350587461285" lon="3.0843824193504195"><ele>517.0</ele><time>2026-05-02T09:43:51.999Z</time></trkpt><trkpt lat="45.65339842915553" lon="3.0843665651215617"><ele>516.8000000000001</ele><time>2026-05-02T09:43:52.999Z</time></trkpt><trkpt lat="45.65329225598382" lon="3.084350553114392"><ele>516.6</ele><time>2026-05-02T09:43:53.999Z</time></trkpt><trkpt lat="45.653191232319344" lon="3.084336002509264"><ele>516.4000000000001</ele><time>2026-05-02T09:43:54.999Z</time></trkpt><trkpt lat="45.653093969780365" lon="3.0843216712213573"><ele>516.2</ele><time>2026-05-02T09:43:55.999Z</time></trkpt><trkpt lat="45.65300848914999" lon="3.0843134149590323"><ele>516.0</ele><time>2026-05-02T09:43:56.999Z</time></trkpt><trkpt lat="45.652926777971196" lon="3.0842989112718153"><ele>516.0</ele><time>2026-05-02T09:43:57.999Z</time></trkpt><trkpt lat="45.65284749138555" lon="3.084283846525878"><ele>516.0</ele><time>2026-05-02T09:43:58.999Z</time></trkpt><trkpt lat="45.652764452638124" lon="3.084271261661428"><ele>516.0</ele><time>2026-05-02T09:43:59.999Z</time></trkpt><trkpt lat="45.65268040882085" lon="3.084236614339128"><ele>516.0</ele><time>2026-05-02T09:44:00.999Z</time></trkpt><trkpt lat="45.65258657678138" lon="3.0842221880269762"><ele>516.0</ele><time>2026-05-02T09:44:01.999Z</time></trkpt><trkpt lat="45.65247957013071" lon="3.0842057361723887"><ele>516.25</ele><time>2026-05-02T09:44:02.999Z</time></trkpt><trkpt lat="45.6523683751184" lon="3.0842098470476342"><ele>516.5</ele><time>2026-05-02T09:44:03.999Z</time></trkpt><trkpt lat="45.65225071776685" lon="3.084192804412681"><ele>516.75</ele><time>2026-05-02T09:44:04.999Z</time></trkpt><trkpt lat="45.652124707226946" lon="3.0841752181799422"><ele>517.0</ele><time>2026-05-02T09:44:05.999Z</time></trkpt><trkpt lat="45.65199475417219" lon="3.084135035369456"><ele>516.5</ele><time>2026-05-02T09:44:06.999Z</time></trkpt><trkpt lat="45.65186039089838" lon="3.084146283120502"><ele>516.0</ele><time>2026-05-02T09:44:07.999Z</time></trkpt><trkpt lat="45.65173040991637" lon="3.084116543970902"><ele>515.5</ele><time>2026-05-02T09:44:08.999Z</time></trkpt><trkpt lat="45.65160348285965" lon="3.0841150880854666"><ele>515.0</ele><time>2026-05-02T09:44:09.999Z</time></trkpt><trkpt lat="45.65147353158203" lon="3.0841555690937086"><ele>515.0</ele><time>2026-05-02T09:44:10.999Z</time></trkpt><trkpt lat="45.6513344173818" lon="3.0841854570894913"><ele>515.0</ele><time>2026-05-02T09:44:11.999Z</time></trkpt><trkpt lat="45.65119772841365" lon="3.084223317494537"><ele>515.0</ele><time>2026-05-02T09:44:12.999Z</time></trkpt><trkpt lat="45.65106864169157" lon="3.0842528557851496"><ele>515.0</ele><time>2026-05-02T09:44:13.999Z</time></trkpt><trkpt lat="45.65093030940386" lon="3.084301405237613"><ele>514.75</ele><time>2026-05-02T09:44:14.999Z</time></trkpt><trkpt lat="45.65079295248003" lon="3.0843229751846635"><ele>514.5</ele><time>2026-05-02T09:44:15.999Z</time></trkpt><trkpt lat="45.65065161771101" lon="3.0843785770537075"><ele>514.25</ele><time>2026-05-02T09:44:16.999Z</time></trkpt><trkpt lat="45.65051439986714" lon="3.084442569602577"><ele>514.0</ele><time>2026-05-02T09:44:17.999Z</time></trkpt><trkpt lat="45.650383061136615" lon="3.0845330613694912"><ele>513.5</ele><time>2026-05-02T09:44:18.999Z</time></trkpt><trkpt lat="45.6502428545943" lon="3.084598200997752"><ele>513.0</ele><time>2026-05-02T09:44:19.999Z</time></trkpt><trkpt lat="45.650107004324845" lon="3.084647604381782"><ele>512.5</ele><time>2026-05-02T09:44:20.999Z</time></trkpt><trkpt lat="45.649972596783996" lon="3.084673070346525"><ele>512.0</ele><time>2026-05-02T09:44:21.999Z</time></trkpt><trkpt lat="45.64983559769788" lon="3.0846773304744666"><ele>512.0</ele><time>2026-05-02T09:44:22.999Z</time></trkpt><trkpt lat="45.64969609652399" lon="3.0846551904039368"><ele>512.0</ele><time>2026-05-02T09:44:23.999Z</time></trkpt><trkpt lat="45.649575965923525" lon="3.0846282585429385"><ele>512.0</ele><time>2026-05-02T09:44:24.999Z</time></trkpt><trkpt lat="45.64944645623594" lon="3.084646038784511"><ele>512.0</ele><time>2026-05-02T09:44:25.999Z</time></trkpt><trkpt lat="45.649314812103036" lon="3.0846774300061877"><ele>511.75</ele><time>2026-05-02T09:44:26.999Z</time></trkpt><trkpt lat="45.64918376668483" lon="3.0847251255650514"><ele>511.5</ele><time>2026-05-02T09:44:27.999Z</time></trkpt><trkpt lat="45.64905588280945" lon="3.084782365184395"><ele>511.25</ele><time>2026-05-02T09:44:28.999Z</time></trkpt><trkpt lat="45.64892604458826" lon="3.0848454061989914"><ele>511.0</ele><time>2026-05-02T09:44:29.999Z</time></trkpt><trkpt lat="45.64880722376816" lon="3.0849098886033754"><ele>511.75</ele><time>2026-05-02T09:44:30.999Z</time></trkpt><trkpt lat="45.64869610308218" lon="3.084960680009326"><ele>512.5</ele><time>2026-05-02T09:44:31.999Z</time></trkpt><trkpt lat="45.64858678107869" lon="3.0850091141767484"><ele>513.25</ele><time>2026-05-02T09:44:32.999Z</time></trkpt><trkpt lat="45.64847068433201" lon="3.084962334775581"><ele>514.0</ele><time>2026-05-02T09:44:33.999Z</time></trkpt><trkpt lat="45.648342153006304" lon="3.0849520337042238"><ele>514.0</ele><time>2026-05-02T09:44:34.999Z</time></trkpt><trkpt lat="45.64821383148708" lon="3.0849425349556485"><ele>514.0</ele><time>2026-05-02T09:44:35.999Z</time></trkpt><trkpt lat="45.648085170935126" lon="3.084931786545041"><ele>514.0</ele><time>2026-05-02T09:44:36.999Z</time></trkpt><trkpt lat="45.647965535380685" lon="3.084921795562521"><ele>514.0</ele><time>2026-05-02T09:44:38Z</time></trkpt><trkpt lat="45.64785578003225" lon="3.0849125089063714"><ele>514.0</ele><time>2026-05-02T09:44:39Z</time></trkpt><trkpt lat="45.64775057867854" lon="3.08490360757061"><ele>514.0</ele><time>2026-05-02T09:44:40Z</time></trkpt><trkpt lat="45.64764306549458" lon="3.0848957594377002"><ele>514.0</ele><time>2026-05-02T09:44:41Z</time></trkpt><trkpt lat="45.6475316688697" lon="3.0849113234856564"><ele>514.0</ele><time>2026-05-02T09:44:42Z</time></trkpt><trkpt lat="45.64743163759431" lon="3.0849057550476324"><ele>514.0</ele><time>2026-05-02T09:44:43Z</time></trkpt><trkpt lat="45.64734006611594" lon="3.084901042950162"><ele>514.0</ele><time>2026-05-02T09:44:44Z</time></trkpt><trkpt lat="45.647248493600614" lon="3.084915387107136"><ele>514.0</ele><time>2026-05-02T09:44:45Z</time></trkpt><trkpt lat="45.64716381086417" lon="3.0849276068445404"><ele>514.0</ele><time>2026-05-02T09:44:46Z</time></trkpt><trkpt lat="45.64709012949635" lon="3.08495221723688"><ele>514.0</ele><time>2026-05-02T09:44:47Z</time></trkpt><trkpt lat="45.64701759145982" lon="3.08495857741442"><ele>514.0</ele><time>2026-05-02T09:44:48Z</time></trkpt><trkpt lat="45.646953149908605" lon="3.0849869989957055"><ele>514.0</ele><time>2026-05-02T09:44:49Z</time></trkpt><trkpt lat="45.64688333004849" lon="3.085025437802196"><ele>514.6666666666667</ele><time>2026-05-02T09:44:50Z</time></trkpt><trkpt lat="45.646820737912414" lon="3.0850627624414244"><ele>515.3333333333334</ele><time>2026-05-02T09:44:51Z</time></trkpt><trkpt lat="45.64672244765437" lon="3.085120804178565"><ele>516.0</ele><time>2026-05-02T09:44:53Z</time></trkpt><trkpt lat="45.64661502086788" lon="3.0851843547122475"><ele>516.6666666666666</ele><time>2026-05-02T09:44:55Z</time></trkpt><trkpt lat="45.64655622195934" lon="3.0852196007429487"><ele>517.3333333333333</ele><time>2026-05-02T09:44:56Z</time></trkpt><trkpt lat="45.64649540865147" lon="3.0852560542120537"><ele>518.0</ele><time>2026-05-02T09:44:57Z</time></trkpt><trkpt lat="45.64643313751499" lon="3.085293381535475"><ele>518.0</ele><time>2026-05-02T09:44:58Z</time></trkpt><trkpt lat="45.64636854335053" lon="3.0853321013885626"><ele>518.0</ele><time>2026-05-02T09:44:59Z</time></trkpt><trkpt lat="45.64630494057623" lon="3.085388733400278"><ele>518.0</ele><time>2026-05-02T09:45:00Z</time></trkpt><trkpt lat="45.6462301637149" lon="3.085436069256855"><ele>518.0</ele><time>2026-05-02T09:45:01Z</time></trkpt><trkpt lat="45.64614908170947" lon="3.0854873071637767"><ele>518.0</ele><time>2026-05-02T09:45:02Z</time></trkpt><trkpt lat="45.64606343233532" lon="3.0855365753185158"><ele>518.0</ele><time>2026-05-02T09:45:03Z</time></trkpt><trkpt lat="45.645965108934746" lon="3.085568346534046"><ele>517.8</ele><time>2026-05-02T09:45:04Z</time></trkpt><trkpt lat="45.64587004425329" lon="3.085623600820779"><ele>517.5999999999999</ele><time>2026-05-02T09:45:05Z</time></trkpt><trkpt lat="45.64577609190519" lon="3.0857031839522815"><ele>517.4000000000001</ele><time>2026-05-02T09:45:06Z</time></trkpt><trkpt lat="45.64567070797628" lon="3.0857589623915076"><ele>517.2</ele><time>2026-05-02T09:45:07Z</time></trkpt><trkpt lat="45.64556016530627" lon="3.0858173275777814"><ele>517.0</ele><time>2026-05-02T09:45:08Z</time></trkpt><trkpt lat="45.64544470645859" lon="3.0858805238918183"><ele>517.0</ele><time>2026-05-02T09:45:09Z</time></trkpt><trkpt lat="45.64533403176151" lon="3.0859361775527385"><ele>517.0</ele><time>2026-05-02T09:45:10Z</time></trkpt><trkpt lat="45.64522513038616" lon="3.0859813642281755"><ele>517.0</ele><time>2026-05-02T09:45:11Z</time></trkpt><trkpt lat="45.64511800294766" lon="3.086013353948817"><ele>517.0</ele><time>2026-05-02T09:45:12Z</time></trkpt><trkpt lat="45.645014681346495" lon="3.086029273658063"><ele>517.0</ele><time>2026-05-02T09:45:13Z</time></trkpt><trkpt lat="45.644912005612724" lon="3.0860091701222685"><ele>518.25</ele><time>2026-05-02T09:45:14Z</time></trkpt><trkpt lat="45.644807460749355" lon="3.0859893995686556"><ele>519.5</ele><time>2026-05-02T09:45:15Z</time></trkpt><trkpt lat="45.64470129509123" lon="3.085949572674219"><ele>520.75</ele><time>2026-05-02T09:45:16Z</time></trkpt><trkpt lat="45.64458798904484" lon="3.085897152904215"><ele>522.0</ele><time>2026-05-02T09:45:17Z</time></trkpt><trkpt lat="45.64446690490712" lon="3.085835086536519"><ele>521.75</ele><time>2026-05-02T09:45:18Z</time></trkpt><trkpt lat="45.644342515724226" lon="3.085771326028371"><ele>521.5</ele><time>2026-05-02T09:45:19Z</time></trkpt><trkpt lat="45.64421036532011" lon="3.0857279963761126"><ele>521.25</ele><time>2026-05-02T09:45:20Z</time></trkpt><trkpt lat="45.644093510197706" lon="3.0856669419501013"><ele>521.0</ele><time>2026-05-02T09:45:21Z</time></trkpt><trkpt lat="45.64397564804074" lon="3.085607380238433"><ele>522.75</ele><time>2026-05-02T09:45:22Z</time></trkpt><trkpt lat="45.64385456420224" lon="3.0855208905577554"><ele>524.5</ele><time>2026-05-02T09:45:23Z</time></trkpt><trkpt lat="45.643725687866635" lon="3.0854544279124263"><ele>526.25</ele><time>2026-05-02T09:45:24Z</time></trkpt><trkpt lat="45.6435919894604" lon="3.085385478396811"><ele>528.0</ele><time>2026-05-02T09:45:25Z</time></trkpt><trkpt lat="45.64345271601498" lon="3.0853139736222803"><ele>528.0</ele><time>2026-05-02T09:45:26Z</time></trkpt><trkpt lat="45.643302261261745" lon="3.0852388417592245"><ele>528.0</ele><time>2026-05-02T09:45:27Z</time></trkpt><trkpt lat="45.64315384493561" lon="3.0851611672276973"><ele>528.0</ele><time>2026-05-02T09:45:28Z</time></trkpt><trkpt lat="45.64299889894402" lon="3.0850772479685054"><ele>528.0</ele><time>2026-05-02T09:45:29Z</time></trkpt><trkpt lat="45.64284953255806" lon="3.084999404283786"><ele>528.0</ele><time>2026-05-02T09:45:30Z</time></trkpt><trkpt lat="45.64270642547263" lon="3.0849258676253695"><ele>528.0</ele><time>2026-05-02T09:45:31Z</time></trkpt><trkpt lat="45.642576709681336" lon="3.084859329393298"><ele>528.0</ele><time>2026-05-02T09:45:32Z</time></trkpt><trkpt lat="45.64245024678706" lon="3.0847944616821374"><ele>527.0</ele><time>2026-05-02T09:45:33Z</time></trkpt><trkpt lat="45.64231112300464" lon="3.084723097555248"><ele>526.0</ele><time>2026-05-02T09:45:34Z</time></trkpt><trkpt lat="45.642166982745934" lon="3.084649160152755"><ele>525.0</ele><time>2026-05-02T09:45:35Z</time></trkpt><trkpt lat="45.64201518734118" lon="3.084572331501561"><ele>525.3333333333334</ele><time>2026-05-02T09:45:36Z</time></trkpt><trkpt lat="45.64186866990607" lon="3.0844988795368224"><ele>525.6666666666667</ele><time>2026-05-02T09:45:37Z</time></trkpt><trkpt lat="45.641725789923555" lon="3.084427251124282"><ele>526.0</ele><time>2026-05-02T09:45:38Z</time></trkpt><trkpt lat="45.64158636292468" lon="3.084353963224717"><ele>526.0</ele><time>2026-05-02T09:45:39Z</time></trkpt><trkpt lat="45.641450540032814" lon="3.084267311841628"><ele>526.0</ele><time>2026-05-02T09:45:40Z</time></trkpt><trkpt lat="45.64132593009485" lon="3.084162114982062"><ele>526.0</ele><time>2026-05-02T09:45:41Z</time></trkpt><trkpt lat="45.641207829267046" lon="3.084032700329633"><ele>526.0</ele><time>2026-05-02T09:45:42Z</time></trkpt><trkpt lat="45.64110540791378" lon="3.0838885646235035"><ele>527.5</ele><time>2026-05-02T09:45:43Z</time></trkpt><trkpt lat="45.6410172899489" lon="3.083728444820024"><ele>529.0</ele><time>2026-05-02T09:45:44Z</time></trkpt><trkpt lat="45.64094912951084" lon="3.0835617505553383"><ele>530.5</ele><time>2026-05-02T09:45:45Z</time></trkpt><trkpt lat="45.640894676930266" lon="3.0833745613347086"><ele>532.0</ele><time>2026-05-02T09:45:46Z</time></trkpt><trkpt lat="45.64084453025952" lon="3.083185182847135"><ele>535.25</ele><time>2026-05-02T09:45:47Z</time></trkpt><trkpt lat="45.64077877051047" lon="3.0830051595126693"><ele>538.5</ele><time>2026-05-02T09:45:48Z</time></trkpt><trkpt lat="45.64072681452063" lon="3.0828217806634566"><ele>541.75</ele><time>2026-05-02T09:45:49Z</time></trkpt><trkpt lat="45.64066616005208" lon="3.0826603189121666"><ele>545.0</ele><time>2026-05-02T09:45:50Z</time></trkpt><trkpt lat="45.64059519934269" lon="3.0825254190976237"><ele>543.8</ele><time>2026-05-02T09:45:51Z</time></trkpt><trkpt lat="45.6405186887823" lon="3.0824191894226973"><ele>542.6</ele><time>2026-05-02T09:45:52Z</time></trkpt><trkpt lat="45.6404350858844" lon="3.082326089287281"><ele>541.4</ele><time>2026-05-02T09:45:53Z</time></trkpt><trkpt lat="45.64035451438828" lon="3.082258963751295"><ele>540.2</ele><time>2026-05-02T09:45:54Z</time></trkpt><trkpt lat="45.6402950764291" lon="3.082176037046056"><ele>539.0</ele><time>2026-05-02T09:45:55Z</time></trkpt><trkpt lat="45.64024181103792" lon="3.0820960756039377"><ele>539.0</ele><time>2026-05-02T09:45:56Z</time></trkpt><trkpt lat="45.64020176393137" lon="3.082003389503089"><ele>539.0</ele><time>2026-05-02T09:45:57Z</time></trkpt><trkpt lat="45.640206752708266" lon="3.0818595775163553"><ele>539.0</ele><time>2026-05-02T09:45:58Z</time></trkpt><trkpt lat="45.640192430079814" lon="3.0817095520988893"><ele>539.0</ele><time>2026-05-02T09:45:59Z</time></trkpt><trkpt lat="45.64016359803364" lon="3.081561733506367"><ele>539.0</ele><time>2026-05-02T09:46:00Z</time></trkpt><trkpt lat="45.64014347586665" lon="3.081402285686254"><ele>541.0</ele><time>2026-05-02T09:46:01Z</time></trkpt><trkpt lat="45.64010734415062" lon="3.081245912108472"><ele>543.0</ele><time>2026-05-02T09:46:02Z</time></trkpt><trkpt lat="45.640053446753065" lon="3.081092439251533"><ele>545.0</ele><time>2026-05-02T09:46:03Z</time></trkpt><trkpt lat="45.63998845288371" lon="3.0809577383284843"><ele>547.0</ele><time>2026-05-02T09:46:04Z</time></trkpt><trkpt lat="45.63993736411961" lon="3.0808052032096227"><ele>549.25</ele><time>2026-05-02T09:46:05Z</time></trkpt><trkpt lat="45.639899107611946" lon="3.0806445107081135"><ele>551.5</ele><time>2026-05-02T09:46:06Z</time></trkpt><trkpt lat="45.63987093765491" lon="3.0804710402348134"><ele>553.75</ele><time>2026-05-02T09:46:06.999Z</time></trkpt><trkpt lat="45.63984753316785" lon="3.080299667907318"><ele>556.0</ele><time>2026-05-02T09:46:07.999Z</time></trkpt><trkpt lat="45.63982710897956" lon="3.0801435581411893"><ele>556.0</ele><time>2026-05-02T09:46:08.999Z</time></trkpt><trkpt lat="45.639807469134254" lon="3.0799934426486404"><ele>556.0</ele><time>2026-05-02T09:46:09.999Z</time></trkpt><trkpt lat="45.639763942740544" lon="3.0798413275265064"><ele>556.0</ele><time>2026-05-02T09:46:10.999Z</time></trkpt><trkpt lat="45.63971599448445" lon="3.0796938066931028"><ele>556.0</ele><time>2026-05-02T09:46:11.999Z</time></trkpt><trkpt lat="45.63965732859064" lon="3.079553660926848"><ele>557.8</ele><time>2026-05-02T09:46:12.999Z</time></trkpt><trkpt lat="45.63961851104205" lon="3.0794042608617174"><ele>559.6</ele><time>2026-05-02T09:46:13.999Z</time></trkpt><trkpt lat="45.63957852617209" lon="3.079266659026435"><ele>561.4</ele><time>2026-05-02T09:46:14.999Z</time></trkpt><trkpt lat="45.63956481271318" lon="3.079127380080884"><ele>563.2</ele><time>2026-05-02T09:46:15.999Z</time></trkpt><trkpt lat="45.63959792022149" lon="3.07899936034642"><ele>565.0</ele><time>2026-05-02T09:46:16.999Z</time></trkpt><trkpt lat="45.639638859157344" lon="3.0788719942225184"><ele>566.4</ele><time>2026-05-02T09:46:17.999Z</time></trkpt><trkpt lat="45.63965479703529" lon="3.078743454472623"><ele>567.8</ele><time>2026-05-02T09:46:18.999Z</time></trkpt><trkpt lat="45.63964898015998" lon="3.078616516781163"><ele>569.2</ele><time>2026-05-02T09:46:19.999Z</time></trkpt><trkpt lat="45.639593715069985" lon="3.0784952381972275"><ele>570.6</ele><time>2026-05-02T09:46:20.999Z</time></trkpt><trkpt lat="45.63952160233771" lon="3.078387656173457"><ele>572.0</ele><time>2026-05-02T09:46:21.999Z</time></trkpt><trkpt lat="45.63944300300809" lon="3.0783001633134637"><ele>570.8000000000001</ele><time>2026-05-02T09:46:22.999Z</time></trkpt><trkpt lat="45.63935787529427" lon="3.0782078215704236"><ele>569.6</ele><time>2026-05-02T09:46:23.999Z</time></trkpt><trkpt lat="45.63929248414702" lon="3.078086337856816"><ele>568.4000000000001</ele><time>2026-05-02T09:46:24.999Z</time></trkpt><trkpt lat="45.63923318791359" lon="3.0779640610261225"><ele>567.2</ele><time>2026-05-02T09:46:25.999Z</time></trkpt><trkpt lat="45.63917126898813" lon="3.0778303184409412"><ele>566.0</ele><time>2026-05-02T09:46:26.999Z</time></trkpt><trkpt lat="45.63910735652904" lon="3.077692266908039"><ele>566.0</ele><time>2026-05-02T09:46:27.999Z</time></trkpt><trkpt lat="45.639031508443" lon="3.0775686442902948"><ele>566.0</ele><time>2026-05-02T09:46:28.999Z</time></trkpt><trkpt lat="45.638993310113754" lon="3.07742428332603"><ele>566.0</ele><time>2026-05-02T09:46:29.999Z</time></trkpt><trkpt lat="45.6389896047664" lon="3.0772733840876096"><ele>566.0</ele><time>2026-05-02T09:46:30.999Z</time></trkpt><trkpt lat="45.639027641103084" lon="3.077128542074228"><ele>566.0</ele><time>2026-05-02T09:46:31.999Z</time></trkpt><trkpt lat="45.63907841892524" lon="3.0770029017517935"><ele>567.4</ele><time>2026-05-02T09:46:32.999Z</time></trkpt><trkpt lat="45.63909780854036" lon="3.0768684286345773"><ele>568.8</ele><time>2026-05-02T09:46:33.999Z</time></trkpt><trkpt lat="45.63908427466783" lon="3.076714715007455"><ele>570.1999999999999</ele><time>2026-05-02T09:46:34.999Z</time></trkpt><trkpt lat="45.639050429341516" lon="3.0765601819569306"><ele>571.6</ele><time>2026-05-02T09:46:35.999Z</time></trkpt><trkpt lat="45.639014551343145" lon="3.076405616949613"><ele>573.0</ele><time>2026-05-02T09:46:36.999Z</time></trkpt><trkpt lat="45.63897432930459" lon="3.076247726336277"><ele>576.0</ele><time>2026-05-02T09:46:37.999Z</time></trkpt><trkpt lat="45.63893564553318" lon="3.0760852411339377"><ele>579.0</ele><time>2026-05-02T09:46:38.999Z</time></trkpt><trkpt lat="45.63889823800217" lon="3.075921599494253"><ele>582.0</ele><time>2026-05-02T09:46:39.999Z</time></trkpt><trkpt lat="45.63886212514526" lon="3.075761785142193"><ele>585.0</ele><time>2026-05-02T09:46:40.999Z</time></trkpt><trkpt lat="45.63882947920904" lon="3.075631938130115"><ele>584.2</ele><time>2026-05-02T09:46:41.999Z</time></trkpt><trkpt lat="45.638791586987594" lon="3.0755106509939614"><ele>583.4</ele><time>2026-05-02T09:46:42.999Z</time></trkpt><trkpt lat="45.63874004522894" lon="3.075398809310989"><ele>582.6</ele><time>2026-05-02T09:46:44Z</time></trkpt><trkpt lat="45.638671278786354" lon="3.0752849062254812"><ele>581.8</ele><time>2026-05-02T09:46:45Z</time></trkpt><trkpt lat="45.638581918129226" lon="3.0751830260278767"><ele>581.0</ele><time>2026-05-02T09:46:46Z</time></trkpt><trkpt lat="45.63847213468536" lon="3.075107137294916"><ele>581.0</ele><time>2026-05-02T09:46:47Z</time></trkpt><trkpt lat="45.63835146069672" lon="3.0750576064082438"><ele>581.0</ele><time>2026-05-02T09:46:48Z</time></trkpt><trkpt lat="45.638225851899676" lon="3.0750183244729477"><ele>581.0</ele><time>2026-05-02T09:46:49Z</time></trkpt><trkpt lat="45.638101535142205" lon="3.0749747310648115"><ele>581.0</ele><time>2026-05-02T09:46:50Z</time></trkpt><trkpt lat="45.63797817234372" lon="3.074921520613685"><ele>585.25</ele><time>2026-05-02T09:46:51Z</time></trkpt><trkpt lat="45.6378591148692" lon="3.074866678143405"><ele>589.5</ele><time>2026-05-02T09:46:52Z</time></trkpt><trkpt lat="45.63773383826279" lon="3.0747904032001605"><ele>593.75</ele><time>2026-05-02T09:46:53Z</time></trkpt><trkpt lat="45.63761783965873" lon="3.074695832970762"><ele>598.0</ele><time>2026-05-02T09:46:54Z</time></trkpt><trkpt lat="45.637508673037686" lon="3.074579668292471"><ele>598.0</ele><time>2026-05-02T09:46:55Z</time></trkpt><trkpt lat="45.63740532733719" lon="3.0744618492862377"><ele>598.0</ele><time>2026-05-02T09:46:56Z</time></trkpt><trkpt lat="45.637301606348075" lon="3.07434017816875"><ele>598.0</ele><time>2026-05-02T09:46:57Z</time></trkpt><trkpt lat="45.63719889486908" lon="3.0742220698911127"><ele>598.0</ele><time>2026-05-02T09:46:58Z</time></trkpt><trkpt lat="45.63709674858371" lon="3.074108303365971"><ele>600.0</ele><time>2026-05-02T09:46:59Z</time></trkpt><trkpt lat="45.6369974108354" lon="3.0739985540060695"><ele>602.0</ele><time>2026-05-02T09:47:00Z</time></trkpt><trkpt lat="45.63689987163066" lon="3.073883007686108"><ele>604.0</ele><time>2026-05-02T09:47:01Z</time></trkpt><trkpt lat="45.63680363859313" lon="3.07377509094354"><ele>606.0</ele><time>2026-05-02T09:47:02Z</time></trkpt><trkpt lat="45.63670023899227" lon="3.073672549082292"><ele>606.0</ele><time>2026-05-02T09:47:03Z</time></trkpt><trkpt lat="45.63658808250999" lon="3.0735761508269777"><ele>606.0</ele><time>2026-05-02T09:47:04Z</time></trkpt><trkpt lat="45.63647666111082" lon="3.0734826914558884"><ele>606.0</ele><time>2026-05-02T09:47:05Z</time></trkpt><trkpt lat="45.63635924294488" lon="3.0733815014001555"><ele>606.0</ele><time>2026-05-02T09:47:06Z</time></trkpt><trkpt lat="45.636240858328875" lon="3.073278854838393"><ele>609.0</ele><time>2026-05-02T09:47:07Z</time></trkpt><trkpt lat="45.636122952396214" lon="3.073167445977443"><ele>612.0</ele><time>2026-05-02T09:47:08Z</time></trkpt><trkpt lat="45.635998506562295" lon="3.073058337792811"><ele>615.0</ele><time>2026-05-02T09:47:09Z</time></trkpt><trkpt lat="45.635856448131634" lon="3.0729285898469567"><ele>615.0</ele><time>2026-05-02T09:47:10Z</time></trkpt><trkpt lat="45.63573964064439" lon="3.072827270939689"><ele>615.0</ele><time>2026-05-02T09:47:11Z</time></trkpt><trkpt lat="45.6356464015838" lon="3.0727300485658993"><ele>615.0</ele><time>2026-05-02T09:47:12Z</time></trkpt><trkpt lat="45.63558064230131" lon="3.0726173975653532"><ele>615.0</ele><time>2026-05-02T09:47:13Z</time></trkpt><trkpt lat="45.635533849223" lon="3.0725046600462615"><ele>615.0</ele><time>2026-05-02T09:47:14Z</time></trkpt><trkpt lat="45.63547386569991" lon="3.072437032538993"><ele>615.0</ele><time>2026-05-02T09:47:15Z</time></trkpt><trkpt lat="45.63539752126176" lon="3.0724333162596875"><ele>615.0</ele><time>2026-05-02T09:47:16Z</time></trkpt><trkpt lat="45.63531675627625" lon="3.072469152498166"><ele>615.0</ele><time>2026-05-02T09:47:17Z</time></trkpt><trkpt lat="45.6352357003776" lon="3.0725280690860766"><ele>615.0</ele><time>2026-05-02T09:47:18Z</time></trkpt><trkpt lat="45.63516261363767" lon="3.072612061371348"><ele>615.0</ele><time>2026-05-02T09:47:19Z</time></trkpt><trkpt lat="45.635077803138714" lon="3.072675421258823"><ele>615.0</ele><time>2026-05-02T09:47:20Z</time></trkpt><trkpt lat="45.634974014519166" lon="3.072699793021937"><ele>613.75</ele><time>2026-05-02T09:47:21Z</time></trkpt><trkpt lat="45.63486627058296" lon="3.0727188856891234"><ele>612.5</ele><time>2026-05-02T09:47:22Z</time></trkpt><trkpt lat="45.63473067144203" lon="3.072749619331828"><ele>611.25</ele><time>2026-05-02T09:47:23Z</time></trkpt><trkpt lat="45.63458103737849" lon="3.0727739557897573"><ele>610.0</ele><time>2026-05-02T09:47:24Z</time></trkpt><trkpt lat="45.634457923346574" lon="3.07279813117536"><ele>615.25</ele><time>2026-05-02T09:47:25Z</time></trkpt><trkpt lat="45.63434352873094" lon="3.0728283943159043"><ele>620.5</ele><time>2026-05-02T09:47:26Z</time></trkpt><trkpt lat="45.63422886943402" lon="3.0728790657170766"><ele>625.75</ele><time>2026-05-02T09:47:27Z</time></trkpt><trkpt lat="45.63411620391777" lon="3.072959853638186"><ele>631.0</ele><time>2026-05-02T09:47:28Z</time></trkpt><trkpt lat="45.634010788005064" lon="3.0730642715410283"><ele>631.0</ele><time>2026-05-02T09:47:29Z</time></trkpt><trkpt lat="45.633905876210804" lon="3.0731811783255756"><ele>631.0</ele><time>2026-05-02T09:47:30Z</time></trkpt><trkpt lat="45.63380166300589" lon="3.073302598255365"><ele>631.0</ele><time>2026-05-02T09:47:31Z</time></trkpt><trkpt lat="45.63370700000912" lon="3.0734094919094384"><ele>631.0</ele><time>2026-05-02T09:47:32Z</time></trkpt><trkpt lat="45.63362202877148" lon="3.073506462807439"><ele>631.0</ele><time>2026-05-02T09:47:33Z</time></trkpt><trkpt lat="45.63354463132996" lon="3.0735883425205865"><ele>631.0</ele><time>2026-05-02T09:47:34Z</time></trkpt><trkpt lat="45.633463754163564" lon="3.0736529612287935"><ele>631.0</ele><time>2026-05-02T09:47:35Z</time></trkpt><trkpt lat="45.63337774733534" lon="3.073704703588198"><ele>631.0</ele><time>2026-05-02T09:47:36Z</time></trkpt><trkpt lat="45.63328385707534" lon="3.0737382445320014"><ele>631.0</ele><time>2026-05-02T09:47:37Z</time></trkpt><trkpt lat="45.633177580975314" lon="3.0737651325021758"><ele>631.0</ele><time>2026-05-02T09:47:38Z</time></trkpt><trkpt lat="45.63306543463808" lon="3.073763597043418"><ele>631.0</ele><time>2026-05-02T09:47:39Z</time></trkpt><trkpt lat="45.63294293749416" lon="3.0737619836122323"><ele>631.0</ele><time>2026-05-02T09:47:40Z</time></trkpt><trkpt lat="45.632839140092855" lon="3.073749106472711"><ele>631.0</ele><time>2026-05-02T09:47:41Z</time></trkpt><trkpt lat="45.63274863654036" lon="3.0737355834373328"><ele>631.0</ele><time>2026-05-02T09:47:42Z</time></trkpt><trkpt lat="45.63266210381896" lon="3.0736750978376595"><ele>630.2</ele><time>2026-05-02T09:47:43Z</time></trkpt><trkpt lat="45.63259638458505" lon="3.073568233006277"><ele>629.4000000000001</ele><time>2026-05-02T09:47:44Z</time></trkpt><trkpt lat="45.63252247048331" lon="3.0734692051040127"><ele>628.6</ele><time>2026-05-02T09:47:45Z</time></trkpt><trkpt lat="45.632497705612664" lon="3.07332232591436"><ele>627.8000000000001</ele><time>2026-05-02T09:47:46Z</time></trkpt><trkpt lat="45.63249524521684" lon="3.0731619630155276"><ele>627.0</ele><time>2026-05-02T09:47:47Z</time></trkpt><trkpt lat="45.63248916074259" lon="3.073005313185305"><ele>630.0</ele><time>2026-05-02T09:47:48Z</time></trkpt><trkpt lat="45.63247459581553" lon="3.0728395050802004"><ele>633.0</ele><time>2026-05-02T09:47:49Z</time></trkpt><trkpt lat="45.63245924548313" lon="3.072671603932558"><ele>636.0</ele><time>2026-05-02T09:47:50Z</time></trkpt><trkpt lat="45.63244711995142" lon="3.0725038082967533"><ele>639.0</ele><time>2026-05-02T09:47:51Z</time></trkpt><trkpt lat="45.632434842923885" lon="3.0723479678878345"><ele>641.1666666666666</ele><time>2026-05-02T09:47:52Z</time></trkpt><trkpt lat="45.63240495090992" lon="3.0722231353952805"><ele>643.3333333333334</ele><time>2026-05-02T09:47:53Z</time></trkpt><trkpt lat="45.63235535414302" lon="3.0721291179817745"><ele>645.5</ele><time>2026-05-02T09:47:54Z</time></trkpt><trkpt lat="45.63229508820838" lon="3.072048862450129"><ele>647.6666666666667</ele><time>2026-05-02T09:47:55Z</time></trkpt><trkpt lat="45.63221306223935" lon="3.071999274814576"><ele>649.8333333333334</ele><time>2026-05-02T09:47:56Z</time></trkpt><trkpt lat="45.63212012197507" lon="3.0719539730059204"><ele>652.0</ele><time>2026-05-02T09:47:57Z</time></trkpt><trkpt lat="45.63201731250315" lon="3.0719200214297104"><ele>650.8</ele><time>2026-05-02T09:47:58Z</time></trkpt><trkpt lat="45.63194345542995" lon="3.071846206533393"><ele>649.6</ele><time>2026-05-02T09:47:59Z</time></trkpt><trkpt lat="45.631921575565" lon="3.0717285332313904"><ele>648.4</ele><time>2026-05-02T09:48:00Z</time></trkpt><trkpt lat="45.63192703419267" lon="3.071587241365848"><ele>647.1999999999999</ele><time>2026-05-02T09:48:01Z</time></trkpt><trkpt lat="45.63194848114712" lon="3.071443996621617"><ele>646.0</ele><time>2026-05-02T09:48:02Z</time></trkpt><trkpt lat="45.63195841671345" lon="3.071279309448662"><ele>646.0</ele><time>2026-05-02T09:48:03Z</time></trkpt><trkpt lat="45.631941153328974" lon="3.0711114400218897"><ele>646.0</ele><time>2026-05-02T09:48:04Z</time></trkpt><trkpt lat="45.631877566566835" lon="3.070976480273978"><ele>646.0</ele><time>2026-05-02T09:48:05Z</time></trkpt><trkpt lat="45.631781101538785" lon="3.070882291771844"><ele>646.0</ele><time>2026-05-02T09:48:06Z</time></trkpt><trkpt lat="45.631692575284596" lon="3.070785406125696"><ele>650.1999999999999</ele><time>2026-05-02T09:48:07Z</time></trkpt><trkpt lat="45.63161866769117" lon="3.0706921480685625"><ele>654.4</ele><time>2026-05-02T09:48:08Z</time></trkpt><trkpt lat="45.63156932471179" lon="3.070588368545718"><ele>658.6</ele><time>2026-05-02T09:48:09Z</time></trkpt><trkpt lat="45.63152570727326" lon="3.0704626698893716"><ele>662.8</ele><time>2026-05-02T09:48:10Z</time></trkpt><trkpt lat="45.63147445489304" lon="3.070323213033938"><ele>667.0</ele><time>2026-05-02T09:48:11Z</time></trkpt><trkpt lat="45.63140584216118" lon="3.0701948910614543"><ele>667.0</ele><time>2026-05-02T09:48:12Z</time></trkpt><trkpt lat="45.631297870227876" lon="3.0701081466524522"><ele>667.0</ele><time>2026-05-02T09:48:13Z</time></trkpt><trkpt lat="45.6311721180588" lon="3.0700358391349996"><ele>667.0</ele><time>2026-05-02T09:48:14Z</time></trkpt><trkpt lat="45.631018293965184" lon="3.069993195698092"><ele>667.0</ele><time>2026-05-02T09:48:15Z</time></trkpt><trkpt lat="45.63083776843653" lon="3.0699376885273444"><ele>669.5</ele><time>2026-05-02T09:48:16Z</time></trkpt><trkpt lat="45.63065820383951" lon="3.0698909556759415"><ele>672.0</ele><time>2026-05-02T09:48:17Z</time></trkpt><trkpt lat="45.63052944257894" lon="3.0698274962575245"><ele>674.5</ele><time>2026-05-02T09:48:18Z</time></trkpt><trkpt lat="45.630443513698026" lon="3.069739069018579"><ele>677.0</ele><time>2026-05-02T09:48:19Z</time></trkpt><trkpt lat="45.630395349744745" lon="3.0696214680154696"><ele>677.0</ele><time>2026-05-02T09:48:20Z</time></trkpt><trkpt lat="45.63041444212299" lon="3.0695031946725475"><ele>677.0</ele><time>2026-05-02T09:48:21Z</time></trkpt><trkpt lat="45.63039345131494" lon="3.0693551894148956"><ele>677.0</ele><time>2026-05-02T09:48:22Z</time></trkpt><trkpt lat="45.63036107222747" lon="3.0692291126081304"><ele>677.0</ele><time>2026-05-02T09:48:23Z</time></trkpt><trkpt lat="45.63029199528828" lon="3.069160099171191"><ele>677.0</ele><time>2026-05-02T09:48:24Z</time></trkpt><trkpt lat="45.63020367351639" lon="3.069188672774251"><ele>675.9999999999999</ele><time>2026-05-02T09:48:25Z</time></trkpt><trkpt lat="45.63014494305102" lon="3.0692346760436005"><ele>675.0</ele><time>2026-05-02T09:48:26Z</time></trkpt><trkpt lat="45.6300981497269" lon="3.0692991359094544"><ele>674.0</ele><time>2026-05-02T09:48:27Z</time></trkpt><trkpt lat="45.630061612856345" lon="3.0693765994675855"><ele>673.0</ele><time>2026-05-02T09:48:28Z</time></trkpt><trkpt lat="45.63001503708548" lon="3.0694521039395615"><ele>672.0</ele><time>2026-05-02T09:48:29Z</time></trkpt><trkpt lat="45.629954848916604" lon="3.069504756023948"><ele>670.9999999999999</ele><time>2026-05-02T09:48:30Z</time></trkpt><trkpt lat="45.62987998166053" lon="3.069530085211446"><ele>670.0</ele><time>2026-05-02T09:48:31Z</time></trkpt><trkpt lat="45.62980927256533" lon="3.0694906607889894"><ele>670.0</ele><time>2026-05-02T09:48:32Z</time></trkpt><trkpt lat="45.62973760932195" lon="3.0694716587385398"><ele>670.0</ele><time>2026-05-02T09:48:33Z</time></trkpt><trkpt lat="45.62965810879877" lon="3.0694763812427475"><ele>670.0</ele><time>2026-05-02T09:48:34Z</time></trkpt><trkpt lat="45.629574873153345" lon="3.0694568923467944"><ele>670.0</ele><time>2026-05-02T09:48:35Z</time></trkpt><trkpt lat="45.62949367199592" lon="3.069446938451755"><ele>670.0</ele><time>2026-05-02T09:48:36Z</time></trkpt><trkpt lat="45.62941808063914" lon="3.069408366431709"><ele>670.0</ele><time>2026-05-02T09:48:37Z</time></trkpt><trkpt lat="45.62934052184701" lon="3.069385459177749"><ele>671.0</ele><time>2026-05-02T09:48:38Z</time></trkpt><trkpt lat="45.62926572717672" lon="3.069359409595575"><ele>672.0</ele><time>2026-05-02T09:48:39Z</time></trkpt><trkpt lat="45.62920208321331" lon="3.0692868050070374"><ele>673.0</ele><time>2026-05-02T09:48:40Z</time></trkpt><trkpt lat="45.62916529329319" lon="3.069164362034334"><ele>674.0</ele><time>2026-05-02T09:48:41Z</time></trkpt><trkpt lat="45.62911611835952" lon="3.0690803607788473"><ele>675.0</ele><time>2026-05-02T09:48:42Z</time></trkpt><trkpt lat="45.629050488474796" lon="3.0690081735875787"><ele>676.0</ele><time>2026-05-02T09:48:43Z</time></trkpt><trkpt lat="45.62896022759437" lon="3.0689875080228353"><ele>677.8333333333334</ele><time>2026-05-02T09:48:44Z</time></trkpt><trkpt lat="45.62889425726367" lon="3.068915590022353"><ele>679.6666666666667</ele><time>2026-05-02T09:48:45Z</time></trkpt><trkpt lat="45.62882515542115" lon="3.0688525344961306"><ele>681.5</ele><time>2026-05-02T09:48:46Z</time></trkpt><trkpt lat="45.62876621414866" lon="3.0687654326865226"><ele>683.3333333333334</ele><time>2026-05-02T09:48:47Z</time></trkpt><trkpt lat="45.628706331772406" lon="3.068692598346084"><ele>685.1666666666666</ele><time>2026-05-02T09:48:48Z</time></trkpt><trkpt lat="45.62866243566942" lon="3.068597557091236"><ele>687.0</ele><time>2026-05-02T09:48:49Z</time></trkpt><trkpt lat="45.62861077589738" lon="3.0684989731545693"><ele>687.0</ele><time>2026-05-02T09:48:50Z</time></trkpt><trkpt lat="45.62857168407206" lon="3.068391165682878"><ele>687.0</ele><time>2026-05-02T09:48:51Z</time></trkpt><trkpt lat="45.628510580804935" lon="3.068287683686983"><ele>687.0</ele><time>2026-05-02T09:48:52Z</time></trkpt><trkpt lat="45.62844059505787" lon="3.0681925388443956"><ele>687.0</ele><time>2026-05-02T09:48:53Z</time></trkpt><trkpt lat="45.6283555784497" lon="3.068146756235936"><ele>687.0</ele><time>2026-05-02T09:48:54Z</time></trkpt><trkpt lat="45.62828634654379" lon="3.068082087414912"><ele>688.0</ele><time>2026-05-02T09:48:55Z</time></trkpt><trkpt lat="45.62819485978617" lon="3.0680863725924525"><ele>689.0</ele><time>2026-05-02T09:48:56Z</time></trkpt><trkpt lat="45.62810603243851" lon="3.0680793185960145"><ele>690.0</ele><time>2026-05-02T09:48:57Z</time></trkpt><trkpt lat="45.62802320536028" lon="3.0680495864026116"><ele>691.0</ele><time>2026-05-02T09:48:58Z</time></trkpt><trkpt lat="45.627933929944" lon="3.068039096239062"><ele>692.0</ele><time>2026-05-02T09:48:59Z</time></trkpt><trkpt lat="45.62784815032071" lon="3.0680291353809657"><ele>693.0</ele><time>2026-05-02T09:49:00Z</time></trkpt><trkpt lat="45.627755176571064" lon="3.068014310058672"><ele>693.2</ele><time>2026-05-02T09:49:01Z</time></trkpt><trkpt lat="45.62767093515321" lon="3.0679885131849582"><ele>693.4</ele><time>2026-05-02T09:49:02Z</time></trkpt><trkpt lat="45.627589271310654" lon="3.0679480348587913"><ele>693.6</ele><time>2026-05-02T09:49:03Z</time></trkpt><trkpt lat="45.62751065162669" lon="3.0678923237299247"><ele>693.8000000000001</ele><time>2026-05-02T09:49:04Z</time></trkpt><trkpt lat="45.62742535259648" lon="3.0678119505259684"><ele>694.0</ele><time>2026-05-02T09:49:05Z</time></trkpt><trkpt lat="45.627343564794636" lon="3.067719976575908"><ele>694.0</ele><time>2026-05-02T09:49:06Z</time></trkpt><trkpt lat="45.6272562864077" lon="3.0676118343328453"><ele>694.0</ele><time>2026-05-02T09:49:07Z</time></trkpt><trkpt lat="45.62715717745656" lon="3.0675189514721466"><ele>694.0</ele><time>2026-05-02T09:49:08Z</time></trkpt><trkpt lat="45.62706555320917" lon="3.0673989937021338"><ele>694.0</ele><time>2026-05-02T09:49:09Z</time></trkpt><trkpt lat="45.62697251308827" lon="3.067278013361054"><ele>696.0</ele><time>2026-05-02T09:49:10Z</time></trkpt><trkpt lat="45.62687771578511" lon="3.0671592311309572"><ele>698.0</ele><time>2026-05-02T09:49:11Z</time></trkpt><trkpt lat="45.6267756249557" lon="3.0670312086056466"><ele>700.0</ele><time>2026-05-02T09:49:12Z</time></trkpt><trkpt lat="45.626667505840224" lon="3.0669006853048213"><ele>702.0</ele><time>2026-05-02T09:49:13Z</time></trkpt><trkpt lat="45.62655829156657" lon="3.066734500654773"><ele>706.6666666666666</ele><time>2026-05-02T09:49:14Z</time></trkpt><trkpt lat="45.626428771425545" lon="3.0665704072395323"><ele>711.3333333333333</ele><time>2026-05-02T09:49:15Z</time></trkpt><trkpt lat="45.62626362823454" lon="3.0664025280245824"><ele>716.0</ele><time>2026-05-02T09:49:16Z</time></trkpt><trkpt lat="45.62609892188593" lon="3.066223723029639"><ele>716.0</ele><time>2026-05-02T09:49:17Z</time></trkpt><trkpt lat="45.62592986226266" lon="3.066094652719592"><ele>716.0</ele><time>2026-05-02T09:49:18Z</time></trkpt><trkpt lat="45.625775448082535" lon="3.066008574310706"><ele>716.0</ele><time>2026-05-02T09:49:19Z</time></trkpt><trkpt lat="45.62564100336156" lon="3.065948624559933"><ele>716.0</ele><time>2026-05-02T09:49:20Z</time></trkpt><trkpt lat="45.62549749097087" lon="3.0658714288121818"><ele>716.0</ele><time>2026-05-02T09:49:21Z</time></trkpt><trkpt lat="45.62535180198966" lon="3.065786401487797"><ele>716.0</ele><time>2026-05-02T09:49:22Z</time></trkpt><trkpt lat="45.62519191980303" lon="3.065694880805792"><ele>718.0</ele><time>2026-05-02T09:49:23Z</time></trkpt><trkpt lat="45.625015608549994" lon="3.065607129441468"><ele>720.0</ele><time>2026-05-02T09:49:24Z</time></trkpt><trkpt lat="45.62484849308815" lon="3.065564493891453"><ele>722.0</ele><time>2026-05-02T09:49:25Z</time></trkpt><trkpt lat="45.62469562951598" lon="3.065548536472121"><ele>722.0</ele><time>2026-05-02T09:49:26Z</time></trkpt><trkpt lat="45.62457166760167" lon="3.0655202461131923"><ele>722.0</ele><time>2026-05-02T09:49:27Z</time></trkpt><trkpt lat="45.62447236937272" lon="3.0654240679128475"><ele>722.0</ele><time>2026-05-02T09:49:28Z</time></trkpt><trkpt lat="45.624390668927376" lon="3.0653132134775083"><ele>722.0</ele><time>2026-05-02T09:49:29Z</time></trkpt><trkpt lat="45.62430607365848" lon="3.065169409101254"><ele>722.6666666666666</ele><time>2026-05-02T09:49:30Z</time></trkpt><trkpt lat="45.624217235472706" lon="3.064999097480418"><ele>723.3333333333334</ele><time>2026-05-02T09:49:31Z</time></trkpt><trkpt lat="45.62412924872357" lon="3.064816155181207"><ele>724.0</ele><time>2026-05-02T09:49:32Z</time></trkpt><trkpt lat="45.62405113453016" lon="3.0646077365934565"><ele>724.0</ele><time>2026-05-02T09:49:33Z</time></trkpt><trkpt lat="45.62397340028782" lon="3.064393316748591"><ele>724.0</ele><time>2026-05-02T09:49:34Z</time></trkpt><trkpt lat="45.62387907246479" lon="3.064201572445602"><ele>724.0</ele><time>2026-05-02T09:49:35Z</time></trkpt><trkpt lat="45.62378048969836" lon="3.0640422933529075"><ele>725.6666666666667</ele><time>2026-05-02T09:49:36Z</time></trkpt><trkpt lat="45.6236420718212" lon="3.063910977880032"><ele>727.3333333333334</ele><time>2026-05-02T09:49:37Z</time></trkpt><trkpt lat="45.62346771896475" lon="3.0638074262501465"><ele>729.0</ele><time>2026-05-02T09:49:38Z</time></trkpt><trkpt lat="45.623278430845566" lon="3.063712293142867"><ele>729.0</ele><time>2026-05-02T09:49:39Z</time></trkpt><trkpt lat="45.62312580701367" lon="3.06355587444261"><ele>729.0</ele><time>2026-05-02T09:49:40Z</time></trkpt><trkpt lat="45.62296965641306" lon="3.0634025480497846"><ele>729.0</ele><time>2026-05-02T09:49:41Z</time></trkpt><trkpt lat="45.622837402636655" lon="3.0632493054781955"><ele>730.5</ele><time>2026-05-02T09:49:42Z</time></trkpt><trkpt lat="45.62271511351253" lon="3.06312537880345"><ele>732.0</ele><time>2026-05-02T09:49:43Z</time></trkpt><trkpt lat="45.62261399874774" lon="3.0630003608537404"><ele>733.5</ele><time>2026-05-02T09:49:44Z</time></trkpt><trkpt lat="45.622513479535776" lon="3.062905526860826"><ele>735.0</ele><time>2026-05-02T09:49:45Z</time></trkpt><trkpt lat="45.62240656558888" lon="3.062848618588384"><ele>735.0</ele><time>2026-05-02T09:49:46Z</time></trkpt><trkpt lat="45.62228295692395" lon="3.0628436731677438"><ele>735.0</ele><time>2026-05-02T09:49:47Z</time></trkpt><trkpt lat="45.62214304127722" lon="3.062891956074792"><ele>735.0</ele><time>2026-05-02T09:49:48Z</time></trkpt><trkpt lat="45.622003632747116" lon="3.0629839892913813"><ele>735.0</ele><time>2026-05-02T09:49:49Z</time></trkpt><trkpt lat="45.6218504166338" lon="3.0630573944298267"><ele>736.25</ele><time>2026-05-02T09:49:50Z</time></trkpt><trkpt lat="45.6216909739684" lon="3.0631312783783775"><ele>737.5</ele><time>2026-05-02T09:49:51Z</time></trkpt><trkpt lat="45.621540533190036" lon="3.0631731879818855"><ele>738.75</ele><time>2026-05-02T09:49:52Z</time></trkpt><trkpt lat="45.62141657518828" lon="3.0631597673359616"><ele>740.0</ele><time>2026-05-02T09:49:53Z</time></trkpt><trkpt lat="45.621299498383834" lon="3.0631056157052314"><ele>740.0</ele><time>2026-05-02T09:49:54Z</time></trkpt><trkpt lat="45.621208428492075" lon="3.062992562546902"><ele>740.0</ele><time>2026-05-02T09:49:55Z</time></trkpt><trkpt lat="45.621120966970224" lon="3.062849502621267"><ele>740.0</ele><time>2026-05-02T09:49:56Z</time></trkpt><trkpt lat="45.62104919897906" lon="3.062678187240028"><ele>740.0</ele><time>2026-05-02T09:49:57Z</time></trkpt><trkpt lat="45.62099634846834" lon="3.062509578368751"><ele>741.75</ele><time>2026-05-02T09:49:58Z</time></trkpt><trkpt lat="45.62096008838885" lon="3.0623321023472103"><ele>743.5</ele><time>2026-05-02T09:49:59Z</time></trkpt><trkpt lat="45.62094226184384" lon="3.0621627592721112"><ele>745.25</ele><time>2026-05-02T09:50:00Z</time></trkpt><trkpt lat="45.62092127236823" lon="3.061977506966098"><ele>747.0</ele><time>2026-05-02T09:50:01Z</time></trkpt><trkpt lat="45.620875752658094" lon="3.061798822546394"><ele>748.5</ele><time>2026-05-02T09:50:02Z</time></trkpt><trkpt lat="45.62084140553633" lon="3.0616064609620164"><ele>750.0</ele><time>2026-05-02T09:50:03Z</time></trkpt><trkpt lat="45.62080354226419" lon="3.061409574464835"><ele>751.5</ele><time>2026-05-02T09:50:04Z</time></trkpt><trkpt lat="45.62076682519533" lon="3.061207454922508"><ele>753.0</ele><time>2026-05-02T09:50:05Z</time></trkpt><trkpt lat="45.62071568737964" lon="3.061009847444569"><ele>753.0</ele><time>2026-05-02T09:50:06Z</time></trkpt><trkpt lat="45.62066609179483" lon="3.060806807094716"><ele>753.0</ele><time>2026-05-02T09:50:07Z</time></trkpt><trkpt lat="45.62061978066022" lon="3.060601408367107"><ele>753.0</ele><time>2026-05-02T09:50:08Z</time></trkpt><trkpt lat="45.620574566244436" lon="3.060393834450198"><ele>753.3333333333334</ele><time>2026-05-02T09:50:09Z</time></trkpt><trkpt lat="45.62053023863167" lon="3.060184383269991"><ele>753.6666666666667</ele><time>2026-05-02T09:50:10Z</time></trkpt><trkpt lat="45.62050303876061" lon="3.0599739788950946"><ele>754.0</ele><time>2026-05-02T09:50:11Z</time></trkpt><trkpt lat="45.620458711937765" lon="3.0597609909889227"><ele>754.0</ele><time>2026-05-02T09:50:12Z</time></trkpt><trkpt lat="45.62041530101274" lon="3.0595524039721766"><ele>754.0</ele><time>2026-05-02T09:50:13Z</time></trkpt><trkpt lat="45.62036965454135" lon="3.0593383483466297"><ele>754.0</ele><time>2026-05-02T09:50:14Z</time></trkpt><trkpt lat="45.620324746693036" lon="3.059129338701288"><ele>755.0</ele><time>2026-05-02T09:50:15Z</time></trkpt><trkpt lat="45.620278969157376" lon="3.058915105209796"><ele>756.0</ele><time>2026-05-02T09:50:16Z</time></trkpt><trkpt lat="45.62023366837087" lon="3.058702844412242"><ele>757.0</ele><time>2026-05-02T09:50:17Z</time></trkpt><trkpt lat="45.620189139889" lon="3.0584939655664605"><ele>757.0</ele><time>2026-05-02T09:50:18Z</time></trkpt><trkpt lat="45.62014046127152" lon="3.0582974137500227"><ele>757.0</ele><time>2026-05-02T09:50:19Z</time></trkpt><trkpt lat="45.62010568709361" lon="3.0580909196655757"><ele>757.0</ele><time>2026-05-02T09:50:20Z</time></trkpt><trkpt lat="45.6200783252985" lon="3.05789015237766"><ele>757.0</ele><time>2026-05-02T09:50:21Z</time></trkpt><trkpt lat="45.6200630206611" lon="3.057691768225999"><ele>759.0</ele><time>2026-05-02T09:50:22Z</time></trkpt><trkpt lat="45.620056884123734" lon="3.0574973752598242"><ele>761.0</ele><time>2026-05-02T09:50:23Z</time></trkpt><trkpt lat="45.62007406621124" lon="3.0573067893450667"><ele>763.0</ele><time>2026-05-02T09:50:24Z</time></trkpt><trkpt lat="45.620074842895626" lon="3.0571106420197083"><ele>765.0</ele><time>2026-05-02T09:50:25Z</time></trkpt><trkpt lat="45.620074234948504" lon="3.0569196514923984"><ele>766.25</ele><time>2026-05-02T09:50:26Z</time></trkpt><trkpt lat="45.620073622748116" lon="3.0567273248158213"><ele>767.5</ele><time>2026-05-02T09:50:27Z</time></trkpt><trkpt lat="45.62007282799624" lon="3.0565426516602416"><ele>768.75</ele><time>2026-05-02T09:50:28Z</time></trkpt><trkpt lat="45.62007160983735" lon="3.056350888168087"><ele>770.0</ele><time>2026-05-02T09:50:29Z</time></trkpt><trkpt lat="45.62007134306218" lon="3.056160616315512"><ele>771.0</ele><time>2026-05-02T09:50:30Z</time></trkpt><trkpt lat="45.62006326629141" lon="3.0559649196851537"><ele>772.0</ele><time>2026-05-02T09:50:31Z</time></trkpt><trkpt lat="45.620076201472905" lon="3.0557703608985185"><ele>773.0</ele><time>2026-05-02T09:50:32Z</time></trkpt><trkpt lat="45.620096814801734" lon="3.055580158957025"><ele>774.0</ele><time>2026-05-02T09:50:33Z</time></trkpt><trkpt lat="45.62011985209817" lon="3.0553998168262573"><ele>775.25</ele><time>2026-05-02T09:50:34Z</time></trkpt><trkpt lat="45.620144241469795" lon="3.0552108440708854"><ele>776.5</ele><time>2026-05-02T09:50:35Z</time></trkpt><trkpt lat="45.62016423974816" lon="3.055030706729934"><ele>777.75</ele><time>2026-05-02T09:50:36Z</time></trkpt><trkpt lat="45.6201674851121" lon="3.054852550203122"><ele>779.0</ele><time>2026-05-02T09:50:37Z</time></trkpt><trkpt lat="45.6201440595381" lon="3.054681417760336"><ele>780.5</ele><time>2026-05-02T09:50:38Z</time></trkpt><trkpt lat="45.62009683233645" lon="3.054521826063854"><ele>782.0</ele><time>2026-05-02T09:50:39Z</time></trkpt><trkpt lat="45.62003715076542" lon="3.0543771386724297"><ele>783.5</ele><time>2026-05-02T09:50:40Z</time></trkpt><trkpt lat="45.619971527698226" lon="3.0542375555943084"><ele>785.0</ele><time>2026-05-02T09:50:41Z</time></trkpt><trkpt lat="45.61992643168516" lon="3.054086637209615"><ele>786.0</ele><time>2026-05-02T09:50:42Z</time></trkpt><trkpt lat="45.61987984783342" lon="3.0539416750012025"><ele>787.0</ele><time>2026-05-02T09:50:43Z</time></trkpt><trkpt lat="45.61985719443394" lon="3.0537908298725522"><ele>788.0</ele><time>2026-05-02T09:50:44Z</time></trkpt><trkpt lat="45.61984167382736" lon="3.0536335010720506"><ele>789.0</ele><time>2026-05-02T09:50:45Z</time></trkpt><trkpt lat="45.619814268040685" lon="3.05346900601975"><ele>790.0</ele><time>2026-05-02T09:50:46Z</time></trkpt><trkpt lat="45.61980576779319" lon="3.0533252651591316"><ele>791.3333333333333</ele><time>2026-05-02T09:50:47Z</time></trkpt><trkpt lat="45.6198015390432" lon="3.053193613873286"><ele>792.6666666666666</ele><time>2026-05-02T09:50:48Z</time></trkpt><trkpt lat="45.61979435399277" lon="3.0530822306050047"><ele>794.0</ele><time>2026-05-02T09:50:49Z</time></trkpt><trkpt lat="45.6197902149194" lon="3.052970089126732"><ele>795.3333333333333</ele><time>2026-05-02T09:50:50Z</time></trkpt><trkpt lat="45.61977503563743" lon="3.0528716241573925"><ele>796.6666666666666</ele><time>2026-05-02T09:50:51Z</time></trkpt><trkpt lat="45.61972988276257" lon="3.0527235681328535"><ele>798.0</ele><time>2026-05-02T09:50:53Z</time></trkpt><trkpt lat="45.619645565813336" lon="3.052604779267624"><ele>798.0</ele><time>2026-05-02T09:50:55Z</time></trkpt><trkpt lat="45.619564462755264" lon="3.0524975984269735"><ele>798.0</ele><time>2026-05-02T09:50:57Z</time></trkpt><trkpt lat="45.619490108982" lon="3.052387999993898"><ele>798.0</ele><time>2026-05-02T09:50:59Z</time></trkpt><trkpt lat="45.619410489003926" lon="3.052300779739135"><ele>798.0</ele><time>2026-05-02T09:51:01Z</time></trkpt><trkpt lat="45.619294268035766" lon="3.0522528093706573"><ele>798.0</ele><time>2026-05-02T09:51:03Z</time></trkpt><trkpt lat="45.61923111519256" lon="3.052214310899639"><ele>798.0</ele><time>2026-05-02T09:51:04Z</time></trkpt><trkpt lat="45.61915533164076" lon="3.0521978751340537"><ele>798.0</ele><time>2026-05-02T09:51:05Z</time></trkpt><trkpt lat="45.619072972964574" lon="3.052190735516468"><ele>798.0</ele><time>2026-05-02T09:51:06Z</time></trkpt><trkpt lat="45.61898143357575" lon="3.0521898245677166"><ele>798.0</ele><time>2026-05-02T09:51:07Z</time></trkpt><trkpt lat="45.61889074144324" lon="3.0521931955256445"><ele>798.0</ele><time>2026-05-02T09:51:08Z</time></trkpt><trkpt lat="45.618805478600166" lon="3.0521981712427824"><ele>798.0</ele><time>2026-05-02T09:51:09Z</time></trkpt><trkpt lat="45.61872724803737" lon="3.0522032264764842"><ele>797.6666666666666</ele><time>2026-05-02T09:51:10Z</time></trkpt><trkpt lat="45.618649814469954" lon="3.0522082683141742"><ele>797.3333333333333</ele><time>2026-05-02T09:51:11Z</time></trkpt><trkpt lat="45.61857591042235" lon="3.052213080334102"><ele>797.0</ele><time>2026-05-02T09:51:12Z</time></trkpt><trkpt lat="45.61850194878407" lon="3.052217896103278"><ele>796.6666666666666</ele><time>2026-05-02T09:51:13Z</time></trkpt><trkpt lat="45.61842806140773" lon="3.0522232145477783"><ele>796.3333333333333</ele><time>2026-05-02T09:51:14Z</time></trkpt><trkpt lat="45.61829672602846" lon="3.0522328251518025"><ele>796.0</ele><time>2026-05-02T09:51:16Z</time></trkpt><trkpt lat="45.61821868209685" lon="3.0522385360932955"><ele>796.0</ele><time>2026-05-02T09:51:17Z</time></trkpt><trkpt lat="45.618128520200024" lon="3.0522451337814536"><ele>796.0</ele><time>2026-05-02T09:51:18Z</time></trkpt><trkpt lat="45.6180274831255" lon="3.0522524602289147"><ele>796.0</ele><time>2026-05-02T09:51:19Z</time></trkpt><trkpt lat="45.61791276820423" lon="3.0522595126862226"><ele>796.0</ele><time>2026-05-02T09:51:20Z</time></trkpt><trkpt lat="45.61779992888409" lon="3.052266449828283"><ele>796.0</ele><time>2026-05-02T09:51:21Z</time></trkpt><trkpt lat="45.617687842385756" lon="3.0522748660418952"><ele>795.0</ele><time>2026-05-02T09:51:22Z</time></trkpt><trkpt lat="45.617582025011096" lon="3.052285468658683"><ele>794.0</ele><time>2026-05-02T09:51:23Z</time></trkpt><trkpt lat="45.617482407509826" lon="3.052295448105301"><ele>793.0</ele><time>2026-05-02T09:51:24Z</time></trkpt><trkpt lat="45.61737828544028" lon="3.0523039517346597"><ele>792.0</ele><time>2026-05-02T09:51:25Z</time></trkpt><trkpt lat="45.61726599758024" lon="3.0523096950122186"><ele>791.0</ele><time>2026-05-02T09:51:26Z</time></trkpt><trkpt lat="45.617166591103846" lon="3.0523097537882733"><ele>791.0</ele><time>2026-05-02T09:51:27Z</time></trkpt><trkpt lat="45.61707548208372" lon="3.052297872594968"><ele>791.0</ele><time>2026-05-02T09:51:28Z</time></trkpt><trkpt lat="45.616998160791326" lon="3.052274164520376"><ele>791.0</ele><time>2026-05-02T09:51:29Z</time></trkpt><trkpt lat="45.61691371560413" lon="3.05223237820385"><ele>791.0</ele><time>2026-05-02T09:51:30Z</time></trkpt><trkpt lat="45.61682487507475" lon="3.0521624182286162"><ele>791.0</ele><time>2026-05-02T09:51:31Z</time></trkpt><trkpt lat="45.616735739325996" lon="3.0520802565329848"><ele>789.25</ele><time>2026-05-02T09:51:32Z</time></trkpt><trkpt lat="45.61663424134644" lon="3.051982344939838"><ele>787.5</ele><time>2026-05-02T09:51:33Z</time></trkpt><trkpt lat="45.61653059793014" lon="3.051880433690859"><ele>785.75</ele><time>2026-05-02T09:51:34Z</time></trkpt><trkpt lat="45.61642431966356" lon="3.051802603837577"><ele>784.0</ele><time>2026-05-02T09:51:35Z</time></trkpt><trkpt lat="45.616338964129646" lon="3.05168821405609"><ele>784.5</ele><time>2026-05-02T09:51:36Z</time></trkpt><trkpt lat="45.61623796452448" lon="3.051585135843531"><ele>785.0</ele><time>2026-05-02T09:51:37Z</time></trkpt><trkpt lat="45.61612243489909" lon="3.051490273011314"><ele>785.5</ele><time>2026-05-02T09:51:38Z</time></trkpt><trkpt lat="45.61602574861355" lon="3.0513685253518426"><ele>786.0</ele><time>2026-05-02T09:51:39Z</time></trkpt><trkpt lat="45.615916201292784" lon="3.0512780842691267"><ele>786.0</ele><time>2026-05-02T09:51:40Z</time></trkpt><trkpt lat="45.61580083615077" lon="3.051203808308055"><ele>786.0</ele><time>2026-05-02T09:51:41Z</time></trkpt><trkpt lat="45.61566607493216" lon="3.0511861482882727"><ele>786.0</ele><time>2026-05-02T09:51:42Z</time></trkpt><trkpt lat="45.615529823863476" lon="3.0511785556101048"><ele>786.0</ele><time>2026-05-02T09:51:43Z</time></trkpt><trkpt lat="45.615391003861404" lon="3.051202446488949"><ele>785.25</ele><time>2026-05-02T09:51:44Z</time></trkpt><trkpt lat="45.615254365178785" lon="3.051233513180031"><ele>784.5</ele><time>2026-05-02T09:51:45Z</time></trkpt><trkpt lat="45.615112714839505" lon="3.051234452343177"><ele>783.75</ele><time>2026-05-02T09:51:46Z</time></trkpt><trkpt lat="45.61496735183305" lon="3.051255710332622"><ele>783.0</ele><time>2026-05-02T09:51:47Z</time></trkpt><trkpt lat="45.61482563852739" lon="3.051275085224896"><ele>783.0</ele><time>2026-05-02T09:51:48Z</time></trkpt><trkpt lat="45.61469078469809" lon="3.0512963386719427"><ele>783.0</ele><time>2026-05-02T09:51:49Z</time></trkpt><trkpt lat="45.61456579290387" lon="3.051323753957446"><ele>783.0</ele><time>2026-05-02T09:51:50Z</time></trkpt><trkpt lat="45.61444618328232" lon="3.0513834774102566"><ele>783.0</ele><time>2026-05-02T09:51:51Z</time></trkpt><trkpt lat="45.61432188783956" lon="3.051418959980242"><ele>783.75</ele><time>2026-05-02T09:51:52Z</time></trkpt><trkpt lat="45.61421298507435" lon="3.0514824871542956"><ele>784.5</ele><time>2026-05-02T09:51:53Z</time></trkpt><trkpt lat="45.61410015988844" lon="3.051500741087672"><ele>785.25</ele><time>2026-05-02T09:51:54Z</time></trkpt><trkpt lat="45.61397794790697" lon="3.051503683692634"><ele>786.0</ele><time>2026-05-02T09:51:55Z</time></trkpt><trkpt lat="45.61384676646898" lon="3.0515031648407653"><ele>786.0</ele><time>2026-05-02T09:51:56Z</time></trkpt><trkpt lat="45.613724050888756" lon="3.0514992430355803"><ele>786.0</ele><time>2026-05-02T09:51:57Z</time></trkpt><trkpt lat="45.613593394301795" lon="3.051485819656546"><ele>786.0</ele><time>2026-05-02T09:51:58Z</time></trkpt><trkpt lat="45.61344973562807" lon="3.0514712379968154"><ele>786.0</ele><time>2026-05-02T09:51:59Z</time></trkpt><trkpt lat="45.61329382321725" lon="3.051438150170939"><ele>784.3333333333333</ele><time>2026-05-02T09:52:00Z</time></trkpt><trkpt lat="45.61314292354712" lon="3.0513780941064184"><ele>782.6666666666666</ele><time>2026-05-02T09:52:01Z</time></trkpt><trkpt lat="45.612996077820675" lon="3.051310470681945"><ele>781.0</ele><time>2026-05-02T09:52:02Z</time></trkpt><trkpt lat="45.61285899424978" lon="3.0512466243732836"><ele>778.75</ele><time>2026-05-02T09:52:03Z</time></trkpt><trkpt lat="45.61272563986142" lon="3.0511763525285525"><ele>776.5</ele><time>2026-05-02T09:52:04Z</time></trkpt><trkpt lat="45.61258555447789" lon="3.0510997361645256"><ele>774.25</ele><time>2026-05-02T09:52:05Z</time></trkpt><trkpt lat="45.61244583640929" lon="3.051013758880083"><ele>772.0</ele><time>2026-05-02T09:52:06Z</time></trkpt><trkpt lat="45.61230685725193" lon="3.0509090828709695"><ele>771.0</ele><time>2026-05-02T09:52:07Z</time></trkpt><trkpt lat="45.612168348118054" lon="3.050790896656671"><ele>770.0</ele><time>2026-05-02T09:52:08Z</time></trkpt><trkpt lat="45.61204215498634" lon="3.05066474192662"><ele>769.0</ele><time>2026-05-02T09:52:09Z</time></trkpt><trkpt lat="45.611926922684646" lon="3.050535606661"><ele>769.0</ele><time>2026-05-02T09:52:10Z</time></trkpt><trkpt lat="45.6118160416627" lon="3.050408426283495"><ele>769.0</ele><time>2026-05-02T09:52:11Z</time></trkpt><trkpt lat="45.61169984399063" lon="3.0503032684338915"><ele>769.0</ele><time>2026-05-02T09:52:12Z</time></trkpt><trkpt lat="45.61160102316802" lon="3.0501713434827646"><ele>769.0</ele><time>2026-05-02T09:52:13Z</time></trkpt><trkpt lat="45.61148026526977" lon="3.0500961437259897"><ele>769.0</ele><time>2026-05-02T09:52:14Z</time></trkpt><trkpt lat="45.61136117625093" lon="3.0500337889798814"><ele>769.0</ele><time>2026-05-02T09:52:15Z</time></trkpt><trkpt lat="45.61123397042283" lon="3.0500114684251356"><ele>769.0</ele><time>2026-05-02T09:52:16Z</time></trkpt><trkpt lat="45.61110642410249" lon="3.050042637497081"><ele>769.0</ele><time>2026-05-02T09:52:17Z</time></trkpt><trkpt lat="45.61099461073782" lon="3.0501251149910162"><ele>769.0</ele><time>2026-05-02T09:52:18Z</time></trkpt><trkpt lat="45.61090255329786" lon="3.050250999487512"><ele>769.0</ele><time>2026-05-02T09:52:19Z</time></trkpt><trkpt lat="45.610852188384364" lon="3.0504209178275743"><ele>769.0</ele><time>2026-05-02T09:52:20Z</time></trkpt><trkpt lat="45.610834140951205" lon="3.050620904654746"><ele>769.0</ele><time>2026-05-02T09:52:21Z</time></trkpt><trkpt lat="45.610824438976515" lon="3.0508202355925196"><ele>769.0</ele><time>2026-05-02T09:52:22Z</time></trkpt><trkpt lat="45.61080493244997" lon="3.051024450141709"><ele>769.0</ele><time>2026-05-02T09:52:23Z</time></trkpt><trkpt lat="45.61079503969643" lon="3.0512411792725924"><ele>769.0</ele><time>2026-05-02T09:52:24Z</time></trkpt><trkpt lat="45.61078345703783" lon="3.0514493145557378"><ele>769.0</ele><time>2026-05-02T09:52:25Z</time></trkpt><trkpt lat="45.6107802798853" lon="3.0516601246513484"><ele>768.5</ele><time>2026-05-02T09:52:26Z</time></trkpt><trkpt lat="45.61078112377628" lon="3.0518493505137148"><ele>768.0</ele><time>2026-05-02T09:52:27Z</time></trkpt><trkpt lat="45.610781313550355" lon="3.052030919332602"><ele>767.5</ele><time>2026-05-02T09:52:28Z</time></trkpt><trkpt lat="45.61077843675605" lon="3.05220768848572"><ele>767.0</ele><time>2026-05-02T09:52:29Z</time></trkpt><trkpt lat="45.6107760100553" lon="3.0523763250968425"><ele>766.0</ele><time>2026-05-02T09:52:30Z</time></trkpt><trkpt lat="45.610770323837535" lon="3.052537809469659"><ele>765.0</ele><time>2026-05-02T09:52:31Z</time></trkpt><trkpt lat="45.61076306580859" lon="3.0526965060906366"><ele>764.0</ele><time>2026-05-02T09:52:32Z</time></trkpt><trkpt lat="45.61073390313615" lon="3.0528455383412822"><ele>763.0</ele><time>2026-05-02T09:52:33Z</time></trkpt><trkpt lat="45.61063300654335" lon="3.0529308567467934"><ele>763.0</ele><time>2026-05-02T09:52:34Z</time></trkpt><trkpt lat="45.6105574115472" lon="3.0530284702906023"><ele>763.0</ele><time>2026-05-02T09:52:35Z</time></trkpt><trkpt lat="45.61045554281128" lon="3.053075217516346"><ele>763.0</ele><time>2026-05-02T09:52:36Z</time></trkpt><trkpt lat="45.61036762162265" lon="3.053108566262454"><ele>763.0</ele><time>2026-05-02T09:52:37Z</time></trkpt><trkpt lat="45.61026482934239" lon="3.0529205048315555"><ele>762.25</ele><time>2026-05-02T09:52:38Z</time></trkpt><trkpt lat="45.610170450261364" lon="3.052836538296306"><ele>761.5</ele><time>2026-05-02T09:52:39Z</time></trkpt><trkpt lat="45.610064109610136" lon="3.052734911945157"><ele>760.75</ele><time>2026-05-02T09:52:40Z</time></trkpt><trkpt lat="45.60995460708589" lon="3.052624439846254"><ele>760.0</ele><time>2026-05-02T09:52:41Z</time></trkpt><trkpt lat="45.60983507548362" lon="3.052503034688959"><ele>760.3333333333334</ele><time>2026-05-02T09:52:42Z</time></trkpt><trkpt lat="45.60969982252716" lon="3.0523973480277555"><ele>760.6666666666666</ele><time>2026-05-02T09:52:43Z</time></trkpt><trkpt lat="45.60957155836722" lon="3.0522686226991316"><ele>761.0</ele><time>2026-05-02T09:52:44Z</time></trkpt><trkpt lat="45.6094434583816" lon="3.052139090371691"><ele>761.0</ele><time>2026-05-02T09:52:45Z</time></trkpt><trkpt lat="45.60930800125286" lon="3.0520045083148024"><ele>761.0</ele><time>2026-05-02T09:52:46Z</time></trkpt><trkpt lat="45.609177852749355" lon="3.0518824183957487"><ele>761.0</ele><time>2026-05-02T09:52:47Z</time></trkpt><trkpt lat="45.60903137812049" lon="3.0517349271696106"><ele>762.6666666666666</ele><time>2026-05-02T09:52:48Z</time></trkpt><trkpt lat="45.608912408179116" lon="3.051589823947112"><ele>764.3333333333334</ele><time>2026-05-02T09:52:49Z</time></trkpt><trkpt lat="45.60877424457366" lon="3.051451765821288"><ele>766.0</ele><time>2026-05-02T09:52:50Z</time></trkpt><trkpt lat="45.60864383195959" lon="3.051321452821597"><ele>766.0</ele><time>2026-05-02T09:52:51Z</time></trkpt><trkpt lat="45.608509888883546" lon="3.0511876120034356"><ele>766.0</ele><time>2026-05-02T09:52:52Z</time></trkpt><trkpt lat="45.608371017417255" lon="3.051071046481285"><ele>766.0</ele><time>2026-05-02T09:52:53Z</time></trkpt><trkpt lat="45.608246013367165" lon="3.0509432426155616"><ele>767.0</ele><time>2026-05-02T09:52:54Z</time></trkpt><trkpt lat="45.608143041214724" lon="3.0507889587395005"><ele>768.0</ele><time>2026-05-02T09:52:55Z</time></trkpt><trkpt lat="45.608052307205874" lon="3.050632800442088"><ele>769.0</ele><time>2026-05-02T09:52:56Z</time></trkpt><trkpt lat="45.60797162579154" lon="3.050459519551609"><ele>770.0</ele><time>2026-05-02T09:52:57Z</time></trkpt><trkpt lat="45.60790690868727" lon="3.0502830001442516"><ele>770.0</ele><time>2026-05-02T09:52:58Z</time></trkpt><trkpt lat="45.60784417437205" lon="3.0500945878419463"><ele>770.0</ele><time>2026-05-02T09:52:59Z</time></trkpt><trkpt lat="45.60778322834932" lon="3.049906088114986"><ele>770.0</ele><time>2026-05-02T09:53:00Z</time></trkpt><trkpt lat="45.60770542656736" lon="3.0497119145844933"><ele>770.0</ele><time>2026-05-02T09:53:01Z</time></trkpt><trkpt lat="45.60765691758767" lon="3.0495123315178128"><ele>769.6666666666667</ele><time>2026-05-02T09:53:02Z</time></trkpt><trkpt lat="45.607583342594914" lon="3.04931534041788"><ele>769.3333333333333</ele><time>2026-05-02T09:53:03Z</time></trkpt><trkpt lat="45.60755008984635" lon="3.049098254833994"><ele>769.0</ele><time>2026-05-02T09:53:04Z</time></trkpt><trkpt lat="45.60751827515747" lon="3.0488842189153145"><ele>770.0</ele><time>2026-05-02T09:53:05Z</time></trkpt><trkpt lat="45.607472175463464" lon="3.0486686581872506"><ele>771.0</ele><time>2026-05-02T09:53:06Z</time></trkpt><trkpt lat="45.60744797804343" lon="3.0484496295422145"><ele>772.0</ele><time>2026-05-02T09:53:07Z</time></trkpt><trkpt lat="45.60743587883709" lon="3.048226508600083"><ele>772.6666666666666</ele><time>2026-05-02T09:53:08Z</time></trkpt><trkpt lat="45.60741045567543" lon="3.0480122188650958"><ele>773.3333333333333</ele><time>2026-05-02T09:53:09Z</time></trkpt><trkpt lat="45.607382684186184" lon="3.0477781352691515"><ele>774.0</ele><time>2026-05-02T09:53:10Z</time></trkpt><trkpt lat="45.607356710299804" lon="3.0475586591956874"><ele>775.0</ele><time>2026-05-02T09:53:11Z</time></trkpt><trkpt lat="45.60733054830162" lon="3.047334190380328"><ele>776.0</ele><time>2026-05-02T09:53:12Z</time></trkpt><trkpt lat="45.60730489448358" lon="3.047119998194926"><ele>777.0</ele><time>2026-05-02T09:53:13Z</time></trkpt><trkpt lat="45.60727515859961" lon="3.046890347413666"><ele>777.0</ele><time>2026-05-02T09:53:14Z</time></trkpt><trkpt lat="45.60724622144763" lon="3.0466705527290188"><ele>777.0</ele><time>2026-05-02T09:53:15Z</time></trkpt><trkpt lat="45.607218555385984" lon="3.0464545927524203"><ele>777.0</ele><time>2026-05-02T09:53:16Z</time></trkpt><trkpt lat="45.60719542577112" lon="3.046244461188654"><ele>776.75</ele><time>2026-05-02T09:53:17Z</time></trkpt><trkpt lat="45.60718262613982" lon="3.046046805117693"><ele>776.5</ele><time>2026-05-02T09:53:18Z</time></trkpt><trkpt lat="45.60718324691265" lon="3.045833613664915"><ele>776.25</ele><time>2026-05-02T09:53:19Z</time></trkpt><trkpt lat="45.60718745704634" lon="3.0456190090804243"><ele>776.0</ele><time>2026-05-02T09:53:20Z</time></trkpt><trkpt lat="45.60718157322152" lon="3.045405377636841"><ele>776.0</ele><time>2026-05-02T09:53:21Z</time></trkpt><trkpt lat="45.607213052410785" lon="3.0451864200208902"><ele>776.0</ele><time>2026-05-02T09:53:22Z</time></trkpt><trkpt lat="45.60722168587271" lon="3.04495434671465"><ele>776.0</ele><time>2026-05-02T09:53:23Z</time></trkpt><trkpt lat="45.60723121749168" lon="3.044719311046082"><ele>774.0</ele><time>2026-05-02T09:53:24Z</time></trkpt><trkpt lat="45.607240672500296" lon="3.044486164426248"><ele>772.0</ele><time>2026-05-02T09:53:25Z</time></trkpt><trkpt lat="45.60725268131658" lon="3.0442411635127877"><ele>770.0</ele><time>2026-05-02T09:53:26Z</time></trkpt><trkpt lat="45.607247331453095" lon="3.0440058513031207"><ele>768.6666666666667</ele><time>2026-05-02T09:53:27Z</time></trkpt><trkpt lat="45.60726004424822" lon="3.0437594443057976"><ele>767.3333333333334</ele><time>2026-05-02T09:53:28Z</time></trkpt><trkpt lat="45.6073004242839" lon="3.0435268012488663"><ele>766.0</ele><time>2026-05-02T09:53:29Z</time></trkpt><trkpt lat="45.6073410121592" lon="3.0432979616964486"><ele>765.0</ele><time>2026-05-02T09:53:30Z</time></trkpt><trkpt lat="45.607387819750926" lon="3.0430883078075226"><ele>764.0</ele><time>2026-05-02T09:53:31Z</time></trkpt><trkpt lat="45.60743177536837" lon="3.042888976282474"><ele>763.0</ele><time>2026-05-02T09:53:32Z</time></trkpt><trkpt lat="45.60746221586929" lon="3.0426870650839777"><ele>762.0</ele><time>2026-05-02T09:53:33Z</time></trkpt><trkpt lat="45.607525187854826" lon="3.042503886557553"><ele>761.25</ele><time>2026-05-02T09:53:34Z</time></trkpt><trkpt lat="45.60758021556867" lon="3.042324818425888"><ele>760.5</ele><time>2026-05-02T09:53:35Z</time></trkpt><trkpt lat="45.60766045685432" lon="3.0421747496975704"><ele>759.75</ele><time>2026-05-02T09:53:36Z</time></trkpt><trkpt lat="45.607757305001115" lon="3.042030473106659"><ele>759.0</ele><time>2026-05-02T09:53:37Z</time></trkpt><trkpt lat="45.607857596587515" lon="3.04189176980557"><ele>761.0</ele><time>2026-05-02T09:53:38Z</time></trkpt><trkpt lat="45.60795634376146" lon="3.0417722200649546"><ele>763.0</ele><time>2026-05-02T09:53:39Z</time></trkpt><trkpt lat="45.608036434502914" lon="3.0416191444027256"><ele>765.0</ele><time>2026-05-02T09:53:40Z</time></trkpt><trkpt lat="45.608079031820644" lon="3.0414344007840155"><ele>767.0</ele><time>2026-05-02T09:53:41Z</time></trkpt><trkpt lat="45.608088673735296" lon="3.041223109432999"><ele>767.0</ele><time>2026-05-02T09:53:42Z</time></trkpt><trkpt lat="45.60807750078762" lon="3.0410006092788833"><ele>767.0</ele><time>2026-05-02T09:53:43Z</time></trkpt><trkpt lat="45.60804924316171" lon="3.040755416239526"><ele>767.0</ele><time>2026-05-02T09:53:44Z</time></trkpt><trkpt lat="45.60801104952157" lon="3.0405450488003987"><ele>766.3333333333333</ele><time>2026-05-02T09:53:45Z</time></trkpt><trkpt lat="45.607964145411145" lon="3.040331461777629"><ele>765.6666666666666</ele><time>2026-05-02T09:53:46Z</time></trkpt><trkpt lat="45.60792954575355" lon="3.040115004591175"><ele>765.0</ele><time>2026-05-02T09:53:47Z</time></trkpt><trkpt lat="45.607884059555076" lon="3.039897443249464"><ele>764.75</ele><time>2026-05-02T09:53:48Z</time></trkpt><trkpt lat="45.60784042728766" lon="3.0397005514514457"><ele>764.5</ele><time>2026-05-02T09:53:49Z</time></trkpt><trkpt lat="45.60780045280762" lon="3.039513937861347"><ele>764.25</ele><time>2026-05-02T09:53:50Z</time></trkpt><trkpt lat="45.60776612017412" lon="3.0393289005720905"><ele>764.0</ele><time>2026-05-02T09:53:51Z</time></trkpt><trkpt lat="45.607749365525365" lon="3.03913593423347"><ele>764.25</ele><time>2026-05-02T09:53:52Z</time></trkpt><trkpt lat="45.6077596995713" lon="3.0389104957656663"><ele>764.5</ele><time>2026-05-02T09:53:53Z</time></trkpt><trkpt lat="45.607793941949026" lon="3.0386989630833483"><ele>764.75</ele><time>2026-05-02T09:53:54Z</time></trkpt><trkpt lat="45.60782935590609" lon="3.0385145780354765"><ele>765.0</ele><time>2026-05-02T09:53:55Z</time></trkpt><trkpt lat="45.60787123819044" lon="3.038325527298846"><ele>764.0</ele><time>2026-05-02T09:53:56Z</time></trkpt><trkpt lat="45.60791989407196" lon="3.0381395466825936"><ele>763.0</ele><time>2026-05-02T09:53:57Z</time></trkpt><trkpt lat="45.60798064653151" lon="3.0379805196561906"><ele>762.0</ele><time>2026-05-02T09:53:58Z</time></trkpt><trkpt lat="45.60805678391273" lon="3.0378557251778227"><ele>761.0</ele><time>2026-05-02T09:53:59Z</time></trkpt><trkpt lat="45.60814382246458" lon="3.0377432091293555"><ele>761.0</ele><time>2026-05-02T09:54:00Z</time></trkpt><trkpt lat="45.60822438059037" lon="3.037633852916307"><ele>761.0</ele><time>2026-05-02T09:54:01Z</time></trkpt><trkpt lat="45.60829971257361" lon="3.0375329129615793"><ele>761.0</ele><time>2026-05-02T09:54:02Z</time></trkpt><trkpt lat="45.60834412586206" lon="3.0373962988008336"><ele>761.0</ele><time>2026-05-02T09:54:03Z</time></trkpt><trkpt lat="45.60834905279013" lon="3.037238526377538"><ele>761.0</ele><time>2026-05-02T09:54:04Z</time></trkpt><trkpt lat="45.60831961478324" lon="3.0370856696717445"><ele>761.75</ele><time>2026-05-02T09:54:05Z</time></trkpt><trkpt lat="45.608253654180885" lon="3.0369524496484823"><ele>762.5</ele><time>2026-05-02T09:54:06Z</time></trkpt><trkpt lat="45.608153256613114" lon="3.036871496961697"><ele>763.25</ele><time>2026-05-02T09:54:07Z</time></trkpt><trkpt lat="45.60803057684649" lon="3.03684324542383"><ele>764.0</ele><time>2026-05-02T09:54:08Z</time></trkpt><trkpt lat="45.60790641454813" lon="3.0368674168786085"><ele>762.0</ele><time>2026-05-02T09:54:09Z</time></trkpt><trkpt lat="45.60778161467557" lon="3.036866184551151"><ele>760.0</ele><time>2026-05-02T09:54:10Z</time></trkpt><trkpt lat="45.60765802123286" lon="3.0368656844787485"><ele>758.0</ele><time>2026-05-02T09:54:11Z</time></trkpt><trkpt lat="45.60753761911097" lon="3.036848877440412"><ele>756.0</ele><time>2026-05-02T09:54:12Z</time></trkpt><trkpt lat="45.60741861530125" lon="3.0368138286795046"><ele>756.0</ele><time>2026-05-02T09:54:13Z</time></trkpt><trkpt lat="45.60729454225427" lon="3.0367786329013864"><ele>756.0</ele><time>2026-05-02T09:54:14Z</time></trkpt><trkpt lat="45.607172548908935" lon="3.0367474386027924"><ele>756.0</ele><time>2026-05-02T09:54:15Z</time></trkpt><trkpt lat="45.60704312264997" lon="3.0367362716854047"><ele>756.0</ele><time>2026-05-02T09:54:16Z</time></trkpt><trkpt lat="45.60691614763103" lon="3.036697553881298"><ele>757.0</ele><time>2026-05-02T09:54:17Z</time></trkpt><trkpt lat="45.60678819994691" lon="3.0366586269005262"><ele>758.0</ele><time>2026-05-02T09:54:18Z</time></trkpt><trkpt lat="45.60667405576428" lon="3.0366101446334293"><ele>759.0</ele><time>2026-05-02T09:54:19Z</time></trkpt><trkpt lat="45.60657905435944" lon="3.0365140106255613"><ele>760.0</ele><time>2026-05-02T09:54:20Z</time></trkpt><trkpt lat="45.60647749364178" lon="3.0364289805967988"><ele>760.0</ele><time>2026-05-02T09:54:21Z</time></trkpt><trkpt lat="45.606375306803" lon="3.036335275177362"><ele>760.0</ele><time>2026-05-02T09:54:22Z</time></trkpt><trkpt lat="45.60628163576563" lon="3.0362312688530086"><ele>760.0</ele><time>2026-05-02T09:54:23Z</time></trkpt><trkpt lat="45.6062015053866" lon="3.03610063861803"><ele>760.0</ele><time>2026-05-02T09:54:24Z</time></trkpt><trkpt lat="45.60613391355692" lon="3.0359443701076922"><ele>759.0</ele><time>2026-05-02T09:54:25Z</time></trkpt><trkpt lat="45.60606931994584" lon="3.0357847287830597"><ele>758.0</ele><time>2026-05-02T09:54:26Z</time></trkpt><trkpt lat="45.606003617991945" lon="3.035613962014745"><ele>757.0</ele><time>2026-05-02T09:54:27Z</time></trkpt><trkpt lat="45.60594163664538" lon="3.035442852461096"><ele>756.0</ele><time>2026-05-02T09:54:28Z</time></trkpt><trkpt lat="45.60588281294085" lon="3.0352682878300454"><ele>756.0</ele><time>2026-05-02T09:54:29Z</time></trkpt><trkpt lat="45.60582479455277" lon="3.035089332062539"><ele>756.0</ele><time>2026-05-02T09:54:30Z</time></trkpt><trkpt lat="45.6057692937426" lon="3.0349104896007475"><ele>756.0</ele><time>2026-05-02T09:54:31Z</time></trkpt><trkpt lat="45.60571650124408" lon="3.034725696909579"><ele>756.0</ele><time>2026-05-02T09:54:32Z</time></trkpt><trkpt lat="45.60566952773317" lon="3.0345272260473544"><ele>757.5</ele><time>2026-05-02T09:54:33Z</time></trkpt><trkpt lat="45.6056382060613" lon="3.034324008565296"><ele>759.0</ele><time>2026-05-02T09:54:34Z</time></trkpt><trkpt lat="45.605609936391694" lon="3.0341153289047686"><ele>760.5</ele><time>2026-05-02T09:54:35Z</time></trkpt><trkpt lat="45.60559504097472" lon="3.03390986877655"><ele>762.0</ele><time>2026-05-02T09:54:36Z</time></trkpt><trkpt lat="45.60557897499855" lon="3.0336878998139585"><ele>764.5</ele><time>2026-05-02T09:54:37Z</time></trkpt><trkpt lat="45.6055817778743" lon="3.0334739063863116"><ele>767.0</ele><time>2026-05-02T09:54:38Z</time></trkpt><trkpt lat="45.60558551729903" lon="3.033259858166702"><ele>769.5</ele><time>2026-05-02T09:54:39Z</time></trkpt><trkpt lat="45.6055821001857" lon="3.033046800156911"><ele>772.0</ele><time>2026-05-02T09:54:40Z</time></trkpt><trkpt lat="45.60557368281338" lon="3.0328329401990457"><ele>774.3333333333333</ele><time>2026-05-02T09:54:41Z</time></trkpt><trkpt lat="45.60556053256526" lon="3.032603983549922"><ele>776.6666666666667</ele><time>2026-05-02T09:54:42Z</time></trkpt><trkpt lat="45.605540821496064" lon="3.032381236001385"><ele>779.0</ele><time>2026-05-02T09:54:43Z</time></trkpt><trkpt lat="45.60552593324895" lon="3.032154059229929"><ele>779.0</ele><time>2026-05-02T09:54:44Z</time></trkpt><trkpt lat="45.60550995634653" lon="3.031935902907921"><ele>779.0</ele><time>2026-05-02T09:54:45Z</time></trkpt><trkpt lat="45.60549757074963" lon="3.031717452604805"><ele>779.0</ele><time>2026-05-02T09:54:46Z</time></trkpt><trkpt lat="45.60549048511714" lon="3.0314938339753428"><ele>778.3333333333334</ele><time>2026-05-02T09:54:47Z</time></trkpt><trkpt lat="45.60549388956167" lon="3.031275210277605"><ele>777.6666666666667</ele><time>2026-05-02T09:54:48Z</time></trkpt><trkpt lat="45.60552254627241" lon="3.031035330580888"><ele>777.0</ele><time>2026-05-02T09:54:49Z</time></trkpt><trkpt lat="45.60555816354044" lon="3.0308162651805017"><ele>776.0</ele><time>2026-05-02T09:54:50Z</time></trkpt><trkpt lat="45.60559917196097" lon="3.030593823959788"><ele>775.0</ele><time>2026-05-02T09:54:51Z</time></trkpt><trkpt lat="45.605633168705396" lon="3.0304035972365555"><ele>774.0</ele><time>2026-05-02T09:54:52Z</time></trkpt><trkpt lat="45.60566995791209" lon="3.030219682395838"><ele>773.0</ele><time>2026-05-02T09:54:53Z</time></trkpt><trkpt lat="45.60572475950971" lon="3.0300355284453717"><ele>770.25</ele><time>2026-05-02T09:54:54Z</time></trkpt><trkpt lat="45.60579815891892" lon="3.029865495051022"><ele>767.5</ele><time>2026-05-02T09:54:55Z</time></trkpt><trkpt lat="45.605882507938354" lon="3.0297014970629847"><ele>764.75</ele><time>2026-05-02T09:54:56Z</time></trkpt><trkpt lat="45.60597438688836" lon="3.0295249417628254"><ele>762.0</ele><time>2026-05-02T09:54:57Z</time></trkpt><trkpt lat="45.606057369606575" lon="3.0293624181363334"><ele>762.0</ele><time>2026-05-02T09:54:58Z</time></trkpt><trkpt lat="45.60613656899213" lon="3.0292045008111517"><ele>762.0</ele><time>2026-05-02T09:54:59Z</time></trkpt><trkpt lat="45.60622243152613" lon="3.029058862341523"><ele>762.0</ele><time>2026-05-02T09:55:00Z</time></trkpt><trkpt lat="45.606327264145705" lon="3.028941846483997"><ele>762.0</ele><time>2026-05-02T09:55:01Z</time></trkpt><trkpt lat="45.6064526046917" lon="3.0288458535981335"><ele>765.3333333333333</ele><time>2026-05-02T09:55:02Z</time></trkpt><trkpt lat="45.60658851763939" lon="3.0287598580260893"><ele>768.6666666666666</ele><time>2026-05-02T09:55:03Z</time></trkpt><trkpt lat="45.606729238942926" lon="3.0286739971848244"><ele>772.0</ele><time>2026-05-02T09:55:04Z</time></trkpt><trkpt lat="45.60687411455946" lon="3.02857151906123"><ele>773.6666666666666</ele><time>2026-05-02T09:55:05Z</time></trkpt><trkpt lat="45.60701023899884" lon="3.028459922816664"><ele>775.3333333333333</ele><time>2026-05-02T09:55:06Z</time></trkpt><trkpt lat="45.607139745872765" lon="3.0283213323292175"><ele>777.0</ele><time>2026-05-02T09:55:07Z</time></trkpt><trkpt lat="45.60724750269375" lon="3.028160107417185"><ele>777.0</ele><time>2026-05-02T09:55:08Z</time></trkpt><trkpt lat="45.60736057788046" lon="3.0279824393485626"><ele>777.0</ele><time>2026-05-02T09:55:09Z</time></trkpt><trkpt lat="45.60747665983393" lon="3.0278037804588553"><ele>777.0</ele><time>2026-05-02T09:55:10Z</time></trkpt><trkpt lat="45.607593789269124" lon="3.027631116508686"><ele>774.0</ele><time>2026-05-02T09:55:11Z</time></trkpt><trkpt lat="45.60770194990713" lon="3.0274703369629217"><ele>771.0</ele><time>2026-05-02T09:55:12Z</time></trkpt><trkpt lat="45.60781276814958" lon="3.027309502966571"><ele>768.0</ele><time>2026-05-02T09:55:13Z</time></trkpt><trkpt lat="45.60792223993756" lon="3.0271550361220187"><ele>773.25</ele><time>2026-05-02T09:55:14Z</time></trkpt><trkpt lat="45.60803185259384" lon="3.0270032902686856"><ele>778.5</ele><time>2026-05-02T09:55:15Z</time></trkpt><trkpt lat="45.60812678524233" lon="3.026860336555524"><ele>783.75</ele><time>2026-05-02T09:55:16Z</time></trkpt><trkpt lat="45.608197989988035" lon="3.026721627675169"><ele>789.0</ele><time>2026-05-02T09:55:17Z</time></trkpt><trkpt lat="45.608257077967316" lon="3.0265600973495532"><ele>789.0</ele><time>2026-05-02T09:55:18Z</time></trkpt><trkpt lat="45.608307308032664" lon="3.0263791876334056"><ele>789.0</ele><time>2026-05-02T09:55:19Z</time></trkpt><trkpt lat="45.60835062898453" lon="3.0261812125317955"><ele>789.0</ele><time>2026-05-02T09:55:20Z</time></trkpt><trkpt lat="45.608373560303065" lon="3.025982033030451"><ele>789.0</ele><time>2026-05-02T09:55:21Z</time></trkpt><trkpt lat="45.60838311985016" lon="3.0257714571826195"><ele>788.75</ele><time>2026-05-02T09:55:22Z</time></trkpt><trkpt lat="45.60838626187267" lon="3.0255578270163097"><ele>788.5</ele><time>2026-05-02T09:55:23Z</time></trkpt><trkpt lat="45.60839574355582" lon="3.0253607938099756"><ele>788.25</ele><time>2026-05-02T09:55:24Z</time></trkpt><trkpt lat="45.60840418766911" lon="3.0251756910768917"><ele>788.0</ele><time>2026-05-02T09:55:25Z</time></trkpt><trkpt lat="45.60841246465922" lon="3.025005121941056"><ele>787.2</ele><time>2026-05-02T09:55:26Z</time></trkpt><trkpt lat="45.608419971678295" lon="3.024841382159114"><ele>786.4</ele><time>2026-05-02T09:55:27Z</time></trkpt><trkpt lat="45.608430825134654" lon="3.0246859649925493"><ele>785.6</ele><time>2026-05-02T09:55:28Z</time></trkpt><trkpt lat="45.60845077278512" lon="3.0245431218343217"><ele>784.8000000000001</ele><time>2026-05-02T09:55:29Z</time></trkpt><trkpt lat="45.6084943293424" lon="3.0244084847806354"><ele>784.0</ele><time>2026-05-02T09:55:30Z</time></trkpt><trkpt lat="45.608569129477" lon="3.0243050169365575"><ele>786.2</ele><time>2026-05-02T09:55:31Z</time></trkpt><trkpt lat="45.608664969989725" lon="3.0242402558311934"><ele>788.4000000000001</ele><time>2026-05-02T09:55:32Z</time></trkpt><trkpt lat="45.60876207501755" lon="3.024203411309114"><ele>790.6</ele><time>2026-05-02T09:55:33Z</time></trkpt><trkpt lat="45.60886178412115" lon="3.024144047002062"><ele>792.8</ele><time>2026-05-02T09:55:34Z</time></trkpt><trkpt lat="45.608939427437136" lon="3.024032332783373"><ele>795.0</ele><time>2026-05-02T09:55:35Z</time></trkpt><trkpt lat="45.60898038611121" lon="3.023880999821327"><ele>795.0</ele><time>2026-05-02T09:55:36Z</time></trkpt><trkpt lat="45.60899492869873" lon="3.0237061873874214"><ele>795.0</ele><time>2026-05-02T09:55:37Z</time></trkpt><trkpt lat="45.60900831098317" lon="3.023516185555918"><ele>795.0</ele><time>2026-05-02T09:55:38Z</time></trkpt><trkpt lat="45.60902714988039" lon="3.0233211233807347"><ele>795.0</ele><time>2026-05-02T09:55:39Z</time></trkpt><trkpt lat="45.60905728031966" lon="3.0231198932785333"><ele>793.25</ele><time>2026-05-02T09:55:40Z</time></trkpt><trkpt lat="45.609090657136" lon="3.022941408387946"><ele>791.5</ele><time>2026-05-02T09:55:41Z</time></trkpt><trkpt lat="45.609135508491434" lon="3.022778045269232"><ele>789.75</ele><time>2026-05-02T09:55:42Z</time></trkpt><trkpt lat="45.609187320032014" lon="3.022632846982195"><ele>788.0</ele><time>2026-05-02T09:55:43Z</time></trkpt><trkpt lat="45.609236228216396" lon="3.0224934807782273"><ele>787.5999999999999</ele><time>2026-05-02T09:55:44Z</time></trkpt><trkpt lat="45.6092860331165" lon="3.0223645874214964"><ele>787.1999999999999</ele><time>2026-05-02T09:55:45Z</time></trkpt><trkpt lat="45.60933789358019" lon="3.0222442638607405"><ele>786.8</ele><time>2026-05-02T09:55:46Z</time></trkpt><trkpt lat="45.60939220670142" lon="3.0221322305008584"><ele>786.4</ele><time>2026-05-02T09:55:47Z</time></trkpt><trkpt lat="45.60945250474393" lon="3.0220454159517787"><ele>786.0</ele><time>2026-05-02T09:55:48Z</time></trkpt><trkpt lat="45.60951340563887" lon="3.021966874002801"><ele>787.5</ele><time>2026-05-02T09:55:49Z</time></trkpt><trkpt lat="45.60956422656225" lon="3.021894951332947"><ele>789.0</ele><time>2026-05-02T09:55:50Z</time></trkpt><trkpt lat="45.60962064815856" lon="3.021823562977299"><ele>790.5</ele><time>2026-05-02T09:55:51Z</time></trkpt><trkpt lat="45.60967977501636" lon="3.021760590589575"><ele>792.0</ele><time>2026-05-02T09:55:52Z</time></trkpt><trkpt lat="45.60974676124884" lon="3.021711317931873"><ele>793.5</ele><time>2026-05-02T09:55:53Z</time></trkpt><trkpt lat="45.60980975385812" lon="3.0216742575972866"><ele>795.0</ele><time>2026-05-02T09:55:54Z</time></trkpt><trkpt lat="45.6099177356554" lon="3.021612287528213"><ele>795.0</ele><time>2026-05-02T09:55:56Z</time></trkpt><trkpt lat="45.609989470751245" lon="3.0215277145556767"><ele>795.0</ele><time>2026-05-02T09:55:58Z</time></trkpt><trkpt lat="45.610038713507414" lon="3.0214440562567524"><ele>795.0</ele><time>2026-05-02T09:56:00Z</time></trkpt><trkpt lat="45.610074319246095" lon="3.021368550934773"><ele>795.0</ele><time>2026-05-02T09:56:02Z</time></trkpt><trkpt lat="45.61009886507878" lon="3.021243161156514"><ele>795.0</ele><time>2026-05-02T09:56:04Z</time></trkpt><trkpt lat="45.61008171955455" lon="3.021092607358484"><ele>795.0</ele><time>2026-05-02T09:56:06Z</time></trkpt><trkpt lat="45.61002085151959" lon="3.0209565999777777"><ele>795.0</ele><time>2026-05-02T09:56:08Z</time></trkpt><trkpt lat="45.609925537009296" lon="3.0208465744102253"><ele>795.0</ele><time>2026-05-02T09:56:10Z</time></trkpt><trkpt lat="45.60980732990663" lon="3.0207995315472256"><ele>795.0</ele><time>2026-05-02T09:56:12Z</time></trkpt><trkpt lat="45.60967964678645" lon="3.020794598118903"><ele>795.0</ele><time>2026-05-02T09:56:14Z</time></trkpt><trkpt lat="45.60960537603199" lon="3.020803608746733"><ele>795.0</ele><time>2026-05-02T09:56:15Z</time></trkpt><trkpt lat="45.60953076797499" lon="3.020817995212524"><ele>794.6666666666666</ele><time>2026-05-02T09:56:16Z</time></trkpt><trkpt lat="45.6094436857836" lon="3.020825868719283"><ele>794.3333333333333</ele><time>2026-05-02T09:56:17Z</time></trkpt><trkpt lat="45.609358591388585" lon="3.0208328635590287"><ele>794.0</ele><time>2026-05-02T09:56:18Z</time></trkpt><trkpt lat="45.60926885954032" lon="3.0208176765750947"><ele>793.6666666666666</ele><time>2026-05-02T09:56:19Z</time></trkpt><trkpt lat="45.6091855948912" lon="3.020784789840644"><ele>793.3333333333333</ele><time>2026-05-02T09:56:20Z</time></trkpt><trkpt lat="45.609102372444355" lon="3.0207331488570692"><ele>793.0</ele><time>2026-05-02T09:56:21Z</time></trkpt><trkpt lat="45.60902191939204" lon="3.02067142951581"><ele>795.4</ele><time>2026-05-02T09:56:22Z</time></trkpt><trkpt lat="45.60894492095301" lon="3.0205847516256976"><ele>797.8</ele><time>2026-05-02T09:56:23Z</time></trkpt><trkpt lat="45.60887096031801" lon="3.0204957080822297"><ele>800.2</ele><time>2026-05-02T09:56:24Z</time></trkpt><trkpt lat="45.60879136128941" lon="3.0204012245783147"><ele>802.6</ele><time>2026-05-02T09:56:25Z</time></trkpt><trkpt lat="45.60870979195635" lon="3.020299565381279"><ele>805.0</ele><time>2026-05-02T09:56:26Z</time></trkpt><trkpt lat="45.60866051158872" lon="3.0202238329219178"><ele>803.8333333333333</ele><time>2026-05-02T09:56:27Z</time></trkpt><trkpt lat="45.60858308706576" lon="3.020123643898496"><ele>802.6666666666666</ele><time>2026-05-02T09:57:30Z</time></trkpt><trkpt lat="45.6085311193733" lon="3.020067761665346"><ele>801.5</ele><time>2026-05-02T09:57:31Z</time></trkpt><trkpt lat="45.60848249896423" lon="3.0200031364376554"><ele>800.3333333333333</ele><time>2026-05-02T09:57:32Z</time></trkpt><trkpt lat="45.60842755716539" lon="3.019931461488675"><ele>799.1666666666666</ele><time>2026-05-02T09:57:33Z</time></trkpt><trkpt lat="45.60836892534424" lon="3.019854741730656"><ele>798.0</ele><time>2026-05-02T09:57:34Z</time></trkpt><trkpt lat="45.60830954481804" lon="3.0197710972902785"><ele>798.0</ele><time>2026-05-02T09:57:35Z</time></trkpt><trkpt lat="45.608247069617335" lon="3.0196733003581273"><ele>798.0</ele><time>2026-05-02T09:57:36Z</time></trkpt><trkpt lat="45.60820320648945" lon="3.0195643486613704"><ele>798.0</ele><time>2026-05-02T09:57:37Z</time></trkpt><trkpt lat="45.608170030974506" lon="3.0194451367145745"><ele>798.0</ele><time>2026-05-02T09:57:38Z</time></trkpt><trkpt lat="45.608143405381746" lon="3.019312690487711"><ele>798.0</ele><time>2026-05-02T09:57:39Z</time></trkpt><trkpt lat="45.60812360161599" lon="3.0191747110244105"><ele>799.75</ele><time>2026-05-02T09:57:40Z</time></trkpt><trkpt lat="45.60810490568605" lon="3.0190252245483946"><ele>801.5</ele><time>2026-05-02T09:57:41Z</time></trkpt><trkpt lat="45.60808108428949" lon="3.018871789985668"><ele>803.25</ele><time>2026-05-02T09:57:42Z</time></trkpt><trkpt lat="45.60803836753712" lon="3.0187138005540004"><ele>805.0</ele><time>2026-05-02T09:57:43Z</time></trkpt><trkpt lat="45.607985338790726" lon="3.018550864491487"><ele>805.0</ele><time>2026-05-02T09:57:44Z</time></trkpt><trkpt lat="45.60793088627983" lon="3.018374546811001"><ele>805.0</ele><time>2026-05-02T09:57:45Z</time></trkpt><trkpt lat="45.607885220870116" lon="3.018185323009826"><ele>805.0</ele><time>2026-05-02T09:57:46Z</time></trkpt><trkpt lat="45.60785079834774" lon="3.017991074639585"><ele>805.0</ele><time>2026-05-02T09:57:47Z</time></trkpt><trkpt lat="45.60782917330224" lon="3.017806784999679"><ele>800.25</ele><time>2026-05-02T09:57:48Z</time></trkpt><trkpt lat="45.60780856957655" lon="3.0176302809026536"><ele>795.5</ele><time>2026-05-02T09:57:49Z</time></trkpt><trkpt lat="45.607782800253254" lon="3.0174608836440773"><ele>790.75</ele><time>2026-05-02T09:57:50Z</time></trkpt><trkpt lat="45.60774832139827" lon="3.0172856833891673"><ele>786.0</ele><time>2026-05-02T09:57:51Z</time></trkpt><trkpt lat="45.60770477441147" lon="3.0171070711016363"><ele>786.0</ele><time>2026-05-02T09:57:52Z</time></trkpt><trkpt lat="45.60765192528602" lon="3.016927437660392"><ele>786.0</ele><time>2026-05-02T09:57:53Z</time></trkpt><trkpt lat="45.6075842258296" lon="3.0167557866487815"><ele>786.0</ele><time>2026-05-02T09:57:54Z</time></trkpt><trkpt lat="45.607509089100645" lon="3.016589889788355"><ele>786.0</ele><time>2026-05-02T09:57:55Z</time></trkpt><trkpt lat="45.607433696583556" lon="3.016416397955214"><ele>786.6666666666667</ele><time>2026-05-02T09:57:56Z</time></trkpt><trkpt lat="45.60736152833156" lon="3.016235640051575"><ele>787.3333333333334</ele><time>2026-05-02T09:57:57Z</time></trkpt><trkpt lat="45.607289228875274" lon="3.016044967049327"><ele>788.0</ele><time>2026-05-02T09:57:58Z</time></trkpt><trkpt lat="45.60720723933051" lon="3.015830062936468"><ele>789.6666666666667</ele><time>2026-05-02T09:57:59Z</time></trkpt><trkpt lat="45.60711483435451" lon="3.0155986906460206"><ele>791.3333333333333</ele><time>2026-05-02T09:58:00Z</time></trkpt><trkpt lat="45.607015332347736" lon="3.0153326585907716"><ele>793.0</ele><time>2026-05-02T09:58:01Z</time></trkpt><trkpt lat="45.60693707750986" lon="3.015088697850907"><ele>794.0</ele><time>2026-05-02T09:58:02Z</time></trkpt><trkpt lat="45.606897423282284" lon="3.0148786033865416"><ele>795.0</ele><time>2026-05-02T09:58:03Z</time></trkpt><trkpt lat="45.606874011711675" lon="3.0146765867829224"><ele>796.0</ele><time>2026-05-02T09:58:04Z</time></trkpt><trkpt lat="45.606835477341775" lon="3.0144946787840614"><ele>797.0</ele><time>2026-05-02T09:58:05Z</time></trkpt><trkpt lat="45.60677151217602" lon="3.0143153960986973"><ele>796.25</ele><time>2026-05-02T09:58:06Z</time></trkpt><trkpt lat="45.60668130583872" lon="3.0141525185053912"><ele>795.5</ele><time>2026-05-02T09:58:07Z</time></trkpt><trkpt lat="45.60659838606239" lon="3.014022104673363"><ele>794.75</ele><time>2026-05-02T09:58:08Z</time></trkpt><trkpt lat="45.606563423826024" lon="3.0138806599408836"><ele>794.0</ele><time>2026-05-02T09:58:09Z</time></trkpt><trkpt lat="45.60657315436904" lon="3.0137277482934577"><ele>794.0</ele><time>2026-05-02T09:58:10Z</time></trkpt><trkpt lat="45.60658922414539" lon="3.0135607437038816"><ele>794.0</ele><time>2026-05-02T09:58:11Z</time></trkpt><trkpt lat="45.60656616338476" lon="3.013401343694219"><ele>794.0</ele><time>2026-05-02T09:58:12Z</time></trkpt><trkpt lat="45.60650177920731" lon="3.0132772236417273"><ele>794.0</ele><time>2026-05-02T09:58:13Z</time></trkpt><trkpt lat="45.6064119360619" lon="3.0131755113274226"><ele>794.2</ele><time>2026-05-02T09:58:14Z</time></trkpt><trkpt lat="45.606318053107486" lon="3.0131025734239167"><ele>794.4000000000001</ele><time>2026-05-02T09:58:15Z</time></trkpt><trkpt lat="45.60621968442487" lon="3.013042459178452"><ele>794.6</ele><time>2026-05-02T09:58:16Z</time></trkpt><trkpt lat="45.606124690027194" lon="3.0129893349666332"><ele>794.8</ele><time>2026-05-02T09:58:17Z</time></trkpt><trkpt lat="45.60603114127789" lon="3.012930582507978"><ele>795.0</ele><time>2026-05-02T09:58:18Z</time></trkpt><trkpt lat="45.60594227161102" lon="3.0128778006755645"><ele>796.6</ele><time>2026-05-02T09:58:19Z</time></trkpt><trkpt lat="45.60587215942211" lon="3.012833697803922"><ele>798.2</ele><time>2026-05-02T09:58:20Z</time></trkpt><trkpt lat="45.605764232360094" lon="3.0127909510078297"><ele>799.8</ele><time>2026-05-02T09:58:22Z</time></trkpt><trkpt lat="45.60563075088764" lon="3.0127663728614564"><ele>801.4</ele><time>2026-05-02T09:58:24Z</time></trkpt><trkpt lat="45.605550641242615" lon="3.0127592958655596"><ele>803.0</ele><time>2026-05-02T09:58:25Z</time></trkpt><trkpt lat="45.60547037118665" lon="3.0127726700083217"><ele>803.0000000000001</ele><time>2026-05-02T09:58:26Z</time></trkpt><trkpt lat="45.60538986542797" lon="3.012810145224098"><ele>803.0</ele><time>2026-05-02T09:58:27Z</time></trkpt><trkpt lat="45.60530861535096" lon="3.012828319653917"><ele>803.0</ele><time>2026-05-02T09:58:28Z</time></trkpt><trkpt lat="45.60522863864658" lon="3.012799601775921"><ele>803.0</ele><time>2026-05-02T09:58:29Z</time></trkpt><trkpt lat="45.60516842852452" lon="3.012731914333685"><ele>803.0000000000001</ele><time>2026-05-02T09:58:30Z</time></trkpt><trkpt lat="45.60513585452447" lon="3.012636323560317"><ele>803.0</ele><time>2026-05-02T09:58:31Z</time></trkpt><trkpt lat="45.60512028391015" lon="3.0125377214271083"><ele>803.7142857142857</ele><time>2026-05-02T09:58:32Z</time></trkpt><trkpt lat="45.60512304961574" lon="3.0124359000414533"><ele>804.4285714285714</ele><time>2026-05-02T09:58:33Z</time></trkpt><trkpt lat="45.60516211362577" lon="3.0123389958352726"><ele>805.1428571428571</ele><time>2026-05-02T09:58:34Z</time></trkpt><trkpt lat="45.60521926283682" lon="3.012263638184941"><ele>805.8571428571429</ele><time>2026-05-02T09:58:35Z</time></trkpt><trkpt lat="45.60528610293154" lon="3.0122075958837"><ele>806.5714285714286</ele><time>2026-05-02T09:58:36Z</time></trkpt><trkpt lat="45.60535241588707" lon="3.0121698198571267"><ele>807.2857142857142</ele><time>2026-05-02T09:58:37Z</time></trkpt><trkpt lat="45.60541170048701" lon="3.012126992920006"><ele>808.0</ele><time>2026-05-02T09:58:38Z</time></trkpt><trkpt lat="45.60546565444574" lon="3.0120637725796957"><ele>807.9999999999999</ele><time>2026-05-02T09:58:39Z</time></trkpt><trkpt lat="45.60550559560638" lon="3.011976987404951"><ele>808.0</ele><time>2026-05-02T09:58:40Z</time></trkpt><trkpt lat="45.60552717392862" lon="3.011872257681704"><ele>808.0</ele><time>2026-05-02T09:58:41Z</time></trkpt><trkpt lat="45.60552853783499" lon="3.011761368609695"><ele>808.0</ele><time>2026-05-02T09:58:42Z</time></trkpt><trkpt lat="45.60550967900527" lon="3.011647401083954"><ele>807.9999999999999</ele><time>2026-05-02T09:58:43Z</time></trkpt><trkpt lat="45.60547634037452" lon="3.011535155603104"><ele>808.0</ele><time>2026-05-02T09:58:44Z</time></trkpt><trkpt lat="45.60544080877472" lon="3.0114265410513967"><ele>807.6666666666666</ele><time>2026-05-02T09:58:45Z</time></trkpt><trkpt lat="45.60540689391493" lon="3.01131843502823"><ele>807.3333333333333</ele><time>2026-05-02T09:58:46Z</time></trkpt><trkpt lat="45.605376325832076" lon="3.011205748767447"><ele>807.0</ele><time>2026-05-02T09:58:47Z</time></trkpt><trkpt lat="45.60534965859431" lon="3.0111020284549843"><ele>806.6666666666667</ele><time>2026-05-02T09:58:48Z</time></trkpt><trkpt lat="45.605312649575474" lon="3.010988731546601"><ele>806.3333333333334</ele><time>2026-05-02T09:58:49Z</time></trkpt><trkpt lat="45.60528009105897" lon="3.0108785979582553"><ele>806.0</ele><time>2026-05-02T09:58:50Z</time></trkpt><trkpt lat="45.60523834234796" lon="3.0107486210005674"><ele>809.1999999999999</ele><time>2026-05-02T09:58:51Z</time></trkpt><trkpt lat="45.60520446592001" lon="3.0106156202704457"><ele>812.4</ele><time>2026-05-02T09:58:52Z</time></trkpt><trkpt lat="45.60516328072264" lon="3.0104645193795103"><ele>815.6</ele><time>2026-05-02T09:58:53Z</time></trkpt><trkpt lat="45.60512484958689" lon="3.0103189711390863"><ele>818.8</ele><time>2026-05-02T09:58:54Z</time></trkpt><trkpt lat="45.605080735624384" lon="3.010172304641244"><ele>822.0</ele><time>2026-05-02T09:58:55Z</time></trkpt><trkpt lat="45.60503752974312" lon="3.0100287797254976"><ele>822.6</ele><time>2026-05-02T09:58:56Z</time></trkpt><trkpt lat="45.60498801878978" lon="3.0098753376934813"><ele>823.2</ele><time>2026-05-02T09:58:57Z</time></trkpt><trkpt lat="45.60493779898084" lon="3.0097233721115626"><ele>823.8</ele><time>2026-05-02T09:58:58Z</time></trkpt><trkpt lat="45.60489725558355" lon="3.0095832760233563"><ele>824.4</ele><time>2026-05-02T09:58:59Z</time></trkpt><trkpt lat="45.60487030016038" lon="3.009462531710347"><ele>825.0</ele><time>2026-05-02T09:59:00Z</time></trkpt><trkpt lat="45.60485788746604" lon="3.0093543436738703"><ele>825.0</ele><time>2026-05-02T09:59:01Z</time></trkpt><trkpt lat="45.60486683117746" lon="3.009235768037694"><ele>825.0</ele><time>2026-05-02T09:59:02Z</time></trkpt><trkpt lat="45.604907001255775" lon="3.0091093017955757"><ele>825.0</ele><time>2026-05-02T09:59:03Z</time></trkpt><trkpt lat="45.60497090239809" lon="3.009011183852282"><ele>825.0</ele><time>2026-05-02T09:59:04Z</time></trkpt><trkpt lat="45.605031917549304" lon="3.0089118525897964"><ele>825.0</ele><time>2026-05-02T09:59:05Z</time></trkpt><trkpt lat="45.60507182871843" lon="3.0088055616911817"><ele>825.8</ele><time>2026-05-02T09:59:06Z</time></trkpt><trkpt lat="45.605093763873946" lon="3.008671693021709"><ele>826.6</ele><time>2026-05-02T09:59:07Z</time></trkpt><trkpt lat="45.60507710070226" lon="3.008541569476869"><ele>827.4000000000001</ele><time>2026-05-02T09:59:08Z</time></trkpt><trkpt lat="45.60502819779821" lon="3.008420698384903"><ele>828.2</ele><time>2026-05-02T09:59:09Z</time></trkpt><trkpt lat="45.60495251400436" lon="3.0083320523802484"><ele>829.0</ele><time>2026-05-02T09:59:10Z</time></trkpt><trkpt lat="45.604858785896774" lon="3.0082745546511034"><ele>829.0</ele><time>2026-05-02T09:59:11Z</time></trkpt><trkpt lat="45.60476220357882" lon="3.0082784480171596"><ele>829.0</ele><time>2026-05-02T09:59:12Z</time></trkpt><trkpt lat="45.604663159407544" lon="3.008326134399423"><ele>829.0</ele><time>2026-05-02T09:59:13Z</time></trkpt><trkpt lat="45.60458576679291" lon="3.0084212091575457"><ele>829.0</ele><time>2026-05-02T09:59:14Z</time></trkpt><trkpt lat="45.604530666659436" lon="3.008552195544834"><ele>829.0</ele><time>2026-05-02T09:59:15Z</time></trkpt><trkpt lat="45.604501431355914" lon="3.0087119845954486"><ele>831.75</ele><time>2026-05-02T09:59:16Z</time></trkpt><trkpt lat="45.60448741730605" lon="3.0088736672986087"><ele>834.5</ele><time>2026-05-02T09:59:17Z</time></trkpt><trkpt lat="45.60444981034636" lon="3.0090232798876753"><ele>837.25</ele><time>2026-05-02T09:59:18Z</time></trkpt><trkpt lat="45.60439661033902" lon="3.0091609479703147"><ele>840.0</ele><time>2026-05-02T09:59:18.999Z</time></trkpt><trkpt lat="45.60433079318505" lon="3.009299035155856"><ele>840.0</ele><time>2026-05-02T09:59:19.999Z</time></trkpt><trkpt lat="45.6042539010946" lon="3.0094239895479666"><ele>840.0</ele><time>2026-05-02T09:59:20.999Z</time></trkpt><trkpt lat="45.60416683659528" lon="3.009534306291421"><ele>840.0</ele><time>2026-05-02T09:59:21.999Z</time></trkpt><trkpt lat="45.60407301252642" lon="3.009639453363873"><ele>840.0</ele><time>2026-05-02T09:59:22.999Z</time></trkpt><trkpt lat="45.603979319626156" lon="3.009744453439694"><ele>840.0</ele><time>2026-05-02T09:59:23.999Z</time></trkpt><trkpt lat="45.60388433558024" lon="3.0098543462859526"><ele>840.0</ele><time>2026-05-02T09:59:24.999Z</time></trkpt><trkpt lat="45.603800741523926" lon="3.0099798468009302"><ele>840.0</ele><time>2026-05-02T09:59:25.999Z</time></trkpt><trkpt lat="45.60369847153941" lon="3.010051249261748"><ele>840.0</ele><time>2026-05-02T09:59:26.999Z</time></trkpt><trkpt lat="45.603601211005795" lon="3.010102118101892"><ele>841.6</ele><time>2026-05-02T09:59:27.999Z</time></trkpt><trkpt lat="45.603496629408234" lon="3.0101355896498614"><ele>843.2</ele><time>2026-05-02T09:59:28.999Z</time></trkpt><trkpt lat="45.60339128592521" lon="3.010154355573986"><ele>844.8</ele><time>2026-05-02T09:59:29.999Z</time></trkpt><trkpt lat="45.603280591045454" lon="3.010149319583824"><ele>846.4</ele><time>2026-05-02T09:59:30.999Z</time></trkpt><trkpt lat="45.603160175165556" lon="3.010155518533946"><ele>848.0</ele><time>2026-05-02T09:59:31.999Z</time></trkpt><trkpt lat="45.6030413138231" lon="3.0102044562687973"><ele>848.0</ele><time>2026-05-02T09:59:32.999Z</time></trkpt><trkpt lat="45.60292027349808" lon="3.010264574529055"><ele>848.0</ele><time>2026-05-02T09:59:33.999Z</time></trkpt><trkpt lat="45.60278549999269" lon="3.01031915042228"><ele>848.0</ele><time>2026-05-02T09:59:34.999Z</time></trkpt><trkpt lat="45.602655366421786" lon="3.0104039140814254"><ele>848.0</ele><time>2026-05-02T09:59:36Z</time></trkpt><trkpt lat="45.60253295683813" lon="3.0104892765665374"><ele>848.75</ele><time>2026-05-02T09:59:37Z</time></trkpt><trkpt lat="45.60244835057806" lon="3.0106105023295298"><ele>849.5</ele><time>2026-05-02T09:59:38Z</time></trkpt><trkpt lat="45.602373343145665" lon="3.010727862512475"><ele>850.25</ele><time>2026-05-02T09:59:39Z</time></trkpt><trkpt lat="45.602339688816876" lon="3.010909272046504"><ele>851.0</ele><time>2026-05-02T09:59:40Z</time></trkpt><trkpt lat="45.60230907409571" lon="3.0110870197389312"><ele>851.0</ele><time>2026-05-02T09:59:41Z</time></trkpt><trkpt lat="45.602297316034985" lon="3.0112693612133246"><ele>851.0</ele><time>2026-05-02T09:59:42Z</time></trkpt><trkpt lat="45.60229894359297" lon="3.0114674177960836"><ele>851.0</ele><time>2026-05-02T09:59:43Z</time></trkpt><trkpt lat="45.60227626746441" lon="3.0116686471704663"><ele>851.0</ele><time>2026-05-02T09:59:44Z</time></trkpt><trkpt lat="45.602277640167685" lon="3.0118818801413774"><ele>851.25</ele><time>2026-05-02T09:59:45Z</time></trkpt><trkpt lat="45.60226999204229" lon="3.012093857004565"><ele>851.5</ele><time>2026-05-02T09:59:46Z</time></trkpt><trkpt lat="45.6022594311678" lon="3.0123057696565887"><ele>851.75</ele><time>2026-05-02T09:59:47Z</time></trkpt><trkpt lat="45.60225796934024" lon="3.0125228805616744"><ele>852.0</ele><time>2026-05-02T09:59:48Z</time></trkpt><trkpt lat="45.602251091485016" lon="3.0127406074021574"><ele>852.0</ele><time>2026-05-02T09:59:49Z</time></trkpt><trkpt lat="45.60225675778165" lon="3.0129482535082968"><ele>852.0</ele><time>2026-05-02T09:59:50Z</time></trkpt><trkpt lat="45.60227174096866" lon="3.0131561386134114"><ele>852.0</ele><time>2026-05-02T09:59:51Z</time></trkpt><trkpt lat="45.602294464138204" lon="3.01335335212378"><ele>852.0</ele><time>2026-05-02T09:59:52Z</time></trkpt><trkpt lat="45.60231717530252" lon="3.0135349708430095"><ele>853.6</ele><time>2026-05-02T09:59:53Z</time></trkpt><trkpt lat="45.60233311614164" lon="3.013701909815945"><ele>855.2</ele><time>2026-05-02T09:59:54Z</time></trkpt><trkpt lat="45.60235755551578" lon="3.0138414961870486"><ele>856.8</ele><time>2026-05-02T09:59:55Z</time></trkpt><trkpt lat="45.60240373612026" lon="3.013956145373589"><ele>858.4</ele><time>2026-05-02T09:59:56Z</time></trkpt><trkpt lat="45.60246709832124" lon="3.014063636677192"><ele>860.0</ele><time>2026-05-02T09:59:57Z</time></trkpt><trkpt lat="45.60253052145146" lon="3.014155546309416"><ele>861.4</ele><time>2026-05-02T09:59:58Z</time></trkpt><trkpt lat="45.60259341674265" lon="3.0142630784954263"><ele>862.8</ele><time>2026-05-02T09:59:59Z</time></trkpt><trkpt lat="45.6026447987379" lon="3.0143513200681706"><ele>864.2</ele><time>2026-05-02T10:00:00Z</time></trkpt><trkpt lat="45.60270932539912" lon="3.014455661018733"><ele>865.6</ele><time>2026-05-02T10:00:01Z</time></trkpt><trkpt lat="45.602736507629686" lon="3.01459782163159"><ele>867.0</ele><time>2026-05-02T10:00:02Z</time></trkpt><trkpt lat="45.602759285831716" lon="3.0147542266749356"><ele>867.0</ele><time>2026-05-02T10:00:03Z</time></trkpt><trkpt lat="45.6027880776968" lon="3.01491999064602"><ele>867.0</ele><time>2026-05-02T10:00:04Z</time></trkpt><trkpt lat="45.60282839805536" lon="3.0150961203586433"><ele>867.0</ele><time>2026-05-02T10:00:05Z</time></trkpt><trkpt lat="45.60285620998297" lon="3.0152862843150845"><ele>867.0</ele><time>2026-05-02T10:00:06Z</time></trkpt><trkpt lat="45.6028892205069" lon="3.0154871270645582"><ele>866.0</ele><time>2026-05-02T10:00:07Z</time></trkpt><trkpt lat="45.60292828627037" lon="3.015693276159896"><ele>865.0</ele><time>2026-05-02T10:00:08Z</time></trkpt><trkpt lat="45.602953019984206" lon="3.015868248740906"><ele>864.0</ele><time>2026-05-02T10:00:09Z</time></trkpt><trkpt lat="45.603020632779334" lon="3.016002318962633"><ele>863.0</ele><time>2026-05-02T10:00:10Z</time></trkpt><trkpt lat="45.6030874189687" lon="3.0161344204231995"><ele>863.0</ele><time>2026-05-02T10:00:11Z</time></trkpt><trkpt lat="45.603168263458535" lon="3.016276819072427"><ele>863.0</ele><time>2026-05-02T10:00:12Z</time></trkpt><trkpt lat="45.60324719073869" lon="3.0164392290302815"><ele>863.0</ele><time>2026-05-02T10:00:13Z</time></trkpt><trkpt lat="45.60334355860654" lon="3.0165937568705967"><ele>863.0</ele><time>2026-05-02T10:00:14Z</time></trkpt><trkpt lat="45.60343384706875" lon="3.0167594028723888"><ele>862.5</ele><time>2026-05-02T10:00:15Z</time></trkpt><trkpt lat="45.603513424628126" lon="3.0169097852868925"><ele>862.0</ele><time>2026-05-02T10:00:16Z</time></trkpt><trkpt lat="45.60358241115432" lon="3.0170472496675687"><ele>861.5</ele><time>2026-05-02T10:00:17Z</time></trkpt><trkpt lat="45.60364270763449" lon="3.0171692260110614"><ele>861.0</ele><time>2026-05-02T10:00:18Z</time></trkpt><trkpt lat="45.60369881059454" lon="3.017295854299581"><ele>861.0</ele><time>2026-05-02T10:00:19Z</time></trkpt><trkpt lat="45.603744481337145" lon="3.0174367941986553"><ele>861.0</ele><time>2026-05-02T10:00:20Z</time></trkpt><trkpt lat="45.60374039789081" lon="3.01760196209194"><ele>861.0</ele><time>2026-05-02T10:00:21Z</time></trkpt><trkpt lat="45.603742795088344" lon="3.017779138408573"><ele>861.0</ele><time>2026-05-02T10:00:22Z</time></trkpt><trkpt lat="45.603733718562395" lon="3.017968763170026"><ele>861.75</ele><time>2026-05-02T10:00:23Z</time></trkpt><trkpt lat="45.60372327873078" lon="3.018166899538033"><ele>862.5</ele><time>2026-05-02T10:00:24Z</time></trkpt><trkpt lat="45.603710471413144" lon="3.01838589007302"><ele>863.25</ele><time>2026-05-02T10:00:25Z</time></trkpt><trkpt lat="45.603689024539975" lon="3.018604098018023"><ele>864.0</ele><time>2026-05-02T10:00:26Z</time></trkpt><trkpt lat="45.60365789905884" lon="3.0187855929404166"><ele>868.0</ele><time>2026-05-02T10:00:27Z</time></trkpt><trkpt lat="45.603616974090805" lon="3.0189349851860765"><ele>872.0</ele><time>2026-05-02T10:00:28Z</time></trkpt><trkpt lat="45.60356546008616" lon="3.019061410948062"><ele>876.0</ele><time>2026-05-02T10:00:29Z</time></trkpt><trkpt lat="45.60349694865883" lon="3.019192176684681"><ele>880.0</ele><time>2026-05-02T10:00:30Z</time></trkpt><trkpt lat="45.60341192950669" lon="3.0193166376444456"><ele>880.0</ele><time>2026-05-02T10:00:31Z</time></trkpt><trkpt lat="45.603324831762045" lon="3.0194313419124343"><ele>880.0</ele><time>2026-05-02T10:00:32Z</time></trkpt><trkpt lat="45.60324197220526" lon="3.0195379921698677"><ele>880.0</ele><time>2026-05-02T10:00:33Z</time></trkpt><trkpt lat="45.60315528464619" lon="3.019653275412144"><ele>880.0</ele><time>2026-05-02T10:00:34Z</time></trkpt><trkpt lat="45.60305673914354" lon="3.0197851154116333"><ele>880.0</ele><time>2026-05-02T10:00:35Z</time></trkpt><trkpt lat="45.60296032551098" lon="3.0199076255899815"><ele>880.0</ele><time>2026-05-02T10:00:36Z</time></trkpt><trkpt lat="45.60286880515406" lon="3.020009722115789"><ele>880.0</ele><time>2026-05-02T10:00:37Z</time></trkpt><trkpt lat="45.60276102692127" lon="3.0200835932733416"><ele>880.0</ele><time>2026-05-02T10:00:38Z</time></trkpt><trkpt lat="45.60264473795655" lon="3.0201495072270146"><ele>880.0</ele><time>2026-05-02T10:00:39Z</time></trkpt><trkpt lat="45.60252718290254" lon="3.0202153845347612"><ele>880.0</ele><time>2026-05-02T10:00:40Z</time></trkpt><trkpt lat="45.60240765825828" lon="3.0202821105244033"><ele>880.0</ele><time>2026-05-02T10:00:41Z</time></trkpt><trkpt lat="45.602279443825864" lon="3.0203536877231825"><ele>880.0</ele><time>2026-05-02T10:00:42Z</time></trkpt><trkpt lat="45.60215600398548" lon="3.0204123303389774"><ele>880.0</ele><time>2026-05-02T10:00:43Z</time></trkpt><trkpt lat="45.602042589600195" lon="3.0204491316026334"><ele>880.0</ele><time>2026-05-02T10:00:44Z</time></trkpt><trkpt lat="45.60193209009217" lon="3.0204533905821074"><ele>880.0</ele><time>2026-05-02T10:00:45Z</time></trkpt><trkpt lat="45.601803592168345" lon="3.0204377051387183"><ele>880.0</ele><time>2026-05-02T10:00:46Z</time></trkpt><trkpt lat="45.601666908779286" lon="3.020409319823328"><ele>881.25</ele><time>2026-05-02T10:00:47Z</time></trkpt><trkpt lat="45.60153024809276" lon="3.0203780278600583"><ele>882.5</ele><time>2026-05-02T10:00:48Z</time></trkpt><trkpt lat="45.60139043899582" lon="3.020351756657712"><ele>883.75</ele><time>2026-05-02T10:00:49Z</time></trkpt><trkpt lat="45.6012542248088" lon="3.0203411397192363"><ele>885.0</ele><time>2026-05-02T10:00:50Z</time></trkpt><trkpt lat="45.60111791718555" lon="3.020369275894044"><ele>885.0</ele><time>2026-05-02T10:00:51Z</time></trkpt><trkpt lat="45.600999220297346" lon="3.020392551227316"><ele>885.0</ele><time>2026-05-02T10:00:52Z</time></trkpt><trkpt lat="45.60088949125951" lon="3.020377290470629"><ele>885.0</ele><time>2026-05-02T10:00:53Z</time></trkpt><trkpt lat="45.60079557656996" lon="3.020376682240512"><ele>885.0</ele><time>2026-05-02T10:00:54Z</time></trkpt><trkpt lat="45.60070255297814" lon="3.020346024121275"><ele>885.0</ele><time>2026-05-02T10:00:55Z</time></trkpt><trkpt lat="45.6006230250779" lon="3.0202683128768726"><ele>885.0</ele><time>2026-05-02T10:00:56Z</time></trkpt><trkpt lat="45.60053642333823" lon="3.0201476887390015"><ele>885.0</ele><time>2026-05-02T10:00:57Z</time></trkpt><trkpt lat="45.60045397374478" lon="3.0200148859256166"><ele>885.0</ele><time>2026-05-02T10:00:58Z</time></trkpt><trkpt lat="45.6003957268904" lon="3.019872434944235"><ele>885.0</ele><time>2026-05-02T10:00:59Z</time></trkpt><trkpt lat="45.60035485890976" lon="3.019728482123979"><ele>885.5</ele><time>2026-05-02T10:01:00Z</time></trkpt><trkpt lat="45.600326159070576" lon="3.0195579381479436"><ele>886.0</ele><time>2026-05-02T10:01:01Z</time></trkpt><trkpt lat="45.60029518930744" lon="3.0193789495158594"><ele>886.5</ele><time>2026-05-02T10:01:02Z</time></trkpt><trkpt lat="45.6002630866359" lon="3.0192042240887274"><ele>887.0</ele><time>2026-05-02T10:01:03Z</time></trkpt><trkpt lat="45.600210289124426" lon="3.019041531957805"><ele>887.0</ele><time>2026-05-02T10:01:04Z</time></trkpt><trkpt lat="45.6001558184182" lon="3.018889824714032"><ele>887.0</ele><time>2026-05-02T10:01:05Z</time></trkpt><trkpt lat="45.600074886311155" lon="3.018773181036502"><ele>887.0</ele><time>2026-05-02T10:01:06Z</time></trkpt><trkpt lat="45.59998357881238" lon="3.01866022658334"><ele>887.0</ele><time>2026-05-02T10:01:07Z</time></trkpt><trkpt lat="45.59988081545039" lon="3.018612140097489"><ele>887.0</ele><time>2026-05-02T10:01:08Z</time></trkpt><trkpt lat="45.59980700638729" lon="3.0185948564049094"><ele>887.0</ele><time>2026-05-02T10:01:09Z</time></trkpt><trkpt lat="45.59968408210196" lon="3.0186115437773093"><ele>887.0</ele><time>2026-05-02T10:01:11Z</time></trkpt><trkpt lat="45.59957141359074" lon="3.018635250067097"><ele>887.0</ele><time>2026-05-02T10:01:13Z</time></trkpt><trkpt lat="45.59948046070985" lon="3.018660767340947"><ele>887.0</ele><time>2026-05-02T10:01:15Z</time></trkpt><trkpt lat="45.599406646096696" lon="3.018683189333668"><ele>886.6</ele><time>2026-05-02T10:01:41Z</time></trkpt><trkpt lat="45.59931315105809" lon="3.0187115894588814"><ele>886.2</ele><time>2026-05-02T10:01:43Z</time></trkpt><trkpt lat="45.59921830529849" lon="3.0187488215750182"><ele>885.8</ele><time>2026-05-02T10:01:45Z</time></trkpt><trkpt lat="45.59912801134295" lon="3.018804327037495"><ele>885.4</ele><time>2026-05-02T10:01:47Z</time></trkpt><trkpt lat="45.59904308367039" lon="3.018886045087403"><ele>885.0</ele><time>2026-05-02T10:01:49Z</time></trkpt><trkpt lat="45.59897012687893" lon="3.018981650433154"><ele>885.0</ele><time>2026-05-02T10:01:51Z</time></trkpt><trkpt lat="45.59889407557538" lon="3.019088264349574"><ele>885.0</ele><time>2026-05-02T10:01:53Z</time></trkpt><trkpt lat="45.59880707970741" lon="3.0192129587993337"><ele>885.0</ele><time>2026-05-02T10:01:55Z</time></trkpt><trkpt lat="45.59875286910552" lon="3.019283714659382"><ele>885.0</ele><time>2026-05-02T10:01:56Z</time></trkpt><trkpt lat="45.598694675465424" lon="3.019342427287895"><ele>885.0</ele><time>2026-05-02T10:01:57Z</time></trkpt><trkpt lat="45.59862466029259" lon="3.0193887194518827"><ele>884.6666666666666</ele><time>2026-05-02T10:01:58Z</time></trkpt><trkpt lat="45.598545201927976" lon="3.0194286727573862"><ele>884.3333333333333</ele><time>2026-05-02T10:01:59Z</time></trkpt><trkpt lat="45.59847203376419" lon="3.0194572878387245"><ele>884.0</ele><time>2026-05-02T10:02:00Z</time></trkpt><trkpt lat="45.59840227347785" lon="3.019480053809752"><ele>883.6666666666666</ele><time>2026-05-02T10:02:01Z</time></trkpt><trkpt lat="45.59829055610845" lon="3.0195153296663615"><ele>883.3333333333333</ele><time>2026-05-02T10:02:03Z</time></trkpt><trkpt lat="45.59819289970877" lon="3.0195447700634634"><ele>883.0</ele><time>2026-05-02T10:02:05Z</time></trkpt><trkpt lat="45.59810735524861" lon="3.0195701529155308"><ele>882.9999999999999</ele><time>2026-05-02T10:02:07Z</time></trkpt><trkpt lat="45.59802182347113" lon="3.0195955399158785"><ele>883.0</ele><time>2026-05-02T10:02:09Z</time></trkpt><trkpt lat="45.597942187044225" lon="3.01962089440663"><ele>883.0</ele><time>2026-05-02T10:02:11Z</time></trkpt><trkpt lat="45.597864006005835" lon="3.0196457854942453"><ele>883.0</ele><time>2026-05-02T10:02:13Z</time></trkpt><trkpt lat="45.5977870208134" lon="3.019670295898535"><ele>882.9999999999999</ele><time>2026-05-02T10:02:15Z</time></trkpt><trkpt lat="45.59771323060222" lon="3.019693789078208"><ele>883.0</ele><time>2026-05-02T10:02:17Z</time></trkpt><trkpt lat="45.59763778734007" lon="3.0197178085307317"><ele>882.5999999999999</ele><time>2026-05-02T10:02:19Z</time></trkpt><trkpt lat="45.597564611541124" lon="3.0197411060951462"><ele>882.1999999999999</ele><time>2026-05-02T10:02:21Z</time></trkpt><trkpt lat="45.59745935836023" lon="3.019775419413935"><ele>881.8</ele><time>2026-05-02T10:02:23Z</time></trkpt><trkpt lat="45.597370023812864" lon="3.019802441556509"><ele>881.4</ele><time>2026-05-02T10:02:24Z</time></trkpt><trkpt lat="45.59727054088346" lon="3.019844546435432"><ele>881.0</ele><time>2026-05-02T10:02:25Z</time></trkpt><trkpt lat="45.59717677539914" lon="3.0198642406021365"><ele>881.0000000000001</ele><time>2026-05-02T10:02:26Z</time></trkpt><trkpt lat="45.59708418912195" lon="3.019848945916186"><ele>881.0</ele><time>2026-05-02T10:02:27Z</time></trkpt><trkpt lat="45.59700447085119" lon="3.0198452899568236"><ele>881.0</ele><time>2026-05-02T10:02:28Z</time></trkpt><trkpt lat="45.59693975475979" lon="3.019839815897076"><ele>881.0</ele><time>2026-05-02T10:02:29Z</time></trkpt><trkpt lat="45.59684949038513" lon="3.01982430035739"><ele>881.0000000000001</ele><time>2026-05-02T10:02:30Z</time></trkpt><trkpt lat="45.59675303691938" lon="3.0197863568242154"><ele>881.0</ele><time>2026-05-02T10:02:31Z</time></trkpt><trkpt lat="45.59666050203183" lon="3.019725119994506"><ele>880.5999999999999</ele><time>2026-05-02T10:02:32Z</time></trkpt><trkpt lat="45.59656888642604" lon="3.019644218273407"><ele>880.1999999999999</ele><time>2026-05-02T10:02:33Z</time></trkpt><trkpt lat="45.596488111748485" lon="3.01953498377406"><ele>879.8000000000001</ele><time>2026-05-02T10:02:34Z</time></trkpt><trkpt lat="45.5964132118334" lon="3.019419991234259"><ele>879.4000000000001</ele><time>2026-05-02T10:02:35Z</time></trkpt><trkpt lat="45.59635244931818" lon="3.0193025665490727"><ele>879.0</ele><time>2026-05-02T10:02:36Z</time></trkpt><trkpt lat="45.5962875919915" lon="3.0191904924097175"><ele>879.5</ele><time>2026-05-02T10:02:37Z</time></trkpt><trkpt lat="45.5962337426539" lon="3.019063964454482"><ele>880.0</ele><time>2026-05-02T10:02:38Z</time></trkpt><trkpt lat="45.59618035573491" lon="3.0189229744344717"><ele>880.5</ele><time>2026-05-02T10:02:39Z</time></trkpt><trkpt lat="45.596125956563874" lon="3.0187755256911792"><ele>881.0</ele><time>2026-05-02T10:02:40Z</time></trkpt><trkpt lat="45.5960684255293" lon="3.018617678134072"><ele>879.4</ele><time>2026-05-02T10:02:41Z</time></trkpt><trkpt lat="45.59603327637925" lon="3.0184533312653654"><ele>877.8</ele><time>2026-05-02T10:02:42Z</time></trkpt><trkpt lat="45.595999520512386" lon="3.0183027072537585"><ele>876.1999999999999</ele><time>2026-05-02T10:02:43Z</time></trkpt><trkpt lat="45.595968680582466" lon="3.018155596463543"><ele>874.5999999999999</ele><time>2026-05-02T10:02:44Z</time></trkpt><trkpt lat="45.59592507625875" lon="3.018017565228665"><ele>873.0</ele><time>2026-05-02T10:02:45Z</time></trkpt><trkpt lat="45.595883592745516" lon="3.0178728371021917"><ele>873.0</ele><time>2026-05-02T10:02:46Z</time></trkpt><trkpt lat="45.59581663828867" lon="3.017735955716855"><ele>873.0</ele><time>2026-05-02T10:02:47Z</time></trkpt><trkpt lat="45.595739308011744" lon="3.0176244860750536"><ele>873.0</ele><time>2026-05-02T10:02:48Z</time></trkpt><trkpt lat="45.59565200326636" lon="3.017531763980436"><ele>873.0</ele><time>2026-05-02T10:02:49Z</time></trkpt><trkpt lat="45.595554132137636" lon="3.0174528076359635"><ele>873.0</ele><time>2026-05-02T10:02:50Z</time></trkpt><trkpt lat="45.59545404124848" lon="3.017361410508516"><ele>873.1666666666666</ele><time>2026-05-02T10:02:51Z</time></trkpt><trkpt lat="45.595349826166704" lon="3.0172566359529327"><ele>873.3333333333333</ele><time>2026-05-02T10:02:52Z</time></trkpt><trkpt lat="45.59526314999709" lon="3.0171650983817964"><ele>873.5</ele><time>2026-05-02T10:02:53Z</time></trkpt><trkpt lat="45.595200346340846" lon="3.0170967661910093"><ele>873.6666666666666</ele><time>2026-05-02T10:02:54Z</time></trkpt><trkpt lat="45.59515189228443" lon="3.0170348011883577"><ele>873.8333333333333</ele><time>2026-05-02T10:02:55Z</time></trkpt><trkpt lat="45.59510472217922" lon="3.016960490976018"><ele>874.0</ele><time>2026-05-02T10:02:56Z</time></trkpt><trkpt lat="45.59507295977236" lon="3.0168648787600385"><ele>872.4000000000001</ele><time>2026-05-02T10:02:57Z</time></trkpt><trkpt lat="45.59507922849642" lon="3.01674880468772"><ele>870.8000000000001</ele><time>2026-05-02T10:02:58Z</time></trkpt><trkpt lat="45.595097993512844" lon="3.0166417067788536"><ele>869.1999999999999</ele><time>2026-05-02T10:02:59Z</time></trkpt><trkpt lat="45.595097850782956" lon="3.0165045623619076"><ele>867.5999999999999</ele><time>2026-05-02T10:03:00Z</time></trkpt><trkpt lat="45.59511740456808" lon="3.0163626544297872"><ele>866.0</ele><time>2026-05-02T10:03:01Z</time></trkpt><trkpt lat="45.59512254647267" lon="3.016189890337642"><ele>865.25</ele><time>2026-05-02T10:03:02Z</time></trkpt><trkpt lat="45.5951088933082" lon="3.016021468154515"><ele>864.5</ele><time>2026-05-02T10:03:03Z</time></trkpt><trkpt lat="45.59507670654889" lon="3.0158679671909168"><ele>863.75</ele><time>2026-05-02T10:03:04Z</time></trkpt><trkpt lat="45.59503161242046" lon="3.0157134734542743"><ele>863.0</ele><time>2026-05-02T10:03:05Z</time></trkpt><trkpt lat="45.594972512996634" lon="3.015558535479919"><ele>863.0</ele><time>2026-05-02T10:03:06Z</time></trkpt><trkpt lat="45.59492322370338" lon="3.015399061931463"><ele>863.0</ele><time>2026-05-02T10:03:07Z</time></trkpt><trkpt lat="45.59487178094908" lon="3.015258813529242"><ele>863.0</ele><time>2026-05-02T10:03:08Z</time></trkpt><trkpt lat="45.594820624630515" lon="3.0151214429742534"><ele>863.0</ele><time>2026-05-02T10:03:09Z</time></trkpt><trkpt lat="45.594757663146126" lon="3.0149985482024184"><ele>863.0</ele><time>2026-05-02T10:03:10Z</time></trkpt><trkpt lat="45.59467236814224" lon="3.0147347329991843"><ele>864.0</ele><time>2026-05-02T10:03:12Z</time></trkpt><trkpt lat="45.59466266544272" lon="3.0145920485698268"><ele>865.0</ele><time>2026-05-02T10:03:13Z</time></trkpt><trkpt lat="45.5946459212335" lon="3.014444636245951"><ele>866.0</ele><time>2026-05-02T10:03:14Z</time></trkpt><trkpt lat="45.594637315959176" lon="3.0143046029062104"><ele>867.0</ele><time>2026-05-02T10:03:15Z</time></trkpt><trkpt lat="45.59461317707969" lon="3.014173780566715"><ele>868.0</ele><time>2026-05-02T10:03:16Z</time></trkpt><trkpt lat="45.594588106565354" lon="3.014044600422378"><ele>868.4</ele><time>2026-05-02T10:03:17Z</time></trkpt><trkpt lat="45.59454861362034" lon="3.013910040497935"><ele>868.8</ele><time>2026-05-02T10:03:18Z</time></trkpt><trkpt lat="45.59450331847837" lon="3.0137698786537275"><ele>869.2</ele><time>2026-05-02T10:03:19Z</time></trkpt><trkpt lat="45.59444292349872" lon="3.0136236322817207"><ele>869.6</ele><time>2026-05-02T10:03:20Z</time></trkpt><trkpt lat="45.594380575869515" lon="3.0134785256603607"><ele>870.0</ele><time>2026-05-02T10:03:21Z</time></trkpt><trkpt lat="45.59431845133252" lon="3.0133444768155964"><ele>866.0</ele><time>2026-05-02T10:03:22Z</time></trkpt><trkpt lat="45.59425937215804" lon="3.013217480292574"><ele>862.0</ele><time>2026-05-02T10:03:23Z</time></trkpt><trkpt lat="45.59419761690215" lon="3.0130998263672986"><ele>858.0</ele><time>2026-05-02T10:03:24Z</time></trkpt><trkpt lat="45.59413610513774" lon="3.0129837217584283"><ele>854.0</ele><time>2026-05-02T10:03:25Z</time></trkpt><trkpt lat="45.59409246381011" lon="3.012860222189232"><ele>850.0</ele><time>2026-05-02T10:03:26Z</time></trkpt><trkpt lat="45.59402973093857" lon="3.0127519690009192"><ele>850.0</ele><time>2026-05-02T10:03:27Z</time></trkpt><trkpt lat="45.59396527628331" lon="3.012660814169056"><ele>850.0</ele><time>2026-05-02T10:03:28Z</time></trkpt><trkpt lat="45.59387121740324" lon="3.0126084301802316"><ele>850.0</ele><time>2026-05-02T10:03:29Z</time></trkpt><trkpt lat="45.59376436126563" lon="3.012623111480342"><ele>850.0</ele><time>2026-05-02T10:03:30Z</time></trkpt><trkpt lat="45.593670108903204" lon="3.01265832388106"><ele>850.0</ele><time>2026-05-02T10:03:31Z</time></trkpt><trkpt lat="45.59359262726098" lon="3.0127281319974832"><ele>848.8</ele><time>2026-05-02T10:03:32Z</time></trkpt><trkpt lat="45.59353664784335" lon="3.012828736737852"><ele>847.6</ele><time>2026-05-02T10:03:33Z</time></trkpt><trkpt lat="45.59348338660116" lon="3.0129394675163073"><ele>846.4000000000001</ele><time>2026-05-02T10:03:34Z</time></trkpt><trkpt lat="45.5933919617356" lon="3.0130186967737362"><ele>845.2</ele><time>2026-05-02T10:03:35Z</time></trkpt><trkpt lat="45.59329488690142" lon="3.0130963058800497"><ele>844.0</ele><time>2026-05-02T10:03:36Z</time></trkpt><trkpt lat="45.59319123428375" lon="3.0131570921464608"><ele>844.0</ele><time>2026-05-02T10:03:37Z</time></trkpt><trkpt lat="45.59308232291463" lon="3.0132186622297095"><ele>844.0</ele><time>2026-05-02T10:03:38Z</time></trkpt><trkpt lat="45.59297117019634" lon="3.013282432685288"><ele>844.0</ele><time>2026-05-02T10:03:39Z</time></trkpt><trkpt lat="45.59286290437288" lon="3.013348851671082"><ele>844.0</ele><time>2026-05-02T10:03:40Z</time></trkpt><trkpt lat="45.59275324137735" lon="3.013422915645087"><ele>843.2</ele><time>2026-05-02T10:03:41Z</time></trkpt><trkpt lat="45.5926571402834" lon="3.0135180510446293"><ele>842.4000000000001</ele><time>2026-05-02T10:03:42Z</time></trkpt><trkpt lat="45.59255781680172" lon="3.0135949539702507"><ele>841.6</ele><time>2026-05-02T10:03:43Z</time></trkpt><trkpt lat="45.592469523598666" lon="3.0136700332089266"><ele>840.8</ele><time>2026-05-02T10:03:44Z</time></trkpt><trkpt lat="45.592378307984546" lon="3.013717522871096"><ele>840.0</ele><time>2026-05-02T10:03:45Z</time></trkpt><trkpt lat="45.59229679499422" lon="3.013778360162889"><ele>840.0</ele><time>2026-05-02T10:03:46Z</time></trkpt><trkpt lat="45.59222195062552" lon="3.0138370252338036"><ele>840.0</ele><time>2026-05-02T10:03:47Z</time></trkpt><trkpt lat="45.59216153052269" lon="3.013906118649731"><ele>840.0</ele><time>2026-05-02T10:03:48Z</time></trkpt><trkpt lat="45.59209876195801" lon="3.013951619832602"><ele>840.0</ele><time>2026-05-02T10:03:49Z</time></trkpt><trkpt lat="45.591991429291035" lon="3.0140303418945296"><ele>840.0</ele><time>2026-05-02T10:03:51Z</time></trkpt><trkpt lat="45.59190309137954" lon="3.014037701074769"><ele>840.0</ele><time>2026-05-02T10:03:53Z</time></trkpt><trkpt lat="45.591883705000086" lon="3.014188837749965"><ele>838.8</ele><time>2026-05-02T10:03:56Z</time></trkpt><trkpt lat="45.591905087863594" lon="3.014322063967242"><ele>837.6</ele><time>2026-05-02T10:03:58Z</time></trkpt><trkpt lat="45.591902877549344" lon="3.014498550055691"><ele>836.4000000000001</ele><time>2026-05-02T10:04:00Z</time></trkpt><trkpt lat="45.59188650877585" lon="3.0146570502599785"><ele>835.2</ele><time>2026-05-02T10:04:02Z</time></trkpt><trkpt lat="45.59188405473931" lon="3.0148140894523743"><ele>834.0</ele><time>2026-05-02T10:04:04Z</time></trkpt><trkpt lat="45.591914371649544" lon="3.0149496547461503"><ele>833.4000000000001</ele><time>2026-05-02T10:04:06Z</time></trkpt><trkpt lat="45.591989776503596" lon="3.01501639133951"><ele>832.8</ele><time>2026-05-02T10:04:08Z</time></trkpt><trkpt lat="45.592056186413615" lon="3.01511423955172"><ele>832.2</ele><time>2026-05-02T10:04:10Z</time></trkpt><trkpt lat="45.59206258687891" lon="3.015252833229105"><ele>831.5999999999999</ele><time>2026-05-02T10:04:12Z</time></trkpt><trkpt lat="45.59204612920181" lon="3.015382352741636"><ele>831.0</ele><time>2026-05-02T10:04:14Z</time></trkpt><trkpt lat="45.59200868963993" lon="3.015512472575242"><ele>831.0</ele><time>2026-05-02T10:04:16Z</time></trkpt><trkpt lat="45.591956844585226" lon="3.0155737053953113"><ele>831.0</ele><time>2026-05-02T10:04:17Z</time></trkpt><trkpt lat="45.59189175342892" lon="3.01557332028969"><ele>831.0</ele><time>2026-05-02T10:04:18Z</time></trkpt><trkpt lat="45.59180521971446" lon="3.0156040260836563"><ele>831.0</ele><time>2026-05-02T10:04:20Z</time></trkpt><trkpt lat="45.591730930317446" lon="3.0156304943234606"><ele>831.0</ele><time>2026-05-02T10:04:22Z</time></trkpt><trkpt lat="45.59186952500697" lon="3.015632462019393"><ele>831.0</ele><time>2026-05-02T10:04:59Z</time></trkpt><trkpt lat="45.591941204408236" lon="3.0156076708430026"><ele>830.8333333333334</ele><time>2026-05-02T10:05:00Z</time></trkpt><trkpt lat="45.5920160544468" lon="3.0155403107660956"><ele>830.6666666666667</ele><time>2026-05-02T10:05:02Z</time></trkpt><trkpt lat="45.59206052107828" lon="3.015405438480275"><ele>830.5</ele><time>2026-05-02T10:05:04Z</time></trkpt><trkpt lat="45.59208496397903" lon="3.0153144528032"><ele>830.3333333333334</ele><time>2026-05-02T10:05:05Z</time></trkpt><trkpt lat="45.592065170365636" lon="3.0152087115862756"><ele>830.1666666666667</ele><time>2026-05-02T10:05:06Z</time></trkpt><trkpt lat="45.59206109129461" lon="3.015117642948958"><ele>830.0</ele><time>2026-05-02T10:05:07Z</time></trkpt><trkpt lat="45.59204234267968" lon="3.0149702674923287"><ele>830.6666666666667</ele><time>2026-05-02T10:05:09Z</time></trkpt><trkpt lat="45.59196198112728" lon="3.0149479613285237"><ele>831.3333333333334</ele><time>2026-05-02T10:05:10Z</time></trkpt><trkpt lat="45.59189758376697" lon="3.0148201331235924"><ele>832.0</ele><time>2026-05-02T10:05:12Z</time></trkpt><trkpt lat="45.59191374298755" lon="3.014696321927566"><ele>832.6666666666667</ele><time>2026-05-02T10:05:14Z</time></trkpt><trkpt lat="45.5919219899386" lon="3.014602188935287"><ele>833.3333333333334</ele><time>2026-05-02T10:05:15Z</time></trkpt><trkpt lat="45.59192812166236" lon="3.0144936632516672"><ele>834.0</ele><time>2026-05-02T10:05:16Z</time></trkpt><trkpt lat="45.59191786742884" lon="3.0143844095808556"><ele>834.0</ele><time>2026-05-02T10:05:17Z</time></trkpt><trkpt lat="45.591937242985004" lon="3.014225527641636"><ele>834.0</ele><time>2026-05-02T10:05:19Z</time></trkpt><trkpt lat="45.59192099717015" lon="3.0141079183767907"><ele>834.0</ele><time>2026-05-02T10:05:21Z</time></trkpt><trkpt lat="45.592059993224076" lon="3.013990095715276"><ele>834.0</ele><time>2026-05-02T10:05:25Z</time></trkpt><trkpt lat="45.592121479409556" lon="3.013945215529901"><ele>834.0</ele><time>2026-05-02T10:05:26Z</time></trkpt><trkpt lat="45.59218351850698" lon="3.0138966436995513"><ele>835.0</ele><time>2026-05-02T10:05:27Z</time></trkpt><trkpt lat="45.592253109782746" lon="3.013866717789933"><ele>836.0</ele><time>2026-05-02T10:05:28Z</time></trkpt><trkpt lat="45.592324691920226" lon="3.0138106098754616"><ele>837.0</ele><time>2026-05-02T10:05:29Z</time></trkpt><trkpt lat="45.59240058941649" lon="3.0137544442405244"><ele>838.0</ele><time>2026-05-02T10:05:30Z</time></trkpt><trkpt lat="45.59247052659258" lon="3.0136758087664157"><ele>839.0</ele><time>2026-05-02T10:05:31Z</time></trkpt><trkpt lat="45.59255563834307" lon="3.013612813248646"><ele>840.0</ele><time>2026-05-02T10:05:32Z</time></trkpt><trkpt lat="45.59264361886953" lon="3.0135460373076524"><ele>840.0</ele><time>2026-05-02T10:05:33Z</time></trkpt><trkpt lat="45.59274008763493" lon="3.013470463322512"><ele>840.0</ele><time>2026-05-02T10:05:34Z</time></trkpt><trkpt lat="45.592831449805814" lon="3.013397407099677"><ele>840.0</ele><time>2026-05-02T10:05:34.999Z</time></trkpt><trkpt lat="45.5929394021512" lon="3.01335306149072"><ele>840.0</ele><time>2026-05-02T10:05:35.999Z</time></trkpt><trkpt lat="45.59303516794684" lon="3.0132749006198942"><ele>840.0</ele><time>2026-05-02T10:05:36.999Z</time></trkpt><trkpt lat="45.593143514022195" lon="3.0132193496985917"><ele>841.0</ele><time>2026-05-02T10:05:37.999Z</time></trkpt><trkpt lat="45.59327218604619" lon="3.0131484949426723"><ele>842.0</ele><time>2026-05-02T10:05:38.999Z</time></trkpt><trkpt lat="45.59340420230326" lon="3.01305679367541"><ele>843.0</ele><time>2026-05-02T10:05:39.999Z</time></trkpt><trkpt lat="45.59349477085235" lon="3.0129518761245544"><ele>844.0</ele><time>2026-05-02T10:05:40.999Z</time></trkpt><trkpt lat="45.59356053809237" lon="3.012845630692357"><ele>844.0</ele><time>2026-05-02T10:05:41.999Z</time></trkpt><trkpt lat="45.593621603414036" lon="3.0127544250212215"><ele>844.0</ele><time>2026-05-02T10:05:42.999Z</time></trkpt><trkpt lat="45.5936835267603" lon="3.012687813340875"><ele>844.0</ele><time>2026-05-02T10:05:43.999Z</time></trkpt><trkpt lat="45.59375653898797" lon="3.0126480088086063"><ele>844.0</ele><time>2026-05-02T10:05:44.999Z</time></trkpt><trkpt lat="45.59385420020939" lon="3.012642563110951"><ele>844.0</ele><time>2026-05-02T10:05:45.999Z</time></trkpt><trkpt lat="45.59395542651518" lon="3.0126959934958966"><ele>845.5</ele><time>2026-05-02T10:05:46.999Z</time></trkpt><trkpt lat="45.59403929030564" lon="3.012796856900949"><ele>847.0</ele><time>2026-05-02T10:05:48Z</time></trkpt><trkpt lat="45.59410098257015" lon="3.012957448841799"><ele>848.5</ele><time>2026-05-02T10:05:49Z</time></trkpt><trkpt lat="45.59418841558676" lon="3.0131094041597657"><ele>850.0</ele><time>2026-05-02T10:05:50Z</time></trkpt><trkpt lat="45.59427238475498" lon="3.0132850346643227"><ele>849.5</ele><time>2026-05-02T10:05:51Z</time></trkpt><trkpt lat="45.59436129818432" lon="3.013463930886855"><ele>849.0</ele><time>2026-05-02T10:05:52Z</time></trkpt><trkpt lat="45.59443798588009" lon="3.0136331704682338"><ele>848.5</ele><time>2026-05-02T10:05:53Z</time></trkpt><trkpt lat="45.594503737208534" lon="3.0138101811167366"><ele>848.0</ele><time>2026-05-02T10:05:54Z</time></trkpt><trkpt lat="45.594558376617265" lon="3.013996153485793"><ele>854.6666666666667</ele><time>2026-05-02T10:05:55Z</time></trkpt><trkpt lat="45.59460492691772" lon="3.014200226409216"><ele>861.3333333333333</ele><time>2026-05-02T10:05:56Z</time></trkpt><trkpt lat="45.594613419305844" lon="3.014439254847597"><ele>868.0</ele><time>2026-05-02T10:05:57Z</time></trkpt><trkpt lat="45.59465149029782" lon="3.014701974314653"><ele>868.0</ele><time>2026-05-02T10:05:58Z</time></trkpt><trkpt lat="45.594715403445285" lon="3.014952371841104"><ele>868.0</ele><time>2026-05-02T10:05:59Z</time></trkpt><trkpt lat="45.59479097846422" lon="3.015140633235215"><ele>868.0</ele><time>2026-05-02T10:06:00Z</time></trkpt><trkpt lat="45.59486039405027" lon="3.015305396540362"><ele>866.75</ele><time>2026-05-02T10:06:01Z</time></trkpt><trkpt lat="45.59491942445307" lon="3.015473867483539"><ele>865.5</ele><time>2026-05-02T10:06:02Z</time></trkpt><trkpt lat="45.594980738753925" lon="3.0156443541590208"><ele>864.25</ele><time>2026-05-02T10:06:03Z</time></trkpt><trkpt lat="45.59504479855213" lon="3.015818959100596"><ele>863.0</ele><time>2026-05-02T10:06:04Z</time></trkpt><trkpt lat="45.595079138467895" lon="3.016003672852008"><ele>862.5</ele><time>2026-05-02T10:06:05Z</time></trkpt><trkpt lat="45.59509282724026" lon="3.01619342939099"><ele>862.0</ele><time>2026-05-02T10:06:06Z</time></trkpt><trkpt lat="45.595087753309144" lon="3.0163819003795447"><ele>861.5</ele><time>2026-05-02T10:06:07Z</time></trkpt><trkpt lat="45.59507336805624" lon="3.016545880061941"><ele>861.0</ele><time>2026-05-02T10:06:08Z</time></trkpt><trkpt lat="45.5950576211716" lon="3.0166858655710977"><ele>862.0</ele><time>2026-05-02T10:06:09Z</time></trkpt><trkpt lat="45.5950681945526" lon="3.0168032674775223"><ele>862.9999999999999</ele><time>2026-05-02T10:06:10Z</time></trkpt><trkpt lat="45.595070612980024" lon="3.016915072098385"><ele>863.9999999999999</ele><time>2026-05-02T10:06:11Z</time></trkpt><trkpt lat="45.5950870615997" lon="3.017029625571095"><ele>865.0</ele><time>2026-05-02T10:06:12Z</time></trkpt><trkpt lat="45.59517083273558" lon="3.01711842369079"><ele>866.0</ele><time>2026-05-02T10:06:13Z</time></trkpt><trkpt lat="45.59525777028024" lon="3.0171974244931308"><ele>867.75</ele><time>2026-05-02T10:06:14Z</time></trkpt><trkpt lat="45.59535284325841" lon="3.0172826544697684"><ele>869.5</ele><time>2026-05-02T10:06:15Z</time></trkpt><trkpt lat="45.59545573936825" lon="3.0173767234549747"><ele>871.25</ele><time>2026-05-02T10:06:16Z</time></trkpt><trkpt lat="45.59556106652608" lon="3.017478832965704"><ele>873.0</ele><time>2026-05-02T10:06:17Z</time></trkpt><trkpt lat="45.59567010484579" lon="3.017588598781285"><ele>873.0</ele><time>2026-05-02T10:06:18Z</time></trkpt><trkpt lat="45.59577147231864" lon="3.017698620117078"><ele>873.0</ele><time>2026-05-02T10:06:19Z</time></trkpt><trkpt lat="45.595845222029894" lon="3.0178462269063435"><ele>873.0</ele><time>2026-05-02T10:06:20Z</time></trkpt><trkpt lat="45.59590496510175" lon="3.018023749643972"><ele>873.0</ele><time>2026-05-02T10:06:21Z</time></trkpt><trkpt lat="45.59595231898098" lon="3.0182426784480185"><ele>872.3333333333333</ele><time>2026-05-02T10:06:22Z</time></trkpt><trkpt lat="45.59602445200573" lon="3.0185034189402242"><ele>871.6666666666666</ele><time>2026-05-02T10:06:23Z</time></trkpt><trkpt lat="45.59609194498971" lon="3.0187361482712873"><ele>871.0</ele><time>2026-05-02T10:06:24Z</time></trkpt><trkpt lat="45.59615910487725" lon="3.0189335162052333"><ele>873.0</ele><time>2026-05-02T10:06:25Z</time></trkpt><trkpt lat="45.59622827932891" lon="3.019084281769502"><ele>875.0</ele><time>2026-05-02T10:06:26Z</time></trkpt><trkpt lat="45.59629084943481" lon="3.0192326252673145"><ele>877.0</ele><time>2026-05-02T10:06:27Z</time></trkpt><trkpt lat="45.59635481328928" lon="3.019377561449505"><ele>879.0</ele><time>2026-05-02T10:06:28Z</time></trkpt><trkpt lat="45.59642331498617" lon="3.019517183031857"><ele>879.0</ele><time>2026-05-02T10:06:29Z</time></trkpt><trkpt lat="45.596497601254825" lon="3.0196323859617187"><ele>879.0000000000001</ele><time>2026-05-02T10:06:30Z</time></trkpt><trkpt lat="45.5965806045806" lon="3.0197222736651863"><ele>879.0000000000001</ele><time>2026-05-02T10:06:31Z</time></trkpt><trkpt lat="45.596671973778314" lon="3.019797750325093"><ele>879.0</ele><time>2026-05-02T10:06:32Z</time></trkpt><trkpt lat="45.596764646076565" lon="3.019851932290235"><ele>879.0</ele><time>2026-05-02T10:06:33Z</time></trkpt><trkpt lat="45.59684777908" lon="3.019885503665684"><ele>879.0</ele><time>2026-05-02T10:06:34Z</time></trkpt><trkpt lat="45.59692528025351" lon="3.019900006361513"><ele>879.0</ele><time>2026-05-02T10:06:35Z</time></trkpt><trkpt lat="45.5970019275356" lon="3.0199097411418943"><ele>879.0</ele><time>2026-05-02T10:06:36Z</time></trkpt><trkpt lat="45.59706977638133" lon="3.019902491850796"><ele>879.0</ele><time>2026-05-02T10:06:37Z</time></trkpt><trkpt lat="45.597186016097154" lon="3.019897704540906"><ele>879.0</ele><time>2026-05-02T10:06:39Z</time></trkpt><trkpt lat="45.597257598679924" lon="3.0199399342628666"><ele>879.0</ele><time>2026-05-02T10:06:41Z</time></trkpt><trkpt lat="45.59725550110502" lon="3.020045813367997"><ele>879.2</ele><time>2026-05-02T10:06:42Z</time></trkpt><trkpt lat="45.597252352991596" lon="3.020178008506378"><ele>879.4000000000001</ele><time>2026-05-02T10:06:44Z</time></trkpt><trkpt lat="45.5972622468663" lon="3.0203591865987605"><ele>879.6</ele><time>2026-05-02T10:06:46Z</time></trkpt><trkpt lat="45.59725768680521" lon="3.020472657670807"><ele>879.8</ele><time>2026-05-02T10:06:47Z</time></trkpt><trkpt lat="45.59725210453499" lon="3.020600438468844"><ele>880.0</ele><time>2026-05-02T10:06:48Z</time></trkpt><trkpt lat="45.59724870896941" lon="3.020761650896267"><ele>879.8</ele><time>2026-05-02T10:06:49Z</time></trkpt><trkpt lat="45.597238591768736" lon="3.0209136730554937"><ele>879.6</ele><time>2026-05-02T10:06:50Z</time></trkpt><trkpt lat="45.59723100608717" lon="3.021078285502304"><ele>879.4000000000001</ele><time>2026-05-02T10:06:51Z</time></trkpt><trkpt lat="45.59721807358002" lon="3.021219982093289"><ele>879.2</ele><time>2026-05-02T10:06:52Z</time></trkpt><trkpt lat="45.597193783535566" lon="3.0213843646626066"><ele>879.0</ele><time>2026-05-02T10:06:53Z</time></trkpt><trkpt lat="45.59713313907522" lon="3.0215276715983164"><ele>878.5</ele><time>2026-05-02T10:06:54Z</time></trkpt><trkpt lat="45.59706560288212" lon="3.0216784019078813"><ele>878.0</ele><time>2026-05-02T10:06:55Z</time></trkpt><trkpt lat="45.596987103898975" lon="3.0218225560458962"><ele>877.5</ele><time>2026-05-02T10:06:56Z</time></trkpt><trkpt lat="45.596893972699" lon="3.0219815422567833"><ele>877.0</ele><time>2026-05-02T10:06:57Z</time></trkpt><trkpt lat="45.596807464792725" lon="3.022126690328926"><ele>875.75</ele><time>2026-05-02T10:06:58Z</time></trkpt><trkpt lat="45.596723786043476" lon="3.022266086029547"><ele>874.5</ele><time>2026-05-02T10:06:59Z</time></trkpt><trkpt lat="45.59663838153068" lon="3.0224083563450894"><ele>873.25</ele><time>2026-05-02T10:07:00Z</time></trkpt><trkpt lat="45.596546195707425" lon="3.0225629644602545"><ele>872.0</ele><time>2026-05-02T10:07:01Z</time></trkpt><trkpt lat="45.596449195585784" lon="3.0227238970177708"><ele>871.6666666666667</ele><time>2026-05-02T10:07:02Z</time></trkpt><trkpt lat="45.59634232225695" lon="3.0228939682456466"><ele>871.3333333333333</ele><time>2026-05-02T10:07:03Z</time></trkpt><trkpt lat="45.59623992906856" lon="3.0230791690769077"><ele>871.0</ele><time>2026-05-02T10:07:04Z</time></trkpt><trkpt lat="45.59612332552266" lon="3.023208601507915"><ele>869.0</ele><time>2026-05-02T10:07:05Z</time></trkpt><trkpt lat="45.59602235189063" lon="3.0233454761459466"><ele>867.0</ele><time>2026-05-02T10:07:06Z</time></trkpt><trkpt lat="45.59592409083225" lon="3.0234760296601952"><ele>865.0</ele><time>2026-05-02T10:07:07Z</time></trkpt><trkpt lat="45.59583183050807" lon="3.0235999200659545"><ele>863.0</ele><time>2026-05-02T10:07:08Z</time></trkpt><trkpt lat="45.595752118935025" lon="3.023733675595099"><ele>863.0</ele><time>2026-05-02T10:07:09Z</time></trkpt><trkpt lat="45.59566582200533" lon="3.0238403471890667"><ele>863.0</ele><time>2026-05-02T10:07:10Z</time></trkpt><trkpt lat="45.59558779194163" lon="3.0239476008464847"><ele>863.0</ele><time>2026-05-02T10:07:11Z</time></trkpt><trkpt lat="45.59551685203194" lon="3.024054937798834"><ele>863.0</ele><time>2026-05-02T10:07:12Z</time></trkpt><trkpt lat="45.59549786304568" lon="3.0242015652437786"><ele>863.0</ele><time>2026-05-02T10:07:13Z</time></trkpt><trkpt lat="45.595490667229384" lon="3.024343900224665"><ele>862.8</ele><time>2026-05-02T10:07:14Z</time></trkpt><trkpt lat="45.59549489751417" lon="3.0244804994297265"><ele>862.5999999999999</ele><time>2026-05-02T10:07:15Z</time></trkpt><trkpt lat="45.59547871442745" lon="3.024605428599549"><ele>862.4000000000001</ele><time>2026-05-02T10:07:16Z</time></trkpt><trkpt lat="45.59542420154512" lon="3.024723805776345"><ele>862.2</ele><time>2026-05-02T10:07:17Z</time></trkpt><trkpt lat="45.595398490365504" lon="3.02485238011843"><ele>862.0</ele><time>2026-05-02T10:07:18Z</time></trkpt><trkpt lat="45.59535346344701" lon="3.0249490052905244"><ele>861.8571428571429</ele><time>2026-05-02T10:07:19Z</time></trkpt><trkpt lat="45.5953649281405" lon="3.025078774621293"><ele>861.7142857142857</ele><time>2026-05-02T10:07:20Z</time></trkpt><trkpt lat="45.595374674309966" lon="3.0251972873890707"><ele>861.5714285714286</ele><time>2026-05-02T10:07:21Z</time></trkpt><trkpt lat="45.5953778392007" lon="3.0252885702354004"><ele>861.4285714285714</ele><time>2026-05-02T10:07:22Z</time></trkpt><trkpt lat="45.59536273379574" lon="3.025381286422849"><ele>861.2857142857142</ele><time>2026-05-02T10:07:23Z</time></trkpt><trkpt lat="45.59535335560374" lon="3.025474741000176"><ele>861.1428571428571</ele><time>2026-05-02T10:07:24Z</time></trkpt><trkpt lat="45.59533956397967" lon="3.0255703042597113"><ele>861.0</ele><time>2026-05-02T10:07:25Z</time></trkpt><trkpt lat="45.59534610996781" lon="3.025661560127512"><ele>860.5</ele><time>2026-05-02T10:07:26Z</time></trkpt><trkpt lat="45.595358584501476" lon="3.0258319699996186"><ele>860.0</ele><time>2026-05-02T10:07:28Z</time></trkpt><trkpt lat="45.59533181121588" lon="3.0259148742103954"><ele>859.5</ele><time>2026-05-02T10:07:29Z</time></trkpt><trkpt lat="45.59526473194875" lon="3.025972906309781"><ele>859.0</ele><time>2026-05-02T10:07:30Z</time></trkpt><trkpt lat="45.5952095741628" lon="3.0260615013968786"><ele>858.5</ele><time>2026-05-02T10:07:31Z</time></trkpt><trkpt lat="45.59515410757027" lon="3.0261373867110604"><ele>858.0</ele><time>2026-05-02T10:07:32Z</time></trkpt><trkpt lat="45.59509595327609" lon="3.0261945574278792"><ele>857.0</ele><time>2026-05-02T10:07:33Z</time></trkpt><trkpt lat="45.5950306759039" lon="3.026256580100177"><ele>856.0</ele><time>2026-05-02T10:07:34Z</time></trkpt><trkpt lat="45.59497215660188" lon="3.026320049043328"><ele>855.0</ele><time>2026-05-02T10:07:35Z</time></trkpt><trkpt lat="45.594938025811004" lon="3.0264175536579097"><ele>854.0</ele><time>2026-05-02T10:07:36Z</time></trkpt><trkpt lat="45.59490871463947" lon="3.0265044296186447"><ele>853.0</ele><time>2026-05-02T10:07:37Z</time></trkpt><trkpt lat="45.59489558286748" lon="3.0265940726149"><ele>852.0</ele><time>2026-05-02T10:07:38Z</time></trkpt><trkpt lat="45.59489664570664" lon="3.026696047390474"><ele>851.0</ele><time>2026-05-02T10:07:39Z</time></trkpt><trkpt lat="45.59490122054694" lon="3.0268318855134684"><ele>850.25</ele><time>2026-05-02T10:07:40Z</time></trkpt><trkpt lat="45.59490225153619" lon="3.026979889710872"><ele>849.5</ele><time>2026-05-02T10:07:40.999Z</time></trkpt><trkpt lat="45.59490375466457" lon="3.0271468172420724"><ele>848.75</ele><time>2026-05-02T10:07:41.999Z</time></trkpt><trkpt lat="45.59490585419033" lon="3.027324734563117"><ele>848.0</ele><time>2026-05-02T10:07:42.999Z</time></trkpt><trkpt lat="45.59490659734463" lon="3.027512405988128"><ele>847.0</ele><time>2026-05-02T10:07:43.999Z</time></trkpt><trkpt lat="45.594903713104344" lon="3.02769200130983"><ele>846.0</ele><time>2026-05-02T10:07:44.999Z</time></trkpt><trkpt lat="45.594897286558265" lon="3.0278586885421714"><ele>845.0</ele><time>2026-05-02T10:07:45.999Z</time></trkpt><trkpt lat="45.59488917053881" lon="3.0280308870486974"><ele>844.0</ele><time>2026-05-02T10:07:46.999Z</time></trkpt><trkpt lat="45.59487864456792" lon="3.0282176543215362"><ele>843.25</ele><time>2026-05-02T10:07:47.999Z</time></trkpt><trkpt lat="45.59486191799225" lon="3.0284095226887393"><ele>842.5</ele><time>2026-05-02T10:07:48.999Z</time></trkpt><trkpt lat="45.59484425174754" lon="3.028608391083853"><ele>841.75</ele><time>2026-05-02T10:07:49.999Z</time></trkpt><trkpt lat="45.59482334841549" lon="3.0288085389053805"><ele>841.0</ele><time>2026-05-02T10:07:50.999Z</time></trkpt><trkpt lat="45.594802259451335" lon="3.0290053117499207"><ele>841.0</ele><time>2026-05-02T10:07:51.999Z</time></trkpt><trkpt lat="45.59477924782436" lon="3.0291938873066657"><ele>841.0</ele><time>2026-05-02T10:07:52.999Z</time></trkpt><trkpt lat="45.59474577412906" lon="3.029387706775347"><ele>841.0</ele><time>2026-05-02T10:07:53.999Z</time></trkpt><trkpt lat="45.5947102597163" lon="3.029592547606779"><ele>841.0</ele><time>2026-05-02T10:07:54.999Z</time></trkpt><trkpt lat="45.59467221420028" lon="3.0297957394896446"><ele>841.0</ele><time>2026-05-02T10:07:55.999Z</time></trkpt><trkpt lat="45.59462762367461" lon="3.030014267079722"><ele>841.0</ele><time>2026-05-02T10:07:57Z</time></trkpt><trkpt lat="45.594582058027626" lon="3.0302362776578384"><ele>841.0</ele><time>2026-05-02T10:07:58Z</time></trkpt><trkpt lat="45.59454066030449" lon="3.030457399239406"><ele>841.0</ele><time>2026-05-02T10:07:59Z</time></trkpt><trkpt lat="45.59450753344478" lon="3.0306773166794025"><ele>841.0</ele><time>2026-05-02T10:08:00Z</time></trkpt><trkpt lat="45.59446998538325" lon="3.030900118113872"><ele>841.0</ele><time>2026-05-02T10:08:01Z</time></trkpt><trkpt lat="45.59443459475096" lon="3.031107795634142"><ele>838.0</ele><time>2026-05-02T10:08:02Z</time></trkpt><trkpt lat="45.59439829444873" lon="3.031320477028848"><ele>835.0</ele><time>2026-05-02T10:08:03Z</time></trkpt><trkpt lat="45.59436640817102" lon="3.0315250294365095"><ele>832.0</ele><time>2026-05-02T10:08:04Z</time></trkpt><trkpt lat="45.59431175417997" lon="3.031732057871998"><ele>830.6666666666666</ele><time>2026-05-02T10:08:05Z</time></trkpt><trkpt lat="45.59425470178324" lon="3.0319292167082867"><ele>829.3333333333333</ele><time>2026-05-02T10:08:06Z</time></trkpt><trkpt lat="45.594180394745834" lon="3.032138365127124"><ele>828.0</ele><time>2026-05-02T10:08:07Z</time></trkpt><trkpt lat="45.594091107278075" lon="3.03234416119106"><ele>829.6666666666667</ele><time>2026-05-02T10:08:08Z</time></trkpt><trkpt lat="45.5939841475885" lon="3.0325238318414907"><ele>831.3333333333334</ele><time>2026-05-02T10:08:09Z</time></trkpt><trkpt lat="45.59386131756289" lon="3.032674739495322"><ele>833.0</ele><time>2026-05-02T10:08:10Z</time></trkpt><trkpt lat="45.593746443574425" lon="3.032863183918683"><ele>832.0</ele><time>2026-05-02T10:08:11Z</time></trkpt><trkpt lat="45.59364480083036" lon="3.0330270439459754"><ele>831.0</ele><time>2026-05-02T10:08:12Z</time></trkpt><trkpt lat="45.59353762858273" lon="3.03319248514062"><ele>830.0</ele><time>2026-05-02T10:08:13Z</time></trkpt><trkpt lat="45.593420431583624" lon="3.033334865337496"><ele>828.0</ele><time>2026-05-02T10:08:14Z</time></trkpt><trkpt lat="45.59328581937456" lon="3.033465246599071"><ele>826.0</ele><time>2026-05-02T10:08:15Z</time></trkpt><trkpt lat="45.59316250624602" lon="3.0335930037026304"><ele>824.0</ele><time>2026-05-02T10:08:16Z</time></trkpt><trkpt lat="45.59304420131816" lon="3.033757082009546"><ele>824.0</ele><time>2026-05-02T10:08:17Z</time></trkpt><trkpt lat="45.592946949772276" lon="3.033942598482735"><ele>824.0</ele><time>2026-05-02T10:08:18Z</time></trkpt><trkpt lat="45.592839988996076" lon="3.0341561534588077"><ele>824.0</ele><time>2026-05-02T10:08:19Z</time></trkpt><trkpt lat="45.592740373655985" lon="3.0343795064545187"><ele>823.0</ele><time>2026-05-02T10:08:20Z</time></trkpt><trkpt lat="45.592661652894364" lon="3.0345996742841264"><ele>822.0</ele><time>2026-05-02T10:08:21Z</time></trkpt><trkpt lat="45.59259646174113" lon="3.0347933002735186"><ele>821.0</ele><time>2026-05-02T10:08:22Z</time></trkpt><trkpt lat="45.59248586866452" lon="3.034955490182872"><ele>821.6666666666667</ele><time>2026-05-02T10:08:23Z</time></trkpt><trkpt lat="45.592376232413535" lon="3.0351256917393212"><ele>822.3333333333333</ele><time>2026-05-02T10:08:24Z</time></trkpt><trkpt lat="45.59224760299476" lon="3.0352896867646675"><ele>823.0</ele><time>2026-05-02T10:08:25Z</time></trkpt><trkpt lat="45.59210559532981" lon="3.035451377872193"><ele>823.0</ele><time>2026-05-02T10:08:26Z</time></trkpt><trkpt lat="45.59195105493266" lon="3.035617986587518"><ele>823.0</ele><time>2026-05-02T10:08:27Z</time></trkpt><trkpt lat="45.59180612731957" lon="3.035773592773839"><ele>823.0</ele><time>2026-05-02T10:08:28Z</time></trkpt><trkpt lat="45.591670497929485" lon="3.035928062823858"><ele>821.3333333333333</ele><time>2026-05-02T10:08:29Z</time></trkpt><trkpt lat="45.59149649846456" lon="3.0360649708634067"><ele>819.6666666666667</ele><time>2026-05-02T10:08:30Z</time></trkpt><trkpt lat="45.59135488778183" lon="3.036176188294365"><ele>818.0</ele><time>2026-05-02T10:08:31Z</time></trkpt><trkpt lat="45.59121155049036" lon="3.0362727964809824"><ele>816.6666666666667</ele><time>2026-05-02T10:08:32Z</time></trkpt><trkpt lat="45.59106306617901" lon="3.036341329242683"><ele>815.3333333333333</ele><time>2026-05-02T10:08:33Z</time></trkpt><trkpt lat="45.590906035137564" lon="3.0364015101019994"><ele>814.0</ele><time>2026-05-02T10:08:34Z</time></trkpt><trkpt lat="45.590727664966415" lon="3.0364677736004455"><ele>814.0</ele><time>2026-05-02T10:08:35Z</time></trkpt><trkpt lat="45.5905467721686" lon="3.0365349741427847"><ele>814.0</ele><time>2026-05-02T10:08:36Z</time></trkpt><trkpt lat="45.59037833562999" lon="3.036598229469057"><ele>814.0</ele><time>2026-05-02T10:08:37Z</time></trkpt><trkpt lat="45.59022687758198" lon="3.036658934203594"><ele>812.0</ele><time>2026-05-02T10:08:38Z</time></trkpt><trkpt lat="45.59008948015128" lon="3.0367409361333144"><ele>810.0</ele><time>2026-05-02T10:08:39Z</time></trkpt><trkpt lat="45.589954136562625" lon="3.036783953187904"><ele>808.0</ele><time>2026-05-02T10:08:40Z</time></trkpt><trkpt lat="45.5898410406886" lon="3.0368834187219313"><ele>806.0</ele><time>2026-05-02T10:08:41Z</time></trkpt><trkpt lat="45.58973573620315" lon="3.0369769139211265"><ele>806.0</ele><time>2026-05-02T10:08:42Z</time></trkpt><trkpt lat="45.58964283023552" lon="3.0370984969139427"><ele>806.0</ele><time>2026-05-02T10:08:43Z</time></trkpt><trkpt lat="45.58955107133695" lon="3.0372365046197225"><ele>806.0</ele><time>2026-05-02T10:08:44Z</time></trkpt><trkpt lat="45.589450829658304" lon="3.0374015068036906"><ele>806.0</ele><time>2026-05-02T10:08:45Z</time></trkpt><trkpt lat="45.589325280612506" lon="3.037550825351236"><ele>804.0</ele><time>2026-05-02T10:08:46Z</time></trkpt><trkpt lat="45.589197088452714" lon="3.0377340702852456"><ele>802.0</ele><time>2026-05-02T10:08:47Z</time></trkpt><trkpt lat="45.58906856681278" lon="3.0379235993845706"><ele>800.0</ele><time>2026-05-02T10:08:48Z</time></trkpt><trkpt lat="45.588943164949626" lon="3.038144498487082"><ele>802.3333333333334</ele><time>2026-05-02T10:08:49Z</time></trkpt><trkpt lat="45.58882079966933" lon="3.0383673359242525"><ele>804.6666666666667</ele><time>2026-05-02T10:08:50Z</time></trkpt><trkpt lat="45.588709427321156" lon="3.0385831491938853"><ele>807.0</ele><time>2026-05-02T10:08:51Z</time></trkpt><trkpt lat="45.58861182272801" lon="3.0387872711055635"><ele>802.3333333333333</ele><time>2026-05-02T10:08:52Z</time></trkpt><trkpt lat="45.58851514407469" lon="3.0389841976878884"><ele>797.6666666666666</ele><time>2026-05-02T10:08:53Z</time></trkpt><trkpt lat="45.588412287796956" lon="3.0391684080266437"><ele>793.0</ele><time>2026-05-02T10:08:54Z</time></trkpt><trkpt lat="45.58830451341643" lon="3.039327365635329"><ele>791.6666666666666</ele><time>2026-05-02T10:08:55Z</time></trkpt><trkpt lat="45.588182380608515" lon="3.0394637786013"><ele>790.3333333333333</ele><time>2026-05-02T10:08:56Z</time></trkpt><trkpt lat="45.58803459362956" lon="3.039582497578178"><ele>789.0</ele><time>2026-05-02T10:08:57Z</time></trkpt><trkpt lat="45.587883896946444" lon="3.0397198957903897"><ele>789.0</ele><time>2026-05-02T10:08:58Z</time></trkpt><trkpt lat="45.587731185216754" lon="3.039840647710987"><ele>789.0</ele><time>2026-05-02T10:08:59Z</time></trkpt><trkpt lat="45.587575665709416" lon="3.0399301583852445"><ele>789.0</ele><time>2026-05-02T10:09:00Z</time></trkpt><trkpt lat="45.58741357928587" lon="3.0399920807011926"><ele>787.6666666666667</ele><time>2026-05-02T10:09:01Z</time></trkpt><trkpt lat="45.58724542317686" lon="3.040040375730211"><ele>786.3333333333334</ele><time>2026-05-02T10:09:02Z</time></trkpt><trkpt lat="45.587094166481656" lon="3.0400584666857977"><ele>785.0</ele><time>2026-05-02T10:09:03Z</time></trkpt><trkpt lat="45.58693995600345" lon="3.0400599962232024"><ele>782.6666666666667</ele><time>2026-05-02T10:09:04Z</time></trkpt><trkpt lat="45.586778722402755" lon="3.040068142774358"><ele>780.3333333333333</ele><time>2026-05-02T10:09:05Z</time></trkpt><trkpt lat="45.5866225442618" lon="3.040078003046653"><ele>778.0</ele><time>2026-05-02T10:09:06Z</time></trkpt><trkpt lat="45.58646996638348" lon="3.040073711863263"><ele>778.0</ele><time>2026-05-02T10:09:07Z</time></trkpt><trkpt lat="45.5863275942905" lon="3.040053008866678"><ele>778.0</ele><time>2026-05-02T10:09:08Z</time></trkpt><trkpt lat="45.586185317119686" lon="3.0400041070588006"><ele>778.0</ele><time>2026-05-02T10:09:09Z</time></trkpt><trkpt lat="45.58604472101977" lon="3.039973914645729"><ele>778.0</ele><time>2026-05-02T10:09:10Z</time></trkpt><trkpt lat="45.5859030189657" lon="3.0399808535607242"><ele>778.75</ele><time>2026-05-02T10:09:11Z</time></trkpt><trkpt lat="45.58576768782591" lon="3.039996312540968"><ele>779.5</ele><time>2026-05-02T10:09:12Z</time></trkpt><trkpt lat="45.58564535220838" lon="3.039972613387453"><ele>780.25</ele><time>2026-05-02T10:09:13Z</time></trkpt><trkpt lat="45.5855201483943" lon="3.0399255662824736"><ele>781.0</ele><time>2026-05-02T10:09:14Z</time></trkpt><trkpt lat="45.58539673797947" lon="3.0398741037834975"><ele>778.5</ele><time>2026-05-02T10:09:15Z</time></trkpt><trkpt lat="45.58527106499723" lon="3.0398720811657585"><ele>776.0</ele><time>2026-05-02T10:09:16Z</time></trkpt><trkpt lat="45.58515056728337" lon="3.039886636102021"><ele>773.5</ele><time>2026-05-02T10:09:17Z</time></trkpt><trkpt lat="45.585038207072415" lon="3.039936823844451"><ele>771.0</ele><time>2026-05-02T10:09:18Z</time></trkpt><trkpt lat="45.584936378309244" lon="3.0400070677917004"><ele>769.5</ele><time>2026-05-02T10:09:19Z</time></trkpt><trkpt lat="45.58483856158779" lon="3.04008992927435"><ele>768.0</ele><time>2026-05-02T10:09:20Z</time></trkpt><trkpt lat="45.584749016539995" lon="3.0401890543085495"><ele>766.5</ele><time>2026-05-02T10:09:21Z</time></trkpt><trkpt lat="45.58467801481901" lon="3.040320973590811"><ele>765.0</ele><time>2026-05-02T10:09:22Z</time></trkpt><trkpt lat="45.584638898001856" lon="3.040475255612687"><ele>765.0</ele><time>2026-05-02T10:09:23Z</time></trkpt><trkpt lat="45.58462035253095" lon="3.040639057423621"><ele>765.0</ele><time>2026-05-02T10:09:24Z</time></trkpt><trkpt lat="45.58460711129549" lon="3.040796795651146"><ele>765.0</ele><time>2026-05-02T10:09:25Z</time></trkpt><trkpt lat="45.584572406535074" lon="3.0409360495608313"><ele>765.0</ele><time>2026-05-02T10:09:26Z</time></trkpt><trkpt lat="45.58448287884685" lon="3.0410198518551788"><ele>765.0</ele><time>2026-05-02T10:09:27Z</time></trkpt><trkpt lat="45.58438902750726" lon="3.041060044098689"><ele>763.0</ele><time>2026-05-02T10:09:28Z</time></trkpt><trkpt lat="45.584299537451855" lon="3.0411290146641745"><ele>761.0</ele><time>2026-05-02T10:09:29Z</time></trkpt><trkpt lat="45.58422594818384" lon="3.0412396496987717"><ele>759.0</ele><time>2026-05-02T10:09:30Z</time></trkpt><trkpt lat="45.5841687996164" lon="3.0413630525455995"><ele>757.0</ele><time>2026-05-02T10:09:31Z</time></trkpt><trkpt lat="45.584128735756" lon="3.0414995070206756"><ele>755.0</ele><time>2026-05-02T10:09:32Z</time></trkpt><trkpt lat="45.584094856306436" lon="3.041640173691327"><ele>754.8</ele><time>2026-05-02T10:09:33Z</time></trkpt><trkpt lat="45.58405332639622" lon="3.041780671678383"><ele>754.6</ele><time>2026-05-02T10:09:34Z</time></trkpt><trkpt lat="45.58399054063752" lon="3.041902558609576"><ele>754.4000000000001</ele><time>2026-05-02T10:09:35Z</time></trkpt><trkpt lat="45.58393606765876" lon="3.04203681360706"><ele>754.2</ele><time>2026-05-02T10:09:36Z</time></trkpt><trkpt lat="45.58388986487898" lon="3.0421808670923527"><ele>754.0</ele><time>2026-05-02T10:09:37Z</time></trkpt><trkpt lat="45.58386332214932" lon="3.042337514637311"><ele>754.2</ele><time>2026-05-02T10:09:38Z</time></trkpt><trkpt lat="45.58382594898998" lon="3.042490368114133"><ele>754.4000000000001</ele><time>2026-05-02T10:09:39Z</time></trkpt><trkpt lat="45.583799334888226" lon="3.042651549108071"><ele>754.6</ele><time>2026-05-02T10:09:40Z</time></trkpt><trkpt lat="45.58378919631588" lon="3.0428016145848167"><ele>754.8</ele><time>2026-05-02T10:09:41Z</time></trkpt><trkpt lat="45.58376974649021" lon="3.0429439584181806"><ele>755.0</ele><time>2026-05-02T10:09:42Z</time></trkpt><trkpt lat="45.58376717281995" lon="3.04309844625621"><ele>755.0</ele><time>2026-05-02T10:09:43Z</time></trkpt><trkpt lat="45.5837584569461" lon="3.0432229965167026"><ele>755.0</ele><time>2026-05-02T10:09:44Z</time></trkpt><trkpt lat="45.583732424323685" lon="3.0433476209918013"><ele>755.0</ele><time>2026-05-02T10:09:45Z</time></trkpt><trkpt lat="45.583682099828984" lon="3.0434791911351593"><ele>755.0</ele><time>2026-05-02T10:09:46Z</time></trkpt><trkpt lat="45.58359207465761" lon="3.0435519723417084"><ele>755.0</ele><time>2026-05-02T10:09:46.999Z</time></trkpt><trkpt lat="45.583510183455836" lon="3.0436466439065053"><ele>752.4</ele><time>2026-05-02T10:09:47.999Z</time></trkpt><trkpt lat="45.5834358083278" lon="3.0437391983458513"><ele>749.8</ele><time>2026-05-02T10:09:48.999Z</time></trkpt><trkpt lat="45.583403115374765" lon="3.0438800802341914"><ele>747.2</ele><time>2026-05-02T10:09:49.999Z</time></trkpt><trkpt lat="45.58338084617369" lon="3.0440123034531843"><ele>744.6</ele><time>2026-05-02T10:09:50.999Z</time></trkpt><trkpt lat="45.583373619240184" lon="3.044139745404152"><ele>742.0</ele><time>2026-05-02T10:09:51.999Z</time></trkpt><trkpt lat="45.58338198624069" lon="3.0442687410742266"><ele>741.5</ele><time>2026-05-02T10:09:52.999Z</time></trkpt><trkpt lat="45.58339461641928" lon="3.044390518244746"><ele>741.0</ele><time>2026-05-02T10:09:53.999Z</time></trkpt><trkpt lat="45.5833962094473" lon="3.044512775371757"><ele>740.5</ele><time>2026-05-02T10:09:54.999Z</time></trkpt><trkpt lat="45.58338491124529" lon="3.044634978365816"><ele>740.0</ele><time>2026-05-02T10:09:55.999Z</time></trkpt><trkpt lat="45.58336144132463" lon="3.044754482378021"><ele>739.5</ele><time>2026-05-02T10:09:56.999Z</time></trkpt><trkpt lat="45.58332425374056" lon="3.0448479809138895"><ele>739.0</ele><time>2026-05-02T10:09:57.999Z</time></trkpt><trkpt lat="45.583312017234526" lon="3.044973413762647"><ele>738.6666666666667</ele><time>2026-05-02T10:09:58.999Z</time></trkpt><trkpt lat="45.58328097323525" lon="3.0450943840125064"><ele>738.3333333333334</ele><time>2026-05-02T10:09:59.999Z</time></trkpt><trkpt lat="45.58325539568666" lon="3.045213651407926"><ele>738.0</ele><time>2026-05-02T10:10:00.999Z</time></trkpt><trkpt lat="45.5832261939587" lon="3.0453317854507675"><ele>737.6666666666666</ele><time>2026-05-02T10:10:01.999Z</time></trkpt><trkpt lat="45.58319990939444" lon="3.0454470369367224"><ele>737.3333333333333</ele><time>2026-05-02T10:10:02.999Z</time></trkpt><trkpt lat="45.583164403452976" lon="3.0455756581010553"><ele>737.0</ele><time>2026-05-02T10:10:03.999Z</time></trkpt><trkpt lat="45.583126012516296" lon="3.045699252348605"><ele>736.0</ele><time>2026-05-02T10:10:04.999Z</time></trkpt><trkpt lat="45.58308362143305" lon="3.0458184682372167"><ele>735.0</ele><time>2026-05-02T10:10:05.999Z</time></trkpt><trkpt lat="45.58303696308174" lon="3.045933831505956"><ele>734.0</ele><time>2026-05-02T10:10:06.999Z</time></trkpt><trkpt lat="45.582981252298666" lon="3.046050585813218"><ele>733.0</ele><time>2026-05-02T10:10:07.999Z</time></trkpt><trkpt lat="45.58292233263043" lon="3.0461611895543226"><ele>732.0</ele><time>2026-05-02T10:10:08.999Z</time></trkpt><trkpt lat="45.58285342948617" lon="3.0462718864903158"><ele>732.8</ele><time>2026-05-02T10:10:09.999Z</time></trkpt><trkpt lat="45.582782868260615" lon="3.0463821118693937"><ele>733.6</ele><time>2026-05-02T10:10:11Z</time></trkpt><trkpt lat="45.582711950988205" lon="3.0464884426419556"><ele>734.4</ele><time>2026-05-02T10:10:12Z</time></trkpt><trkpt lat="45.58264377123424" lon="3.0466045152417216"><ele>735.1999999999999</ele><time>2026-05-02T10:10:13Z</time></trkpt><trkpt lat="45.582582094989824" lon="3.046727787317074"><ele>736.0</ele><time>2026-05-02T10:10:14Z</time></trkpt><trkpt lat="45.58252187353348" lon="3.0468584478902683"><ele>734.1999999999999</ele><time>2026-05-02T10:10:15Z</time></trkpt><trkpt lat="45.58246291338783" lon="3.046986788221395"><ele>732.4</ele><time>2026-05-02T10:10:16Z</time></trkpt><trkpt lat="45.58240233032368" lon="3.047115775632681"><ele>730.6</ele><time>2026-05-02T10:10:17Z</time></trkpt><trkpt lat="45.582337820509274" lon="3.047243823950831"><ele>728.8</ele><time>2026-05-02T10:10:18Z</time></trkpt><trkpt lat="45.58227680483174" lon="3.047374463942239"><ele>727.0</ele><time>2026-05-02T10:10:19Z</time></trkpt><trkpt lat="45.58221419631057" lon="3.047504278442516"><ele>726.75</ele><time>2026-05-02T10:10:20Z</time></trkpt><trkpt lat="45.58214999193974" lon="3.0476374473755565"><ele>726.5</ele><time>2026-05-02T10:10:21Z</time></trkpt><trkpt lat="45.58208741135243" lon="3.047774484249821"><ele>726.25</ele><time>2026-05-02T10:10:22Z</time></trkpt><trkpt lat="45.582010628732434" lon="3.0479021802351207"><ele>726.0</ele><time>2026-05-02T10:10:23Z</time></trkpt><trkpt lat="45.58194598338025" lon="3.048040271926948"><ele>726.0</ele><time>2026-05-02T10:10:24Z</time></trkpt><trkpt lat="45.58188201404165" lon="3.0481717543896645"><ele>726.0</ele><time>2026-05-02T10:10:25Z</time></trkpt><trkpt lat="45.58181135368562" lon="3.04829240065188"><ele>726.0</ele><time>2026-05-02T10:10:26Z</time></trkpt><trkpt lat="45.58172919100095" lon="3.0483865177335403"><ele>726.0</ele><time>2026-05-02T10:10:27Z</time></trkpt><trkpt lat="45.58163715139598" lon="3.048439899752823"><ele>726.0</ele><time>2026-05-02T10:10:28Z</time></trkpt><trkpt lat="45.581547752262765" lon="3.0484574880201736"><ele>724.5999999999999</ele><time>2026-05-02T10:10:29Z</time></trkpt><trkpt lat="45.58144749283546" lon="3.0484523563948493"><ele>723.2</ele><time>2026-05-02T10:10:30Z</time></trkpt><trkpt lat="45.581343611292304" lon="3.0484475410305554"><ele>721.8</ele><time>2026-05-02T10:10:31Z</time></trkpt><trkpt lat="45.58123776231393" lon="3.0484475404978366"><ele>720.4000000000001</ele><time>2026-05-02T10:10:32Z</time></trkpt><trkpt lat="45.581130133469806" lon="3.048468532974082"><ele>719.0</ele><time>2026-05-02T10:10:33Z</time></trkpt><trkpt lat="45.58102715048261" lon="3.0485408290344385"><ele>719.0</ele><time>2026-05-02T10:10:34Z</time></trkpt><trkpt lat="45.58093164624375" lon="3.0486249110922405"><ele>719.0</ele><time>2026-05-02T10:10:35Z</time></trkpt><trkpt lat="45.580848481025754" lon="3.0487234821729023"><ele>719.0</ele><time>2026-05-02T10:10:36Z</time></trkpt><trkpt lat="45.58076388267734" lon="3.048812301552273"><ele>719.0</ele><time>2026-05-02T10:10:37Z</time></trkpt><trkpt lat="45.58066493726475" lon="3.0488703404051374"><ele>719.0</ele><time>2026-05-02T10:10:38Z</time></trkpt><trkpt lat="45.58057652511051" lon="3.0489650179635936"><ele>719.0</ele><time>2026-05-02T10:10:39Z</time></trkpt><trkpt lat="45.58048340023854" lon="3.0490328345232145"><ele>719.0</ele><time>2026-05-02T10:10:40Z</time></trkpt><trkpt lat="45.58039604983083" lon="3.049124837444131"><ele>719.0</ele><time>2026-05-02T10:10:41Z</time></trkpt><trkpt lat="45.580329037637064" lon="3.0492398414362323"><ele>719.0</ele><time>2026-05-02T10:10:42Z</time></trkpt><trkpt lat="45.58028084026645" lon="3.049384308404573"><ele>719.0</ele><time>2026-05-02T10:10:43Z</time></trkpt><trkpt lat="45.58025203114908" lon="3.0495377816757907"><ele>718.2</ele><time>2026-05-02T10:10:44Z</time></trkpt><trkpt lat="45.580214146033796" lon="3.049676404142275"><ele>717.4000000000001</ele><time>2026-05-02T10:10:45Z</time></trkpt><trkpt lat="45.58015643919644" lon="3.049809486048145"><ele>716.6</ele><time>2026-05-02T10:10:46Z</time></trkpt><trkpt lat="45.580098412429884" lon="3.049934104651216"><ele>715.8</ele><time>2026-05-02T10:10:47Z</time></trkpt><trkpt lat="45.58006705025001" lon="3.05006730919002"><ele>715.0</ele><time>2026-05-02T10:10:48Z</time></trkpt><trkpt lat="45.58007894586672" lon="3.050213585893171"><ele>715.0</ele><time>2026-05-02T10:10:49Z</time></trkpt><trkpt lat="45.58010189565092" lon="3.0503557178457075"><ele>715.0</ele><time>2026-05-02T10:10:50Z</time></trkpt><trkpt lat="45.58011553801373" lon="3.050496993277624"><ele>715.0</ele><time>2026-05-02T10:10:51Z</time></trkpt><trkpt lat="45.58008764044285" lon="3.0506387940054465"><ele>715.0</ele><time>2026-05-02T10:10:52Z</time></trkpt><trkpt lat="45.5800748239761" lon="3.0507792619149683"><ele>715.0</ele><time>2026-05-02T10:10:53Z</time></trkpt><trkpt lat="45.58008268754463" lon="3.0509427533138456"><ele>713.4</ele><time>2026-05-02T10:10:54Z</time></trkpt><trkpt lat="45.58007025039135" lon="3.0511000173675917"><ele>711.8</ele><time>2026-05-02T10:10:55Z</time></trkpt><trkpt lat="45.58006096860043" lon="3.0512567509552153"><ele>710.2</ele><time>2026-05-02T10:10:56Z</time></trkpt><trkpt lat="45.58004046405273" lon="3.0514136754778556"><ele>708.6</ele><time>2026-05-02T10:10:57Z</time></trkpt><trkpt lat="45.579994190670455" lon="3.0515663870994105"><ele>707.0</ele><time>2026-05-02T10:10:58Z</time></trkpt><trkpt lat="45.57997474970745" lon="3.051720522749215"><ele>704.8</ele><time>2026-05-02T10:10:59Z</time></trkpt><trkpt lat="45.57993791667515" lon="3.051870988543699"><ele>702.6</ele><time>2026-05-02T10:11:00Z</time></trkpt><trkpt lat="45.579897027684005" lon="3.0520157760450863"><ele>700.4</ele><time>2026-05-02T10:11:01Z</time></trkpt><trkpt lat="45.579846416182036" lon="3.052151772389222"><ele>698.1999999999999</ele><time>2026-05-02T10:11:02Z</time></trkpt><trkpt lat="45.57977343038242" lon="3.052268506570102"><ele>696.0</ele><time>2026-05-02T10:11:03Z</time></trkpt><trkpt lat="45.57966807763977" lon="3.0523221579583852"><ele>696.0</ele><time>2026-05-02T10:11:04Z</time></trkpt><trkpt lat="45.579571458007855" lon="3.0523980286980286"><ele>696.0</ele><time>2026-05-02T10:11:05Z</time></trkpt><trkpt lat="45.5794970582094" lon="3.0525090553041756"><ele>696.0</ele><time>2026-05-02T10:11:06Z</time></trkpt><trkpt lat="45.579446526124855" lon="3.0526417878745846"><ele>696.0</ele><time>2026-05-02T10:11:07Z</time></trkpt><trkpt lat="45.57942594424288" lon="3.0527954121734204"><ele>696.0</ele><time>2026-05-02T10:11:08Z</time></trkpt><trkpt lat="45.579448751492386" lon="3.0529528950995886"><ele>695.4</ele><time>2026-05-02T10:11:09Z</time></trkpt><trkpt lat="45.57947519349226" lon="3.053102657162409"><ele>694.8</ele><time>2026-05-02T10:11:10Z</time></trkpt><trkpt lat="45.57949122033748" lon="3.053252689718829"><ele>694.1999999999999</ele><time>2026-05-02T10:11:11Z</time></trkpt><trkpt lat="45.57949911984148" lon="3.053403298547242"><ele>693.5999999999999</ele><time>2026-05-02T10:11:12Z</time></trkpt><trkpt lat="45.579501385650126" lon="3.0535559912097643"><ele>693.0</ele><time>2026-05-02T10:11:13Z</time></trkpt><trkpt lat="45.579496678210624" lon="3.053708198365231"><ele>693.0</ele><time>2026-05-02T10:11:14Z</time></trkpt><trkpt lat="45.57948654983496" lon="3.0538640471985543"><ele>693.0</ele><time>2026-05-02T10:11:15Z</time></trkpt><trkpt lat="45.579450600240065" lon="3.05400771180029"><ele>693.0</ele><time>2026-05-02T10:11:16Z</time></trkpt><trkpt lat="45.57944144315868" lon="3.0541638682432133"><ele>693.0</ele><time>2026-05-02T10:11:17Z</time></trkpt><trkpt lat="45.579394707215016" lon="3.0543086970329334"><ele>693.0</ele><time>2026-05-02T10:11:18Z</time></trkpt><trkpt lat="45.579355853432766" lon="3.054449562642419"><ele>691.6666666666666</ele><time>2026-05-02T10:11:19Z</time></trkpt><trkpt lat="45.57931436785431" lon="3.0545857647773884"><ele>690.3333333333334</ele><time>2026-05-02T10:11:20Z</time></trkpt><trkpt lat="45.579269952062184" lon="3.054701325196258"><ele>689.0</ele><time>2026-05-02T10:11:21Z</time></trkpt><trkpt lat="45.57922599945292" lon="3.0548033225884144"><ele>687.6666666666667</ele><time>2026-05-02T10:11:22Z</time></trkpt><trkpt lat="45.57916928794466" lon="3.0548760991718265"><ele>686.3333333333334</ele><time>2026-05-02T10:11:23Z</time></trkpt><trkpt lat="45.5790902954203" lon="3.054925724124308"><ele>685.0</ele><time>2026-05-02T10:11:24Z</time></trkpt><trkpt lat="45.579006474183295" lon="3.0549873626390878"><ele>683.4</ele><time>2026-05-02T10:11:25Z</time></trkpt><trkpt lat="45.5789303101243" lon="3.0550864479081454"><ele>681.8</ele><time>2026-05-02T10:11:26Z</time></trkpt><trkpt lat="45.57885199387225" lon="3.0551759726695478"><ele>680.2</ele><time>2026-05-02T10:11:27Z</time></trkpt><trkpt lat="45.57880681140593" lon="3.0552857017355803"><ele>678.6</ele><time>2026-05-02T10:11:28Z</time></trkpt><trkpt lat="45.57877458064512" lon="3.0553860964963904"><ele>677.0</ele><time>2026-05-02T10:11:29Z</time></trkpt><trkpt lat="45.57873815117321" lon="3.055494925809126"><ele>677.0</ele><time>2026-05-02T10:11:30Z</time></trkpt><trkpt lat="45.57869487470115" lon="3.0556127233153143"><ele>677.0</ele><time>2026-05-02T10:11:31Z</time></trkpt><trkpt lat="45.57864747969073" lon="3.0557394385210626"><ele>677.0</ele><time>2026-05-02T10:11:32Z</time></trkpt><trkpt lat="45.578594025580934" lon="3.055872338781099"><ele>677.0</ele><time>2026-05-02T10:11:33Z</time></trkpt><trkpt lat="45.578507450586955" lon="3.0559644513239097"><ele>677.0</ele><time>2026-05-02T10:11:34Z</time></trkpt><trkpt lat="45.57841270400023" lon="3.056071947197895"><ele>678.5</ele><time>2026-05-02T10:11:35Z</time></trkpt><trkpt lat="45.57832695150331" lon="3.056195543666074"><ele>680.0</ele><time>2026-05-02T10:11:36Z</time></trkpt><trkpt lat="45.57826537162138" lon="3.0563365595087904"><ele>681.5</ele><time>2026-05-02T10:11:37Z</time></trkpt><trkpt lat="45.578191247791814" lon="3.056456723671885"><ele>683.0</ele><time>2026-05-02T10:11:38Z</time></trkpt><trkpt lat="45.57810469935147" lon="3.0565473039635966"><ele>679.5999999999999</ele><time>2026-05-02T10:11:39Z</time></trkpt><trkpt lat="45.57804561292449" lon="3.056662512522172"><ele>676.1999999999999</ele><time>2026-05-02T10:11:40Z</time></trkpt><trkpt lat="45.577992434028765" lon="3.0567853609189286"><ele>672.8</ele><time>2026-05-02T10:11:41Z</time></trkpt><trkpt lat="45.57795998368222" lon="3.0569254153996503"><ele>669.4</ele><time>2026-05-02T10:11:42Z</time></trkpt><trkpt lat="45.57794019256463" lon="3.0570683253221587"><ele>666.0</ele><time>2026-05-02T10:11:43Z</time></trkpt><trkpt lat="45.57792558697439" lon="3.057202318129973"><ele>666.0</ele><time>2026-05-02T10:11:44Z</time></trkpt><trkpt lat="45.57791193898119" lon="3.057329409552992"><ele>666.0</ele><time>2026-05-02T10:11:45Z</time></trkpt><trkpt lat="45.57790988132469" lon="3.057446150362509"><ele>666.0</ele><time>2026-05-02T10:11:46Z</time></trkpt><trkpt lat="45.5779328876534" lon="3.057551240104975"><ele>666.0</ele><time>2026-05-02T10:11:47Z</time></trkpt><trkpt lat="45.57797298431665" lon="3.057640638446519"><ele>666.0</ele><time>2026-05-02T10:11:48Z</time></trkpt><trkpt lat="45.578032916151706" lon="3.0577330903924524"><ele>666.0</ele><time>2026-05-02T10:11:49Z</time></trkpt><trkpt lat="45.5781022334996" lon="3.0578142780012594"><ele>665.1666666666666</ele><time>2026-05-02T10:11:50Z</time></trkpt><trkpt lat="45.5781656556029" lon="3.0578868520589477"><ele>664.3333333333334</ele><time>2026-05-02T10:11:51Z</time></trkpt><trkpt lat="45.57821627296682" lon="3.0579780274934825"><ele>663.5</ele><time>2026-05-02T10:11:52Z</time></trkpt><trkpt lat="45.57824853650038" lon="3.058092126455816"><ele>662.6666666666667</ele><time>2026-05-02T10:11:53Z</time></trkpt><trkpt lat="45.57827391231277" lon="3.058219713231401"><ele>661.8333333333334</ele><time>2026-05-02T10:11:54Z</time></trkpt><trkpt lat="45.5783016838557" lon="3.0583466163450987"><ele>661.0</ele><time>2026-05-02T10:11:55Z</time></trkpt><trkpt lat="45.57834620324923" lon="3.0584491168330517"><ele>661.0</ele><time>2026-05-02T10:11:56Z</time></trkpt><trkpt lat="45.578409573521846" lon="3.0585202098058275"><ele>661.0</ele><time>2026-05-02T10:11:57Z</time></trkpt><trkpt lat="45.57848492425388" lon="3.0585701863271555"><ele>661.0</ele><time>2026-05-02T10:11:58Z</time></trkpt><trkpt lat="45.578563070223275" lon="3.0586258584430928"><ele>661.0</ele><time>2026-05-02T10:11:59Z</time></trkpt><trkpt lat="45.57864064241463" lon="3.058702758142603"><ele>661.0</ele><time>2026-05-02T10:12:00Z</time></trkpt><trkpt lat="45.57868272456593" lon="3.05882172600245"><ele>661.0</ele><time>2026-05-02T10:12:01Z</time></trkpt><trkpt lat="45.57874397372551" lon="3.0589207721868874"><ele>655.0</ele><time>2026-05-02T10:12:02Z</time></trkpt><trkpt lat="45.57879564207696" lon="3.059027759087729"><ele>649.0</ele><time>2026-05-02T10:12:03Z</time></trkpt><trkpt lat="45.578861575031475" lon="3.0591397454056746"><ele>643.0</ele><time>2026-05-02T10:12:04Z</time></trkpt><trkpt lat="45.5789190814077" lon="3.0592443700495053"><ele>637.0</ele><time>2026-05-02T10:12:05Z</time></trkpt><trkpt lat="45.57895136171358" lon="3.0593692890958466"><ele>631.0</ele><time>2026-05-02T10:12:06Z</time></trkpt><trkpt lat="45.57900228159934" lon="3.059485214643502"><ele>631.0</ele><time>2026-05-02T10:12:07Z</time></trkpt><trkpt lat="45.57902958378699" lon="3.0595953244520393"><ele>631.0</ele><time>2026-05-02T10:12:08Z</time></trkpt><trkpt lat="45.57905673444105" lon="3.059691355593302"><ele>631.0</ele><time>2026-05-02T10:12:09Z</time></trkpt><trkpt lat="45.57910106128677" lon="3.0597800090736853"><ele>631.0</ele><time>2026-05-02T10:12:10Z</time></trkpt><trkpt lat="45.579163204995005" lon="3.059841469604823"><ele>631.0</ele><time>2026-05-02T10:12:11Z</time></trkpt><trkpt lat="45.57923809257842" lon="3.059869063384704"><ele>631.0</ele><time>2026-05-02T10:12:12Z</time></trkpt><trkpt lat="45.57932354241153" lon="3.0598765778997494"><ele>631.0</ele><time>2026-05-02T10:12:13Z</time></trkpt><trkpt lat="45.579404325632645" lon="3.0598776658273725"><ele>631.0</ele><time>2026-05-02T10:12:14Z</time></trkpt><trkpt lat="45.57949294790949" lon="3.05987627033314"><ele>631.0</ele><time>2026-05-02T10:12:15Z</time></trkpt><trkpt lat="45.579586559513146" lon="3.0598827799376136"><ele>631.0</ele><time>2026-05-02T10:12:16Z</time></trkpt><trkpt lat="45.579672635126805" lon="3.05989690757109"><ele>631.0</ele><time>2026-05-02T10:12:17Z</time></trkpt><trkpt lat="45.57976440667193" lon="3.0599329287072745"><ele>631.0</ele><time>2026-05-02T10:12:18Z</time></trkpt><trkpt lat="45.57982961899233" lon="3.0600178915654865"><ele>628.6</ele><time>2026-05-02T10:12:19Z</time></trkpt><trkpt lat="45.57990388126864" lon="3.060106631036956"><ele>626.2</ele><time>2026-05-02T10:12:20Z</time></trkpt><trkpt lat="45.57998689225393" lon="3.060197161522208"><ele>623.8</ele><time>2026-05-02T10:12:21Z</time></trkpt><trkpt lat="45.58003722030746" lon="3.0603279537970067"><ele>621.4</ele><time>2026-05-02T10:12:22Z</time></trkpt><trkpt lat="45.580106735912295" lon="3.0604333219143434"><ele>619.0</ele><time>2026-05-02T10:12:23Z</time></trkpt><trkpt lat="45.58016238126236" lon="3.060549822503232"><ele>619.0</ele><time>2026-05-02T10:12:24Z</time></trkpt><trkpt lat="45.58021371141126" lon="3.0606647625782437"><ele>619.0</ele><time>2026-05-02T10:12:25Z</time></trkpt><trkpt lat="45.58026921374406" lon="3.060773199578094"><ele>619.0</ele><time>2026-05-02T10:12:26Z</time></trkpt><trkpt lat="45.580317417900005" lon="3.0608822892673944"><ele>619.0</ele><time>2026-05-02T10:12:27Z</time></trkpt><trkpt lat="45.58034932237619" lon="3.0609765722254445"><ele>619.0</ele><time>2026-05-02T10:12:28Z</time></trkpt><trkpt lat="45.58037396879255" lon="3.061072198330108"><ele>619.0</ele><time>2026-05-02T10:12:29Z</time></trkpt><trkpt lat="45.58040300627101" lon="3.0611552546030434"><ele>616.6666666666667</ele><time>2026-05-02T10:12:30Z</time></trkpt><trkpt lat="45.580442591472114" lon="3.061226871700838"><ele>614.3333333333334</ele><time>2026-05-02T10:12:31Z</time></trkpt><trkpt lat="45.5805134700007" lon="3.0612820731770123"><ele>612.0</ele><time>2026-05-02T10:12:32Z</time></trkpt><trkpt lat="45.580598565193995" lon="3.061303852165962"><ele>609.6666666666666</ele><time>2026-05-02T10:12:33Z</time></trkpt><trkpt lat="45.58068505688315" lon="3.0613102729812898"><ele>607.3333333333333</ele><time>2026-05-02T10:12:34Z</time></trkpt><trkpt lat="45.58077693042472" lon="3.0613127457868625"><ele>605.0</ele><time>2026-05-02T10:12:35Z</time></trkpt><trkpt lat="45.58087625626919" lon="3.061342725723012"><ele>605.0</ele><time>2026-05-02T10:12:36Z</time></trkpt><trkpt lat="45.58096392629775" lon="3.061413437970815"><ele>605.0</ele><time>2026-05-02T10:12:37Z</time></trkpt><trkpt lat="45.58106604810112" lon="3.061450418227238"><ele>605.0</ele><time>2026-05-02T10:12:38Z</time></trkpt><trkpt lat="45.581153718796756" lon="3.0614985734079614"><ele>605.0</ele><time>2026-05-02T10:12:39Z</time></trkpt><trkpt lat="45.58124305291473" lon="3.0615371512670007"><ele>605.0</ele><time>2026-05-02T10:12:40Z</time></trkpt><trkpt lat="45.58133173598483" lon="3.061593383489336"><ele>603.4</ele><time>2026-05-02T10:12:41Z</time></trkpt><trkpt lat="45.581392719601894" lon="3.0616998431482334"><ele>601.8</ele><time>2026-05-02T10:12:42Z</time></trkpt><trkpt lat="45.58145745697326" lon="3.061794410553678"><ele>600.2</ele><time>2026-05-02T10:12:43Z</time></trkpt><trkpt lat="45.58154026876578" lon="3.0618881914061666"><ele>598.6</ele><time>2026-05-02T10:12:44Z</time></trkpt><trkpt lat="45.581604701396905" lon="3.061995553829261"><ele>597.0</ele><time>2026-05-02T10:12:45Z</time></trkpt><trkpt lat="45.58168565277631" lon="3.0620890033675"><ele>597.0</ele><time>2026-05-02T10:12:46Z</time></trkpt><trkpt lat="45.58177461521311" lon="3.0621853990013936"><ele>597.0</ele><time>2026-05-02T10:12:47Z</time></trkpt><trkpt lat="45.581863162093526" lon="3.0622804974172397"><ele>597.0</ele><time>2026-05-02T10:12:48Z</time></trkpt><trkpt lat="45.58193664511311" lon="3.062385264265716"><ele>597.0</ele><time>2026-05-02T10:12:49Z</time></trkpt><trkpt lat="45.581982131650214" lon="3.062515169058057"><ele>597.0</ele><time>2026-05-02T10:12:50Z</time></trkpt><trkpt lat="45.582018341569594" lon="3.0626549325504304"><ele>601.0</ele><time>2026-05-02T10:12:51Z</time></trkpt><trkpt lat="45.58204998030961" lon="3.06281087933439"><ele>605.0</ele><time>2026-05-02T10:12:52Z</time></trkpt><trkpt lat="45.582031844560134" lon="3.062983284853667"><ele>609.0</ele><time>2026-05-02T10:12:53Z</time></trkpt><trkpt lat="45.58202088064447" lon="3.0631523084282293"><ele>613.0</ele><time>2026-05-02T10:12:54Z</time></trkpt><trkpt lat="45.58200654593389" lon="3.0633265769795015"><ele>613.0</ele><time>2026-05-02T10:12:55Z</time></trkpt><trkpt lat="45.581972472519524" lon="3.063485769901897"><ele>613.0</ele><time>2026-05-02T10:12:56Z</time></trkpt><trkpt lat="45.581911996409" lon="3.063634950330404"><ele>613.0</ele><time>2026-05-02T10:12:57Z</time></trkpt><trkpt lat="45.581834011298085" lon="3.0637727930099956"><ele>613.0</ele><time>2026-05-02T10:12:58Z</time></trkpt><trkpt lat="45.58175785817537" lon="3.063924333537158"><ele>609.0</ele><time>2026-05-02T10:12:59Z</time></trkpt><trkpt lat="45.5817264244518" lon="3.0641176489153175"><ele>605.0</ele><time>2026-05-02T10:13:00Z</time></trkpt><trkpt lat="45.58169305370901" lon="3.0642874796454276"><ele>601.0</ele><time>2026-05-02T10:13:01Z</time></trkpt><trkpt lat="45.581656911235186" lon="3.0644532672114915"><ele>597.0</ele><time>2026-05-02T10:13:02Z</time></trkpt><trkpt lat="45.58161773044287" lon="3.0646065250443426"><ele>597.0</ele><time>2026-05-02T10:13:03Z</time></trkpt><trkpt lat="45.581577492753794" lon="3.064757243423573"><ele>597.0</ele><time>2026-05-02T10:13:04Z</time></trkpt><trkpt lat="45.581535886214965" lon="3.064906991181993"><ele>597.0</ele><time>2026-05-02T10:13:05Z</time></trkpt><trkpt lat="45.58147578476715" lon="3.065044753839531"><ele>597.0</ele><time>2026-05-02T10:13:06Z</time></trkpt><trkpt lat="45.581404855948094" lon="3.0651780858200355"><ele>596.25</ele><time>2026-05-02T10:13:07Z</time></trkpt><trkpt lat="45.58132646102158" lon="3.0653136116213777"><ele>595.5</ele><time>2026-05-02T10:13:08Z</time></trkpt><trkpt lat="45.58126583882215" lon="3.06547437057968"><ele>594.75</ele><time>2026-05-02T10:13:09Z</time></trkpt><trkpt lat="45.58119622783644" lon="3.0656341135961203"><ele>594.0</ele><time>2026-05-02T10:13:10Z</time></trkpt><trkpt lat="45.58112962552825" lon="3.0657981628749287"><ele>594.0</ele><time>2026-05-02T10:13:11Z</time></trkpt><trkpt lat="45.581060401594144" lon="3.0659464219154877"><ele>594.0</ele><time>2026-05-02T10:13:12Z</time></trkpt><trkpt lat="45.58100152195718" lon="3.0660893007868872"><ele>594.0</ele><time>2026-05-02T10:13:13Z</time></trkpt><trkpt lat="45.58095161716605" lon="3.066213785027589"><ele>594.0</ele><time>2026-05-02T10:13:14Z</time></trkpt><trkpt lat="45.580903491174844" lon="3.0663272450196866"><ele>594.0</ele><time>2026-05-02T10:13:15Z</time></trkpt><trkpt lat="45.58084792420498" lon="3.066437574972534"><ele>594.0</ele><time>2026-05-02T10:13:16Z</time></trkpt><trkpt lat="45.58078390133936" lon="3.066530079141302"><ele>594.0</ele><time>2026-05-02T10:13:17Z</time></trkpt><trkpt lat="45.58071164227958" lon="3.0666198919817886"><ele>594.0</ele><time>2026-05-02T10:13:18Z</time></trkpt><trkpt lat="45.580655061752815" lon="3.066728558441018"><ele>594.0</ele><time>2026-05-02T10:13:19Z</time></trkpt><trkpt lat="45.58067308100745" lon="3.0669022288666508"><ele>594.0</ele><time>2026-05-02T10:13:20Z</time></trkpt><trkpt lat="45.58068563339987" lon="3.0670503473833257"><ele>588.5</ele><time>2026-05-02T10:13:21Z</time></trkpt><trkpt lat="45.58069088657023" lon="3.0672052713812956"><ele>583.0</ele><time>2026-05-02T10:13:22Z</time></trkpt><trkpt lat="45.58064323546378" lon="3.0673499319467474"><ele>577.5</ele><time>2026-05-02T10:13:23Z</time></trkpt><trkpt lat="45.580610422695905" lon="3.067505833621868"><ele>572.0</ele><time>2026-05-02T10:13:24Z</time></trkpt><trkpt lat="45.58057451251723" lon="3.067665156819775"><ele>568.0</ele><time>2026-05-02T10:13:25Z</time></trkpt><trkpt lat="45.580535634875005" lon="3.0678300078900005"><ele>564.0</ele><time>2026-05-02T10:13:26Z</time></trkpt><trkpt lat="45.58049516286698" lon="3.0680023272278194"><ele>560.0</ele><time>2026-05-02T10:13:27Z</time></trkpt><trkpt lat="45.580454894023035" lon="3.0681805246738505"><ele>556.0</ele><time>2026-05-02T10:13:28Z</time></trkpt><trkpt lat="45.58041397099941" lon="3.0683616172733084"><ele>553.0</ele><time>2026-05-02T10:13:29Z</time></trkpt><trkpt lat="45.58038817284162" lon="3.0685530086892383"><ele>550.0</ele><time>2026-05-02T10:13:30Z</time></trkpt><trkpt lat="45.580319852849016" lon="3.0687348571484923"><ele>547.0</ele><time>2026-05-02T10:13:31Z</time></trkpt><trkpt lat="45.58029869646433" lon="3.0689332121257067"><ele>544.0</ele><time>2026-05-02T10:13:32Z</time></trkpt><trkpt lat="45.58025123239332" lon="3.069133129093281"><ele>551.25</ele><time>2026-05-02T10:13:33Z</time></trkpt><trkpt lat="45.58021581920379" lon="3.0693410227420457"><ele>558.5</ele><time>2026-05-02T10:13:34Z</time></trkpt><trkpt lat="45.580171073167094" lon="3.069538758447103"><ele>565.75</ele><time>2026-05-02T10:13:35Z</time></trkpt><trkpt lat="45.58013334290735" lon="3.0697258732969313"><ele>573.0</ele><time>2026-05-02T10:13:36Z</time></trkpt><trkpt lat="45.580093979372954" lon="3.0698985193866464"><ele>569.0</ele><time>2026-05-02T10:13:37Z</time></trkpt><trkpt lat="45.58006115422094" lon="3.0700703133511476"><ele>565.0</ele><time>2026-05-02T10:13:38Z</time></trkpt><trkpt lat="45.58003224209063" lon="3.070239641485499"><ele>561.0</ele><time>2026-05-02T10:13:39Z</time></trkpt><trkpt lat="45.580001755481554" lon="3.0704016849262277"><ele>557.0</ele><time>2026-05-02T10:13:40Z</time></trkpt><trkpt lat="45.57997218159837" lon="3.070551006140459"><ele>557.0</ele><time>2026-05-02T10:13:41Z</time></trkpt><trkpt lat="45.5799495267621" lon="3.0706950242417257"><ele>557.0</ele><time>2026-05-02T10:13:42Z</time></trkpt><trkpt lat="45.579940834617915" lon="3.070822491237014"><ele>557.0</ele><time>2026-05-02T10:13:43Z</time></trkpt><trkpt lat="45.57993857948946" lon="3.0709420121772233"><ele>557.0</ele><time>2026-05-02T10:13:44Z</time></trkpt><trkpt lat="45.57991778388492" lon="3.071056173596654"><ele>557.0</ele><time>2026-05-02T10:13:45Z</time></trkpt><trkpt lat="45.579846232660934" lon="3.0711532625451783"><ele>553.8000000000001</ele><time>2026-05-02T10:13:46Z</time></trkpt><trkpt lat="45.5797481357384" lon="3.0712265749967718"><ele>550.6</ele><time>2026-05-02T10:13:47Z</time></trkpt><trkpt lat="45.579688324116226" lon="3.0713417269778556"><ele>547.4000000000001</ele><time>2026-05-02T10:13:48Z</time></trkpt><trkpt lat="45.579627798193485" lon="3.0714620179807564"><ele>544.2</ele><time>2026-05-02T10:13:49Z</time></trkpt><trkpt lat="45.57958201951504" lon="3.071608551484741"><ele>541.0</ele><time>2026-05-02T10:13:50Z</time></trkpt><trkpt lat="45.57954051443761" lon="3.0717632083685946"><ele>545.25</ele><time>2026-05-02T10:13:51Z</time></trkpt><trkpt lat="45.579503920253366" lon="3.0719171508536283"><ele>549.5</ele><time>2026-05-02T10:13:52Z</time></trkpt><trkpt lat="45.57946465798991" lon="3.0720716966133947"><ele>553.75</ele><time>2026-05-02T10:13:53Z</time></trkpt><trkpt lat="45.57940347738587" lon="3.072207250271244"><ele>558.0</ele><time>2026-05-02T10:13:54Z</time></trkpt><trkpt lat="45.57936665259721" lon="3.0723533125412343"><ele>553.0</ele><time>2026-05-02T10:13:55Z</time></trkpt><trkpt lat="45.579314685407724" lon="3.072474872674532"><ele>548.0</ele><time>2026-05-02T10:13:56Z</time></trkpt><trkpt lat="45.57925891051359" lon="3.072582646678799"><ele>543.0</ele><time>2026-05-02T10:13:57Z</time></trkpt><trkpt lat="45.579193829103225" lon="3.0726631373092084"><ele>538.0</ele><time>2026-05-02T10:13:58Z</time></trkpt><trkpt lat="45.57910467308095" lon="3.0726830364858637"><ele>533.0</ele><time>2026-05-02T10:13:58.999Z</time></trkpt><trkpt lat="45.57904123741901" lon="3.07274231239701"><ele>528.0</ele><time>2026-05-02T10:13:59.999Z</time></trkpt><trkpt lat="45.57897412735711" lon="3.0727644718450193"><ele>528.0</ele><time>2026-05-02T10:14:00.999Z</time></trkpt><trkpt lat="45.578892358531185" lon="3.0727766200234865"><ele>528.0</ele><time>2026-05-02T10:14:02.999Z</time></trkpt><trkpt lat="45.578822272465565" lon="3.0727923589531914"><ele>528.0</ele><time>2026-05-02T10:14:04.999Z</time></trkpt><trkpt lat="45.578730616668594" lon="3.0728009180124816"><ele>528.0</ele><time>2026-05-02T10:14:07Z</time></trkpt><trkpt lat="45.5786592009227" lon="3.0727930355659416"><ele>528.0</ele><time>2026-05-02T10:14:08Z</time></trkpt><trkpt lat="45.57856962656901" lon="3.0727935658901395"><ele>528.0</ele><time>2026-05-02T10:14:09Z</time></trkpt><trkpt lat="45.5784835957845" lon="3.0728017023126952"><ele>529.8</ele><time>2026-05-02T10:14:10Z</time></trkpt><trkpt lat="45.578377096385594" lon="3.0727961901749548"><ele>531.5999999999999</ele><time>2026-05-02T10:14:11Z</time></trkpt><trkpt lat="45.578283061230024" lon="3.0728248675721126"><ele>533.4000000000001</ele><time>2026-05-02T10:14:12Z</time></trkpt><trkpt lat="45.57817880094819" lon="3.072822976752398"><ele>535.2</ele><time>2026-05-02T10:14:13Z</time></trkpt><trkpt lat="45.57806883700354" lon="3.072825705469037"><ele>537.0</ele><time>2026-05-02T10:14:14Z</time></trkpt><trkpt lat="45.57792144065663" lon="3.072828860564961"><ele>534.75</ele><time>2026-05-02T10:14:15Z</time></trkpt><trkpt lat="45.57778405014267" lon="3.0728022897423144"><ele>532.5</ele><time>2026-05-02T10:14:16Z</time></trkpt><trkpt lat="45.57767782039755" lon="3.0727390748137857"><ele>530.25</ele><time>2026-05-02T10:14:17Z</time></trkpt><trkpt lat="45.57758320111714" lon="3.0726465657207642"><ele>528.0</ele><time>2026-05-02T10:14:18Z</time></trkpt><trkpt lat="45.57750821154729" lon="3.072531166014032"><ele>530.25</ele><time>2026-05-02T10:14:19Z</time></trkpt><trkpt lat="45.57746396280334" lon="3.07238001821029"><ele>532.5</ele><time>2026-05-02T10:14:20Z</time></trkpt><trkpt lat="45.57741495761465" lon="3.0722107133313976"><ele>534.75</ele><time>2026-05-02T10:14:21Z</time></trkpt><trkpt lat="45.577401850139836" lon="3.072006645125043"><ele>537.0</ele><time>2026-05-02T10:14:22Z</time></trkpt><trkpt lat="45.577397133465126" lon="3.071796360383383"><ele>538.25</ele><time>2026-05-02T10:14:23Z</time></trkpt><trkpt lat="45.57738974780549" lon="3.071594080348359"><ele>539.5</ele><time>2026-05-02T10:14:24Z</time></trkpt><trkpt lat="45.5773839691371" lon="3.07137899231789"><ele>540.75</ele><time>2026-05-02T10:14:25Z</time></trkpt><trkpt lat="45.57737580623888" lon="3.071156240223095"><ele>542.0</ele><time>2026-05-02T10:14:26Z</time></trkpt><trkpt lat="45.57737265061492" lon="3.070932897254765"><ele>543.3333333333333</ele><time>2026-05-02T10:14:27Z</time></trkpt><trkpt lat="45.57737702682889" lon="3.0706642841422296"><ele>544.6666666666666</ele><time>2026-05-02T10:14:28Z</time></trkpt><trkpt lat="45.577389565852826" lon="3.0704296611090154"><ele>546.0</ele><time>2026-05-02T10:14:29Z</time></trkpt><trkpt lat="45.577400247994845" lon="3.070203406603033"><ele>546.0</ele><time>2026-05-02T10:14:30Z</time></trkpt><trkpt lat="45.57740675324907" lon="3.06997254296233"><ele>546.0</ele><time>2026-05-02T10:14:31Z</time></trkpt><trkpt lat="45.57741039882197" lon="3.0697474325138137"><ele>546.0</ele><time>2026-05-02T10:14:32Z</time></trkpt><trkpt lat="45.57741244390665" lon="3.0695170047081173"><ele>548.6666666666666</ele><time>2026-05-02T10:14:33Z</time></trkpt><trkpt lat="45.57741185058542" lon="3.069286435735117"><ele>551.3333333333333</ele><time>2026-05-02T10:14:34Z</time></trkpt><trkpt lat="45.57739535868302" lon="3.0690577123853466"><ele>554.0</ele><time>2026-05-02T10:14:35Z</time></trkpt><trkpt lat="45.577360487031164" lon="3.0688352545712814"><ele>560.0</ele><time>2026-05-02T10:14:36Z</time></trkpt><trkpt lat="45.57731383817699" lon="3.0686218450716276"><ele>566.0</ele><time>2026-05-02T10:14:37Z</time></trkpt><trkpt lat="45.577258850418744" lon="3.068404693310129"><ele>572.0</ele><time>2026-05-02T10:14:38Z</time></trkpt><trkpt lat="45.57718770310927" lon="3.0681896173668086"><ele>575.6666666666666</ele><time>2026-05-02T10:14:39Z</time></trkpt><trkpt lat="45.57710249188752" lon="3.0679992886358924"><ele>579.3333333333334</ele><time>2026-05-02T10:14:40Z</time></trkpt><trkpt lat="45.57699857494803" lon="3.0678252349006696"><ele>583.0</ele><time>2026-05-02T10:14:41Z</time></trkpt><trkpt lat="45.57687826232495" lon="3.0676763262948916"><ele>581.0</ele><time>2026-05-02T10:14:42Z</time></trkpt><trkpt lat="45.576743438302636" lon="3.067551380342754"><ele>579.0</ele><time>2026-05-02T10:14:43Z</time></trkpt><trkpt lat="45.5765978347255" lon="3.06745144622917"><ele>577.0</ele><time>2026-05-02T10:14:44Z</time></trkpt><trkpt lat="45.576449805346435" lon="3.0673896921027257"><ele>577.0</ele><time>2026-05-02T10:14:45Z</time></trkpt><trkpt lat="45.576295252558225" lon="3.0673398801303846"><ele>577.0</ele><time>2026-05-02T10:14:46Z</time></trkpt><trkpt lat="45.57613766490463" lon="3.067273198869315"><ele>577.0</ele><time>2026-05-02T10:14:47Z</time></trkpt><trkpt lat="45.575987489347455" lon="3.067195020282786"><ele>569.0</ele><time>2026-05-02T10:14:48Z</time></trkpt><trkpt lat="45.57584452382765" lon="3.067102233912385"><ele>561.0</ele><time>2026-05-02T10:14:49Z</time></trkpt><trkpt lat="45.57570473698411" lon="3.06699294423553"><ele>553.0</ele><time>2026-05-02T10:14:50Z</time></trkpt><trkpt lat="45.57558014615276" lon="3.0668648712879585"><ele>553.0</ele><time>2026-05-02T10:14:51Z</time></trkpt><trkpt lat="45.57546573862224" lon="3.066725092466781"><ele>553.0</ele><time>2026-05-02T10:14:52Z</time></trkpt><trkpt lat="45.575364741505794" lon="3.066566230837319"><ele>553.0</ele><time>2026-05-02T10:14:53Z</time></trkpt><trkpt lat="45.575279867512734" lon="3.0663794230167807"><ele>554.6666666666667</ele><time>2026-05-02T10:14:54Z</time></trkpt><trkpt lat="45.575207204892095" lon="3.0661736165487548"><ele>556.3333333333334</ele><time>2026-05-02T10:14:55Z</time></trkpt><trkpt lat="45.57514022039461" lon="3.0659491917403146"><ele>558.0</ele><time>2026-05-02T10:14:56Z</time></trkpt><trkpt lat="45.575069994108354" lon="3.0657347380584827"><ele>558.0</ele><time>2026-05-02T10:14:57Z</time></trkpt><trkpt lat="45.57498870937797" lon="3.065511786916087"><ele>558.0</ele><time>2026-05-02T10:14:58Z</time></trkpt><trkpt lat="45.57490249223606" lon="3.0653107436801648"><ele>558.0</ele><time>2026-05-02T10:14:59Z</time></trkpt><trkpt lat="45.574805074095394" lon="3.0651447349694845"><ele>558.0</ele><time>2026-05-02T10:15:00Z</time></trkpt><trkpt lat="45.574695959705544" lon="3.0649807712779733"><ele>558.0</ele><time>2026-05-02T10:15:01Z</time></trkpt><trkpt lat="45.57458247732761" lon="3.0648186767913455"><ele>558.0</ele><time>2026-05-02T10:15:02Z</time></trkpt><trkpt lat="45.57447729481258" lon="3.064655192619233"><ele>556.0</ele><time>2026-05-02T10:15:03Z</time></trkpt><trkpt lat="45.57438316829843" lon="3.064485147917681"><ele>554.0</ele><time>2026-05-02T10:15:04Z</time></trkpt><trkpt lat="45.57430832743773" lon="3.0642897919826475"><ele>552.0</ele><time>2026-05-02T10:15:05Z</time></trkpt><trkpt lat="45.57425184644931" lon="3.0640796728498905"><ele>552.0</ele><time>2026-05-02T10:15:06Z</time></trkpt><trkpt lat="45.574202402892425" lon="3.063859028994389"><ele>552.0</ele><time>2026-05-02T10:15:07Z</time></trkpt><trkpt lat="45.57417138220735" lon="3.0636278170025197"><ele>552.0</ele><time>2026-05-02T10:15:08Z</time></trkpt><trkpt lat="45.57414854752642" lon="3.0633884637200506"><ele>554.3333333333334</ele><time>2026-05-02T10:15:09Z</time></trkpt><trkpt lat="45.574121966509885" lon="3.0631499319671835"><ele>556.6666666666667</ele><time>2026-05-02T10:15:10Z</time></trkpt><trkpt lat="45.57409730585374" lon="3.062914666622876"><ele>559.0</ele><time>2026-05-02T10:15:11Z</time></trkpt><trkpt lat="45.57407440526605" lon="3.062677427384245"><ele>561.0</ele><time>2026-05-02T10:15:12Z</time></trkpt><trkpt lat="45.57405328078784" lon="3.0624422152394444"><ele>563.0</ele><time>2026-05-02T10:15:13Z</time></trkpt><trkpt lat="45.574009285182385" lon="3.0621375898920946"><ele>565.0</ele><time>2026-05-02T10:15:14Z</time></trkpt><trkpt lat="45.57398848990154" lon="3.061918229738034"><ele>565.0</ele><time>2026-05-02T10:15:15Z</time></trkpt><trkpt lat="45.573961625947526" lon="3.0616922161291145"><ele>565.0</ele><time>2026-05-02T10:15:16Z</time></trkpt><trkpt lat="45.573920662476205" lon="3.0614697053895985"><ele>565.0</ele><time>2026-05-02T10:15:17Z</time></trkpt><trkpt lat="45.57385594029394" lon="3.0612468068686973"><ele>564.3333333333334</ele><time>2026-05-02T10:15:18Z</time></trkpt><trkpt lat="45.573776976448464" lon="3.0610391868154414"><ele>563.6666666666666</ele><time>2026-05-02T10:15:19Z</time></trkpt><trkpt lat="45.5736945534964" lon="3.060841904066398"><ele>563.0</ele><time>2026-05-02T10:15:20Z</time></trkpt><trkpt lat="45.57360663807557" lon="3.0606496516717723"><ele>563.0</ele><time>2026-05-02T10:15:21Z</time></trkpt><trkpt lat="45.57351951096896" lon="3.0604713142692272"><ele>563.0</ele><time>2026-05-02T10:15:22Z</time></trkpt><trkpt lat="45.5734411342765" lon="3.0603073613802443"><ele>563.0</ele><time>2026-05-02T10:15:23Z</time></trkpt><trkpt lat="45.573370201738456" lon="3.0601545746290233"><ele>563.0</ele><time>2026-05-02T10:15:24Z</time></trkpt><trkpt lat="45.57329490044804" lon="3.0600121231851403"><ele>570.75</ele><time>2026-05-02T10:15:25Z</time></trkpt><trkpt lat="45.57321083138597" lon="3.0598761584145056"><ele>578.5</ele><time>2026-05-02T10:15:26Z</time></trkpt><trkpt lat="45.57311900363153" lon="3.0597569008920824"><ele>586.25</ele><time>2026-05-02T10:15:27Z</time></trkpt><trkpt lat="45.57302154874513" lon="3.0596665674350887"><ele>594.0</ele><time>2026-05-02T10:15:28Z</time></trkpt><trkpt lat="45.57291687847291" lon="3.0596002510324443"><ele>587.5</ele><time>2026-05-02T10:15:29Z</time></trkpt><trkpt lat="45.57280370739715" lon="3.0595496805443054"><ele>581.0</ele><time>2026-05-02T10:15:30Z</time></trkpt><trkpt lat="45.572683499912046" lon="3.0595139457537015"><ele>574.5</ele><time>2026-05-02T10:15:31Z</time></trkpt><trkpt lat="45.57256275087818" lon="3.059469279656472"><ele>568.0</ele><time>2026-05-02T10:15:32Z</time></trkpt><trkpt lat="45.5724530444328" lon="3.0594270136944584"><ele>568.0</ele><time>2026-05-02T10:15:33Z</time></trkpt><trkpt lat="45.57235162349979" lon="3.0593886554855847"><ele>568.0</ele><time>2026-05-02T10:15:34Z</time></trkpt><trkpt lat="45.572242200052514" lon="3.0593812534999034"><ele>568.0</ele><time>2026-05-02T10:15:35Z</time></trkpt><trkpt lat="45.5721188177323" lon="3.05942957939927"><ele>568.0</ele><time>2026-05-02T10:15:36Z</time></trkpt><trkpt lat="45.57200726782854" lon="3.05950749054516"><ele>564.25</ele><time>2026-05-02T10:15:37Z</time></trkpt><trkpt lat="45.57190747577871" lon="3.059624691481289"><ele>560.5</ele><time>2026-05-02T10:15:38Z</time></trkpt><trkpt lat="45.57181524826298" lon="3.0597459535655425"><ele>556.75</ele><time>2026-05-02T10:15:39Z</time></trkpt><trkpt lat="45.57171528380778" lon="3.0598385832903148"><ele>553.0</ele><time>2026-05-02T10:15:40Z</time></trkpt><trkpt lat="45.5715906374966" lon="3.0598880969002398"><ele>553.0</ele><time>2026-05-02T10:15:41Z</time></trkpt><trkpt lat="45.57145558395763" lon="3.0598695987980777"><ele>553.0</ele><time>2026-05-02T10:15:42Z</time></trkpt><trkpt lat="45.571319705832046" lon="3.059892653387476"><ele>553.0</ele><time>2026-05-02T10:15:43Z</time></trkpt><trkpt lat="45.571181542268555" lon="3.059893633518159"><ele>553.0</ele><time>2026-05-02T10:15:44Z</time></trkpt><trkpt lat="45.5710470053952" lon="3.059902447774304"><ele>555.75</ele><time>2026-05-02T10:15:45Z</time></trkpt><trkpt lat="45.57091286855762" lon="3.059933886730907"><ele>558.5</ele><time>2026-05-02T10:15:46Z</time></trkpt><trkpt lat="45.57078335636735" lon="3.059987327591951"><ele>561.25</ele><time>2026-05-02T10:15:47Z</time></trkpt><trkpt lat="45.57064805956956" lon="3.060062011341503"><ele>564.0</ele><time>2026-05-02T10:15:48Z</time></trkpt><trkpt lat="45.570514791454336" lon="3.0601545035902205"><ele>564.6666666666666</ele><time>2026-05-02T10:15:49Z</time></trkpt><trkpt lat="45.570389125136174" lon="3.0602830799210414"><ele>565.3333333333333</ele><time>2026-05-02T10:15:50Z</time></trkpt><trkpt lat="45.570264342404634" lon="3.06043586837187"><ele>566.0</ele><time>2026-05-02T10:15:51Z</time></trkpt><trkpt lat="45.5701467924387" lon="3.060590418903653"><ele>567.0</ele><time>2026-05-02T10:15:52Z</time></trkpt><trkpt lat="45.57003679492844" lon="3.0607259912182214"><ele>568.0</ele><time>2026-05-02T10:15:53Z</time></trkpt><trkpt lat="45.56992560295197" lon="3.060829932546929"><ele>569.0</ele><time>2026-05-02T10:15:54Z</time></trkpt><trkpt lat="45.56979685259599" lon="3.0608911095758438"><ele>570.0</ele><time>2026-05-02T10:15:55Z</time></trkpt><trkpt lat="45.56965815073626" lon="3.0609353666016164"><ele>570.6666666666666</ele><time>2026-05-02T10:15:56Z</time></trkpt><trkpt lat="45.56950754759211" lon="3.0609582479333226"><ele>571.3333333333333</ele><time>2026-05-02T10:15:57Z</time></trkpt><trkpt lat="45.56934417421683" lon="3.0609295349543375"><ele>572.0</ele><time>2026-05-02T10:15:58Z</time></trkpt><trkpt lat="45.5691869684012" lon="3.060843824376859"><ele>573.3333333333333</ele><time>2026-05-02T10:15:59Z</time></trkpt><trkpt lat="45.569027841298386" lon="3.0607765235844964"><ele>574.6666666666666</ele><time>2026-05-02T10:16:00Z</time></trkpt><trkpt lat="45.56887932201151" lon="3.0606844854078608"><ele>576.0</ele><time>2026-05-02T10:16:01Z</time></trkpt><trkpt lat="45.56873120836901" lon="3.060609959936193"><ele>576.6666666666666</ele><time>2026-05-02T10:16:02Z</time></trkpt><trkpt lat="45.568569157171694" lon="3.060565583495061"><ele>577.3333333333333</ele><time>2026-05-02T10:16:03Z</time></trkpt><trkpt lat="45.56838737346719" lon="3.0605384743468655"><ele>578.0</ele><time>2026-05-02T10:16:04Z</time></trkpt><trkpt lat="45.56819647364335" lon="3.060519135488061"><ele>578.0</ele><time>2026-05-02T10:16:05Z</time></trkpt><trkpt lat="45.56798663187071" lon="3.0604927142702643"><ele>578.0</ele><time>2026-05-02T10:16:06Z</time></trkpt><trkpt lat="45.56776416336355" lon="3.060461589652903"><ele>578.0</ele><time>2026-05-02T10:16:07Z</time></trkpt><trkpt lat="45.56756236218611" lon="3.060441297931343"><ele>579.6666666666666</ele><time>2026-05-02T10:16:08Z</time></trkpt><trkpt lat="45.56737653391667" lon="3.06043858929792"><ele>581.3333333333334</ele><time>2026-05-02T10:16:09Z</time></trkpt><trkpt lat="45.56718982169752" lon="3.0604493126247347"><ele>583.0</ele><time>2026-05-02T10:16:10Z</time></trkpt><trkpt lat="45.56700457427484" lon="3.0604760939582007"><ele>584.6666666666667</ele><time>2026-05-02T10:16:11Z</time></trkpt><trkpt lat="45.56682109444896" lon="3.060508087331116"><ele>586.3333333333334</ele><time>2026-05-02T10:16:12Z</time></trkpt><trkpt lat="45.566628840918014" lon="3.0605410825908947"><ele>588.0</ele><time>2026-05-02T10:16:13Z</time></trkpt><trkpt lat="45.566437867087735" lon="3.060571625249644"><ele>588.0</ele><time>2026-05-02T10:16:14Z</time></trkpt><trkpt lat="45.56624522729229" lon="3.0605965472719188"><ele>588.0</ele><time>2026-05-02T10:16:15Z</time></trkpt><trkpt lat="45.56605012502799" lon="3.0606210317321514"><ele>588.0</ele><time>2026-05-02T10:16:16Z</time></trkpt><trkpt lat="45.565853837482344" lon="3.060636285651422"><ele>589.6666666666666</ele><time>2026-05-02T10:16:17Z</time></trkpt><trkpt lat="45.5656593417971" lon="3.060649317669601"><ele>591.3333333333333</ele><time>2026-05-02T10:16:18Z</time></trkpt><trkpt lat="45.56545276813036" lon="3.0606604354970965"><ele>593.0</ele><time>2026-05-02T10:16:19Z</time></trkpt><trkpt lat="45.565249531216374" lon="3.0606651154466187"><ele>593.0</ele><time>2026-05-02T10:16:20Z</time></trkpt><trkpt lat="45.56504843519642" lon="3.060673109137612"><ele>593.0</ele><time>2026-05-02T10:16:21Z</time></trkpt><trkpt lat="45.56484806480627" lon="3.060682016801259"><ele>593.0</ele><time>2026-05-02T10:16:22Z</time></trkpt><trkpt lat="45.56465804022134" lon="3.06069229512183"><ele>593.3333333333333</ele><time>2026-05-02T10:16:23Z</time></trkpt><trkpt lat="45.56446820886834" lon="3.0606860069321775"><ele>593.6666666666666</ele><time>2026-05-02T10:16:24Z</time></trkpt><trkpt lat="45.56429076596561" lon="3.0606829452008495"><ele>594.0</ele><time>2026-05-02T10:16:25Z</time></trkpt><trkpt lat="45.56411176752451" lon="3.060648831200693"><ele>594.0</ele><time>2026-05-02T10:16:26Z</time></trkpt><trkpt lat="45.56394799190087" lon="3.0605750850817963"><ele>594.0</ele><time>2026-05-02T10:16:27Z</time></trkpt><trkpt lat="45.563781450419484" lon="3.060473001517402"><ele>594.0</ele><time>2026-05-02T10:16:28Z</time></trkpt><trkpt lat="45.56361799510761" lon="3.0603514265219114"><ele>597.6666666666666</ele><time>2026-05-02T10:16:29Z</time></trkpt><trkpt lat="45.563466593044836" lon="3.060202696737132"><ele>601.3333333333333</ele><time>2026-05-02T10:16:30Z</time></trkpt><trkpt lat="45.56332458746656" lon="3.0600132257323867"><ele>605.0</ele><time>2026-05-02T10:16:31Z</time></trkpt><trkpt lat="45.5632013247107" lon="3.0597921607362677"><ele>605.3333333333333</ele><time>2026-05-02T10:16:32Z</time></trkpt><trkpt lat="45.563085394876346" lon="3.059557826682014"><ele>605.6666666666666</ele><time>2026-05-02T10:16:33Z</time></trkpt><trkpt lat="45.56298954535547" lon="3.0593016501372827"><ele>606.0</ele><time>2026-05-02T10:16:34Z</time></trkpt><trkpt lat="45.56291187615963" lon="3.0590278389420806"><ele>608.6666666666666</ele><time>2026-05-02T10:16:35Z</time></trkpt><trkpt lat="45.56282132744375" lon="3.058754417318259"><ele>611.3333333333333</ele><time>2026-05-02T10:16:36Z</time></trkpt><trkpt lat="45.562715003907776" lon="3.058496742373983"><ele>614.0</ele><time>2026-05-02T10:16:37Z</time></trkpt><trkpt lat="45.56259435969593" lon="3.05825740051036"><ele>615.0</ele><time>2026-05-02T10:16:38Z</time></trkpt><trkpt lat="45.56246766330591" lon="3.058034821822073"><ele>616.0</ele><time>2026-05-02T10:16:39Z</time></trkpt><trkpt lat="45.562333803692106" lon="3.057833353683557"><ele>617.0</ele><time>2026-05-02T10:16:40Z</time></trkpt><trkpt lat="45.562204113563396" lon="3.0576366472829632"><ele>618.0</ele><time>2026-05-02T10:16:41Z</time></trkpt><trkpt lat="45.56207627778148" lon="3.0574461043082106"><ele>619.0</ele><time>2026-05-02T10:16:42Z</time></trkpt><trkpt lat="45.561954689311236" lon="3.0572564925727153"><ele>620.0</ele><time>2026-05-02T10:16:43Z</time></trkpt><trkpt lat="45.56183553306932" lon="3.0570506477526314"><ele>620.0</ele><time>2026-05-02T10:16:44Z</time></trkpt><trkpt lat="45.561735082892625" lon="3.0568558977005837"><ele>620.0</ele><time>2026-05-02T10:16:45Z</time></trkpt><trkpt lat="45.56165354542762" lon="3.0566334441282286"><ele>620.0</ele><time>2026-05-02T10:16:46Z</time></trkpt><trkpt lat="45.561600077876655" lon="3.056396428629702"><ele>623.6666666666666</ele><time>2026-05-02T10:16:47Z</time></trkpt><trkpt lat="45.5615676618287" lon="3.0561555136912157"><ele>627.3333333333334</ele><time>2026-05-02T10:16:48Z</time></trkpt><trkpt lat="45.56155367459656" lon="3.0559094498068546"><ele>631.0</ele><time>2026-05-02T10:16:49Z</time></trkpt><trkpt lat="45.561565483673846" lon="3.0556721165264618"><ele>631.3333333333334</ele><time>2026-05-02T10:16:50Z</time></trkpt><trkpt lat="45.56160302588693" lon="3.055437840220167"><ele>631.6666666666666</ele><time>2026-05-02T10:16:51Z</time></trkpt><trkpt lat="45.56165882480961" lon="3.0551977886835946"><ele>632.0</ele><time>2026-05-02T10:16:52Z</time></trkpt><trkpt lat="45.561724356336924" lon="3.054963124370085"><ele>633.3333333333333</ele><time>2026-05-02T10:16:53Z</time></trkpt><trkpt lat="45.56179460134448" lon="3.0547303222820554"><ele>634.6666666666666</ele><time>2026-05-02T10:16:54Z</time></trkpt><trkpt lat="45.561858655280275" lon="3.0544953035948255"><ele>636.0</ele><time>2026-05-02T10:16:55Z</time></trkpt><trkpt lat="45.5619150948022" lon="3.0542478094286674"><ele>635.3333333333334</ele><time>2026-05-02T10:16:56Z</time></trkpt><trkpt lat="45.56195149796495" lon="3.054001673761697"><ele>634.6666666666667</ele><time>2026-05-02T10:16:57Z</time></trkpt><trkpt lat="45.56196440198659" lon="3.0537566943412418"><ele>634.0</ele><time>2026-05-02T10:16:58Z</time></trkpt><trkpt lat="45.56195601459627" lon="3.0535045881356804"><ele>633.3333333333334</ele><time>2026-05-02T10:16:59Z</time></trkpt><trkpt lat="45.56193880553049" lon="3.05325046580436"><ele>632.6666666666666</ele><time>2026-05-02T10:17:00Z</time></trkpt><trkpt lat="45.56190203343577" lon="3.0530007481763186"><ele>632.0</ele><time>2026-05-02T10:17:01Z</time></trkpt><trkpt lat="45.561836111514474" lon="3.0527670877206403"><ele>632.0</ele><time>2026-05-02T10:17:02Z</time></trkpt><trkpt lat="45.561752795233886" lon="3.052539633176949"><ele>632.0</ele><time>2026-05-02T10:17:03Z</time></trkpt><trkpt lat="45.56165912722748" lon="3.052325388149329"><ele>632.0</ele><time>2026-05-02T10:17:04Z</time></trkpt><trkpt lat="45.561549211547465" lon="3.0521193933306634"><ele>632.0</ele><time>2026-05-02T10:17:05Z</time></trkpt><trkpt lat="45.5614283888228" lon="3.051939040397937"><ele>632.0</ele><time>2026-05-02T10:17:06Z</time></trkpt><trkpt lat="45.56130442464389" lon="3.0517630436619907"><ele>632.0</ele><time>2026-05-02T10:17:07Z</time></trkpt><trkpt lat="45.561180803628616" lon="3.0515867277298385"><ele>632.3333333333333</ele><time>2026-05-02T10:17:08Z</time></trkpt><trkpt lat="45.561052387544585" lon="3.0514097519825594"><ele>632.6666666666666</ele><time>2026-05-02T10:17:09Z</time></trkpt><trkpt lat="45.56092275778213" lon="3.051220582757543"><ele>633.0</ele><time>2026-05-02T10:17:10Z</time></trkpt><trkpt lat="45.56078943617266" lon="3.051029809557214"><ele>633.0</ele><time>2026-05-02T10:17:11Z</time></trkpt><trkpt lat="45.56066113941347" lon="3.050835437962381"><ele>633.0</ele><time>2026-05-02T10:17:12Z</time></trkpt><trkpt lat="45.56053580931099" lon="3.050640529368834"><ele>633.0</ele><time>2026-05-02T10:17:13Z</time></trkpt><trkpt lat="45.56041623937087" lon="3.0504709994760715"><ele>634.3333333333334</ele><time>2026-05-02T10:17:14Z</time></trkpt><trkpt lat="45.56028937317689" lon="3.050272716125998"><ele>635.6666666666667</ele><time>2026-05-02T10:17:15Z</time></trkpt><trkpt lat="45.56016458250199" lon="3.0500965766304486"><ele>637.0</ele><time>2026-05-02T10:17:16Z</time></trkpt><trkpt lat="45.56004424522832" lon="3.0499192593867392"><ele>637.0</ele><time>2026-05-02T10:17:17Z</time></trkpt><trkpt lat="45.559908506568334" lon="3.0497247386690844"><ele>637.0</ele><time>2026-05-02T10:17:18Z</time></trkpt><trkpt lat="45.55977957106876" lon="3.0495343444829204"><ele>637.0</ele><time>2026-05-02T10:17:19Z</time></trkpt><trkpt lat="45.55964280483618" lon="3.0493354841157645"><ele>638.6666666666667</ele><time>2026-05-02T10:17:20Z</time></trkpt><trkpt lat="45.55950309564731" lon="3.0491414447897744"><ele>640.3333333333334</ele><time>2026-05-02T10:17:21Z</time></trkpt><trkpt lat="45.55936833607781" lon="3.048946429656908"><ele>642.0</ele><time>2026-05-02T10:17:22Z</time></trkpt><trkpt lat="45.55922929311073" lon="3.0487434876632813"><ele>642.0</ele><time>2026-05-02T10:17:23Z</time></trkpt><trkpt lat="45.55909701502366" lon="3.0485381212410525"><ele>642.0</ele><time>2026-05-02T10:17:24Z</time></trkpt><trkpt lat="45.558960479071864" lon="3.04833768645913"><ele>642.0</ele><time>2026-05-02T10:17:25Z</time></trkpt><trkpt lat="45.558826717107635" lon="3.0481365267584244"><ele>642.6666666666666</ele><time>2026-05-02T10:17:26Z</time></trkpt><trkpt lat="45.55868919449595" lon="3.0479448792578046"><ele>643.3333333333333</ele><time>2026-05-02T10:17:27Z</time></trkpt><trkpt lat="45.55856211755483" lon="3.047747707530456"><ele>644.0</ele><time>2026-05-02T10:17:28Z</time></trkpt><trkpt lat="45.558443445438066" lon="3.0475669200369744"><ele>642.6666666666666</ele><time>2026-05-02T10:17:29Z</time></trkpt><trkpt lat="45.55832261418316" lon="3.047391707580248"><ele>641.3333333333334</ele><time>2026-05-02T10:17:30Z</time></trkpt><trkpt lat="45.55820590951869" lon="3.047219916991487"><ele>640.0</ele><time>2026-05-02T10:17:31Z</time></trkpt><trkpt lat="45.558089459721764" lon="3.0470399624183333"><ele>640.0</ele><time>2026-05-02T10:17:32Z</time></trkpt><trkpt lat="45.5579654798213" lon="3.046861255137665"><ele>640.0</ele><time>2026-05-02T10:17:33Z</time></trkpt><trkpt lat="45.557839818216266" lon="3.046674918232062"><ele>640.0</ele><time>2026-05-02T10:17:34Z</time></trkpt><trkpt lat="45.55770849433672" lon="3.046494825198414"><ele>642.0</ele><time>2026-05-02T10:17:35Z</time></trkpt><trkpt lat="45.557584201180376" lon="3.046313174653845"><ele>644.0</ele><time>2026-05-02T10:17:36Z</time></trkpt><trkpt lat="45.557450931114495" lon="3.0461242251999736"><ele>646.0</ele><time>2026-05-02T10:17:37Z</time></trkpt><trkpt lat="45.557323651962534" lon="3.0459340540497215"><ele>643.6666666666667</ele><time>2026-05-02T10:17:38Z</time></trkpt><trkpt lat="45.55718867856011" lon="3.0457377068432048"><ele>641.3333333333334</ele><time>2026-05-02T10:17:39Z</time></trkpt><trkpt lat="45.55705252385752" lon="3.0455343775431323"><ele>639.0</ele><time>2026-05-02T10:17:40Z</time></trkpt><trkpt lat="45.556919891877534" lon="3.0453327484200234"><ele>641.6666666666666</ele><time>2026-05-02T10:17:41Z</time></trkpt><trkpt lat="45.55679508501063" lon="3.0451238576744983"><ele>644.3333333333333</ele><time>2026-05-02T10:17:42Z</time></trkpt><trkpt lat="45.55666871452179" lon="3.044910080538807"><ele>647.0</ele><time>2026-05-02T10:17:43Z</time></trkpt><trkpt lat="45.55655587047161" lon="3.0446900201045444"><ele>647.0</ele><time>2026-05-02T10:17:44Z</time></trkpt><trkpt lat="45.55645103121163" lon="3.04446213514507"><ele>647.0</ele><time>2026-05-02T10:17:45Z</time></trkpt><trkpt lat="45.55635703910512" lon="3.044234124265628"><ele>647.0</ele><time>2026-05-02T10:17:46Z</time></trkpt><trkpt lat="45.556265632326266" lon="3.043986944021148"><ele>651.3333333333333</ele><time>2026-05-02T10:17:47Z</time></trkpt><trkpt lat="45.55618111317374" lon="3.043743280758466"><ele>655.6666666666666</ele><time>2026-05-02T10:17:48Z</time></trkpt><trkpt lat="45.55610631830458" lon="3.043498597605769"><ele>660.0</ele><time>2026-05-02T10:17:49Z</time></trkpt><trkpt lat="45.556038300700216" lon="3.043244579533858"><ele>660.0</ele><time>2026-05-02T10:17:50Z</time></trkpt><trkpt lat="45.555982858430234" lon="3.04298978607947"><ele>660.0</ele><time>2026-05-02T10:17:51Z</time></trkpt><trkpt lat="45.555940773692505" lon="3.0427337273085326"><ele>660.0</ele><time>2026-05-02T10:17:52Z</time></trkpt><trkpt lat="45.555898514472666" lon="3.0424863716680504"><ele>660.6666666666666</ele><time>2026-05-02T10:17:53Z</time></trkpt><trkpt lat="45.555863991049726" lon="3.042228262564696"><ele>661.3333333333333</ele><time>2026-05-02T10:17:54Z</time></trkpt><trkpt lat="45.55582987695351" lon="3.041981656796574"><ele>662.0</ele><time>2026-05-02T10:17:55Z</time></trkpt><trkpt lat="45.555797990083256" lon="3.041718840152753"><ele>661.0</ele><time>2026-05-02T10:17:56Z</time></trkpt><trkpt lat="45.555754869750444" lon="3.0414739165476026"><ele>660.0</ele><time>2026-05-02T10:17:57Z</time></trkpt><trkpt lat="45.555713407796894" lon="3.0412151289418534"><ele>659.0</ele><time>2026-05-02T10:17:58Z</time></trkpt><trkpt lat="45.555653606738296" lon="3.0409701414239203"><ele>657.6666666666666</ele><time>2026-05-02T10:17:59Z</time></trkpt><trkpt lat="45.55559131710404" lon="3.0407153736487658"><ele>656.3333333333334</ele><time>2026-05-02T10:18:00Z</time></trkpt><trkpt lat="45.55551190784285" lon="3.0404784067066317"><ele>655.0</ele><time>2026-05-02T10:18:01Z</time></trkpt><trkpt lat="45.55541323906996" lon="3.0402439025226897"><ele>656.0</ele><time>2026-05-02T10:18:02Z</time></trkpt><trkpt lat="45.55530392916884" lon="3.0400179592448136"><ele>657.0</ele><time>2026-05-02T10:18:03Z</time></trkpt><trkpt lat="45.55518614278815" lon="3.03980107398001"><ele>658.0</ele><time>2026-05-02T10:18:04Z</time></trkpt><trkpt lat="45.555067094143965" lon="3.0395831846492665"><ele>658.0</ele><time>2026-05-02T10:18:05Z</time></trkpt><trkpt lat="45.55494278559413" lon="3.0393762276235297"><ele>658.0</ele><time>2026-05-02T10:18:06Z</time></trkpt><trkpt lat="45.554836532098825" lon="3.039157129748217"><ele>658.0</ele><time>2026-05-02T10:18:07Z</time></trkpt><trkpt lat="45.554748496267" lon="3.0389191972803062"><ele>658.0</ele><time>2026-05-02T10:18:08Z</time></trkpt><trkpt lat="45.55467433103876" lon="3.0386855987263948"><ele>658.0</ele><time>2026-05-02T10:18:09Z</time></trkpt><trkpt lat="45.554606724692576" lon="3.038429551939761"><ele>658.0</ele><time>2026-05-02T10:18:10Z</time></trkpt><trkpt lat="45.55456185285482" lon="3.03817282009998"><ele>662.3333333333334</ele><time>2026-05-02T10:18:11Z</time></trkpt><trkpt lat="45.55453309319966" lon="3.0379131738596334"><ele>666.6666666666666</ele><time>2026-05-02T10:18:12Z</time></trkpt><trkpt lat="45.55451642400915" lon="3.037637545928305"><ele>671.0</ele><time>2026-05-02T10:18:13Z</time></trkpt><trkpt lat="45.55451344453937" lon="3.0373557046860404"><ele>671.0</ele><time>2026-05-02T10:18:14Z</time></trkpt><trkpt lat="45.55452466432195" lon="3.0370811200719565"><ele>671.0</ele><time>2026-05-02T10:18:15Z</time></trkpt><trkpt lat="45.55454073840385" lon="3.036804630328396"><ele>671.0</ele><time>2026-05-02T10:18:16Z</time></trkpt><trkpt lat="45.55455186971626" lon="3.0365294490213963"><ele>669.3333333333333</ele><time>2026-05-02T10:18:17Z</time></trkpt><trkpt lat="45.55456044208688" lon="3.036234460380877"><ele>667.6666666666666</ele><time>2026-05-02T10:18:18Z</time></trkpt><trkpt lat="45.554553380201426" lon="3.035950167098398"><ele>666.0</ele><time>2026-05-02T10:18:19Z</time></trkpt><trkpt lat="45.554524537946804" lon="3.0356634174137826"><ele>666.0</ele><time>2026-05-02T10:18:20Z</time></trkpt><trkpt lat="45.55447784972206" lon="3.035377359978063"><ele>666.0</ele><time>2026-05-02T10:18:21Z</time></trkpt><trkpt lat="45.554416492455225" lon="3.035096722642715"><ele>666.0</ele><time>2026-05-02T10:18:22Z</time></trkpt><trkpt lat="45.55433502850737" lon="3.0348321003352643"><ele>664.6666666666666</ele><time>2026-05-02T10:18:23Z</time></trkpt><trkpt lat="45.55423405512734" lon="3.0345767421705805"><ele>663.3333333333333</ele><time>2026-05-02T10:18:24Z</time></trkpt><trkpt lat="45.55411402318721" lon="3.0343394779776944"><ele>662.0</ele><time>2026-05-02T10:18:25Z</time></trkpt><trkpt lat="45.55398235531529" lon="3.0341125726033487"><ele>661.0</ele><time>2026-05-02T10:18:26Z</time></trkpt><trkpt lat="45.55383768496513" lon="3.033901643894272"><ele>660.0</ele><time>2026-05-02T10:18:27Z</time></trkpt><trkpt lat="45.55368415532634" lon="3.0337071840945695"><ele>659.0</ele><time>2026-05-02T10:18:28Z</time></trkpt><trkpt lat="45.5535270047812" lon="3.0335194332017226"><ele>659.6666666666666</ele><time>2026-05-02T10:18:29Z</time></trkpt><trkpt lat="45.55336787150719" lon="3.0333398837716565"><ele>660.3333333333334</ele><time>2026-05-02T10:18:30Z</time></trkpt><trkpt lat="45.55321308840077" lon="3.0331588176006843"><ele>661.0</ele><time>2026-05-02T10:18:31Z</time></trkpt><trkpt lat="45.5530576556028" lon="3.032974052052791"><ele>661.0</ele><time>2026-05-02T10:18:31.999Z</time></trkpt><trkpt lat="45.552902285203245" lon="3.032782350897076"><ele>661.0</ele><time>2026-05-02T10:18:32.999Z</time></trkpt><trkpt lat="45.55275439828177" lon="3.032594946869661"><ele>661.0</ele><time>2026-05-02T10:18:33.999Z</time></trkpt><trkpt lat="45.55260722804324" lon="3.0324115020416467"><ele>662.0</ele><time>2026-05-02T10:18:34.999Z</time></trkpt><trkpt lat="45.55245883529664" lon="3.0322151777045234"><ele>663.0</ele><time>2026-05-02T10:18:35.999Z</time></trkpt><trkpt lat="45.552319987836086" lon="3.0320096803115235"><ele>664.0</ele><time>2026-05-02T10:18:36.999Z</time></trkpt><trkpt lat="45.552190856068094" lon="3.0317974000216905"><ele>663.3333333333334</ele><time>2026-05-02T10:18:37.999Z</time></trkpt><trkpt lat="45.55205689610496" lon="3.031581537987397"><ele>662.6666666666666</ele><time>2026-05-02T10:18:38.999Z</time></trkpt><trkpt lat="45.5519167829526" lon="3.031370418404986"><ele>662.0</ele><time>2026-05-02T10:18:39.999Z</time></trkpt><trkpt lat="45.55177177572777" lon="3.031149486317787"><ele>663.0</ele><time>2026-05-02T10:18:40.999Z</time></trkpt><trkpt lat="45.55162803983192" lon="3.030934016940395"><ele>664.0</ele><time>2026-05-02T10:18:41.999Z</time></trkpt><trkpt lat="45.55148336567116" lon="3.0307218242584884"><ele>665.0</ele><time>2026-05-02T10:18:42.999Z</time></trkpt><trkpt lat="45.551332999251" lon="3.030512199909635"><ele>666.3333333333333</ele><time>2026-05-02T10:18:43.999Z</time></trkpt><trkpt lat="45.55118522669018" lon="3.03031150710423"><ele>667.6666666666666</ele><time>2026-05-02T10:18:44.999Z</time></trkpt><trkpt lat="45.55102895174053" lon="3.0301262332283097"><ele>669.0</ele><time>2026-05-02T10:18:45.999Z</time></trkpt><trkpt lat="45.55086683356684" lon="3.029956712719657"><ele>669.0</ele><time>2026-05-02T10:18:46.999Z</time></trkpt><trkpt lat="45.55070189705311" lon="3.0297997275372124"><ele>669.0</ele><time>2026-05-02T10:18:47.999Z</time></trkpt><trkpt lat="45.55053017024889" lon="3.029649840460149"><ele>669.0</ele><time>2026-05-02T10:18:48.999Z</time></trkpt><trkpt lat="45.55034918844281" lon="3.029497798577694"><ele>670.0</ele><time>2026-05-02T10:18:49.999Z</time></trkpt><trkpt lat="45.55017426112263" lon="3.02934908777748"><ele>671.0</ele><time>2026-05-02T10:18:50.999Z</time></trkpt><trkpt lat="45.54999569666273" lon="3.029204662556751"><ele>672.0</ele><time>2026-05-02T10:18:51.999Z</time></trkpt><trkpt lat="45.549824541283975" lon="3.0290587600050447"><ele>672.0</ele><time>2026-05-02T10:18:52.999Z</time></trkpt><trkpt lat="45.549641855164204" lon="3.0289124228704165"><ele>672.0</ele><time>2026-05-02T10:18:53.999Z</time></trkpt><trkpt lat="45.5494654191113" lon="3.028767301076226"><ele>672.0</ele><time>2026-05-02T10:18:54.999Z</time></trkpt><trkpt lat="45.549288461508645" lon="3.028631044935255"><ele>674.0</ele><time>2026-05-02T10:18:55.998Z</time></trkpt><trkpt lat="45.54910557658931" lon="3.028516106628921"><ele>676.0</ele><time>2026-05-02T10:18:56.998Z</time></trkpt><trkpt lat="45.54891768565613" lon="3.028412859315458"><ele>678.0</ele><time>2026-05-02T10:18:57.998Z</time></trkpt><trkpt lat="45.54872675322782" lon="3.0283292729733593"><ele>678.0</ele><time>2026-05-02T10:18:58.998Z</time></trkpt><trkpt lat="45.548532494610264" lon="3.0282609028695795"><ele>678.0</ele><time>2026-05-02T10:18:59.998Z</time></trkpt><trkpt lat="45.548331861501" lon="3.0282107083736935"><ele>678.0</ele><time>2026-05-02T10:19:00.998Z</time></trkpt><trkpt lat="45.54812506826025" lon="3.0281777225248514"><ele>678.0</ele><time>2026-05-02T10:19:01.998Z</time></trkpt><trkpt lat="45.54792378737469" lon="3.028156725395858"><ele>678.0</ele><time>2026-05-02T10:19:02.998Z</time></trkpt><trkpt lat="45.54772255533562" lon="3.028150317401351"><ele>678.0</ele><time>2026-05-02T10:19:03.998Z</time></trkpt><trkpt lat="45.54752308388566" lon="3.0281492288337084"><ele>678.3333333333334</ele><time>2026-05-02T10:19:04.998Z</time></trkpt><trkpt lat="45.54732605207504" lon="3.028143824822611"><ele>678.6666666666667</ele><time>2026-05-02T10:19:05.998Z</time></trkpt><trkpt lat="45.54713237848048" lon="3.028117836186814"><ele>679.0</ele><time>2026-05-02T10:19:06.998Z</time></trkpt><trkpt lat="45.54693675152419" lon="3.028079612757752"><ele>680.6666666666667</ele><time>2026-05-02T10:19:07.998Z</time></trkpt><trkpt lat="45.54673868656125" lon="3.028024009174088"><ele>682.3333333333334</ele><time>2026-05-02T10:19:08.998Z</time></trkpt><trkpt lat="45.54655349579718" lon="3.0279598915261143"><ele>684.0</ele><time>2026-05-02T10:19:09.998Z</time></trkpt><trkpt lat="45.546359139471534" lon="3.0278871330068102"><ele>686.6666666666666</ele><time>2026-05-02T10:19:10.998Z</time></trkpt><trkpt lat="45.546170951330474" lon="3.0278056405389178"><ele>689.3333333333333</ele><time>2026-05-02T10:19:11.998Z</time></trkpt><trkpt lat="45.545985385332834" lon="3.0277230708108926"><ele>692.0</ele><time>2026-05-02T10:19:12.998Z</time></trkpt><trkpt lat="45.545793278720815" lon="3.0276373086959727"><ele>692.0</ele><time>2026-05-02T10:19:13.998Z</time></trkpt><trkpt lat="45.545596683405655" lon="3.02755198215889"><ele>692.0</ele><time>2026-05-02T10:19:14.998Z</time></trkpt><trkpt lat="45.54540350553739" lon="3.027477413710952"><ele>692.0</ele><time>2026-05-02T10:19:15.998Z</time></trkpt><trkpt lat="45.54520779026534" lon="3.0274073387121416"><ele>692.3333333333333</ele><time>2026-05-02T10:19:16.998Z</time></trkpt><trkpt lat="45.54501128195625" lon="3.027352905676366"><ele>692.6666666666666</ele><time>2026-05-02T10:19:17.998Z</time></trkpt><trkpt lat="45.54481948307023" lon="3.027321464179923"><ele>693.0</ele><time>2026-05-02T10:19:18.998Z</time></trkpt><trkpt lat="45.54462893692161" lon="3.0273103409481523"><ele>695.0</ele><time>2026-05-02T10:19:19.998Z</time></trkpt><trkpt lat="45.54444081381328" lon="3.0272655543666938"><ele>697.0</ele><time>2026-05-02T10:19:20.998Z</time></trkpt><trkpt lat="45.5442554513526" lon="3.0272369359013016"><ele>699.0</ele><time>2026-05-02T10:19:21.998Z</time></trkpt><trkpt lat="45.54406570959542" lon="3.0273751993680476"><ele>699.0</ele><time>2026-05-02T10:19:22.998Z</time></trkpt><trkpt lat="45.54388536904628" lon="3.0274203734659424"><ele>699.0</ele><time>2026-05-02T10:19:23.998Z</time></trkpt><trkpt lat="45.543695689717836" lon="3.027461297749673"><ele>699.0</ele><time>2026-05-02T10:19:24.998Z</time></trkpt><trkpt lat="45.54351069644278" lon="3.0274810045228335"><ele>699.6666666666666</ele><time>2026-05-02T10:19:25.998Z</time></trkpt><trkpt lat="45.54333344732798" lon="3.027492018052086"><ele>700.3333333333333</ele><time>2026-05-02T10:19:26.998Z</time></trkpt><trkpt lat="45.54314444570019" lon="3.027485222010178"><ele>701.0</ele><time>2026-05-02T10:19:27.998Z</time></trkpt><trkpt lat="45.54296744037158" lon="3.0274509982269806"><ele>700.0</ele><time>2026-05-02T10:19:28.998Z</time></trkpt><trkpt lat="45.542790504143056" lon="3.0273944363537963"><ele>699.0</ele><time>2026-05-02T10:19:29.998Z</time></trkpt><trkpt lat="45.54262497866893" lon="3.0273290042010923"><ele>698.0</ele><time>2026-05-02T10:19:30.998Z</time></trkpt><trkpt lat="45.54246395043406" lon="3.0272431692741466"><ele>698.0</ele><time>2026-05-02T10:19:31.998Z</time></trkpt><trkpt lat="45.54231191391784" lon="3.027142274949774"><ele>698.0</ele><time>2026-05-02T10:19:32.998Z</time></trkpt><trkpt lat="45.542163541015505" lon="3.027028407535833"><ele>698.0</ele><time>2026-05-02T10:19:33.998Z</time></trkpt><trkpt lat="45.542038178767946" lon="3.0269065190847035"><ele>698.6666666666666</ele><time>2026-05-02T10:19:34.998Z</time></trkpt><trkpt lat="45.54191712531529" lon="3.0267644731789907"><ele>699.3333333333334</ele><time>2026-05-02T10:19:35.998Z</time></trkpt><trkpt lat="45.54179238542678" lon="3.026617691136021"><ele>700.0</ele><time>2026-05-02T10:19:36.998Z</time></trkpt><trkpt lat="45.54167926206878" lon="3.026463410134181"><ele>700.0</ele><time>2026-05-02T10:19:37.998Z</time></trkpt><trkpt lat="45.54158496527235" lon="3.0262961976301295"><ele>700.0</ele><time>2026-05-02T10:19:38.998Z</time></trkpt><trkpt lat="45.54150537335293" lon="3.0261342441586607"><ele>700.0</ele><time>2026-05-02T10:19:39.998Z</time></trkpt><trkpt lat="45.54143007762295" lon="3.0259760395469364"><ele>700.0</ele><time>2026-05-02T10:19:40.998Z</time></trkpt><trkpt lat="45.5413654260089" lon="3.025818192615567"><ele>700.0</ele><time>2026-05-02T10:19:41.998Z</time></trkpt><trkpt lat="45.541309279516845" lon="3.0256596784266296"><ele>700.0</ele><time>2026-05-02T10:19:42.998Z</time></trkpt><trkpt lat="45.54125469967822" lon="3.0254701838076485"><ele>700.0</ele><time>2026-05-02T10:19:43.998Z</time></trkpt><trkpt lat="45.5412053573022" lon="3.0252645599407"><ele>700.0</ele><time>2026-05-02T10:19:44.998Z</time></trkpt><trkpt lat="45.54116580121587" lon="3.0250353581753178"><ele>700.25</ele><time>2026-05-02T10:19:45.998Z</time></trkpt><trkpt lat="45.54113509810731" lon="3.024834914595068"><ele>700.5</ele><time>2026-05-02T10:19:46.998Z</time></trkpt><trkpt lat="45.541099555498356" lon="3.0246516980210116"><ele>700.75</ele><time>2026-05-02T10:19:47.998Z</time></trkpt><trkpt lat="45.541064496333" lon="3.024482947400136"><ele>701.0</ele><time>2026-05-02T10:19:48.998Z</time></trkpt><trkpt lat="45.54103629168854" lon="3.024322893259181"><ele>701.0</ele><time>2026-05-02T10:19:49.998Z</time></trkpt><trkpt lat="45.54101611531941" lon="3.0241777350041152"><ele>701.0</ele><time>2026-05-02T10:19:50.998Z</time></trkpt><trkpt lat="45.54099499054798" lon="3.0240425263823925"><ele>701.0</ele><time>2026-05-02T10:19:51.998Z</time></trkpt><trkpt lat="45.54096735439745" lon="3.0239305634883418"><ele>701.0</ele><time>2026-05-02T10:19:52.998Z</time></trkpt><trkpt lat="45.540919944969076" lon="3.0238659768869516"><ele>701.0</ele><time>2026-05-02T10:19:53.998Z</time></trkpt><trkpt lat="45.54085841288609" lon="3.0238301261503913"><ele>701.0</ele><time>2026-05-02T10:19:54.998Z</time></trkpt><trkpt lat="45.540788772838866" lon="3.0238036773668164"><ele>702.0</ele><time>2026-05-02T10:19:55.998Z</time></trkpt><trkpt lat="45.54071176493327" lon="3.023748753937967"><ele>703.0</ele><time>2026-05-02T10:19:56.998Z</time></trkpt><trkpt lat="45.54064080925584" lon="3.0236785175253065"><ele>704.0</ele><time>2026-05-02T10:19:57.998Z</time></trkpt><trkpt lat="45.540591438733315" lon="3.023568408054636"><ele>705.0</ele><time>2026-05-02T10:19:58.998Z</time></trkpt><trkpt lat="45.540532026884044" lon="3.0234406553974313"><ele>706.0</ele><time>2026-05-02T10:19:59.998Z</time></trkpt><trkpt lat="45.540463112323565" lon="3.0233453144829903"><ele>704.1999999999999</ele><time>2026-05-02T10:20:00.998Z</time></trkpt><trkpt lat="45.540380320474256" lon="3.0232560607334724"><ele>702.4</ele><time>2026-05-02T10:20:01.998Z</time></trkpt><trkpt lat="45.54029352656593" lon="3.023158433580191"><ele>700.6</ele><time>2026-05-02T10:20:02.998Z</time></trkpt><trkpt lat="45.54021714252062" lon="3.0230432087187524"><ele>698.8</ele><time>2026-05-02T10:20:03.998Z</time></trkpt><trkpt lat="45.540147509631055" lon="3.022905252648057"><ele>697.0</ele><time>2026-05-02T10:20:04.998Z</time></trkpt><trkpt lat="45.540078132503936" lon="3.022759484824572"><ele>697.0</ele><time>2026-05-02T10:20:05.998Z</time></trkpt><trkpt lat="45.5400015062228" lon="3.022629256035402"><ele>697.0</ele><time>2026-05-02T10:20:06.998Z</time></trkpt><trkpt lat="45.53990964196765" lon="3.0225222378469083"><ele>697.0</ele><time>2026-05-02T10:20:07.998Z</time></trkpt><trkpt lat="45.53981083288551" lon="3.02243434265595"><ele>697.0</ele><time>2026-05-02T10:20:08.998Z</time></trkpt><trkpt lat="45.53970816443744" lon="3.022357092688925"><ele>698.0</ele><time>2026-05-02T10:20:09.998Z</time></trkpt><trkpt lat="45.539597677331855" lon="3.022272123457297"><ele>699.0</ele><time>2026-05-02T10:20:10.998Z</time></trkpt><trkpt lat="45.53948100444216" lon="3.0221870817284078"><ele>700.0</ele><time>2026-05-02T10:20:11.998Z</time></trkpt><trkpt lat="45.53936080181977" lon="3.0220943456107427"><ele>701.0</ele><time>2026-05-02T10:20:12.998Z</time></trkpt><trkpt lat="45.53925128421104" lon="3.022000786924444"><ele>696.75</ele><time>2026-05-02T10:20:13.998Z</time></trkpt><trkpt lat="45.53915299705144" lon="3.0219005896512434"><ele>692.5</ele><time>2026-05-02T10:20:14.998Z</time></trkpt><trkpt lat="45.539060303490814" lon="3.0217793205671795"><ele>688.25</ele><time>2026-05-02T10:20:15.998Z</time></trkpt><trkpt lat="45.53897883935018" lon="3.0216538277174307"><ele>684.0</ele><time>2026-05-02T10:20:16.998Z</time></trkpt><trkpt lat="45.53889984871191" lon="3.021530605118806"><ele>684.0</ele><time>2026-05-02T10:20:17.999Z</time></trkpt><trkpt lat="45.538828452080324" lon="3.021408905222659"><ele>684.0</ele><time>2026-05-02T10:20:18.999Z</time></trkpt><trkpt lat="45.538764920985365" lon="3.021278229247489"><ele>684.0</ele><time>2026-05-02T10:20:19.999Z</time></trkpt><trkpt lat="45.53870331378037" lon="3.021154882902207"><ele>684.0</ele><time>2026-05-02T10:20:20.999Z</time></trkpt><trkpt lat="45.53862704753946" lon="3.021046119158991"><ele>684.0</ele><time>2026-05-02T10:20:21.999Z</time></trkpt><trkpt lat="45.5385272091178" lon="3.0209589651533277"><ele>681.25</ele><time>2026-05-02T10:20:22.999Z</time></trkpt><trkpt lat="45.53840507599844" lon="3.0208798269805675"><ele>678.5</ele><time>2026-05-02T10:20:23.999Z</time></trkpt><trkpt lat="45.538292497400555" lon="3.02076441218638"><ele>675.75</ele><time>2026-05-02T10:20:24.999Z</time></trkpt><trkpt lat="45.538173081836526" lon="3.0206764356569122"><ele>673.0</ele><time>2026-05-02T10:20:25.999Z</time></trkpt><trkpt lat="45.53805066437147" lon="3.020612491219232"><ele>671.0</ele><time>2026-05-02T10:20:26.999Z</time></trkpt><trkpt lat="45.53791560320132" lon="3.0205637515866486"><ele>669.0</ele><time>2026-05-02T10:20:27.999Z</time></trkpt><trkpt lat="45.53776713183905" lon="3.0205129737152494"><ele>667.0</ele><time>2026-05-02T10:20:28.999Z</time></trkpt><trkpt lat="45.53760940853595" lon="3.0204595995973764"><ele>664.25</ele><time>2026-05-02T10:20:29.999Z</time></trkpt><trkpt lat="45.53746842107034" lon="3.0204066913634553"><ele>661.5</ele><time>2026-05-02T10:20:30.999Z</time></trkpt><trkpt lat="45.537324029703285" lon="3.0203872271733894"><ele>658.75</ele><time>2026-05-02T10:20:31.999Z</time></trkpt><trkpt lat="45.53718956989448" lon="3.020332699673466"><ele>656.0</ele><time>2026-05-02T10:20:32.999Z</time></trkpt><trkpt lat="45.53705873190756" lon="3.0202821480081012"><ele>654.8</ele><time>2026-05-02T10:20:34Z</time></trkpt><trkpt lat="45.536939370051456" lon="3.0202364499095284"><ele>653.5999999999999</ele><time>2026-05-02T10:20:35Z</time></trkpt><trkpt lat="45.53684371882203" lon="3.0202099711123362"><ele>652.4</ele><time>2026-05-02T10:20:36Z</time></trkpt><trkpt lat="45.53675905292908" lon="3.020202478340386"><ele>651.2</ele><time>2026-05-02T10:20:37Z</time></trkpt><trkpt lat="45.53666390859753" lon="3.020230706539234"><ele>650.0</ele><time>2026-05-02T10:20:38Z</time></trkpt><trkpt lat="45.53655949512323" lon="3.02029256450674"><ele>650.0</ele><time>2026-05-02T10:20:39Z</time></trkpt><trkpt lat="45.53647112187404" lon="3.0203944913345384"><ele>650.0</ele><time>2026-05-02T10:20:40Z</time></trkpt><trkpt lat="45.53638233949864" lon="3.0205174085329625"><ele>650.0</ele><time>2026-05-02T10:20:41Z</time></trkpt><trkpt lat="45.536298222973116" lon="3.020651141817137"><ele>650.0</ele><time>2026-05-02T10:20:42Z</time></trkpt><trkpt lat="45.53621059370745" lon="3.020784347354372"><ele>647.6666666666666</ele><time>2026-05-02T10:20:43Z</time></trkpt><trkpt lat="45.5360070153926" lon="3.0209349367754887"><ele>645.3333333333334</ele><time>2026-05-02T10:20:45Z</time></trkpt><trkpt lat="45.535894748738365" lon="3.0209735683991266"><ele>643.0</ele><time>2026-05-02T10:20:46Z</time></trkpt><trkpt lat="45.535762005376974" lon="3.0210046154673056"><ele>643.0</ele><time>2026-05-02T10:20:47Z</time></trkpt><trkpt lat="45.53562936163303" lon="3.0210497474772313"><ele>643.0</ele><time>2026-05-02T10:20:48Z</time></trkpt><trkpt lat="45.535520128226935" lon="3.0211229827489645"><ele>643.0</ele><time>2026-05-02T10:20:49Z</time></trkpt><trkpt lat="45.535413505324755" lon="3.021187773297834"><ele>643.0</ele><time>2026-05-02T10:20:50Z</time></trkpt><trkpt lat="45.535302898010116" lon="3.0212572792201713"><ele>639.25</ele><time>2026-05-02T10:20:51Z</time></trkpt><trkpt lat="45.535186796514054" lon="3.021329858066604"><ele>635.5</ele><time>2026-05-02T10:20:52Z</time></trkpt><trkpt lat="45.535056149679924" lon="3.021407540896146"><ele>631.75</ele><time>2026-05-02T10:20:53Z</time></trkpt><trkpt lat="45.53492937100795" lon="3.0214836883379528"><ele>628.0</ele><time>2026-05-02T10:20:54Z</time></trkpt><trkpt lat="45.53480804629266" lon="3.02155871884802"><ele>628.0</ele><time>2026-05-02T10:20:55Z</time></trkpt><trkpt lat="45.53470004361423" lon="3.0216419129411762"><ele>628.0</ele><time>2026-05-02T10:20:56Z</time></trkpt><trkpt lat="45.53457812026631" lon="3.0217411510003167"><ele>628.0</ele><time>2026-05-02T10:20:57Z</time></trkpt><trkpt lat="45.53445715166549" lon="3.0218639363105764"><ele>628.0</ele><time>2026-05-02T10:20:58Z</time></trkpt><trkpt lat="45.53430300025791" lon="3.0220271451129634"><ele>628.0</ele><time>2026-05-02T10:20:59Z</time></trkpt><trkpt lat="45.534145941146775" lon="3.022160640426461"><ele>628.0</ele><time>2026-05-02T10:21:00Z</time></trkpt><trkpt lat="45.534007842147616" lon="3.022300669751912"><ele>628.0</ele><time>2026-05-02T10:21:01Z</time></trkpt><trkpt lat="45.533878688267386" lon="3.022429635969758"><ele>626.75</ele><time>2026-05-02T10:21:02Z</time></trkpt><trkpt lat="45.53375185572356" lon="3.0225559611918813"><ele>625.5</ele><time>2026-05-02T10:21:03Z</time></trkpt><trkpt lat="45.53363726778106" lon="3.022666294222335"><ele>624.25</ele><time>2026-05-02T10:21:04Z</time></trkpt><trkpt lat="45.5335312292985" lon="3.022753886221593"><ele>623.0</ele><time>2026-05-02T10:21:05Z</time></trkpt><trkpt lat="45.53342522242602" lon="3.0228068392189487"><ele>623.0</ele><time>2026-05-02T10:21:06Z</time></trkpt><trkpt lat="45.53332278362648" lon="3.0228453808499305"><ele>623.0</ele><time>2026-05-02T10:21:07Z</time></trkpt><trkpt lat="45.53323078626304" lon="3.0228684359294955"><ele>623.0</ele><time>2026-05-02T10:21:08Z</time></trkpt><trkpt lat="45.533157952802455" lon="3.0228767106017793"><ele>623.0</ele><time>2026-05-02T10:21:09Z</time></trkpt><trkpt lat="45.53308858544481" lon="3.02288373158827"><ele>623.0</ele><time>2026-05-02T10:21:11Z</time></trkpt><trkpt lat="45.532995122064726" lon="3.022893191473214"><ele>623.0</ele><time>2026-05-02T10:21:19Z</time></trkpt><trkpt lat="45.5329652831815" lon="3.0230793336843735"><ele>623.0</ele><time>2026-05-02T10:21:20Z</time></trkpt><trkpt lat="45.53293415532716" lon="3.0231837909999597"><ele>623.0</ele><time>2026-05-02T10:21:21Z</time></trkpt><trkpt lat="45.53288971444129" lon="3.023308027508126"><ele>623.0</ele><time>2026-05-02T10:21:22Z</time></trkpt><trkpt lat="45.53282983669679" lon="3.023451849864905"><ele>623.0</ele><time>2026-05-02T10:21:23Z</time></trkpt><trkpt lat="45.532768804789846" lon="3.023595163245612"><ele>623.0</ele><time>2026-05-02T10:21:24Z</time></trkpt><trkpt lat="45.53269875400091" lon="3.023743709161156"><ele>622.25</ele><time>2026-05-02T10:21:25Z</time></trkpt><trkpt lat="45.53262733032442" lon="3.023902946108684"><ele>621.5</ele><time>2026-05-02T10:21:26Z</time></trkpt><trkpt lat="45.532560693449" lon="3.024076101008317"><ele>620.75</ele><time>2026-05-02T10:21:27Z</time></trkpt><trkpt lat="45.532495501552376" lon="3.0242573742061536"><ele>620.0</ele><time>2026-05-02T10:21:28Z</time></trkpt><trkpt lat="45.53243411347983" lon="3.0244507094376103"><ele>620.0</ele><time>2026-05-02T10:21:29Z</time></trkpt><trkpt lat="45.532380167233384" lon="3.0246514466581185"><ele>620.0</ele><time>2026-05-02T10:21:30Z</time></trkpt><trkpt lat="45.532331197250166" lon="3.024860017116629"><ele>620.0</ele><time>2026-05-02T10:21:31Z</time></trkpt><trkpt lat="45.532286935116694" lon="3.025086146365127"><ele>620.6666666666666</ele><time>2026-05-02T10:21:32Z</time></trkpt><trkpt lat="45.53224554805153" lon="3.025323783183474"><ele>621.3333333333334</ele><time>2026-05-02T10:21:33Z</time></trkpt><trkpt lat="45.532217985366344" lon="3.0255296478977476"><ele>622.0</ele><time>2026-05-02T10:21:34Z</time></trkpt><trkpt lat="45.53219096247768" lon="3.0257733723267277"><ele>623.0</ele><time>2026-05-02T10:21:35Z</time></trkpt><trkpt lat="45.532174313592186" lon="3.026010126661212"><ele>624.0</ele><time>2026-05-02T10:21:36Z</time></trkpt><trkpt lat="45.532158724925665" lon="3.0262496476011096"><ele>625.0</ele><time>2026-05-02T10:21:37Z</time></trkpt><trkpt lat="45.532151969048236" lon="3.026459398912886"><ele>625.3333333333334</ele><time>2026-05-02T10:21:38Z</time></trkpt><trkpt lat="45.53213795635588" lon="3.026661608468422"><ele>625.6666666666666</ele><time>2026-05-02T10:21:39Z</time></trkpt><trkpt lat="45.532145619367306" lon="3.0268673903729475"><ele>626.0</ele><time>2026-05-02T10:21:40Z</time></trkpt><trkpt lat="45.53216844764339" lon="3.0271532504437713"><ele>626.0</ele><time>2026-05-02T10:21:41Z</time></trkpt><trkpt lat="45.53222769380663" lon="3.0273830614436994"><ele>626.0</ele><time>2026-05-02T10:21:42Z</time></trkpt><trkpt lat="45.53228978420737" lon="3.0276179578154117"><ele>626.0</ele><time>2026-05-02T10:21:43Z</time></trkpt><trkpt lat="45.53235127631192" lon="3.027873987715081"><ele>624.0</ele><time>2026-05-02T10:21:44Z</time></trkpt><trkpt lat="45.53240896242502" lon="3.028138225133945"><ele>622.0</ele><time>2026-05-02T10:21:45Z</time></trkpt><trkpt lat="45.53246739831472" lon="3.0283998774098317"><ele>620.0</ele><time>2026-05-02T10:21:46Z</time></trkpt><trkpt lat="45.53252468730037" lon="3.028672041847501"><ele>618.3333333333333</ele><time>2026-05-02T10:21:47Z</time></trkpt><trkpt lat="45.53257533059341" lon="3.0289480892949205"><ele>616.6666666666666</ele><time>2026-05-02T10:21:48Z</time></trkpt><trkpt lat="45.53262295559183" lon="3.029220365462641"><ele>615.0</ele><time>2026-05-02T10:21:49Z</time></trkpt><trkpt lat="45.53266554686693" lon="3.0294966574656805"><ele>614.3333333333334</ele><time>2026-05-02T10:21:50Z</time></trkpt><trkpt lat="45.532704727217144" lon="3.029777163515278"><ele>613.6666666666667</ele><time>2026-05-02T10:21:51Z</time></trkpt><trkpt lat="45.532743026960084" lon="3.0300526268462957"><ele>613.0</ele><time>2026-05-02T10:21:52Z</time></trkpt><trkpt lat="45.53277739633267" lon="3.0303188772296057"><ele>612.3333333333334</ele><time>2026-05-02T10:21:53Z</time></trkpt><trkpt lat="45.53280132258432" lon="3.0305709449874105"><ele>611.6666666666666</ele><time>2026-05-02T10:21:54Z</time></trkpt><trkpt lat="45.53281477667703" lon="3.0308117381262276"><ele>611.0</ele><time>2026-05-02T10:21:55Z</time></trkpt><trkpt lat="45.53281611406851" lon="3.031053873192939"><ele>610.6666666666666</ele><time>2026-05-02T10:21:56Z</time></trkpt><trkpt lat="45.53280224915195" lon="3.031299728489232"><ele>610.3333333333334</ele><time>2026-05-02T10:21:57Z</time></trkpt><trkpt lat="45.53278058332813" lon="3.0315471217812893"><ele>610.0</ele><time>2026-05-02T10:21:58Z</time></trkpt><trkpt lat="45.5327609303013" lon="3.031792487098975"><ele>610.0</ele><time>2026-05-02T10:21:59Z</time></trkpt><trkpt lat="45.532737862188725" lon="3.0320397706450124"><ele>610.0</ele><time>2026-05-02T10:22:00Z</time></trkpt><trkpt lat="45.53271492426402" lon="3.032285658981512"><ele>610.0</ele><time>2026-05-02T10:22:01Z</time></trkpt><trkpt lat="45.53268304285567" lon="3.0325236672710116"><ele>610.0</ele><time>2026-05-02T10:22:02Z</time></trkpt><trkpt lat="45.532633376106475" lon="3.032767903115903"><ele>610.0</ele><time>2026-05-02T10:22:03Z</time></trkpt><trkpt lat="45.532550731558075" lon="3.0329662089517173"><ele>610.0</ele><time>2026-05-02T10:22:04Z</time></trkpt><trkpt lat="45.53245776719939" lon="3.0331691694065306"><ele>611.6666666666667</ele><time>2026-05-02T10:22:05Z</time></trkpt><trkpt lat="45.53234999273555" lon="3.0333771503583233"><ele>613.3333333333334</ele><time>2026-05-02T10:22:06Z</time></trkpt><trkpt lat="45.53222845043872" lon="3.0335789233830015"><ele>615.0</ele><time>2026-05-02T10:22:07Z</time></trkpt><trkpt lat="45.532086146234874" lon="3.033772963252952"><ele>616.25</ele><time>2026-05-02T10:22:08Z</time></trkpt><trkpt lat="45.53205330810879" lon="3.033947666895882"><ele>617.5</ele><time>2026-05-02T10:22:09Z</time></trkpt><trkpt lat="45.531969559744205" lon="3.034135915320821"><ele>618.75</ele><time>2026-05-02T10:22:10Z</time></trkpt><trkpt lat="45.53189611518577" lon="3.0343343276366257"><ele>620.0</ele><time>2026-05-02T10:22:11Z</time></trkpt><trkpt lat="45.53182837488789" lon="3.0345434186295046"><ele>615.6666666666666</ele><time>2026-05-02T10:22:12Z</time></trkpt><trkpt lat="45.53177130995957" lon="3.034768104798316"><ele>611.3333333333334</ele><time>2026-05-02T10:22:13Z</time></trkpt><trkpt lat="45.531719820675626" lon="3.035005013485809"><ele>607.0</ele><time>2026-05-02T10:22:14Z</time></trkpt><trkpt lat="45.53166566452975" lon="3.0352457862875974"><ele>605.0</ele><time>2026-05-02T10:22:15Z</time></trkpt><trkpt lat="45.53160757065999" lon="3.035491750794574"><ele>603.0</ele><time>2026-05-02T10:22:16Z</time></trkpt><trkpt lat="45.531546378240954" lon="3.035719618006636"><ele>601.0</ele><time>2026-05-02T10:22:17Z</time></trkpt><trkpt lat="45.53148358806431" lon="3.035943925849441"><ele>601.0</ele><time>2026-05-02T10:22:18Z</time></trkpt><trkpt lat="45.531394414733" lon="3.03614869817684"><ele>601.0</ele><time>2026-05-02T10:22:19Z</time></trkpt><trkpt lat="45.5312963185008" lon="3.036344670126205"><ele>601.0</ele><time>2026-05-02T10:22:20Z</time></trkpt><trkpt lat="45.531186275878945" lon="3.036530615557915"><ele>601.0</ele><time>2026-05-02T10:22:21Z</time></trkpt><trkpt lat="45.53109125799417" lon="3.0367256279367987"><ele>601.0</ele><time>2026-05-02T10:22:22Z</time></trkpt><trkpt lat="45.530985941816134" lon="3.036884009201307"><ele>601.0</ele><time>2026-05-02T10:22:23Z</time></trkpt><trkpt lat="45.53090020099992" lon="3.0370499849885433"><ele>601.0</ele><time>2026-05-02T10:22:24Z</time></trkpt><trkpt lat="45.530844019845176" lon="3.037232954778928"><ele>601.0</ele><time>2026-05-02T10:22:25Z</time></trkpt><trkpt lat="45.53082452946751" lon="3.0374266112158583"><ele>601.0</ele><time>2026-05-02T10:22:26Z</time></trkpt><trkpt lat="45.530844635236875" lon="3.037623990773724"><ele>601.0</ele><time>2026-05-02T10:22:27Z</time></trkpt><trkpt lat="45.530889993855105" lon="3.0378210711908897"><ele>601.3333333333334</ele><time>2026-05-02T10:22:28Z</time></trkpt><trkpt lat="45.53095985308418" lon="3.0380209232856488"><ele>601.6666666666666</ele><time>2026-05-02T10:22:29Z</time></trkpt><trkpt lat="45.531039846632915" lon="3.038229104100128"><ele>602.0</ele><time>2026-05-02T10:22:30Z</time></trkpt><trkpt lat="45.531141036711986" lon="3.0384637948971904"><ele>600.0</ele><time>2026-05-02T10:22:31Z</time></trkpt><trkpt lat="45.531221195111726" lon="3.0386796043736215"><ele>598.0</ele><time>2026-05-02T10:22:32Z</time></trkpt><trkpt lat="45.53129382837754" lon="3.038877338897543"><ele>596.0</ele><time>2026-05-02T10:22:33Z</time></trkpt><trkpt lat="45.53135751331905" lon="3.039076419671723"><ele>599.0</ele><time>2026-05-02T10:22:34Z</time></trkpt><trkpt lat="45.53140144731983" lon="3.039272365768742"><ele>602.0</ele><time>2026-05-02T10:22:35Z</time></trkpt><trkpt lat="45.53139925620209" lon="3.0394734964611847"><ele>605.0</ele><time>2026-05-02T10:22:36Z</time></trkpt><trkpt lat="45.53139906461892" lon="3.0396693174519496"><ele>608.0</ele><time>2026-05-02T10:22:37Z</time></trkpt><trkpt lat="45.53135958081834" lon="3.0398563352332437"><ele>607.75</ele><time>2026-05-02T10:22:38Z</time></trkpt><trkpt lat="45.53129825402285" lon="3.040028344861043"><ele>607.5</ele><time>2026-05-02T10:22:39Z</time></trkpt><trkpt lat="45.531224285819924" lon="3.04019454050259"><ele>607.25</ele><time>2026-05-02T10:22:40Z</time></trkpt><trkpt lat="45.5311469233589" lon="3.0403619347211817"><ele>607.0</ele><time>2026-05-02T10:22:41Z</time></trkpt><trkpt lat="45.53106478412359" lon="3.0405381761166517"><ele>603.0</ele><time>2026-05-02T10:22:42Z</time></trkpt><trkpt lat="45.53098377256124" lon="3.0407242140811883"><ele>599.0</ele><time>2026-05-02T10:22:43Z</time></trkpt><trkpt lat="45.53090968371821" lon="3.0408997122745003"><ele>595.0</ele><time>2026-05-02T10:22:44Z</time></trkpt><trkpt lat="45.53083553802181" lon="3.0410743709552466"><ele>591.0</ele><time>2026-05-02T10:22:45Z</time></trkpt><trkpt lat="45.530772383093" lon="3.0412432407089494"><ele>591.0</ele><time>2026-05-02T10:22:46Z</time></trkpt><trkpt lat="45.53073458914331" lon="3.0414239754205203"><ele>591.0</ele><time>2026-05-02T10:22:47Z</time></trkpt><trkpt lat="45.53072833666859" lon="3.041608623524915"><ele>591.0</ele><time>2026-05-02T10:22:48Z</time></trkpt><trkpt lat="45.53074598214869" lon="3.0417880170019207"><ele>591.0</ele><time>2026-05-02T10:22:49Z</time></trkpt><trkpt lat="45.53079217253508" lon="3.041962669657537"><ele>591.0</ele><time>2026-05-02T10:22:50Z</time></trkpt><trkpt lat="45.530856118581305" lon="3.042120811287822"><ele>591.0</ele><time>2026-05-02T10:22:51Z</time></trkpt><trkpt lat="45.53094257460038" lon="3.042257840488984"><ele>591.0</ele><time>2026-05-02T10:22:52Z</time></trkpt><trkpt lat="45.531049688216925" lon="3.042369045743026"><ele>591.0</ele><time>2026-05-02T10:22:53Z</time></trkpt><trkpt lat="45.531171584496335" lon="3.0424411872911286"><ele>588.25</ele><time>2026-05-02T10:22:54Z</time></trkpt><trkpt lat="45.53130364451295" lon="3.0424834187961816"><ele>585.5</ele><time>2026-05-02T10:22:55Z</time></trkpt><trkpt lat="45.53144257761215" lon="3.042509954195698"><ele>582.75</ele><time>2026-05-02T10:22:56Z</time></trkpt><trkpt lat="45.53158747820995" lon="3.0425322620901056"><ele>580.0</ele><time>2026-05-02T10:22:57Z</time></trkpt><trkpt lat="45.53173448203845" lon="3.042564053826431"><ele>580.0</ele><time>2026-05-02T10:22:58Z</time></trkpt><trkpt lat="45.531883317911806" lon="3.04259731948199"><ele>580.0</ele><time>2026-05-02T10:22:59Z</time></trkpt><trkpt lat="45.532030817139265" lon="3.0426270408128464"><ele>580.0</ele><time>2026-05-02T10:23:00Z</time></trkpt><trkpt lat="45.53219519959009" lon="3.0426636480020175"><ele>578.0</ele><time>2026-05-02T10:23:01Z</time></trkpt><trkpt lat="45.53235956534926" lon="3.0427014565355117"><ele>576.0</ele><time>2026-05-02T10:23:02Z</time></trkpt><trkpt lat="45.532532278589066" lon="3.042734819196486"><ele>574.0</ele><time>2026-05-02T10:23:03Z</time></trkpt><trkpt lat="45.53269658295894" lon="3.0427623521781126"><ele>574.0</ele><time>2026-05-02T10:23:04Z</time></trkpt><trkpt lat="45.53286909091551" lon="3.0427942510261667"><ele>574.0</ele><time>2026-05-02T10:23:05Z</time></trkpt><trkpt lat="45.53304065990695" lon="3.0428292331038835"><ele>574.0</ele><time>2026-05-02T10:23:06Z</time></trkpt><trkpt lat="45.53320927365023" lon="3.042861858902221"><ele>572.0</ele><time>2026-05-02T10:23:07Z</time></trkpt><trkpt lat="45.533390477323515" lon="3.0428948067730057"><ele>570.0</ele><time>2026-05-02T10:23:08Z</time></trkpt><trkpt lat="45.533572787935924" lon="3.04293515615416"><ele>568.0</ele><time>2026-05-02T10:23:09Z</time></trkpt><trkpt lat="45.53374679396384" lon="3.042966058525633"><ele>566.25</ele><time>2026-05-02T10:23:10Z</time></trkpt><trkpt lat="45.533906597840144" lon="3.043003519276961"><ele>564.5</ele><time>2026-05-02T10:23:11Z</time></trkpt><trkpt lat="45.53402987816656" lon="3.0430248660010832"><ele>562.75</ele><time>2026-05-02T10:23:12Z</time></trkpt><trkpt lat="45.53414914995342" lon="3.043049963253736"><ele>561.0</ele><time>2026-05-02T10:23:13Z</time></trkpt><trkpt lat="45.53427218003333" lon="3.043074530358867"><ele>561.0</ele><time>2026-05-02T10:23:14Z</time></trkpt><trkpt lat="45.53441092671698" lon="3.043098486858791"><ele>561.0</ele><time>2026-05-02T10:23:15Z</time></trkpt><trkpt lat="45.5345595289764" lon="3.043122396143921"><ele>561.0</ele><time>2026-05-02T10:23:16Z</time></trkpt><trkpt lat="45.53471096573016" lon="3.043151152938547"><ele>561.0</ele><time>2026-05-02T10:23:17Z</time></trkpt><trkpt lat="45.53486346214431" lon="3.0431837648927567"><ele>560.6666666666666</ele><time>2026-05-02T10:23:18Z</time></trkpt><trkpt lat="45.535017285369726" lon="3.0432164122152328"><ele>560.3333333333333</ele><time>2026-05-02T10:23:19Z</time></trkpt><trkpt lat="45.53517177507994" lon="3.0432514567919773"><ele>560.0</ele><time>2026-05-02T10:23:20Z</time></trkpt><trkpt lat="45.53531598215305" lon="3.0432916069258975"><ele>559.5</ele><time>2026-05-02T10:23:21Z</time></trkpt><trkpt lat="45.535450887715534" lon="3.043338715183652"><ele>559.0</ele><time>2026-05-02T10:23:22Z</time></trkpt><trkpt lat="45.53558925198384" lon="3.0434055110454468"><ele>558.5</ele><time>2026-05-02T10:23:23Z</time></trkpt><trkpt lat="45.53571899495419" lon="3.043489844639683"><ele>558.0</ele><time>2026-05-02T10:23:24Z</time></trkpt><trkpt lat="45.53584313838697" lon="3.0436018267703964"><ele>558.0</ele><time>2026-05-02T10:23:25Z</time></trkpt><trkpt lat="45.53595672168886" lon="3.043725348816567"><ele>558.0</ele><time>2026-05-02T10:23:26Z</time></trkpt><trkpt lat="45.5360646828382" lon="3.0438626185923483"><ele>558.0</ele><time>2026-05-02T10:23:27Z</time></trkpt><trkpt lat="45.53616200039494" lon="3.0440104371512056"><ele>558.0</ele><time>2026-05-02T10:23:28Z</time></trkpt><trkpt lat="45.53625306947956" lon="3.044157979938724"><ele>557.75</ele><time>2026-05-02T10:23:29Z</time></trkpt><trkpt lat="45.536339500160494" lon="3.0442897091030723"><ele>557.5</ele><time>2026-05-02T10:23:30Z</time></trkpt><trkpt lat="45.53642712704382" lon="3.044417204221199"><ele>557.25</ele><time>2026-05-02T10:23:31Z</time></trkpt><trkpt lat="45.536511146426214" lon="3.0445385253566197"><ele>557.0</ele><time>2026-05-02T10:23:32Z</time></trkpt><trkpt lat="45.53658895566218" lon="3.0446528894626534"><ele>557.0</ele><time>2026-05-02T10:23:33Z</time></trkpt><trkpt lat="45.5366672155386" lon="3.0447605214214857"><ele>557.0</ele><time>2026-05-02T10:23:34Z</time></trkpt><trkpt lat="45.53674303710939" lon="3.0448556178939503"><ele>557.0</ele><time>2026-05-02T10:23:35Z</time></trkpt><trkpt lat="45.536823344491616" lon="3.044939325690738"><ele>557.0</ele><time>2026-05-02T10:23:36Z</time></trkpt><trkpt lat="45.53690287090048" lon="3.045003440311374"><ele>557.0</ele><time>2026-05-02T10:23:37Z</time></trkpt><trkpt lat="45.53697768772705" lon="3.04505340872757"><ele>557.0</ele><time>2026-05-02T10:23:38Z</time></trkpt><trkpt lat="45.53705193337495" lon="3.0450857207726214"><ele>557.0</ele><time>2026-05-02T10:23:39Z</time></trkpt><trkpt lat="45.53712016624678" lon="3.0451099930740564"><ele>557.0</ele><time>2026-05-02T10:23:40Z</time></trkpt><trkpt lat="45.53723508373141" lon="3.0451337522275557"><ele>557.0</ele><time>2026-05-02T10:23:42Z</time></trkpt><trkpt lat="45.53723805168643" lon="3.0452530158334303"><ele>557.0</ele><time>2026-05-02T10:23:45Z</time></trkpt><trkpt lat="45.537172467461644" lon="3.045319500608317"><ele>557.0</ele><time>2026-05-02T10:23:47Z</time></trkpt><trkpt lat="45.53711480308139" lon="3.045398537109793"><ele>557.0</ele><time>2026-05-02T10:23:48Z</time></trkpt><trkpt lat="45.53704319454532" lon="3.045473551999146"><ele>557.0</ele><time>2026-05-02T10:23:49Z</time></trkpt><trkpt lat="45.53698781971936" lon="3.045571758652512"><ele>557.0</ele><time>2026-05-02T10:23:50Z</time></trkpt><trkpt lat="45.53694138136645" lon="3.045659473195943"><ele>557.0</ele><time>2026-05-02T10:23:51Z</time></trkpt><trkpt lat="45.5369124993737" lon="3.0457533233782828"><ele>557.0</ele><time>2026-05-02T10:23:52Z</time></trkpt><trkpt lat="45.53690656304787" lon="3.0458579734472284"><ele>557.0</ele><time>2026-05-02T10:23:53Z</time></trkpt><trkpt lat="45.536916858913436" lon="3.0459725684649097"><ele>557.6</ele><time>2026-05-02T10:23:54Z</time></trkpt><trkpt lat="45.53691802694047" lon="3.0460974355001693"><ele>558.2</ele><time>2026-05-02T10:23:55Z</time></trkpt><trkpt lat="45.53691494702964" lon="3.0462440507984456"><ele>558.8</ele><time>2026-05-02T10:23:56Z</time></trkpt><trkpt lat="45.53690115138352" lon="3.0463740659192347"><ele>559.4</ele><time>2026-05-02T10:23:57Z</time></trkpt><trkpt lat="45.53688420111128" lon="3.0465210462906747"><ele>560.0</ele><time>2026-05-02T10:23:58Z</time></trkpt><trkpt lat="45.53687218896637" lon="3.0466260322566305"><ele>559.6</ele><time>2026-05-02T10:23:59Z</time></trkpt><trkpt lat="45.53686773149388" lon="3.0467175403347637"><ele>559.2</ele><time>2026-05-02T10:24:00Z</time></trkpt><trkpt lat="45.53693815829842" lon="3.046882677764604"><ele>558.8</ele><time>2026-05-02T10:24:02Z</time></trkpt><trkpt lat="45.537022206230205" lon="3.0469722651737"><ele>558.4</ele><time>2026-05-02T10:24:03Z</time></trkpt><trkpt lat="45.53713481151964" lon="3.047068668064646"><ele>558.0</ele><time>2026-05-02T10:24:04Z</time></trkpt><trkpt lat="45.537227917609414" lon="3.04716046332974"><ele>558.0</ele><time>2026-05-02T10:24:05Z</time></trkpt><trkpt lat="45.53726308518351" lon="3.0472761671854527"><ele>558.0</ele><time>2026-05-02T10:24:06Z</time></trkpt><trkpt lat="45.53723936632847" lon="3.0474038642750463"><ele>558.0</ele><time>2026-05-02T10:24:07Z</time></trkpt><trkpt lat="45.53723874711013" lon="3.0475298329040648"><ele>558.0</ele><time>2026-05-02T10:24:08Z</time></trkpt><trkpt lat="45.53725033815738" lon="3.047671786103555"><ele>558.0</ele><time>2026-05-02T10:24:09Z</time></trkpt><trkpt lat="45.53726528181286" lon="3.0478335160133208"><ele>559.5</ele><time>2026-05-02T10:24:10Z</time></trkpt><trkpt lat="45.53729903778124" lon="3.047999271811973"><ele>561.0</ele><time>2026-05-02T10:24:11Z</time></trkpt><trkpt lat="45.53735331864963" lon="3.048163877348298"><ele>562.5</ele><time>2026-05-02T10:24:12Z</time></trkpt><trkpt lat="45.53741671273582" lon="3.0483292081623348"><ele>564.0</ele><time>2026-05-02T10:24:13Z</time></trkpt><trkpt lat="45.5374844391539" lon="3.048507357483416"><ele>566.0</ele><time>2026-05-02T10:24:14Z</time></trkpt><trkpt lat="45.5375547596249" lon="3.048692053490279"><ele>568.0</ele><time>2026-05-02T10:24:15Z</time></trkpt><trkpt lat="45.53764112171697" lon="3.0488815852863485"><ele>570.0</ele><time>2026-05-02T10:24:16Z</time></trkpt><trkpt lat="45.53772904302835" lon="3.049062787159627"><ele>570.0</ele><time>2026-05-02T10:24:17Z</time></trkpt><trkpt lat="45.53782375778144" lon="3.0492443305360624"><ele>570.0</ele><time>2026-05-02T10:24:18Z</time></trkpt><trkpt lat="45.53791955312426" lon="3.0494209352297106"><ele>570.0</ele><time>2026-05-02T10:24:19Z</time></trkpt><trkpt lat="45.538025758858154" lon="3.0496015134613192"><ele>570.0</ele><time>2026-05-02T10:24:20Z</time></trkpt><trkpt lat="45.538134597897084" lon="3.0497738776723518"><ele>570.0</ele><time>2026-05-02T10:24:21Z</time></trkpt><trkpt lat="45.538252344303785" lon="3.049957386457987"><ele>570.0</ele><time>2026-05-02T10:24:22Z</time></trkpt><trkpt lat="45.538366524425946" lon="3.0501312956514117"><ele>570.75</ele><time>2026-05-02T10:24:23Z</time></trkpt><trkpt lat="45.53847422784636" lon="3.0502881206328087"><ele>571.5</ele><time>2026-05-02T10:24:24Z</time></trkpt><trkpt lat="45.53856234647374" lon="3.050424842427517"><ele>572.25</ele><time>2026-05-02T10:24:25Z</time></trkpt><trkpt lat="45.53864283599213" lon="3.050553582959394"><ele>573.0</ele><time>2026-05-02T10:24:26Z</time></trkpt><trkpt lat="45.538718982223585" lon="3.0506785627389634"><ele>574.0</ele><time>2026-05-02T10:24:27Z</time></trkpt><trkpt lat="45.53878209341642" lon="3.0508129711255476"><ele>575.0</ele><time>2026-05-02T10:24:28Z</time></trkpt><trkpt lat="45.53880568834255" lon="3.0509773921728183"><ele>576.0</ele><time>2026-05-02T10:24:29Z</time></trkpt><trkpt lat="45.53881597988002" lon="3.0511543413860376"><ele>577.0</ele><time>2026-05-02T10:24:30Z</time></trkpt><trkpt lat="45.538805019677724" lon="3.051347260532935"><ele>577.0</ele><time>2026-05-02T10:24:31Z</time></trkpt><trkpt lat="45.5387795424734" lon="3.0515473360589356"><ele>577.0</ele><time>2026-05-02T10:24:32Z</time></trkpt><trkpt lat="45.53874114213493" lon="3.0517345261251743"><ele>577.0</ele><time>2026-05-02T10:24:33Z</time></trkpt><trkpt lat="45.53869140363404" lon="3.051914096855366"><ele>577.0</ele><time>2026-05-02T10:24:34Z</time></trkpt><trkpt lat="45.538652897922454" lon="3.0520937724486275"><ele>585.25</ele><time>2026-05-02T10:24:35Z</time></trkpt><trkpt lat="45.53862079386541" lon="3.052253283074133"><ele>593.5</ele><time>2026-05-02T10:24:36Z</time></trkpt><trkpt lat="45.53861398993522" lon="3.052416351027013"><ele>601.75</ele><time>2026-05-02T10:24:37Z</time></trkpt><trkpt lat="45.53862927631307" lon="3.0525980581487033"><ele>610.0</ele><time>2026-05-02T10:24:38.001Z</time></trkpt><trkpt lat="45.53861686167713" lon="3.052763887538073"><ele>610.0</ele><time>2026-05-02T10:24:39.001Z</time></trkpt><trkpt lat="45.53859466460446" lon="3.0528881922216913"><ele>610.0</ele><time>2026-05-02T10:24:40.001Z</time></trkpt><trkpt lat="45.538530363044025" lon="3.052943752671112"><ele>610.0</ele><time>2026-05-02T10:24:41.001Z</time></trkpt><trkpt lat="45.53846283444632" lon="3.0529359772016043"><ele>610.0</ele><time>2026-05-02T10:24:42.001Z</time></trkpt><trkpt lat="45.538407005706844" lon="3.0528868744899005"><ele>610.0</ele><time>2026-05-02T10:24:43.001Z</time></trkpt><trkpt lat="45.538356512141924" lon="3.0528317137834575"><ele>610.0</ele><time>2026-05-02T10:24:44.001Z</time></trkpt><trkpt lat="45.53834661769948" lon="3.052729289604589"><ele>610.0</ele><time>2026-05-02T10:24:45.001Z</time></trkpt><trkpt lat="45.538361117578035" lon="3.0526014410999363"><ele>610.0</ele><time>2026-05-02T10:24:46.001Z</time></trkpt><trkpt lat="45.53840423319796" lon="3.0524664554131777"><ele>610.0</ele><time>2026-05-02T10:24:47.001Z</time></trkpt><trkpt lat="45.538436444202034" lon="3.05230731669879"><ele>610.0</ele><time>2026-05-02T10:24:48.001Z</time></trkpt><trkpt lat="45.5384850623188" lon="3.0521195218489194"><ele>610.0</ele><time>2026-05-02T10:24:49.001Z</time></trkpt><trkpt lat="45.53850648776367" lon="3.0519279331020512"><ele>610.0</ele><time>2026-05-02T10:24:50.001Z</time></trkpt><trkpt lat="45.538505084503434" lon="3.0517602549183813"><ele>610.0</ele><time>2026-05-02T10:24:51.001Z</time></trkpt><trkpt lat="45.53848127204707" lon="3.0516053852917095"><ele>610.0</ele><time>2026-05-02T10:24:52.001Z</time></trkpt><trkpt lat="45.53843587867075" lon="3.051466159762216"><ele>610.0</ele><time>2026-05-02T10:24:53.001Z</time></trkpt><trkpt lat="45.53836634895621" lon="3.051341207683024"><ele>610.0</ele><time>2026-05-02T10:24:54.001Z</time></trkpt><trkpt lat="45.538265803068576" lon="3.0512332077489512"><ele>608.5</ele><time>2026-05-02T10:24:55.001Z</time></trkpt><trkpt lat="45.53814664015088" lon="3.0511321678188352"><ele>607.0</ele><time>2026-05-02T10:24:56.001Z</time></trkpt><trkpt lat="45.538023978941865" lon="3.0510207296448884"><ele>605.5</ele><time>2026-05-02T10:24:57.001Z</time></trkpt><trkpt lat="45.53790893483988" lon="3.0508792709292587"><ele>604.0</ele><time>2026-05-02T10:24:58.001Z</time></trkpt><trkpt lat="45.53777450927121" lon="3.0507821239194537"><ele>604.0</ele><time>2026-05-02T10:24:59.001Z</time></trkpt><trkpt lat="45.53764739012178" lon="3.050663146464429"><ele>604.0</ele><time>2026-05-02T10:25:00.001Z</time></trkpt><trkpt lat="45.53751571217115" lon="3.0505610746016045"><ele>604.0</ele><time>2026-05-02T10:25:01.001Z</time></trkpt><trkpt lat="45.53738344595852" lon="3.0504757581548754"><ele>604.0</ele><time>2026-05-02T10:25:02.001Z</time></trkpt><trkpt lat="45.537246794770184" lon="3.0503923351866695"><ele>604.0</ele><time>2026-05-02T10:25:03.001Z</time></trkpt><trkpt lat="45.537112251373124" lon="3.050311036007826"><ele>604.0</ele><time>2026-05-02T10:25:04.001Z</time></trkpt><trkpt lat="45.53697730917444" lon="3.0502314433311937"><ele>604.0</ele><time>2026-05-02T10:25:05.001Z</time></trkpt><trkpt lat="45.53685002212942" lon="3.050123631084276"><ele>604.0</ele><time>2026-05-02T10:25:06.001Z</time></trkpt><trkpt lat="45.536716361565446" lon="3.050031479689493"><ele>604.0</ele><time>2026-05-02T10:25:07.001Z</time></trkpt><trkpt lat="45.53658348101641" lon="3.049940019719982"><ele>604.0</ele><time>2026-05-02T10:25:08.001Z</time></trkpt><trkpt lat="45.53644746201776" lon="3.0498411789172466"><ele>604.0</ele><time>2026-05-02T10:25:09.001Z</time></trkpt><trkpt lat="45.53631878553896" lon="3.0497376092867157"><ele>604.0</ele><time>2026-05-02T10:25:10.001Z</time></trkpt><trkpt lat="45.536184657872525" lon="3.049634956247131"><ele>610.25</ele><time>2026-05-02T10:25:11.001Z</time></trkpt><trkpt lat="45.536052417780176" lon="3.049532214173371"><ele>616.5</ele><time>2026-05-02T10:25:12.001Z</time></trkpt><trkpt lat="45.535920514041266" lon="3.0494272264745437"><ele>622.75</ele><time>2026-05-02T10:25:13.001Z</time></trkpt><trkpt lat="45.53578735539392" lon="3.049355235306205"><ele>629.0</ele><time>2026-05-02T10:25:14.001Z</time></trkpt><trkpt lat="45.53565072574317" lon="3.0492822686616265"><ele>629.0</ele><time>2026-05-02T10:25:15.001Z</time></trkpt><trkpt lat="45.53550418669959" lon="3.0492203614640583"><ele>629.0</ele><time>2026-05-02T10:25:16.001Z</time></trkpt><trkpt lat="45.535350270775794" lon="3.0491792558320543"><ele>629.0</ele><time>2026-05-02T10:25:17.001Z</time></trkpt><trkpt lat="45.535213435960515" lon="3.0491025953423345"><ele>631.25</ele><time>2026-05-02T10:25:18.001Z</time></trkpt><trkpt lat="45.53508893321257" lon="3.0490069201019416"><ele>633.5</ele><time>2026-05-02T10:25:19.001Z</time></trkpt><trkpt lat="45.53498804224282" lon="3.048894379742857"><ele>635.75</ele><time>2026-05-02T10:25:20.001Z</time></trkpt><trkpt lat="45.53489624626938" lon="3.0487700495000496"><ele>638.0</ele><time>2026-05-02T10:25:21.001Z</time></trkpt><trkpt lat="45.53477778455028" lon="3.0486883069662243"><ele>638.0</ele><time>2026-05-02T10:25:22.001Z</time></trkpt><trkpt lat="45.53467093298925" lon="3.0486493384890996"><ele>638.0</ele><time>2026-05-02T10:25:23.001Z</time></trkpt><trkpt lat="45.5345632761382" lon="3.0486739562992806"><ele>638.0</ele><time>2026-05-02T10:25:24.001Z</time></trkpt><trkpt lat="45.534449150215174" lon="3.0487406071163208"><ele>638.0</ele><time>2026-05-02T10:25:25.001Z</time></trkpt><trkpt lat="45.53432712671245" lon="3.048832445002568"><ele>639.0</ele><time>2026-05-02T10:25:26.001Z</time></trkpt><trkpt lat="45.53419004513543" lon="3.0488930893543107"><ele>640.0</ele><time>2026-05-02T10:25:27.001Z</time></trkpt><trkpt lat="45.53405944168962" lon="3.048967624979807"><ele>641.0</ele><time>2026-05-02T10:25:28.001Z</time></trkpt><trkpt lat="45.53391911196826" lon="3.0490450427276445"><ele>642.0</ele><time>2026-05-02T10:25:29.001Z</time></trkpt><trkpt lat="45.5337761942348" lon="3.0491159074343472"><ele>644.6666666666666</ele><time>2026-05-02T10:25:30.001Z</time></trkpt><trkpt lat="45.53363172098653" lon="3.0491741491934548"><ele>647.3333333333333</ele><time>2026-05-02T10:25:31.001Z</time></trkpt><trkpt lat="45.53348411935377" lon="3.0492241732382457"><ele>650.0</ele><time>2026-05-02T10:25:32.001Z</time></trkpt><trkpt lat="45.53333995843111" lon="3.04927323145358"><ele>650.0</ele><time>2026-05-02T10:25:33.001Z</time></trkpt><trkpt lat="45.533187719278466" lon="3.049325665364316"><ele>650.0</ele><time>2026-05-02T10:25:34.001Z</time></trkpt><trkpt lat="45.533041204836344" lon="3.049371308432826"><ele>650.0</ele><time>2026-05-02T10:25:35.001Z</time></trkpt><trkpt lat="45.53289301801142" lon="3.049392522607941"><ele>650.75</ele><time>2026-05-02T10:25:36.001Z</time></trkpt><trkpt lat="45.53274693384694" lon="3.049382347311349"><ele>651.5</ele><time>2026-05-02T10:25:37.001Z</time></trkpt><trkpt lat="45.53259271721468" lon="3.049362660103874"><ele>652.25</ele><time>2026-05-02T10:25:38.001Z</time></trkpt><trkpt lat="45.53244614683508" lon="3.0493419745352077"><ele>653.0</ele><time>2026-05-02T10:25:39.001Z</time></trkpt><trkpt lat="45.53230056536221" lon="3.0493491240389337"><ele>653.0</ele><time>2026-05-02T10:25:40.001Z</time></trkpt><trkpt lat="45.5321661995222" lon="3.0493209281765727"><ele>653.0</ele><time>2026-05-02T10:25:41.001Z</time></trkpt><trkpt lat="45.53202623717458" lon="3.049349125757101"><ele>653.0</ele><time>2026-05-02T10:25:42.001Z</time></trkpt><trkpt lat="45.531890385761535" lon="3.0493789690943887"><ele>653.0</ele><time>2026-05-02T10:25:43.001Z</time></trkpt><trkpt lat="45.53174771512856" lon="3.0494377956589185"><ele>654.0</ele><time>2026-05-02T10:25:44.001Z</time></trkpt><trkpt lat="45.53160953868685" lon="3.0494897137752632"><ele>655.0</ele><time>2026-05-02T10:25:45.001Z</time></trkpt><trkpt lat="45.5314773017505" lon="3.0495482797547835"><ele>656.0</ele><time>2026-05-02T10:25:46.001Z</time></trkpt><trkpt lat="45.53133698517644" lon="3.0496020639672383"><ele>657.0</ele><time>2026-05-02T10:25:47.001Z</time></trkpt><trkpt lat="45.53119823108801" lon="3.049659935839297"><ele>659.0</ele><time>2026-05-02T10:25:48.001Z</time></trkpt><trkpt lat="45.53104162062164" lon="3.049695139392209"><ele>661.0</ele><time>2026-05-02T10:25:49.001Z</time></trkpt><trkpt lat="45.53089311644938" lon="3.049765464719379"><ele>663.0</ele><time>2026-05-02T10:25:50.001Z</time></trkpt><trkpt lat="45.53073245709059" lon="3.049797399095182"><ele>663.0</ele><time>2026-05-02T10:25:51.001Z</time></trkpt><trkpt lat="45.53057259189485" lon="3.0497898983866554"><ele>663.0</ele><time>2026-05-02T10:25:52.001Z</time></trkpt><trkpt lat="45.53041772648997" lon="3.0498042986004115"><ele>663.0</ele><time>2026-05-02T10:25:53.001Z</time></trkpt><trkpt lat="45.53026427554978" lon="3.049827862404547"><ele>665.0</ele><time>2026-05-02T10:25:54.001Z</time></trkpt><trkpt lat="45.53011535267011" lon="3.0498688730167087"><ele>667.0</ele><time>2026-05-02T10:25:55.001Z</time></trkpt><trkpt lat="45.52997549990412" lon="3.0499359427165964"><ele>669.0</ele><time>2026-05-02T10:25:56.001Z</time></trkpt><trkpt lat="45.52982439345734" lon="3.049988553187238"><ele>671.75</ele><time>2026-05-02T10:25:57.001Z</time></trkpt><trkpt lat="45.52967761092102" lon="3.050009652719478"><ele>674.5</ele><time>2026-05-02T10:25:58.001Z</time></trkpt><trkpt lat="45.52954368945624" lon="3.050043015017028"><ele>677.25</ele><time>2026-05-02T10:25:59.001Z</time></trkpt><trkpt lat="45.52941438619722" lon="3.050069362957632"><ele>680.0</ele><time>2026-05-02T10:26:00.001Z</time></trkpt><trkpt lat="45.52928596654538" lon="3.050085524916319"><ele>680.5</ele><time>2026-05-02T10:26:01.001Z</time></trkpt><trkpt lat="45.529150510816535" lon="3.0500747400667914"><ele>681.0</ele><time>2026-05-02T10:26:02.001Z</time></trkpt><trkpt lat="45.52901912677934" lon="3.05005352043869"><ele>681.5</ele><time>2026-05-02T10:26:03.001Z</time></trkpt><trkpt lat="45.52889743862145" lon="3.0500423765953215"><ele>682.0</ele><time>2026-05-02T10:26:04.001Z</time></trkpt><trkpt lat="45.52879923082706" lon="3.050084005958"><ele>682.1666666666667</ele><time>2026-05-02T10:26:05.001Z</time></trkpt><trkpt lat="45.52871164910151" lon="3.050126732420808"><ele>682.3333333333334</ele><time>2026-05-02T10:26:06.001Z</time></trkpt><trkpt lat="45.528651560937014" lon="3.0502006717816936"><ele>682.5</ele><time>2026-05-02T10:26:07.001Z</time></trkpt><trkpt lat="45.528610151751806" lon="3.0503081902260893"><ele>682.6666666666666</ele><time>2026-05-02T10:26:08.001Z</time></trkpt><trkpt lat="45.52859982983099" lon="3.0504291713898617"><ele>682.8333333333333</ele><time>2026-05-02T10:26:09.001Z</time></trkpt><trkpt lat="45.52862291665706" lon="3.0505480879919182"><ele>683.0</ele><time>2026-05-02T10:26:10.001Z</time></trkpt><trkpt lat="45.52867598325507" lon="3.050653076894264"><ele>682.8</ele><time>2026-05-02T10:26:11.001Z</time></trkpt><trkpt lat="45.52875092839292" lon="3.0507209792391046"><ele>682.5999999999999</ele><time>2026-05-02T10:26:12.001Z</time></trkpt><trkpt lat="45.528840510091236" lon="3.050749408620194"><ele>682.4000000000001</ele><time>2026-05-02T10:26:13.001Z</time></trkpt><trkpt lat="45.52894924851131" lon="3.0507500658029145"><ele>682.2</ele><time>2026-05-02T10:26:14.001Z</time></trkpt><trkpt lat="45.529079383778154" lon="3.050730719077826"><ele>682.0</ele><time>2026-05-02T10:26:15.001Z</time></trkpt><trkpt lat="45.52923462343088" lon="3.0507122595122222"><ele>682.0</ele><time>2026-05-02T10:26:16.001Z</time></trkpt><trkpt lat="45.52937599291334" lon="3.0507552896101537"><ele>682.0</ele><time>2026-05-02T10:26:17.001Z</time></trkpt><trkpt lat="45.52952779621759" lon="3.05077489448306"><ele>682.0</ele><time>2026-05-02T10:26:18.001Z</time></trkpt><trkpt lat="45.52968950375404" lon="3.050827309731276"><ele>686.6666666666667</ele><time>2026-05-02T10:26:19.001Z</time></trkpt><trkpt lat="45.529877487610264" lon="3.0508846366323166"><ele>691.3333333333334</ele><time>2026-05-02T10:26:20.001Z</time></trkpt><trkpt lat="45.53007266026305" lon="3.050982032135388"><ele>696.0</ele><time>2026-05-02T10:26:21.001Z</time></trkpt><trkpt lat="45.530291728918456" lon="3.0510670142221774"><ele>695.3333333333334</ele><time>2026-05-02T10:26:22.001Z</time></trkpt><trkpt lat="45.530522367119254" lon="3.051109475032073"><ele>694.6666666666667</ele><time>2026-05-02T10:26:23.001Z</time></trkpt><trkpt lat="45.530715981425814" lon="3.051172508210331"><ele>694.0</ele><time>2026-05-02T10:26:24.001Z</time></trkpt><trkpt lat="45.53088454430914" lon="3.0512501240590613"><ele>694.0</ele><time>2026-05-02T10:26:25.001Z</time></trkpt><trkpt lat="45.53105373232772" lon="3.0513254814417707"><ele>694.0</ele><time>2026-05-02T10:26:26.001Z</time></trkpt><trkpt lat="45.53122209581503" lon="3.051436546939041"><ele>694.0</ele><time>2026-05-02T10:26:27.001Z</time></trkpt><trkpt lat="45.53138221349515" lon="3.0515345862141534"><ele>698.3333333333334</ele><time>2026-05-02T10:26:28.001Z</time></trkpt><trkpt lat="45.53153767023201" lon="3.0516574844696507"><ele>702.6666666666666</ele><time>2026-05-02T10:26:29.001Z</time></trkpt><trkpt lat="45.53169151285768" lon="3.051799030654713"><ele>707.0</ele><time>2026-05-02T10:26:30.001Z</time></trkpt><trkpt lat="45.53185313654334" lon="3.0519273518407597"><ele>707.0</ele><time>2026-05-02T10:26:31.001Z</time></trkpt><trkpt lat="45.531981983992715" lon="3.0520612263856557"><ele>707.0</ele><time>2026-05-02T10:26:32.001Z</time></trkpt><trkpt lat="45.532064373653945" lon="3.0522002194806825"><ele>707.0</ele><time>2026-05-02T10:26:33.001Z</time></trkpt><trkpt lat="45.532130063364384" lon="3.0523168519219506"><ele>707.0</ele><time>2026-05-02T10:26:34.001Z</time></trkpt><trkpt lat="45.53214904886705" lon="3.05250025197623"><ele>708.6666666666666</ele><time>2026-05-02T10:26:35.001Z</time></trkpt><trkpt lat="45.53217310021492" lon="3.0527368136816566"><ele>710.3333333333334</ele><time>2026-05-02T10:26:36.001Z</time></trkpt><trkpt lat="45.53222354943524" lon="3.053004117291942"><ele>712.0</ele><time>2026-05-02T10:26:37.001Z</time></trkpt><trkpt lat="45.532301926504246" lon="3.0532440721940506"><ele>714.0</ele><time>2026-05-02T10:26:38.001Z</time></trkpt><trkpt lat="45.532450867857925" lon="3.0534671576331527"><ele>716.0</ele><time>2026-05-02T10:26:39.001Z</time></trkpt><trkpt lat="45.53256011671161" lon="3.0537153278260014"><ele>718.0</ele><time>2026-05-02T10:26:40.001Z</time></trkpt><trkpt lat="45.5326160050853" lon="3.0539469660427505"><ele>720.6666666666667</ele><time>2026-05-02T10:26:41.001Z</time></trkpt><trkpt lat="45.5326757518536" lon="3.054230777557608"><ele>723.3333333333334</ele><time>2026-05-02T10:26:42.001Z</time></trkpt><trkpt lat="45.53272570498009" lon="3.0544559761429237"><ele>726.0</ele><time>2026-05-02T10:26:43.001Z</time></trkpt><trkpt lat="45.53273980480899" lon="3.0546325757930526"><ele>726.0</ele><time>2026-05-02T10:26:44.001Z</time></trkpt><trkpt lat="45.532702239740566" lon="3.0548234075813134"><ele>726.0</ele><time>2026-05-02T10:26:45.001Z</time></trkpt><trkpt lat="45.53266551566153" lon="3.0550733829375742"><ele>726.0</ele><time>2026-05-02T10:26:46.001Z</time></trkpt><trkpt lat="45.53265198992257" lon="3.055277392233344"><ele>726.6666666666666</ele><time>2026-05-02T10:26:47.001Z</time></trkpt><trkpt lat="45.5326921677049" lon="3.0554508212198024"><ele>727.3333333333333</ele><time>2026-05-02T10:26:48.001Z</time></trkpt><trkpt lat="45.53279349078475" lon="3.055617274440126"><ele>728.0</ele><time>2026-05-02T10:26:49.001Z</time></trkpt><trkpt lat="45.53292261345402" lon="3.0558035702259114"><ele>726.6666666666666</ele><time>2026-05-02T10:26:50.001Z</time></trkpt><trkpt lat="45.53307308559093" lon="3.056002492539133"><ele>725.3333333333334</ele><time>2026-05-02T10:26:51.001Z</time></trkpt><trkpt lat="45.533219903759985" lon="3.0562160095818767"><ele>724.0</ele><time>2026-05-02T10:26:52.001Z</time></trkpt><trkpt lat="45.53334215922289" lon="3.0563935397188593"><ele>724.0</ele><time>2026-05-02T10:26:53.001Z</time></trkpt><trkpt lat="45.5334361401718" lon="3.0564906458647503"><ele>724.0</ele><time>2026-05-02T10:26:54.001Z</time></trkpt><trkpt lat="45.533533980429034" lon="3.0565436406176087"><ele>724.0</ele><time>2026-05-02T10:26:55.001Z</time></trkpt><trkpt lat="45.53363070710801" lon="3.0566063797293377"><ele>724.0</ele><time>2026-05-02T10:26:56.001Z</time></trkpt><trkpt lat="45.53370018499546" lon="3.0567091473406847"><ele>724.0</ele><time>2026-05-02T10:26:57.001Z</time></trkpt><trkpt lat="45.533704897404384" lon="3.056893276966769"><ele>724.6666666666667</ele><time>2026-05-02T10:26:58.001Z</time></trkpt><trkpt lat="45.533707815439016" lon="3.0571302029359635"><ele>725.3333333333334</ele><time>2026-05-02T10:26:59.001Z</time></trkpt><trkpt lat="45.53375098297875" lon="3.0573829175995826"><ele>726.0</ele><time>2026-05-02T10:27:00.001Z</time></trkpt><trkpt lat="45.53378116251497" lon="3.0576717175771155"><ele>726.0</ele><time>2026-05-02T10:27:01.001Z</time></trkpt><trkpt lat="45.53382838394093" lon="3.0579532051123905"><ele>726.0</ele><time>2026-05-02T10:27:02.001Z</time></trkpt><trkpt lat="45.53388236610191" lon="3.05825747163201"><ele>726.0</ele><time>2026-05-02T10:27:03.001Z</time></trkpt><trkpt lat="45.53394179834411" lon="3.058572682805116"><ele>728.3333333333334</ele><time>2026-05-02T10:27:04.001Z</time></trkpt><trkpt lat="45.53400800587501" lon="3.058850211008311"><ele>730.6666666666667</ele><time>2026-05-02T10:27:05.001Z</time></trkpt><trkpt lat="45.53402938289074" lon="3.0591059377394543"><ele>733.0</ele><time>2026-05-02T10:27:06.001Z</time></trkpt><trkpt lat="45.53402507090893" lon="3.0593594859909543"><ele>735.0</ele><time>2026-05-02T10:27:07.001Z</time></trkpt><trkpt lat="45.53399404289798" lon="3.0596382643918623"><ele>737.0</ele><time>2026-05-02T10:27:08.001Z</time></trkpt><trkpt lat="45.533969647194304" lon="3.059928021983883"><ele>739.0</ele><time>2026-05-02T10:27:09.001Z</time></trkpt><trkpt lat="45.53393111756143" lon="3.0601377020609704"><ele>739.6666666666667</ele><time>2026-05-02T10:27:10.001Z</time></trkpt><trkpt lat="45.533854223597444" lon="3.0603014581442745"><ele>740.3333333333334</ele><time>2026-05-02T10:27:11.001Z</time></trkpt><trkpt lat="45.53374649277729" lon="3.060469589571364"><ele>741.0</ele><time>2026-05-02T10:27:12.001Z</time></trkpt><trkpt lat="45.53361937490499" lon="3.0606732264890075"><ele>746.6666666666666</ele><time>2026-05-02T10:27:13.001Z</time></trkpt><trkpt lat="45.53351261243347" lon="3.0609017260938933"><ele>752.3333333333333</ele><time>2026-05-02T10:27:14.001Z</time></trkpt><trkpt lat="45.533428704365946" lon="3.0611105348570495"><ele>758.0</ele><time>2026-05-02T10:27:15.001Z</time></trkpt><trkpt lat="45.53338809709911" lon="3.0613632186049853"><ele>757.6666666666666</ele><time>2026-05-02T10:27:16.001Z</time></trkpt><trkpt lat="45.53336590412033" lon="3.0616487448924237"><ele>757.3333333333334</ele><time>2026-05-02T10:27:17.001Z</time></trkpt><trkpt lat="45.53330729243091" lon="3.0619489359264507"><ele>757.0</ele><time>2026-05-02T10:27:18.001Z</time></trkpt><trkpt lat="45.53323093130431" lon="3.062254511872941"><ele>754.5</ele><time>2026-05-02T10:27:19.001Z</time></trkpt><trkpt lat="45.53312455759227" lon="3.0625560435449026"><ele>752.0</ele><time>2026-05-02T10:27:20.001Z</time></trkpt><trkpt lat="45.53301117308888" lon="3.062840521495688"><ele>752.0</ele><time>2026-05-02T10:27:21.001Z</time></trkpt><trkpt lat="45.5328990209256" lon="3.0630784139944502"><ele>752.0</ele><time>2026-05-02T10:27:22.001Z</time></trkpt><trkpt lat="45.532784760691264" lon="3.063274542520975"><ele>752.0</ele><time>2026-05-02T10:27:23.001Z</time></trkpt><trkpt lat="45.53267492864377" lon="3.0634534736702412"><ele>756.0</ele><time>2026-05-02T10:27:24.001Z</time></trkpt><trkpt lat="45.53257633241746" lon="3.063625227793002"><ele>760.0</ele><time>2026-05-02T10:27:25.001Z</time></trkpt><trkpt lat="45.53250463598872" lon="3.0638371457173017"><ele>764.0</ele><time>2026-05-02T10:27:26.001Z</time></trkpt><trkpt lat="45.53243001771659" lon="3.0640319278772075"><ele>763.0</ele><time>2026-05-02T10:27:27.001Z</time></trkpt><trkpt lat="45.532345927777975" lon="3.064173766198421"><ele>762.0</ele><time>2026-05-02T10:27:28.001Z</time></trkpt><trkpt lat="45.532256959476115" lon="3.064294411532612"><ele>761.0</ele><time>2026-05-02T10:27:29.001Z</time></trkpt><trkpt lat="45.53211231531394" lon="3.064383074208574"><ele>760.0</ele><time>2026-05-02T10:27:30.001Z</time></trkpt><trkpt lat="45.531960758001375" lon="3.064468452017974"><ele>763.3333333333334</ele><time>2026-05-02T10:27:31.001Z</time></trkpt><trkpt lat="45.531794138918066" lon="3.064558641947215"><ele>766.6666666666667</ele><time>2026-05-02T10:27:32.001Z</time></trkpt><trkpt lat="45.53160243044236" lon="3.064641544539511"><ele>770.0</ele><time>2026-05-02T10:27:33.001Z</time></trkpt><trkpt lat="45.53142094793065" lon="3.064715173925704"><ele>770.0</ele><time>2026-05-02T10:27:34.001Z</time></trkpt><trkpt lat="45.531232873773824" lon="3.0647952198321096"><ele>770.0</ele><time>2026-05-02T10:27:35.001Z</time></trkpt><trkpt lat="45.53103530994363" lon="3.0648768461445806"><ele>770.0</ele><time>2026-05-02T10:27:36.001Z</time></trkpt><trkpt lat="45.53085366750444" lon="3.0649535367709695"><ele>771.25</ele><time>2026-05-02T10:27:37.001Z</time></trkpt><trkpt lat="45.53069306939402" lon="3.0650190140606894"><ele>772.5</ele><time>2026-05-02T10:27:38.001Z</time></trkpt><trkpt lat="45.53055047283757" lon="3.0650767019189145"><ele>773.75</ele><time>2026-05-02T10:27:39.001Z</time></trkpt><trkpt lat="45.530437656322896" lon="3.065123479867874"><ele>775.0</ele><time>2026-05-02T10:27:40.001Z</time></trkpt><trkpt lat="45.53036013046949" lon="3.065175710794143"><ele>777.4</ele><time>2026-05-02T10:27:41.001Z</time></trkpt><trkpt lat="45.53027815340103" lon="3.065198172774532"><ele>779.8</ele><time>2026-05-02T10:27:43.001Z</time></trkpt><trkpt lat="45.530214141068974" lon="3.065285839225115"><ele>782.2</ele><time>2026-05-02T10:29:17Z</time></trkpt><trkpt lat="45.530140753547705" lon="3.06539675180514"><ele>784.6</ele><time>2026-05-02T10:29:19Z</time></trkpt><trkpt lat="45.530058485758445" lon="3.0655484273443223"><ele>787.0</ele><time>2026-05-02T10:29:21Z</time></trkpt><trkpt lat="45.53000460765296" lon="3.065629461650507"><ele>786.9999999999999</ele><time>2026-05-02T10:29:22Z</time></trkpt><trkpt lat="45.529954032340264" lon="3.0657271246335784"><ele>787.0</ele><time>2026-05-02T10:29:23Z</time></trkpt><trkpt lat="45.52988857252338" lon="3.065813387687491"><ele>787.0</ele><time>2026-05-02T10:29:24Z</time></trkpt><trkpt lat="45.5298237421945" lon="3.0659038379000747"><ele>787.0</ele><time>2026-05-02T10:29:25Z</time></trkpt><trkpt lat="45.529762706388674" lon="3.065999563178695"><ele>786.9999999999999</ele><time>2026-05-02T10:29:26Z</time></trkpt><trkpt lat="45.52969998386668" lon="3.0660872675815174"><ele>787.0</ele><time>2026-05-02T10:29:27Z</time></trkpt><trkpt lat="45.529668590213646" lon="3.0661846501580534"><ele>786.6</ele><time>2026-05-02T10:29:28Z</time></trkpt><trkpt lat="45.52963927973681" lon="3.066276123909773"><ele>786.2</ele><time>2026-05-02T10:29:29Z</time></trkpt><trkpt lat="45.529631968081816" lon="3.066390815804578"><ele>785.8</ele><time>2026-05-02T10:29:30Z</time></trkpt><trkpt lat="45.529648162017295" lon="3.0665218595266883"><ele>785.4</ele><time>2026-05-02T10:29:31Z</time></trkpt><trkpt lat="45.52968085044856" lon="3.0666684646375355"><ele>785.0</ele><time>2026-05-02T10:29:32Z</time></trkpt><trkpt lat="45.529723378164135" lon="3.0668059201053133"><ele>785.0</ele><time>2026-05-02T10:29:33Z</time></trkpt><trkpt lat="45.52977104110468" lon="3.066947048010336"><ele>785.0</ele><time>2026-05-02T10:29:34Z</time></trkpt><trkpt lat="45.52981366297299" lon="3.0670834254910444"><ele>785.0</ele><time>2026-05-02T10:29:35Z</time></trkpt><trkpt lat="45.529832575871936" lon="3.067213037313106"><ele>785.0</ele><time>2026-05-02T10:29:36Z</time></trkpt><trkpt lat="45.52986943468638" lon="3.067343190548422"><ele>785.0</ele><time>2026-05-02T10:29:37Z</time></trkpt><trkpt lat="45.52986929449094" lon="3.0674824363702045"><ele>786.2</ele><time>2026-05-02T10:29:38Z</time></trkpt><trkpt lat="45.52986806058976" lon="3.067620779352072"><ele>787.4</ele><time>2026-05-02T10:29:39Z</time></trkpt><trkpt lat="45.52985130196373" lon="3.0677344450862996"><ele>788.5999999999999</ele><time>2026-05-02T10:29:40Z</time></trkpt><trkpt lat="45.529820848962174" lon="3.0678481759109144"><ele>789.8</ele><time>2026-05-02T10:29:41Z</time></trkpt><trkpt lat="45.52976916595505" lon="3.0679578418755793"><ele>791.0</ele><time>2026-05-02T10:29:42Z</time></trkpt><trkpt lat="45.52969913084841" lon="3.068080874544197"><ele>791.0</ele><time>2026-05-02T10:29:43Z</time></trkpt><trkpt lat="45.52960540814439" lon="3.068173328801063"><ele>791.0</ele><time>2026-05-02T10:29:44Z</time></trkpt><trkpt lat="45.529506227476936" lon="3.0682697787448943"><ele>791.0</ele><time>2026-05-02T10:29:45Z</time></trkpt><trkpt lat="45.52940538245609" lon="3.0683521324115954"><ele>791.0</ele><time>2026-05-02T10:29:46Z</time></trkpt><trkpt lat="45.52930331238995" lon="3.0684217451922375"><ele>792.5999999999999</ele><time>2026-05-02T10:29:47Z</time></trkpt><trkpt lat="45.52920549376702" lon="3.068469447792226"><ele>794.2</ele><time>2026-05-02T10:29:48Z</time></trkpt><trkpt lat="45.529101984496336" lon="3.0684889622600977"><ele>795.8</ele><time>2026-05-02T10:29:49Z</time></trkpt><trkpt lat="45.528993353366616" lon="3.068478682123808"><ele>797.4000000000001</ele><time>2026-05-02T10:29:50Z</time></trkpt><trkpt lat="45.528880874841754" lon="3.06844908098937"><ele>799.0</ele><time>2026-05-02T10:29:51Z</time></trkpt><trkpt lat="45.528761706217466" lon="3.068413369396837"><ele>800.5</ele><time>2026-05-02T10:29:52Z</time></trkpt><trkpt lat="45.52863931761435" lon="3.0683760753882865"><ele>802.0</ele><time>2026-05-02T10:29:53Z</time></trkpt><trkpt lat="45.52851268050214" lon="3.0683346768437416"><ele>803.5</ele><time>2026-05-02T10:29:54Z</time></trkpt><trkpt lat="45.52838306611087" lon="3.068313001028389"><ele>805.0</ele><time>2026-05-02T10:29:55Z</time></trkpt><trkpt lat="45.52827111660076" lon="3.0682442118650655"><ele>806.2</ele><time>2026-05-02T10:29:56Z</time></trkpt><trkpt lat="45.52815909651968" lon="3.0681956993290176"><ele>807.4</ele><time>2026-05-02T10:29:57Z</time></trkpt><trkpt lat="45.52805195349612" lon="3.0681386609927306"><ele>808.5999999999999</ele><time>2026-05-02T10:29:58Z</time></trkpt><trkpt lat="45.527951799876654" lon="3.068071297286145"><ele>809.8</ele><time>2026-05-02T10:29:59Z</time></trkpt><trkpt lat="45.527883855065326" lon="3.06799336829017"><ele>811.0</ele><time>2026-05-02T10:30:00Z</time></trkpt><trkpt lat="45.527841077614184" lon="3.0678910809550572"><ele>811.8</ele><time>2026-05-02T10:30:01Z</time></trkpt><trkpt lat="45.527811052877816" lon="3.06776870692988"><ele>812.5999999999999</ele><time>2026-05-02T10:30:02Z</time></trkpt><trkpt lat="45.52783672974439" lon="3.0676505796779727"><ele>813.4</ele><time>2026-05-02T10:30:03Z</time></trkpt><trkpt lat="45.52785104571198" lon="3.0674963450430663"><ele>814.2</ele><time>2026-05-02T10:30:04Z</time></trkpt><trkpt lat="45.52789497938788" lon="3.0673625003840796"><ele>815.0</ele><time>2026-05-02T10:30:05Z</time></trkpt><trkpt lat="45.52793588514458" lon="3.067214402422798"><ele>815.0</ele><time>2026-05-02T10:30:06Z</time></trkpt><trkpt lat="45.527972268158855" lon="3.0670551216345707"><ele>815.0</ele><time>2026-05-02T10:30:07Z</time></trkpt><trkpt lat="45.52800720747512" lon="3.066892909941974"><ele>815.0</ele><time>2026-05-02T10:30:08Z</time></trkpt><trkpt lat="45.52802736355833" lon="3.066755465491775"><ele>815.0</ele><time>2026-05-02T10:30:09Z</time></trkpt><trkpt lat="45.52803702460115" lon="3.0666259320506026"><ele>815.0</ele><time>2026-05-02T10:30:10Z</time></trkpt><trkpt lat="45.52801815551937" lon="3.0665131374778474"><ele>815.0</ele><time>2026-05-02T10:30:11Z</time></trkpt><trkpt lat="45.52797631440568" lon="3.066398867048058"><ele>815.0</ele><time>2026-05-02T10:30:12Z</time></trkpt><trkpt lat="45.52790067040322" lon="3.0663012900628632"><ele>815.0</ele><time>2026-05-02T10:30:13Z</time></trkpt><trkpt lat="45.52781291434514" lon="3.0662173780918422"><ele>815.0</ele><time>2026-05-02T10:30:14Z</time></trkpt><trkpt lat="45.52770808432466" lon="3.0661287789672182"><ele>815.0</ele><time>2026-05-02T10:30:15Z</time></trkpt><trkpt lat="45.527601467817725" lon="3.0660533921718005"><ele>817.25</ele><time>2026-05-02T10:30:16Z</time></trkpt><trkpt lat="45.52748203882408" lon="3.0659927539269045"><ele>819.5</ele><time>2026-05-02T10:30:17Z</time></trkpt><trkpt lat="45.52735415445194" lon="3.065951611371702"><ele>821.75</ele><time>2026-05-02T10:30:18Z</time></trkpt><trkpt lat="45.527218417330694" lon="3.065933595780115"><ele>824.0</ele><time>2026-05-02T10:30:19Z</time></trkpt><trkpt lat="45.52708689301439" lon="3.065882688070289"><ele>826.0</ele><time>2026-05-02T10:30:20Z</time></trkpt><trkpt lat="45.526947433058304" lon="3.0658581103238234"><ele>828.0</ele><time>2026-05-02T10:30:21Z</time></trkpt><trkpt lat="45.526818818106435" lon="3.065863133543227"><ele>830.0</ele><time>2026-05-02T10:30:22Z</time></trkpt><trkpt lat="45.52669359630359" lon="3.065824737528873"><ele>832.0</ele><time>2026-05-02T10:30:23Z</time></trkpt><trkpt lat="45.526567624768994" lon="3.065825887142417"><ele>832.0</ele><time>2026-05-02T10:30:24Z</time></trkpt><trkpt lat="45.526442918586675" lon="3.0658369586723397"><ele>832.0</ele><time>2026-05-02T10:30:25Z</time></trkpt><trkpt lat="45.52632082987744" lon="3.0658432210501183"><ele>832.0</ele><time>2026-05-02T10:30:26Z</time></trkpt><trkpt lat="45.52620079728557" lon="3.065820778017232"><ele>832.0</ele><time>2026-05-02T10:30:27Z</time></trkpt><trkpt lat="45.526073452980135" lon="3.0657820217968044"><ele>835.25</ele><time>2026-05-02T10:30:28Z</time></trkpt><trkpt lat="45.52594552857112" lon="3.0657384793283797"><ele>838.5</ele><time>2026-05-02T10:30:29Z</time></trkpt><trkpt lat="45.52581820838224" lon="3.0656960035744225"><ele>841.75</ele><time>2026-05-02T10:30:30Z</time></trkpt><trkpt lat="45.525696461191025" lon="3.0656572693788124"><ele>845.0</ele><time>2026-05-02T10:30:31Z</time></trkpt><trkpt lat="45.52558138603514" lon="3.0656286249160822"><ele>845.0</ele><time>2026-05-02T10:30:32Z</time></trkpt><trkpt lat="45.52547926576363" lon="3.0656202491107183"><ele>845.0</ele><time>2026-05-02T10:30:33Z</time></trkpt><trkpt lat="45.525384809282414" lon="3.065635827207581"><ele>845.0</ele><time>2026-05-02T10:30:34Z</time></trkpt><trkpt lat="45.525289192571044" lon="3.065695314827246"><ele>845.0</ele><time>2026-05-02T10:30:35Z</time></trkpt><trkpt lat="45.52519767541657" lon="3.065783144653134"><ele>845.0</ele><time>2026-05-02T10:30:36Z</time></trkpt><trkpt lat="45.525104060187196" lon="3.0658735805011634"><ele>844.75</ele><time>2026-05-02T10:30:37Z</time></trkpt><trkpt lat="45.524994184129774" lon="3.065938324399489"><ele>844.5</ele><time>2026-05-02T10:30:38Z</time></trkpt><trkpt lat="45.52488794972771" lon="3.065939594842387"><ele>844.25</ele><time>2026-05-02T10:30:39Z</time></trkpt><trkpt lat="45.52477438343698" lon="3.0659207105761155"><ele>844.0</ele><time>2026-05-02T10:30:40Z</time></trkpt><trkpt lat="45.52465786394239" lon="3.0658828753276643"><ele>842.25</ele><time>2026-05-02T10:30:41Z</time></trkpt><trkpt lat="45.52454618410123" lon="3.0658127812296665"><ele>840.5</ele><time>2026-05-02T10:30:42Z</time></trkpt><trkpt lat="45.524436225045214" lon="3.065728731882656"><ele>838.75</ele><time>2026-05-02T10:30:43Z</time></trkpt><trkpt lat="45.524320553850835" lon="3.065637362034593"><ele>837.0</ele><time>2026-05-02T10:30:44Z</time></trkpt><trkpt lat="45.5242060833771" lon="3.0655434003372504"><ele>837.0</ele><time>2026-05-02T10:30:45Z</time></trkpt><trkpt lat="45.52409126119882" lon="3.0654491519648324"><ele>837.0</ele><time>2026-05-02T10:30:46Z</time></trkpt><trkpt lat="45.52398705260888" lon="3.0653636133379325"><ele>837.0</ele><time>2026-05-02T10:30:47Z</time></trkpt><trkpt lat="45.52388933644601" lon="3.065294635865137"><ele>837.0</ele><time>2026-05-02T10:30:48Z</time></trkpt><trkpt lat="45.52379301128783" lon="3.0652674089112653"><ele>837.6</ele><time>2026-05-02T10:30:49Z</time></trkpt><trkpt lat="45.52369862344064" lon="3.06523827831865"><ele>838.2</ele><time>2026-05-02T10:30:50Z</time></trkpt><trkpt lat="45.52359454478889" lon="3.0652544544323623"><ele>838.8</ele><time>2026-05-02T10:30:51Z</time></trkpt><trkpt lat="45.52348222980397" lon="3.065304291066589"><ele>839.4</ele><time>2026-05-02T10:30:52Z</time></trkpt><trkpt lat="45.523360757241505" lon="3.065346123543062"><ele>840.0</ele><time>2026-05-02T10:30:53Z</time></trkpt><trkpt lat="45.523243241134445" lon="3.0653860739201115"><ele>840.0</ele><time>2026-05-02T10:30:54Z</time></trkpt><trkpt lat="45.52313838813456" lon="3.0654129699903856"><ele>840.0</ele><time>2026-05-02T10:30:55Z</time></trkpt><trkpt lat="45.52303251191497" lon="3.065433732971739"><ele>840.0</ele><time>2026-05-02T10:30:56Z</time></trkpt><trkpt lat="45.52292326329329" lon="3.0654480938319932"><ele>840.0</ele><time>2026-05-02T10:30:57Z</time></trkpt><trkpt lat="45.522813237934336" lon="3.065458569298875"><ele>840.0</ele><time>2026-05-02T10:30:58Z</time></trkpt><trkpt lat="45.52271223345929" lon="3.065468262232548"><ele>838.5</ele><time>2026-05-02T10:30:59Z</time></trkpt><trkpt lat="45.52260209211204" lon="3.065493584718793"><ele>837.0</ele><time>2026-05-02T10:31:00Z</time></trkpt><trkpt lat="45.52249362256054" lon="3.0655581438711454"><ele>835.5</ele><time>2026-05-02T10:31:01Z</time></trkpt><trkpt lat="45.5223748496188" lon="3.0656231815051593"><ele>834.0</ele><time>2026-05-02T10:31:02Z</time></trkpt><trkpt lat="45.52224616425416" lon="3.065704042430732"><ele>834.0</ele><time>2026-05-02T10:31:03Z</time></trkpt><trkpt lat="45.52210999841938" lon="3.0657764145425905"><ele>834.0</ele><time>2026-05-02T10:31:04Z</time></trkpt><trkpt lat="45.52197420297435" lon="3.065866227130183"><ele>834.0</ele><time>2026-05-02T10:31:05Z</time></trkpt><trkpt lat="45.52183313688465" lon="3.065957752816492"><ele>837.6666666666667</ele><time>2026-05-02T10:31:06Z</time></trkpt><trkpt lat="45.52169454620632" lon="3.0660472426095424"><ele>841.3333333333334</ele><time>2026-05-02T10:31:07Z</time></trkpt><trkpt lat="45.52154731503389" lon="3.0661612053462766"><ele>845.0</ele><time>2026-05-02T10:31:08Z</time></trkpt><trkpt lat="45.52139759463692" lon="3.0662642302758445"><ele>845.0</ele><time>2026-05-02T10:31:09Z</time></trkpt><trkpt lat="45.52127103946676" lon="3.0663501265462743"><ele>845.0</ele><time>2026-05-02T10:31:10Z</time></trkpt><trkpt lat="45.52117341985511" lon="3.0664223102113795"><ele>845.0</ele><time>2026-05-02T10:31:11Z</time></trkpt><trkpt lat="45.52109572019085" lon="3.066494698417956"><ele>845.0</ele><time>2026-05-02T10:31:12Z</time></trkpt><trkpt lat="45.521023872765106" lon="3.0666183184423312"><ele>846.25</ele><time>2026-05-02T10:31:13Z</time></trkpt><trkpt lat="45.52095470595188" lon="3.0667678561152356"><ele>847.5</ele><time>2026-05-02T10:31:14Z</time></trkpt><trkpt lat="45.520864355776695" lon="3.066913150282228"><ele>848.75</ele><time>2026-05-02T10:31:15Z</time></trkpt><trkpt lat="45.520781787196526" lon="3.0670743175273767"><ele>850.0</ele><time>2026-05-02T10:31:16Z</time></trkpt><trkpt lat="45.520715787052744" lon="3.0672502861110056"><ele>850.0</ele><time>2026-05-02T10:31:17Z</time></trkpt><trkpt lat="45.52062651956483" lon="3.067389966789081"><ele>850.0</ele><time>2026-05-02T10:31:18Z</time></trkpt><trkpt lat="45.52055393611034" lon="3.067531930677116"><ele>850.0</ele><time>2026-05-02T10:31:19Z</time></trkpt><trkpt lat="45.52049060172422" lon="3.06766435269027"><ele>850.0</ele><time>2026-05-02T10:31:20Z</time></trkpt><trkpt lat="45.52045447189446" lon="3.0678010920391117"><ele>849.8</ele><time>2026-05-02T10:31:21Z</time></trkpt><trkpt lat="45.52041076045787" lon="3.06792683867183"><ele>849.6</ele><time>2026-05-02T10:31:22Z</time></trkpt><trkpt lat="45.52036710568395" lon="3.0680680192806076"><ele>849.4000000000001</ele><time>2026-05-02T10:31:23Z</time></trkpt><trkpt lat="45.520288619296515" lon="3.0681732052737667"><ele>849.2</ele><time>2026-05-02T10:31:24Z</time></trkpt><trkpt lat="45.52020628492681" lon="3.0682241272570687"><ele>849.0</ele><time>2026-05-02T10:31:25Z</time></trkpt><trkpt lat="45.52011831258846" lon="3.068213931826689"><ele>849.0</ele><time>2026-05-02T10:31:26Z</time></trkpt><trkpt lat="45.52002098692356" lon="3.068210099611303"><ele>849.0</ele><time>2026-05-02T10:31:27Z</time></trkpt><trkpt lat="45.51992479467406" lon="3.0682255846845097"><ele>849.0</ele><time>2026-05-02T10:31:28Z</time></trkpt><trkpt lat="45.51983833271686" lon="3.068307204845297"><ele>849.0</ele><time>2026-05-02T10:31:29Z</time></trkpt><trkpt lat="45.51973480068193" lon="3.0683815532827827"><ele>849.0</ele><time>2026-05-02T10:31:30Z</time></trkpt><trkpt lat="45.519646002772916" lon="3.068483558910857"><ele>849.1666666666666</ele><time>2026-05-02T10:31:31Z</time></trkpt><trkpt lat="45.519556199787274" lon="3.068580331411589"><ele>849.3333333333333</ele><time>2026-05-02T10:31:32Z</time></trkpt><trkpt lat="45.51947394119632" lon="3.068666180674513"><ele>849.5</ele><time>2026-05-02T10:31:33Z</time></trkpt><trkpt lat="45.51940594088716" lon="3.068744460005568"><ele>849.6666666666666</ele><time>2026-05-02T10:31:34Z</time></trkpt><trkpt lat="45.51935998653193" lon="3.068828779370353"><ele>849.8333333333333</ele><time>2026-05-02T10:31:35Z</time></trkpt><trkpt lat="45.51930480228973" lon="3.0688959727613803"><ele>850.0</ele><time>2026-05-02T10:31:36Z</time></trkpt><trkpt lat="45.51923897668668" lon="3.068950756121904"><ele>849.9999999999999</ele><time>2026-05-02T10:31:37Z</time></trkpt><trkpt lat="45.51915245156009" lon="3.068952743300538"><ele>850.0</ele><time>2026-05-02T10:31:38Z</time></trkpt><trkpt lat="45.51907143903905" lon="3.0689735329275916"><ele>850.0</ele><time>2026-05-02T10:31:39Z</time></trkpt><trkpt lat="45.518984601298904" lon="3.0689922993282157"><ele>850.0</ele><time>2026-05-02T10:31:40Z</time></trkpt><trkpt lat="45.51889994852932" lon="3.0690138426824483"><ele>849.9999999999999</ele><time>2026-05-02T10:31:41Z</time></trkpt><trkpt lat="45.51881157269737" lon="3.0690551843165985"><ele>850.0</ele><time>2026-05-02T10:31:42Z</time></trkpt><trkpt lat="45.51873112410815" lon="3.0691216568110082"><ele>853.75</ele><time>2026-05-02T10:31:43Z</time></trkpt><trkpt lat="45.518662595148804" lon="3.069226160718431"><ele>857.5</ele><time>2026-05-02T10:31:44Z</time></trkpt><trkpt lat="45.518643910790686" lon="3.069398101384088"><ele>861.25</ele><time>2026-05-02T10:31:45Z</time></trkpt><trkpt lat="45.5186141070738" lon="3.0695638011764985"><ele>865.0</ele><time>2026-05-02T10:31:46Z</time></trkpt><trkpt lat="45.51859535621018" lon="3.0697408108199427"><ele>865.0</ele><time>2026-05-02T10:31:47Z</time></trkpt><trkpt lat="45.51854194197213" lon="3.0699238095047106"><ele>865.0</ele><time>2026-05-02T10:31:48Z</time></trkpt><trkpt lat="45.51847268377094" lon="3.070109985912676"><ele>865.0</ele><time>2026-05-02T10:31:49Z</time></trkpt><trkpt lat="45.51840235010379" lon="3.0702900956648467"><ele>865.0</ele><time>2026-05-02T10:31:50Z</time></trkpt><trkpt lat="45.51833680594866" lon="3.0704635223883314"><ele>866.0</ele><time>2026-05-02T10:31:51Z</time></trkpt><trkpt lat="45.51827134704231" lon="3.070632765604235"><ele>867.0</ele><time>2026-05-02T10:31:52Z</time></trkpt><trkpt lat="45.51820704895116" lon="3.0707760429670508"><ele>868.0</ele><time>2026-05-02T10:31:53Z</time></trkpt><trkpt lat="45.51813805598262" lon="3.07089784997059"><ele>869.0</ele><time>2026-05-02T10:31:54Z</time></trkpt><trkpt lat="45.51804734697234" lon="3.0709546261878446"><ele>869.5</ele><time>2026-05-02T10:31:55Z</time></trkpt><trkpt lat="45.517948360686084" lon="3.070990722808653"><ele>870.0</ele><time>2026-05-02T10:31:56Z</time></trkpt><trkpt lat="45.51782556272905" lon="3.070994871236301"><ele>870.5</ele><time>2026-05-02T10:31:57Z</time></trkpt><trkpt lat="45.51768993964871" lon="3.070962241331594"><ele>871.0</ele><time>2026-05-02T10:31:58Z</time></trkpt><trkpt lat="45.5175344531063" lon="3.0709080585367534"><ele>873.25</ele><time>2026-05-02T10:31:59Z</time></trkpt><trkpt lat="45.51739043929376" lon="3.0708812940135677"><ele>875.5</ele><time>2026-05-02T10:32:00Z</time></trkpt><trkpt lat="45.51727009927135" lon="3.0708650996768947"><ele>877.75</ele><time>2026-05-02T10:32:01Z</time></trkpt><trkpt lat="45.517150818249874" lon="3.070861711567332"><ele>880.0</ele><time>2026-05-02T10:32:02Z</time></trkpt><trkpt lat="45.517037215398595" lon="3.0708905255725467"><ele>881.5</ele><time>2026-05-02T10:32:03Z</time></trkpt><trkpt lat="45.51691508461906" lon="3.070901935990099"><ele>883.0</ele><time>2026-05-02T10:32:04Z</time></trkpt><trkpt lat="45.51679129414607" lon="3.0709050348225055"><ele>884.5</ele><time>2026-05-02T10:32:05Z</time></trkpt><trkpt lat="45.516671901681654" lon="3.0709839712067195"><ele>886.0</ele><time>2026-05-02T10:32:06Z</time></trkpt><trkpt lat="45.516552108633945" lon="3.071061240750233"><ele>886.0</ele><time>2026-05-02T10:32:07Z</time></trkpt><trkpt lat="45.51644317714337" lon="3.071168840358002"><ele>886.0</ele><time>2026-05-02T10:32:08Z</time></trkpt><trkpt lat="45.51634461545732" lon="3.0713008080194877"><ele>886.0</ele><time>2026-05-02T10:32:09Z</time></trkpt><trkpt lat="45.51624028232194" lon="3.0714343193966687"><ele>886.0</ele><time>2026-05-02T10:32:10Z</time></trkpt><trkpt lat="45.516135129612984" lon="3.0715666568990834"><ele>887.0</ele><time>2026-05-02T10:32:11Z</time></trkpt><trkpt lat="45.516030626088266" lon="3.0717067499217228"><ele>888.0</ele><time>2026-05-02T10:32:12Z</time></trkpt><trkpt lat="45.51592725386142" lon="3.0718638153708357"><ele>889.0</ele><time>2026-05-02T10:32:13Z</time></trkpt><trkpt lat="45.51580717919015" lon="3.0719600464889525"><ele>890.0</ele><time>2026-05-02T10:32:14Z</time></trkpt><trkpt lat="45.515679506451775" lon="3.072062857415923"><ele>890.0</ele><time>2026-05-02T10:32:15Z</time></trkpt><trkpt lat="45.515550655771875" lon="3.072162953281571"><ele>890.0</ele><time>2026-05-02T10:32:16Z</time></trkpt><trkpt lat="45.51542597530882" lon="3.0722611143853276"><ele>890.0</ele><time>2026-05-02T10:32:17Z</time></trkpt><trkpt lat="45.515310437756206" lon="3.072391607460582"><ele>890.0</ele><time>2026-05-02T10:32:18Z</time></trkpt><trkpt lat="45.51519406061197" lon="3.07250691996146"><ele>892.75</ele><time>2026-05-02T10:32:19Z</time></trkpt><trkpt lat="45.51509604193423" lon="3.0726221925767123"><ele>895.5</ele><time>2026-05-02T10:32:20Z</time></trkpt><trkpt lat="45.51500569100845" lon="3.072739724432582"><ele>898.25</ele><time>2026-05-02T10:32:21Z</time></trkpt><trkpt lat="45.514919874677716" lon="3.072871771524978"><ele>901.0</ele><time>2026-05-02T10:32:22Z</time></trkpt><trkpt lat="45.514829532126676" lon="3.0730205587639547"><ele>901.0</ele><time>2026-05-02T10:32:23Z</time></trkpt><trkpt lat="45.514707009216686" lon="3.073144612680101"><ele>901.0</ele><time>2026-05-02T10:32:24Z</time></trkpt><trkpt lat="45.51460194759586" lon="3.073225737910883"><ele>901.0</ele><time>2026-05-02T10:32:25Z</time></trkpt><trkpt lat="45.514482241182186" lon="3.0732922418808517"><ele>901.0</ele><time>2026-05-02T10:32:26Z</time></trkpt><trkpt lat="45.514345353345696" lon="3.073340560358584"><ele>903.0</ele><time>2026-05-02T10:32:27Z</time></trkpt><trkpt lat="45.51418805845397" lon="3.0733867972621822"><ele>905.0</ele><time>2026-05-02T10:32:28Z</time></trkpt><trkpt lat="45.51402563863531" lon="3.073455637442024"><ele>907.0</ele><time>2026-05-02T10:32:29Z</time></trkpt><trkpt lat="45.51384242593425" lon="3.073586136883288"><ele>912.6666666666666</ele><time>2026-05-02T10:32:30Z</time></trkpt><trkpt lat="45.51364329709672" lon="3.073739513845854"><ele>918.3333333333333</ele><time>2026-05-02T10:32:31Z</time></trkpt><trkpt lat="45.513450749215934" lon="3.073875049838272"><ele>924.0</ele><time>2026-05-02T10:32:32Z</time></trkpt><trkpt lat="45.51328833820212" lon="3.073963386819418"><ele>924.0</ele><time>2026-05-02T10:32:33Z</time></trkpt><trkpt lat="45.51316069266308" lon="3.07405507124651"><ele>924.0</ele><time>2026-05-02T10:32:34Z</time></trkpt><trkpt lat="45.513065105299226" lon="3.0741436562318456"><ele>924.0</ele><time>2026-05-02T10:32:35Z</time></trkpt><trkpt lat="45.512973196907986" lon="3.0742590368321063"><ele>924.0</ele><time>2026-05-02T10:32:36Z</time></trkpt><trkpt lat="45.5129004944453" lon="3.0744184771290897"><ele>924.75</ele><time>2026-05-02T10:32:37Z</time></trkpt><trkpt lat="45.5128155625555" lon="3.0745822087073895"><ele>925.5</ele><time>2026-05-02T10:32:38Z</time></trkpt><trkpt lat="45.51272647515735" lon="3.074741235993176"><ele>926.25</ele><time>2026-05-02T10:32:39Z</time></trkpt><trkpt lat="45.512656364101254" lon="3.0749395535779893"><ele>927.0</ele><time>2026-05-02T10:32:40Z</time></trkpt><trkpt lat="45.512609337729835" lon="3.0751835945424553"><ele>927.0</ele><time>2026-05-02T10:32:41Z</time></trkpt><trkpt lat="45.512556465299454" lon="3.0753878292813885"><ele>927.0</ele><time>2026-05-02T10:32:42Z</time></trkpt><trkpt lat="45.51249257543901" lon="3.0755242445430726"><ele>927.0</ele><time>2026-05-02T10:32:43Z</time></trkpt><trkpt lat="45.51242854383752" lon="3.0756164770441163"><ele>927.0</ele><time>2026-05-02T10:32:44Z</time></trkpt><trkpt lat="45.512330726765335" lon="3.075705958985277"><ele>925.25</ele><time>2026-05-02T10:32:45Z</time></trkpt><trkpt lat="45.51221468856744" lon="3.07581571044941"><ele>923.5</ele><time>2026-05-02T10:32:46Z</time></trkpt><trkpt lat="45.512141825859224" lon="3.0759509538002265"><ele>921.75</ele><time>2026-05-02T10:32:47Z</time></trkpt><trkpt lat="45.51211139022851" lon="3.0760815745612686"><ele>920.0</ele><time>2026-05-02T10:32:48Z</time></trkpt><trkpt lat="45.51213603448272" lon="3.07623514501565"><ele>920.0</ele><time>2026-05-02T10:32:49Z</time></trkpt><trkpt lat="45.512187924233146" lon="3.0763910216852492"><ele>920.0</ele><time>2026-05-02T10:32:50Z</time></trkpt><trkpt lat="45.5122671153135" lon="3.07652458295582"><ele>920.0</ele><time>2026-05-02T10:32:51Z</time></trkpt><trkpt lat="45.51229236915287" lon="3.0767367732962114"><ele>920.0</ele><time>2026-05-02T10:32:52Z</time></trkpt><trkpt lat="45.51227745593681" lon="3.076959317546155"><ele>920.0</ele><time>2026-05-02T10:32:53Z</time></trkpt><trkpt lat="45.51225081299572" lon="3.0772198990650192"><ele>920.0</ele><time>2026-05-02T10:32:54Z</time></trkpt><trkpt lat="45.51221294104036" lon="3.077491212278124"><ele>920.0</ele><time>2026-05-02T10:32:55Z</time></trkpt><trkpt lat="45.51218064842236" lon="3.0777665812543455"><ele>920.6666666666667</ele><time>2026-05-02T10:32:56Z</time></trkpt><trkpt lat="45.512172622685505" lon="3.078070813780955"><ele>921.3333333333333</ele><time>2026-05-02T10:32:57Z</time></trkpt><trkpt lat="45.51218027038032" lon="3.07839990035425"><ele>922.0</ele><time>2026-05-02T10:32:58Z</time></trkpt><trkpt lat="45.51215725887071" lon="3.078675808047091"><ele>922.0</ele><time>2026-05-02T10:32:59Z</time></trkpt><trkpt lat="45.51214127071416" lon="3.0789238194688284"><ele>922.0</ele><time>2026-05-02T10:33:00Z</time></trkpt><trkpt lat="45.51211748903838" lon="3.0791567734919996"><ele>922.0</ele><time>2026-05-02T10:33:01Z</time></trkpt><trkpt lat="45.51207718935659" lon="3.07935914739098"><ele>928.3333333333333</ele><time>2026-05-02T10:33:02Z</time></trkpt><trkpt lat="45.511997124917194" lon="3.0795552200516703"><ele>934.6666666666667</ele><time>2026-05-02T10:33:03Z</time></trkpt><trkpt lat="45.51189380225062" lon="3.0797971075372517"><ele>941.0</ele><time>2026-05-02T10:33:04Z</time></trkpt><trkpt lat="45.51181846116596" lon="3.0800515647110367"><ele>941.0</ele><time>2026-05-02T10:33:05Z</time></trkpt><trkpt lat="45.511735852223445" lon="3.0803328123166933"><ele>941.0</ele><time>2026-05-02T10:33:06Z</time></trkpt><trkpt lat="45.511663123468054" lon="3.0806031550076898"><ele>941.0</ele><time>2026-05-02T10:33:07Z</time></trkpt><trkpt lat="45.51157924536993" lon="3.080834525755105"><ele>940.0</ele><time>2026-05-02T10:33:08Z</time></trkpt><trkpt lat="45.511508973674495" lon="3.0810469091604324"><ele>939.0</ele><time>2026-05-02T10:33:09Z</time></trkpt><trkpt lat="45.511439271156796" lon="3.081239750657062"><ele>938.0</ele><time>2026-05-02T10:33:10Z</time></trkpt><trkpt lat="45.511366973899484" lon="3.0814055605776063"><ele>938.0</ele><time>2026-05-02T10:33:11Z</time></trkpt><trkpt lat="45.511280956879" lon="3.081547919982011"><ele>938.0</ele><time>2026-05-02T10:33:12Z</time></trkpt><trkpt lat="45.511183209100395" lon="3.0816743395485733"><ele>938.0</ele><time>2026-05-02T10:33:13Z</time></trkpt><trkpt lat="45.51107508151243" lon="3.081800555739947"><ele>938.0</ele><time>2026-05-02T10:33:14Z</time></trkpt><trkpt lat="45.510958870833875" lon="3.0819264665639725"><ele>940.6666666666667</ele><time>2026-05-02T10:33:15Z</time></trkpt><trkpt lat="45.51083156665185" lon="3.082062942529067"><ele>943.3333333333333</ele><time>2026-05-02T10:33:16Z</time></trkpt><trkpt lat="45.51069859098375" lon="3.0822059816905245"><ele>946.0</ele><time>2026-05-02T10:33:17Z</time></trkpt><trkpt lat="45.510561978830545" lon="3.082352422583068"><ele>946.3333333333333</ele><time>2026-05-02T10:33:18Z</time></trkpt><trkpt lat="45.51041893023509" lon="3.0825047774160317"><ele>946.6666666666667</ele><time>2026-05-02T10:33:19Z</time></trkpt><trkpt lat="45.5102761111874" lon="3.082661155919701"><ele>947.0</ele><time>2026-05-02T10:33:20Z</time></trkpt><trkpt lat="45.51014535131049" lon="3.082819968361508"><ele>947.0</ele><time>2026-05-02T10:33:21Z</time></trkpt><trkpt lat="45.51004268573924" lon="3.082994182053017"><ele>947.0</ele><time>2026-05-02T10:33:22Z</time></trkpt><trkpt lat="45.509941129913834" lon="3.083151696490264"><ele>947.0</ele><time>2026-05-02T10:33:23Z</time></trkpt><trkpt lat="45.509848295905954" lon="3.083312207592777"><ele>947.0</ele><time>2026-05-02T10:33:24Z</time></trkpt><trkpt lat="45.509764010938916" lon="3.083459055971479"><ele>947.0</ele><time>2026-05-02T10:33:25Z</time></trkpt><trkpt lat="45.50966929341946" lon="3.0835652876912185"><ele>947.0</ele><time>2026-05-02T10:33:26Z</time></trkpt><trkpt lat="45.509584860117975" lon="3.0836715254069293"><ele>947.0</ele><time>2026-05-02T10:33:27Z</time></trkpt><trkpt lat="45.50949241875998" lon="3.083771378113926"><ele>948.0</ele><time>2026-05-02T10:33:28Z</time></trkpt><trkpt lat="45.509387681033424" lon="3.0838648066352947"><ele>949.0</ele><time>2026-05-02T10:33:29Z</time></trkpt><trkpt lat="45.50927276952343" lon="3.0839446816660496"><ele>950.0</ele><time>2026-05-02T10:33:30Z</time></trkpt><trkpt lat="45.509147975209665" lon="3.084002621107948"><ele>951.0</ele><time>2026-05-02T10:33:31Z</time></trkpt><trkpt lat="45.50900995074482" lon="3.0840432522450403"><ele>951.0</ele><time>2026-05-02T10:33:32Z</time></trkpt><trkpt lat="45.50886428589841" lon="3.0840776734565893"><ele>951.0</ele><time>2026-05-02T10:33:33Z</time></trkpt><trkpt lat="45.50872176598159" lon="3.0841138496421907"><ele>951.0</ele><time>2026-05-02T10:33:34Z</time></trkpt><trkpt lat="45.50860387496103" lon="3.084150117968274"><ele>951.0</ele><time>2026-05-02T10:33:35Z</time></trkpt><trkpt lat="45.50849521417104" lon="3.0841907175950825"><ele>951.0</ele><time>2026-05-02T10:33:36Z</time></trkpt><trkpt lat="45.50838977327345" lon="3.0842348249737275"><ele>950.9999999999999</ele><time>2026-05-02T10:33:37Z</time></trkpt><trkpt lat="45.50828831180431" lon="3.084298229712603"><ele>950.9999999999999</ele><time>2026-05-02T10:33:38Z</time></trkpt><trkpt lat="45.508175560165" lon="3.084327650043539"><ele>951.0</ele><time>2026-05-02T10:33:39Z</time></trkpt><trkpt lat="45.50806455311963" lon="3.0843196931392596"><ele>951.0</ele><time>2026-05-02T10:33:40Z</time></trkpt><trkpt lat="45.50794567790172" lon="3.084329057347789"><ele>951.0</ele><time>2026-05-02T10:33:41Z</time></trkpt><trkpt lat="45.50782891370423" lon="3.08432948751198"><ele>950.9999999999999</ele><time>2026-05-02T10:33:42Z</time></trkpt><trkpt lat="45.50771525532894" lon="3.0843136143859717"><ele>950.9999999999999</ele><time>2026-05-02T10:33:43Z</time></trkpt><trkpt lat="45.50761318009675" lon="3.084286426770486"><ele>951.0</ele><time>2026-05-02T10:33:44Z</time></trkpt><trkpt lat="45.50752572902578" lon="3.084244172628894"><ele>951.0</ele><time>2026-05-02T10:33:45Z</time></trkpt><trkpt lat="45.50744366688369" lon="3.084192469268424"><ele>951.0</ele><time>2026-05-02T10:33:46Z</time></trkpt><trkpt lat="45.50737254511337" lon="3.084137381432826"><ele>951.0</ele><time>2026-05-02T10:33:47Z</time></trkpt><trkpt lat="45.507303191505294" lon="3.084082691252329"><ele>951.0</ele><time>2026-05-02T10:33:48Z</time></trkpt><trkpt lat="45.50724469754024" lon="3.084031045397911"><ele>951.0</ele><time>2026-05-02T10:33:49Z</time></trkpt><trkpt lat="45.50718015296979" lon="3.0839900332366623"><ele>951.0</ele><time>2026-05-02T10:33:50Z</time></trkpt><trkpt lat="45.50710055412624" lon="3.0838958793768527"><ele>951.0</ele><time>2026-05-02T10:33:51Z</time></trkpt><trkpt lat="45.50700887984623" lon="3.0837808728238736"><ele>951.75</ele><time>2026-05-02T10:33:52Z</time></trkpt><trkpt lat="45.50691092835067" lon="3.083649232908599"><ele>952.5</ele><time>2026-05-02T10:33:53Z</time></trkpt><trkpt lat="45.50682376970323" lon="3.0835422435619466"><ele>953.25</ele><time>2026-05-02T10:33:54Z</time></trkpt><trkpt lat="45.50673211595783" lon="3.083434296119146"><ele>954.0</ele><time>2026-05-02T10:33:55Z</time></trkpt><trkpt lat="45.506633884825526" lon="3.083331656416194"><ele>954.0</ele><time>2026-05-02T10:33:56Z</time></trkpt><trkpt lat="45.50653469084594" lon="3.0832472971770892"><ele>954.0000000000001</ele><time>2026-05-02T10:33:57Z</time></trkpt><trkpt lat="45.50644034005031" lon="3.0831841454425013"><ele>954.0000000000001</ele><time>2026-05-02T10:33:58Z</time></trkpt><trkpt lat="45.506350507243084" lon="3.0831325524372293"><ele>954.0</ele><time>2026-05-02T10:33:59Z</time></trkpt><trkpt lat="45.50627125424683" lon="3.0830680777556143"><ele>954.0</ele><time>2026-05-02T10:34:00Z</time></trkpt><trkpt lat="45.506189254967296" lon="3.083016228258144"><ele>954.0</ele><time>2026-05-02T10:34:01Z</time></trkpt><trkpt lat="45.50611493396765" lon="3.082959169741859"><ele>954.0</ele><time>2026-05-02T10:34:02Z</time></trkpt><trkpt lat="45.506049412107416" lon="3.0828929985183597"><ele>954.0</ele><time>2026-05-02T10:34:03Z</time></trkpt><trkpt lat="45.505980402975254" lon="3.082825165456897"><ele>954.0</ele><time>2026-05-02T10:34:04Z</time></trkpt><trkpt lat="45.505916720364645" lon="3.082760636262311"><ele>954.0</ele><time>2026-05-02T10:34:05Z</time></trkpt><trkpt lat="45.50584798514449" lon="3.08269098738066"><ele>954.0</ele><time>2026-05-02T10:34:06Z</time></trkpt><trkpt lat="45.50577312264055" lon="3.0826223462189595"><ele>954.0</ele><time>2026-05-02T10:34:07Z</time></trkpt><trkpt lat="45.505687761092005" lon="3.0825712699675663"><ele>954.0000000000001</ele><time>2026-05-02T10:34:08Z</time></trkpt><trkpt lat="45.50560304279031" lon="3.0825099269450464"><ele>954.0000000000001</ele><time>2026-05-02T10:34:09Z</time></trkpt><trkpt lat="45.505505266996394" lon="3.0824502899964377"><ele>954.0</ele><time>2026-05-02T10:34:10Z</time></trkpt><trkpt lat="45.505409296399726" lon="3.0824080923323636"><ele>954.0</ele><time>2026-05-02T10:34:11Z</time></trkpt><trkpt lat="45.505310812251565" lon="3.0823454752516253"><ele>953.6</ele><time>2026-05-02T10:34:12Z</time></trkpt><trkpt lat="45.50521041775023" lon="3.0822981287065616"><ele>953.2</ele><time>2026-05-02T10:34:13Z</time></trkpt><trkpt lat="45.50512395597584" lon="3.0822471367326054"><ele>952.8000000000001</ele><time>2026-05-02T10:34:14Z</time></trkpt><trkpt lat="45.50504286448676" lon="3.082188498007891"><ele>952.4000000000001</ele><time>2026-05-02T10:34:15Z</time></trkpt><trkpt lat="45.504962519104865" lon="3.082119910711079"><ele>952.0</ele><time>2026-05-02T10:34:16Z</time></trkpt><trkpt lat="45.50488425924324" lon="3.0820511753076496"><ele>952.0</ele><time>2026-05-02T10:34:17Z</time></trkpt><trkpt lat="45.504814020054475" lon="3.0819860424075824"><ele>952.0</ele><time>2026-05-02T10:34:18Z</time></trkpt><trkpt lat="45.50473935852967" lon="3.0819156271292254"><ele>952.0</ele><time>2026-05-02T10:34:19Z</time></trkpt><trkpt lat="45.50465888787181" lon="3.081835532436589"><ele>952.0</ele><time>2026-05-02T10:34:20Z</time></trkpt><trkpt lat="45.50458411698078" lon="3.0817485597285725"><ele>952.0</ele><time>2026-05-02T10:34:21Z</time></trkpt><trkpt lat="45.504517853818" lon="3.0816494647847894"><ele>951.4999999999999</ele><time>2026-05-02T10:34:22Z</time></trkpt><trkpt lat="45.50445505748201" lon="3.0815523696634957"><ele>951.0</ele><time>2026-05-02T10:34:23Z</time></trkpt><trkpt lat="45.504392743828106" lon="3.0814573531623437"><ele>950.5</ele><time>2026-05-02T10:34:24Z</time></trkpt><trkpt lat="45.50431731255406" lon="3.0813897405980932"><ele>950.0</ele><time>2026-05-02T10:34:25Z</time></trkpt><trkpt lat="45.50425496177833" lon="3.081308016935505"><ele>949.4999999999999</ele><time>2026-05-02T10:34:26Z</time></trkpt><trkpt lat="45.5041950135247" lon="3.0812538466718853"><ele>949.0</ele><time>2026-05-02T10:34:27Z</time></trkpt><trkpt lat="45.50409083819973" lon="3.0811908237744343"><ele>949.0</ele><time>2026-05-02T10:34:29Z</time></trkpt><trkpt lat="45.50402519294231" lon="3.0811838032985945"><ele>949.0000000000001</ele><time>2026-05-02T10:34:31Z</time></trkpt><trkpt lat="45.504086727089835" lon="3.0813631797559613"><ele>949.0000000000001</ele><time>2026-05-02T10:34:35Z</time></trkpt><trkpt lat="45.504176297782934" lon="3.081401212507828"><ele>949.0</ele><time>2026-05-02T10:34:37Z</time></trkpt><trkpt lat="45.504276227935" lon="3.081506126870502"><ele>949.0</ele><time>2026-05-02T10:34:39Z</time></trkpt><trkpt lat="45.50432906857762" lon="3.081573060430451"><ele>949.6</ele><time>2026-05-02T10:34:40Z</time></trkpt><trkpt lat="45.50438339944372" lon="3.0816569678504164"><ele>950.2</ele><time>2026-05-02T10:34:41Z</time></trkpt><trkpt lat="45.50443797961815" lon="3.0817488168040947"><ele>950.8000000000001</ele><time>2026-05-02T10:34:42Z</time></trkpt><trkpt lat="45.50449184639032" lon="3.0818582019713614"><ele>951.4000000000001</ele><time>2026-05-02T10:34:43Z</time></trkpt><trkpt lat="45.50453823952328" lon="3.0819839065184538"><ele>952.0</ele><time>2026-05-02T10:34:44Z</time></trkpt><trkpt lat="45.504580332331265" lon="3.0821124484155527"><ele>952.0</ele><time>2026-05-02T10:34:45Z</time></trkpt><trkpt lat="45.50461645870947" lon="3.0822507116371893"><ele>952.0</ele><time>2026-05-02T10:34:46Z</time></trkpt><trkpt lat="45.50465714099649" lon="3.08238873419776"><ele>952.0</ele><time>2026-05-02T10:34:47Z</time></trkpt><trkpt lat="45.504703436746965" lon="3.082531981086273"><ele>952.0</ele><time>2026-05-02T10:34:48Z</time></trkpt><trkpt lat="45.50476169943772" lon="3.0826828298493094"><ele>952.0</ele><time>2026-05-02T10:34:49Z</time></trkpt><trkpt lat="45.504836818008165" lon="3.0828290323107015"><ele>949.25</ele><time>2026-05-02T10:34:50Z</time></trkpt><trkpt lat="45.50492031492055" lon="3.0829742765766723"><ele>946.5</ele><time>2026-05-02T10:34:51Z</time></trkpt><trkpt lat="45.50500547912283" lon="3.083116710030756"><ele>943.75</ele><time>2026-05-02T10:34:52Z</time></trkpt><trkpt lat="45.50508729743814" lon="3.083267415222717"><ele>941.0</ele><time>2026-05-02T10:34:53Z</time></trkpt><trkpt lat="45.505164737022305" lon="3.083418492934198"><ele>941.0</ele><time>2026-05-02T10:34:54Z</time></trkpt><trkpt lat="45.50524726502154" lon="3.0835559161457984"><ele>941.0</ele><time>2026-05-02T10:34:55Z</time></trkpt><trkpt lat="45.50533558564748" lon="3.083683701089262"><ele>941.0</ele><time>2026-05-02T10:34:56Z</time></trkpt><trkpt lat="45.50541825392023" lon="3.083816780476667"><ele>941.0</ele><time>2026-05-02T10:34:57Z</time></trkpt><trkpt lat="45.50548680366938" lon="3.083958937016181"><ele>938.75</ele><time>2026-05-02T10:34:58Z</time></trkpt><trkpt lat="45.5055250835941" lon="3.0841250601235175"><ele>936.5</ele><time>2026-05-02T10:34:59Z</time></trkpt><trkpt lat="45.50558042834233" lon="3.084277553774586"><ele>934.25</ele><time>2026-05-02T10:35:00Z</time></trkpt><trkpt lat="45.5056179111293" lon="3.0844433555998747"><ele>932.0</ele><time>2026-05-02T10:35:01Z</time></trkpt><trkpt lat="45.50566214263099" lon="3.0846180739474356"><ele>932.0</ele><time>2026-05-02T10:35:02Z</time></trkpt><trkpt lat="45.50571321819342" lon="3.084803909136525"><ele>932.0</ele><time>2026-05-02T10:35:03Z</time></trkpt><trkpt lat="45.5057620059238" lon="3.0849987931454286"><ele>932.0</ele><time>2026-05-02T10:35:04Z</time></trkpt><trkpt lat="45.50578683639394" lon="3.085191155086173"><ele>932.0</ele><time>2026-05-02T10:35:05Z</time></trkpt><trkpt lat="45.505834600206896" lon="3.085367511662892"><ele>929.5</ele><time>2026-05-02T10:35:06Z</time></trkpt><trkpt lat="45.50585481343188" lon="3.085550499701226"><ele>927.0</ele><time>2026-05-02T10:35:07Z</time></trkpt><trkpt lat="45.50587729759028" lon="3.0857296975444712"><ele>924.5</ele><time>2026-05-02T10:35:08Z</time></trkpt><trkpt lat="45.50590922204121" lon="3.0859014845747486"><ele>922.0</ele><time>2026-05-02T10:35:09Z</time></trkpt><trkpt lat="45.50595915599535" lon="3.0860627418232633"><ele>921.75</ele><time>2026-05-02T10:35:10Z</time></trkpt><trkpt lat="45.506037432622854" lon="3.086208289471717"><ele>921.5</ele><time>2026-05-02T10:35:11Z</time></trkpt><trkpt lat="45.50612674171609" lon="3.086337559338073"><ele>921.25</ele><time>2026-05-02T10:35:12Z</time></trkpt><trkpt lat="45.506205342194754" lon="3.086487639512923"><ele>921.0</ele><time>2026-05-02T10:35:13Z</time></trkpt><trkpt lat="45.50624727914825" lon="3.0866616833598193"><ele>921.0</ele><time>2026-05-02T10:35:14Z</time></trkpt><trkpt lat="45.5062894840258" lon="3.0868343769567623"><ele>921.0</ele><time>2026-05-02T10:35:15Z</time></trkpt><trkpt lat="45.50633737711338" lon="3.087014354020967"><ele>921.0</ele><time>2026-05-02T10:35:16Z</time></trkpt><trkpt lat="45.5063684387456" lon="3.087201594803811"><ele>921.0</ele><time>2026-05-02T10:35:17Z</time></trkpt><trkpt lat="45.50641228220794" lon="3.08738379583126"><ele>918.25</ele><time>2026-05-02T10:35:18Z</time></trkpt><trkpt lat="45.50646306251582" lon="3.0875684428128785"><ele>915.5</ele><time>2026-05-02T10:35:19Z</time></trkpt><trkpt lat="45.506529791894486" lon="3.0877463855471343"><ele>912.75</ele><time>2026-05-02T10:35:20Z</time></trkpt><trkpt lat="45.50661084742809" lon="3.087919152772251"><ele>910.0</ele><time>2026-05-02T10:35:21Z</time></trkpt><trkpt lat="45.50671195975412" lon="3.0880806693377223"><ele>910.0</ele><time>2026-05-02T10:35:22Z</time></trkpt><trkpt lat="45.506816588045155" lon="3.0882309506729633"><ele>910.0</ele><time>2026-05-02T10:35:23Z</time></trkpt><trkpt lat="45.506908140021245" lon="3.0883792237431447"><ele>910.0</ele><time>2026-05-02T10:35:24Z</time></trkpt><trkpt lat="45.50697262079842" lon="3.088577827358034"><ele>910.0</ele><time>2026-05-02T10:35:25Z</time></trkpt><trkpt lat="45.50704988847808" lon="3.0888060482945194"><ele>910.3333333333333</ele><time>2026-05-02T10:35:26Z</time></trkpt><trkpt lat="45.50713258595421" lon="3.089019837890954"><ele>910.6666666666667</ele><time>2026-05-02T10:35:27Z</time></trkpt><trkpt lat="45.507197826482404" lon="3.089234470038698"><ele>911.0</ele><time>2026-05-02T10:35:28Z</time></trkpt><trkpt lat="45.507254254076365" lon="3.0894361992999233"><ele>909.25</ele><time>2026-05-02T10:35:29Z</time></trkpt><trkpt lat="45.50730472860363" lon="3.089639144226074"><ele>907.5</ele><time>2026-05-02T10:35:30Z</time></trkpt><trkpt lat="45.50734322441162" lon="3.089835807975849"><ele>905.75</ele><time>2026-05-02T10:35:31Z</time></trkpt><trkpt lat="45.507379616924524" lon="3.090031666174688"><ele>904.0</ele><time>2026-05-02T10:35:32Z</time></trkpt><trkpt lat="45.5074061013048" lon="3.0902242855373574"><ele>902.0</ele><time>2026-05-02T10:35:33Z</time></trkpt><trkpt lat="45.50739794426747" lon="3.09042149650851"><ele>900.0</ele><time>2026-05-02T10:35:34Z</time></trkpt><trkpt lat="45.50739478027428" lon="3.0906178139034184"><ele>898.0</ele><time>2026-05-02T10:35:35Z</time></trkpt><trkpt lat="45.507397805348994" lon="3.0908163042771983"><ele>896.0</ele><time>2026-05-02T10:35:36Z</time></trkpt><trkpt lat="45.50742371760408" lon="3.0910153412021475"><ele>894.75</ele><time>2026-05-02T10:35:37Z</time></trkpt><trkpt lat="45.507469060911504" lon="3.0912016574285497"><ele>893.5</ele><time>2026-05-02T10:35:38Z</time></trkpt><trkpt lat="45.50754401037369" lon="3.0913827776179574"><ele>892.25</ele><time>2026-05-02T10:35:39Z</time></trkpt><trkpt lat="45.507624307360516" lon="3.0915570491418825"><ele>891.0</ele><time>2026-05-02T10:35:40Z</time></trkpt><trkpt lat="45.50770415866314" lon="3.0917182798986347"><ele>888.25</ele><time>2026-05-02T10:35:41Z</time></trkpt><trkpt lat="45.50778725683333" lon="3.091871969808488"><ele>885.5</ele><time>2026-05-02T10:35:42Z</time></trkpt><trkpt lat="45.5078187047551" lon="3.092053408317406"><ele>882.75</ele><time>2026-05-02T10:35:43Z</time></trkpt><trkpt lat="45.507820982898664" lon="3.0922267300731097"><ele>880.0</ele><time>2026-05-02T10:35:44Z</time></trkpt><trkpt lat="45.50780725608337" lon="3.0924100986652583"><ele>878.25</ele><time>2026-05-02T10:35:45Z</time></trkpt><trkpt lat="45.50779601969265" lon="3.092587525269771"><ele>876.5</ele><time>2026-05-02T10:35:46Z</time></trkpt><trkpt lat="45.507809931529444" lon="3.092756127415923"><ele>874.75</ele><time>2026-05-02T10:35:47Z</time></trkpt><trkpt lat="45.50784514196702" lon="3.092915955717771"><ele>873.0</ele><time>2026-05-02T10:35:48Z</time></trkpt><trkpt lat="45.507898651855555" lon="3.0930752693599715"><ele>875.75</ele><time>2026-05-02T10:35:49Z</time></trkpt><trkpt lat="45.507964330048985" lon="3.0932439404026058"><ele>878.5</ele><time>2026-05-02T10:35:50Z</time></trkpt><trkpt lat="45.50802624994353" lon="3.0934216073727274"><ele>881.25</ele><time>2026-05-02T10:35:51Z</time></trkpt><trkpt lat="45.508084511406295" lon="3.0936067248797823"><ele>884.0</ele><time>2026-05-02T10:35:52Z</time></trkpt><trkpt lat="45.50811769008357" lon="3.0938061523023785"><ele>884.0</ele><time>2026-05-02T10:35:53Z</time></trkpt><trkpt lat="45.508142658694105" lon="3.094005362534019"><ele>884.0</ele><time>2026-05-02T10:35:54Z</time></trkpt><trkpt lat="45.50815896206837" lon="3.0942218523580243"><ele>884.0</ele><time>2026-05-02T10:35:55Z</time></trkpt><trkpt lat="45.50817827978697" lon="3.0944471388497883"><ele>880.6666666666667</ele><time>2026-05-02T10:35:56Z</time></trkpt><trkpt lat="45.508214278812495" lon="3.0946667915058277"><ele>877.3333333333333</ele><time>2026-05-02T10:35:57Z</time></trkpt><trkpt lat="45.508248280909385" lon="3.0948954895581795"><ele>874.0</ele><time>2026-05-02T10:35:58Z</time></trkpt><trkpt lat="45.50828994524934" lon="3.095126019282339"><ele>871.6666666666666</ele><time>2026-05-02T10:35:59Z</time></trkpt><trkpt lat="45.50834078316467" lon="3.0953571023606985"><ele>869.3333333333333</ele><time>2026-05-02T10:36:00Z</time></trkpt><trkpt lat="45.50839476504535" lon="3.0955919202839244"><ele>867.0</ele><time>2026-05-02T10:36:01Z</time></trkpt><trkpt lat="45.50844251500036" lon="3.095799716453065"><ele>865.25</ele><time>2026-05-02T10:36:02Z</time></trkpt><trkpt lat="45.50848447503283" lon="3.0960104342273245"><ele>863.5</ele><time>2026-05-02T10:36:03Z</time></trkpt><trkpt lat="45.50850272400999" lon="3.096220598346299"><ele>861.75</ele><time>2026-05-02T10:36:04Z</time></trkpt><trkpt lat="45.50852860780859" lon="3.0964278433112864"><ele>860.0</ele><time>2026-05-02T10:36:05Z</time></trkpt><trkpt lat="45.50854845539328" lon="3.0966372434625917"><ele>858.0</ele><time>2026-05-02T10:36:06Z</time></trkpt><trkpt lat="45.508581341882845" lon="3.0968571074900386"><ele>856.0</ele><time>2026-05-02T10:36:07Z</time></trkpt><trkpt lat="45.508594107680544" lon="3.0970819900523563"><ele>854.0</ele><time>2026-05-02T10:36:08Z</time></trkpt><trkpt lat="45.50860526077265" lon="3.09730598942212"><ele>852.25</ele><time>2026-05-02T10:36:09Z</time></trkpt><trkpt lat="45.508582435838555" lon="3.0975190653710745"><ele>850.5</ele><time>2026-05-02T10:36:10Z</time></trkpt><trkpt lat="45.5085750816118" lon="3.0977272821983957"><ele>848.75</ele><time>2026-05-02T10:36:11Z</time></trkpt><trkpt lat="45.50857666009799" lon="3.0979262830128493"><ele>847.0</ele><time>2026-05-02T10:36:12Z</time></trkpt><trkpt lat="45.50861034266287" lon="3.098116173053988"><ele>845.0</ele><time>2026-05-02T10:36:13Z</time></trkpt><trkpt lat="45.5086393529936" lon="3.0983139448605534"><ele>843.0</ele><time>2026-05-02T10:36:14Z</time></trkpt><trkpt lat="45.50867032682037" lon="3.098527985652024"><ele>841.0</ele><time>2026-05-02T10:36:15Z</time></trkpt><trkpt lat="45.508680361972274" lon="3.0987521079846942"><ele>841.0</ele><time>2026-05-02T10:36:16Z</time></trkpt><trkpt lat="45.50869018333141" lon="3.0989925549343087"><ele>841.0</ele><time>2026-05-02T10:36:17Z</time></trkpt><trkpt lat="45.50868689433815" lon="3.099235330437381"><ele>841.0</ele><time>2026-05-02T10:36:18Z</time></trkpt><trkpt lat="45.50867713123535" lon="3.0994633695740568"><ele>839.6666666666666</ele><time>2026-05-02T10:36:19Z</time></trkpt><trkpt lat="45.50869216555962" lon="3.0996944205906702"><ele>838.3333333333333</ele><time>2026-05-02T10:36:20Z</time></trkpt><trkpt lat="45.50870702314436" lon="3.0999057654154276"><ele>837.0</ele><time>2026-05-02T10:36:21Z</time></trkpt><trkpt lat="45.50874209674433" lon="3.100127871878548"><ele>839.3333333333333</ele><time>2026-05-02T10:36:22Z</time></trkpt><trkpt lat="45.508786232124265" lon="3.100351343012639"><ele>841.6666666666666</ele><time>2026-05-02T10:36:23Z</time></trkpt><trkpt lat="45.50881860652012" lon="3.1005637969018274"><ele>844.0</ele><time>2026-05-02T10:36:24Z</time></trkpt><trkpt lat="45.50882130050875" lon="3.10078129802182"><ele>844.0</ele><time>2026-05-02T10:36:25Z</time></trkpt><trkpt lat="45.50881881790986" lon="3.1010021056267547"><ele>844.0</ele><time>2026-05-02T10:36:26Z</time></trkpt><trkpt lat="45.50880409889019" lon="3.1012467177340466"><ele>844.0</ele><time>2026-05-02T10:36:27Z</time></trkpt><trkpt lat="45.5087849393195" lon="3.1015060235600287"><ele>841.6666666666666</ele><time>2026-05-02T10:36:28Z</time></trkpt><trkpt lat="45.50876791974108" lon="3.1017739344519275"><ele>839.3333333333333</ele><time>2026-05-02T10:36:29Z</time></trkpt><trkpt lat="45.50878134743069" lon="3.102016050939789"><ele>837.0</ele><time>2026-05-02T10:36:30Z</time></trkpt><trkpt lat="45.5087982810979" lon="3.1022487234919787"><ele>836.0</ele><time>2026-05-02T10:36:31Z</time></trkpt><trkpt lat="45.50882969104383" lon="3.1024640730117548"><ele>835.0</ele><time>2026-05-02T10:36:32Z</time></trkpt><trkpt lat="45.50885723605217" lon="3.102685025463245"><ele>834.0</ele><time>2026-05-02T10:36:33Z</time></trkpt><trkpt lat="45.50884725108479" lon="3.102883968246458"><ele>834.0</ele><time>2026-05-02T10:36:34Z</time></trkpt><trkpt lat="45.50884081664093" lon="3.1030893672113167"><ele>834.0</ele><time>2026-05-02T10:36:35Z</time></trkpt><trkpt lat="45.508856302351475" lon="3.1032854901187283"><ele>834.0</ele><time>2026-05-02T10:36:36Z</time></trkpt><trkpt lat="45.508872518584745" lon="3.1034779924824187"><ele>834.0</ele><time>2026-05-02T10:36:37Z</time></trkpt><trkpt lat="45.508922418068444" lon="3.1036525660925283"><ele>832.75</ele><time>2026-05-02T10:36:38Z</time></trkpt><trkpt lat="45.50899044025426" lon="3.1038135748602707"><ele>831.5</ele><time>2026-05-02T10:36:39Z</time></trkpt><trkpt lat="45.50905484866614" lon="3.1039735894409044"><ele>830.25</ele><time>2026-05-02T10:36:40Z</time></trkpt><trkpt lat="45.50908824620266" lon="3.1041555014431395"><ele>829.0</ele><time>2026-05-02T10:36:41Z</time></trkpt><trkpt lat="45.509141001246384" lon="3.1043238411341654"><ele>827.5</ele><time>2026-05-02T10:36:42Z</time></trkpt><trkpt lat="45.50915739279508" lon="3.1045060094932104"><ele>826.0</ele><time>2026-05-02T10:36:43Z</time></trkpt><trkpt lat="45.509175715782135" lon="3.104676337273932"><ele>824.5</ele><time>2026-05-02T10:36:44Z</time></trkpt><trkpt lat="45.509170230792925" lon="3.104836763147918"><ele>823.0</ele><time>2026-05-02T10:36:45Z</time></trkpt><trkpt lat="45.50914620454168" lon="3.1049894237341538"><ele>821.8</ele><time>2026-05-02T10:36:46Z</time></trkpt><trkpt lat="45.50915364723761" lon="3.1051325088155792"><ele>820.5999999999999</ele><time>2026-05-02T10:36:47Z</time></trkpt><trkpt lat="45.509179328869024" lon="3.1052792487581846"><ele>819.4000000000001</ele><time>2026-05-02T10:36:48Z</time></trkpt><trkpt lat="45.509237152018805" lon="3.1054093168962154"><ele>818.2</ele><time>2026-05-02T10:36:49Z</time></trkpt><trkpt lat="45.50932180120491" lon="3.105543747778466"><ele>817.0</ele><time>2026-05-02T10:36:50Z</time></trkpt><trkpt lat="45.509384176298944" lon="3.1057031445715104"><ele>818.75</ele><time>2026-05-02T10:36:51Z</time></trkpt><trkpt lat="45.50946548319766" lon="3.1058404580800456"><ele>820.5</ele><time>2026-05-02T10:36:52Z</time></trkpt><trkpt lat="45.509520335659474" lon="3.106005021221348"><ele>822.25</ele><time>2026-05-02T10:36:53Z</time></trkpt><trkpt lat="45.50955576756154" lon="3.106182366193903"><ele>824.0</ele><time>2026-05-02T10:36:54Z</time></trkpt><trkpt lat="45.509611060304096" lon="3.106354397755023"><ele>824.0</ele><time>2026-05-02T10:36:55Z</time></trkpt><trkpt lat="45.5096887884122" lon="3.106500287215573"><ele>824.0</ele><time>2026-05-02T10:36:56Z</time></trkpt><trkpt lat="45.50975697347946" lon="3.106635015686781"><ele>824.0</ele><time>2026-05-02T10:36:57Z</time></trkpt><trkpt lat="45.50983355334048" lon="3.106746681561069"><ele>824.0</ele><time>2026-05-02T10:36:58Z</time></trkpt><trkpt lat="45.50991648389188" lon="3.1068572947145316"><ele>821.6</ele><time>2026-05-02T10:36:59Z</time></trkpt><trkpt lat="45.50997855450203" lon="3.1069841756115117"><ele>819.2</ele><time>2026-05-02T10:37:00Z</time></trkpt><trkpt lat="45.510059083319476" lon="3.1070873806797907"><ele>816.8000000000001</ele><time>2026-05-02T10:37:01Z</time></trkpt><trkpt lat="45.51009557830027" lon="3.107239037676329"><ele>814.4000000000001</ele><time>2026-05-02T10:37:02Z</time></trkpt><trkpt lat="45.51010079903749" lon="3.1074031567253666"><ele>812.0</ele><time>2026-05-02T10:37:03Z</time></trkpt><trkpt lat="45.51006044505079" lon="3.1075566794160827"><ele>809.0</ele><time>2026-05-02T10:37:04Z</time></trkpt><trkpt lat="45.510034944339466" lon="3.107722318771149"><ele>806.0</ele><time>2026-05-02T10:37:05Z</time></trkpt><trkpt lat="45.510025762652816" lon="3.1078968485771012"><ele>803.0</ele><time>2026-05-02T10:37:06Z</time></trkpt><trkpt lat="45.510001230860105" lon="3.1080669256693705"><ele>800.0</ele><time>2026-05-02T10:37:07Z</time></trkpt><trkpt lat="45.5099790938631" lon="3.1082395861473624"><ele>798.75</ele><time>2026-05-02T10:37:08Z</time></trkpt><trkpt lat="45.50996148126137" lon="3.10841542243202"><ele>797.5</ele><time>2026-05-02T10:37:09Z</time></trkpt><trkpt lat="45.50995634128445" lon="3.108593681217695"><ele>796.25</ele><time>2026-05-02T10:37:10Z</time></trkpt><trkpt lat="45.509962550915056" lon="3.108779156864177"><ele>795.0</ele><time>2026-05-02T10:37:11Z</time></trkpt><trkpt lat="45.50999422658654" lon="3.1089579956997286"><ele>793.5</ele><time>2026-05-02T10:37:12Z</time></trkpt><trkpt lat="45.51004035347956" lon="3.109139354686615"><ele>792.0</ele><time>2026-05-02T10:37:13Z</time></trkpt><trkpt lat="45.510086752830105" lon="3.10931822010974"><ele>790.5</ele><time>2026-05-02T10:37:14Z</time></trkpt><trkpt lat="45.5101470618654" lon="3.109488568796171"><ele>789.0</ele><time>2026-05-02T10:37:15Z</time></trkpt><trkpt lat="45.5102081907091" lon="3.1096643967077022"><ele>789.0</ele><time>2026-05-02T10:37:16Z</time></trkpt><trkpt lat="45.510271627743855" lon="3.109840805031151"><ele>789.0</ele><time>2026-05-02T10:37:17Z</time></trkpt><trkpt lat="45.51033445594615" lon="3.1100228977057425"><ele>789.0</ele><time>2026-05-02T10:37:18Z</time></trkpt><trkpt lat="45.51039329660024" lon="3.1102018664290996"><ele>789.0</ele><time>2026-05-02T10:37:19Z</time></trkpt><trkpt lat="45.51045188056574" lon="3.1103782758261107"><ele>789.5</ele><time>2026-05-02T10:37:20Z</time></trkpt><trkpt lat="45.510494446827224" lon="3.1105678796087473"><ele>790.0</ele><time>2026-05-02T10:37:21Z</time></trkpt><trkpt lat="45.51056193861695" lon="3.110752260613974"><ele>790.5</ele><time>2026-05-02T10:37:22Z</time></trkpt><trkpt lat="45.51065071666464" lon="3.1109137836926943"><ele>791.0</ele><time>2026-05-02T10:37:23Z</time></trkpt><trkpt lat="45.51072845195826" lon="3.1110887942132615"><ele>789.75</ele><time>2026-05-02T10:37:24Z</time></trkpt><trkpt lat="45.510806283091945" lon="3.11126832495899"><ele>788.5</ele><time>2026-05-02T10:37:25Z</time></trkpt><trkpt lat="45.5108763452519" lon="3.1114494311169962"><ele>787.25</ele><time>2026-05-02T10:37:26Z</time></trkpt><trkpt lat="45.510919742954925" lon="3.1116529980286565"><ele>786.0</ele><time>2026-05-02T10:37:27Z</time></trkpt><trkpt lat="45.51097217918555" lon="3.1118468598993516"><ele>784.5</ele><time>2026-05-02T10:37:28Z</time></trkpt><trkpt lat="45.51103764436221" lon="3.112033048900133"><ele>783.0</ele><time>2026-05-02T10:37:29Z</time></trkpt><trkpt lat="45.51108216911102" lon="3.11223712174379"><ele>781.5</ele><time>2026-05-02T10:37:30Z</time></trkpt><trkpt lat="45.51113593843484" lon="3.1124345292549953"><ele>780.0</ele><time>2026-05-02T10:37:31Z</time></trkpt><trkpt lat="45.51118528899368" lon="3.1126362806522887"><ele>779.25</ele><time>2026-05-02T10:37:32Z</time></trkpt><trkpt lat="45.51123983648577" lon="3.1128347534442726"><ele>778.5</ele><time>2026-05-02T10:37:33Z</time></trkpt><trkpt lat="45.511304636529886" lon="3.1130278074649285"><ele>777.75</ele><time>2026-05-02T10:37:34Z</time></trkpt><trkpt lat="45.51138161790488" lon="3.1132106091752227"><ele>777.0</ele><time>2026-05-02T10:37:35Z</time></trkpt><trkpt lat="45.511463200843245" lon="3.1133793258140288"><ele>776.75</ele><time>2026-05-02T10:37:36Z</time></trkpt><trkpt lat="45.511548444449616" lon="3.1135344673026575"><ele>776.5</ele><time>2026-05-02T10:37:37Z</time></trkpt><trkpt lat="45.51164569678696" lon="3.1136854307454462"><ele>776.25</ele><time>2026-05-02T10:37:38Z</time></trkpt><trkpt lat="45.51174374408008" lon="3.113818790101764"><ele>776.0</ele><time>2026-05-02T10:37:39Z</time></trkpt><trkpt lat="45.51184483995327" lon="3.1139462153211253"><ele>776.0</ele><time>2026-05-02T10:37:40Z</time></trkpt><trkpt lat="45.51194691149917" lon="3.1140684716677876"><ele>776.0</ele><time>2026-05-02T10:37:41Z</time></trkpt><trkpt lat="45.51204980974965" lon="3.1141834624897533"><ele>776.0</ele><time>2026-05-02T10:37:42Z</time></trkpt><trkpt lat="45.51214811867593" lon="3.1142945611752633"><ele>776.0</ele><time>2026-05-02T10:37:43Z</time></trkpt><trkpt lat="45.51224175106525" lon="3.1144105756654366"><ele>777.25</ele><time>2026-05-02T10:37:44Z</time></trkpt><trkpt lat="45.512331663132066" lon="3.114529253166258"><ele>778.5</ele><time>2026-05-02T10:37:45Z</time></trkpt><trkpt lat="45.512418171488676" lon="3.114653797847186"><ele>779.75</ele><time>2026-05-02T10:37:46Z</time></trkpt><trkpt lat="45.512495571122045" lon="3.1147806093304293"><ele>781.0</ele><time>2026-05-02T10:37:47Z</time></trkpt><trkpt lat="45.51256341030743" lon="3.114917311595649"><ele>778.25</ele><time>2026-05-02T10:37:48Z</time></trkpt><trkpt lat="45.512624386316936" lon="3.115053942501592"><ele>775.5</ele><time>2026-05-02T10:37:49Z</time></trkpt><trkpt lat="45.512660491778846" lon="3.115209231434416"><ele>772.75</ele><time>2026-05-02T10:37:50Z</time></trkpt><trkpt lat="45.512690124884486" lon="3.115362927804816"><ele>770.0</ele><time>2026-05-02T10:37:51Z</time></trkpt><trkpt lat="45.5127386237899" lon="3.1156778852924987"><ele>769.25</ele><time>2026-05-02T10:37:53Z</time></trkpt><trkpt lat="45.5127871494078" lon="3.1158343861267914"><ele>768.5</ele><time>2026-05-02T10:37:54Z</time></trkpt><trkpt lat="45.51282946373237" lon="3.1159855533233833"><ele>767.75</ele><time>2026-05-02T10:37:55Z</time></trkpt><trkpt lat="45.51288737793956" lon="3.1161301336773426"><ele>767.0</ele><time>2026-05-02T10:37:56Z</time></trkpt><trkpt lat="45.51296203062184" lon="3.116263113648447"><ele>766.5</ele><time>2026-05-02T10:37:57Z</time></trkpt><trkpt lat="45.513045645382306" lon="3.11638854866395"><ele>766.0</ele><time>2026-05-02T10:37:58Z</time></trkpt><trkpt lat="45.513134859741804" lon="3.1165042376422862"><ele>765.5</ele><time>2026-05-02T10:37:59Z</time></trkpt><trkpt lat="45.51323113214081" lon="3.116611825926809"><ele>765.0</ele><time>2026-05-02T10:38:00Z</time></trkpt><trkpt lat="45.51333278730903" lon="3.1167067522030094"><ele>765.0</ele><time>2026-05-02T10:38:01Z</time></trkpt><trkpt lat="45.5134348789116" lon="3.1168012905761175"><ele>765.0</ele><time>2026-05-02T10:38:02Z</time></trkpt><trkpt lat="45.5135429836432" lon="3.1168826556980536"><ele>765.0</ele><time>2026-05-02T10:38:03Z</time></trkpt><trkpt lat="45.51364977813675" lon="3.1169706436459936"><ele>765.0</ele><time>2026-05-02T10:38:04Z</time></trkpt><trkpt lat="45.513757088170074" lon="3.1170588504124956"><ele>763.75</ele><time>2026-05-02T10:38:05Z</time></trkpt><trkpt lat="45.513866038513626" lon="3.117154563247217"><ele>762.5</ele><time>2026-05-02T10:38:06Z</time></trkpt><trkpt lat="45.513968782969854" lon="3.1172565374305927"><ele>761.25</ele><time>2026-05-02T10:38:07Z</time></trkpt><trkpt lat="45.5140723480417" lon="3.1173640391761204"><ele>760.0</ele><time>2026-05-02T10:38:08Z</time></trkpt><trkpt lat="45.5141746950735" lon="3.11747293696213"><ele>760.0</ele><time>2026-05-02T10:38:09Z</time></trkpt><trkpt lat="45.51427838013376" lon="3.1175876267898857"><ele>760.0</ele><time>2026-05-02T10:38:10Z</time></trkpt><trkpt lat="45.514380005472525" lon="3.117693965902467"><ele>760.0</ele><time>2026-05-02T10:38:11Z</time></trkpt><trkpt lat="45.51449353254023" lon="3.1177816363530266"><ele>760.0</ele><time>2026-05-02T10:38:12Z</time></trkpt><trkpt lat="45.51461395665304" lon="3.117855168537701"><ele>760.75</ele><time>2026-05-02T10:38:13Z</time></trkpt><trkpt lat="45.51473558853706" lon="3.1179206679465663"><ele>761.5</ele><time>2026-05-02T10:38:14Z</time></trkpt><trkpt lat="45.51486087850754" lon="3.117978084969666"><ele>762.25</ele><time>2026-05-02T10:38:15Z</time></trkpt><trkpt lat="45.51498510004257" lon="3.1180277260353177"><ele>763.0</ele><time>2026-05-02T10:38:16Z</time></trkpt><trkpt lat="45.51511672669693" lon="3.1180503664765986"><ele>763.0</ele><time>2026-05-02T10:38:17Z</time></trkpt><trkpt lat="45.51524662444813" lon="3.1180750442728136"><ele>763.0</ele><time>2026-05-02T10:38:18Z</time></trkpt><trkpt lat="45.51537512202582" lon="3.1180999407559464"><ele>763.0</ele><time>2026-05-02T10:38:19Z</time></trkpt><trkpt lat="45.515504526150345" lon="3.118132896537036"><ele>763.0</ele><time>2026-05-02T10:38:20Z</time></trkpt><trkpt lat="45.51562791616127" lon="3.118179204088739"><ele>763.0</ele><time>2026-05-02T10:38:21Z</time></trkpt><trkpt lat="45.51575104328042" lon="3.1182263626423685"><ele>763.0</ele><time>2026-05-02T10:38:22Z</time></trkpt><trkpt lat="45.51586802787182" lon="3.11828454093414"><ele>763.0</ele><time>2026-05-02T10:38:23Z</time></trkpt><trkpt lat="45.51598561495686" lon="3.1183445902360982"><ele>763.0</ele><time>2026-05-02T10:38:24Z</time></trkpt><trkpt lat="45.51610254284865" lon="3.1184046584078455"><ele>761.25</ele><time>2026-05-02T10:38:25Z</time></trkpt><trkpt lat="45.51621485829046" lon="3.1184735229228426"><ele>759.5</ele><time>2026-05-02T10:38:26Z</time></trkpt><trkpt lat="45.516325318380524" lon="3.1185487679900743"><ele>757.75</ele><time>2026-05-02T10:38:27Z</time></trkpt><trkpt lat="45.51641194076908" lon="3.118667212149938"><ele>756.0</ele><time>2026-05-02T10:38:28Z</time></trkpt><trkpt lat="45.5164914172213" lon="3.118788954893743"><ele>756.0</ele><time>2026-05-02T10:38:29Z</time></trkpt><trkpt lat="45.516571939814845" lon="3.1189099995049583"><ele>756.0</ele><time>2026-05-02T10:38:30Z</time></trkpt><trkpt lat="45.51664850260524" lon="3.119033648081414"><ele>756.0</ele><time>2026-05-02T10:38:31Z</time></trkpt><trkpt lat="45.516715840001865" lon="3.1191616158597215"><ele>756.0</ele><time>2026-05-02T10:38:32Z</time></trkpt><trkpt lat="45.516763791069664" lon="3.119303961951777"><ele>754.5</ele><time>2026-05-02T10:38:33Z</time></trkpt><trkpt lat="45.51677136421348" lon="3.1194579976370633"><ele>753.0</ele><time>2026-05-02T10:38:34Z</time></trkpt><trkpt lat="45.51677737622524" lon="3.1196219812933155"><ele>751.5</ele><time>2026-05-02T10:38:35Z</time></trkpt><trkpt lat="45.51678542796702" lon="3.1197832011088633"><ele>750.0</ele><time>2026-05-02T10:38:36Z</time></trkpt><trkpt lat="45.51681320278658" lon="3.1199417191887937"><ele>748.25</ele><time>2026-05-02T10:38:37Z</time></trkpt><trkpt lat="45.51684539085272" lon="3.120096297312723"><ele>746.5</ele><time>2026-05-02T10:38:38Z</time></trkpt><trkpt lat="45.51690719730173" lon="3.1202356827141977"><ele>744.75</ele><time>2026-05-02T10:38:39Z</time></trkpt><trkpt lat="45.51699226987373" lon="3.1203496536594963"><ele>743.0</ele><time>2026-05-02T10:38:40Z</time></trkpt><trkpt lat="45.51705101514707" lon="3.1204813747003386"><ele>743.2</ele><time>2026-05-02T10:38:41Z</time></trkpt><trkpt lat="45.51709770426138" lon="3.120625777446804"><ele>743.4</ele><time>2026-05-02T10:38:42Z</time></trkpt><trkpt lat="45.51713373590891" lon="3.1207748300379445"><ele>743.6</ele><time>2026-05-02T10:38:43Z</time></trkpt><trkpt lat="45.51716568234314" lon="3.1209246106834554"><ele>743.8000000000001</ele><time>2026-05-02T10:38:44Z</time></trkpt><trkpt lat="45.51721031737983" lon="3.1210725679980733"><ele>744.0</ele><time>2026-05-02T10:38:45Z</time></trkpt><trkpt lat="45.51723420822724" lon="3.1212236867067302"><ele>744.0</ele><time>2026-05-02T10:38:46Z</time></trkpt><trkpt lat="45.51722362147767" lon="3.121383319425327"><ele>744.0</ele><time>2026-05-02T10:38:47Z</time></trkpt><trkpt lat="45.51721189845519" lon="3.12153805339675"><ele>744.0</ele><time>2026-05-02T10:38:48Z</time></trkpt><trkpt lat="45.51719736427148" lon="3.1217001188371842"><ele>744.0</ele><time>2026-05-02T10:38:49Z</time></trkpt><trkpt lat="45.51717970074004" lon="3.121851160055498"><ele>744.0</ele><time>2026-05-02T10:38:50Z</time></trkpt><trkpt lat="45.517157252764996" lon="3.122008181128802"><ele>743.25</ele><time>2026-05-02T10:38:51Z</time></trkpt><trkpt lat="45.51713081109964" lon="3.1221680902426545"><ele>742.5</ele><time>2026-05-02T10:38:52Z</time></trkpt><trkpt lat="45.51710693049615" lon="3.1223292226894444"><ele>741.75</ele><time>2026-05-02T10:38:53Z</time></trkpt><trkpt lat="45.51710383845298" lon="3.122496547956275"><ele>741.0</ele><time>2026-05-02T10:38:54Z</time></trkpt><trkpt lat="45.51712046646893" lon="3.12266050011521"><ele>741.0</ele><time>2026-05-02T10:38:55Z</time></trkpt><trkpt lat="45.517167378673754" lon="3.1228155193465015"><ele>741.0</ele><time>2026-05-02T10:38:56Z</time></trkpt><trkpt lat="45.517234805256976" lon="3.12296222450192"><ele>741.0</ele><time>2026-05-02T10:38:57Z</time></trkpt><trkpt lat="45.51730181945885" lon="3.123099570589211"><ele>741.0</ele><time>2026-05-02T10:38:58Z</time></trkpt><trkpt lat="45.51736086233272" lon="3.1232487950094914"><ele>739.0</ele><time>2026-05-02T10:38:59Z</time></trkpt><trkpt lat="45.51745029942607" lon="3.1233653954227307"><ele>737.0</ele><time>2026-05-02T10:39:00Z</time></trkpt><trkpt lat="45.51752797225496" lon="3.1234907768219013"><ele>735.0</ele><time>2026-05-02T10:39:01Z</time></trkpt><trkpt lat="45.5176105646535" lon="3.123614055951723"><ele>733.0</ele><time>2026-05-02T10:39:02Z</time></trkpt><trkpt lat="45.517691354702684" lon="3.123739536297881"><ele>733.0</ele><time>2026-05-02T10:39:03Z</time></trkpt><trkpt lat="45.517760260832624" lon="3.1238760511154715"><ele>733.0</ele><time>2026-05-02T10:39:04Z</time></trkpt><trkpt lat="45.517804168755575" lon="3.1240376125638476"><ele>733.0</ele><time>2026-05-02T10:39:05Z</time></trkpt><trkpt lat="45.51785890398611" lon="3.124191222780707"><ele>733.0</ele><time>2026-05-02T10:39:06Z</time></trkpt><trkpt lat="45.51791662578509" lon="3.124343449459691"><ele>736.5</ele><time>2026-05-02T10:39:07Z</time></trkpt><trkpt lat="45.51797608220259" lon="3.124494962475112"><ele>740.0</ele><time>2026-05-02T10:39:08Z</time></trkpt><trkpt lat="45.51805469932422" lon="3.1246335174445563"><ele>743.5</ele><time>2026-05-02T10:39:09Z</time></trkpt><trkpt lat="45.518138815284416" lon="3.1247697437710777"><ele>747.0</ele><time>2026-05-02T10:39:10Z</time></trkpt><trkpt lat="45.51823476586918" lon="3.124884661408907"><ele>742.75</ele><time>2026-05-02T10:39:11Z</time></trkpt><trkpt lat="45.51834260992158" lon="3.124978872292914"><ele>738.5</ele><time>2026-05-02T10:39:12Z</time></trkpt><trkpt lat="45.51846002815319" lon="3.1250609310242035"><ele>734.25</ele><time>2026-05-02T10:39:13Z</time></trkpt><trkpt lat="45.518573254846515" lon="3.1251430668375977"><ele>730.0</ele><time>2026-05-02T10:39:14Z</time></trkpt><trkpt lat="45.518686248649786" lon="3.1252266718235155"><ele>728.75</ele><time>2026-05-02T10:39:15Z</time></trkpt><trkpt lat="45.51879882642031" lon="3.1253245194503214"><ele>727.5</ele><time>2026-05-02T10:39:16Z</time></trkpt><trkpt lat="45.5188941908739" lon="3.1254484485452236"><ele>726.25</ele><time>2026-05-02T10:39:17Z</time></trkpt><trkpt lat="45.51898402451972" lon="3.1255868950750467"><ele>725.0</ele><time>2026-05-02T10:39:18Z</time></trkpt><trkpt lat="45.519066545809125" lon="3.1257310818157213"><ele>725.0</ele><time>2026-05-02T10:39:19Z</time></trkpt><trkpt lat="45.51913428025913" lon="3.125869195430469"><ele>725.0</ele><time>2026-05-02T10:39:20Z</time></trkpt><trkpt lat="45.51916777559104" lon="3.1260239499424336"><ele>725.0</ele><time>2026-05-02T10:39:21Z</time></trkpt><trkpt lat="45.51917408612765" lon="3.126175195822674"><ele>725.0</ele><time>2026-05-02T10:39:22Z</time></trkpt><trkpt lat="45.51921436767392" lon="3.126326426896869"><ele>725.0</ele><time>2026-05-02T10:39:23Z</time></trkpt><trkpt lat="45.51926270206874" lon="3.1264573933436144"><ele>725.0</ele><time>2026-05-02T10:39:24Z</time></trkpt><trkpt lat="45.51934221452915" lon="3.1265512616871405"><ele>725.0</ele><time>2026-05-02T10:39:25Z</time></trkpt><trkpt lat="45.519426731716" lon="3.1265959730295614"><ele>725.0</ele><time>2026-05-02T10:39:26Z</time></trkpt><trkpt lat="45.519503921629756" lon="3.126621789459202"><ele>725.0</ele><time>2026-05-02T10:39:27Z</time></trkpt><trkpt lat="45.519567072831784" lon="3.1266527230365226"><ele>725.0</ele><time>2026-05-02T10:39:28Z</time></trkpt><trkpt lat="45.519642773733096" lon="3.1267323505244247"><ele>723.8333333333333</ele><time>2026-05-02T10:39:30Z</time></trkpt><trkpt lat="45.51958167687972" lon="3.126846561067171"><ele>722.6666666666666</ele><time>2026-05-02T10:39:32Z</time></trkpt><trkpt lat="45.51955197585123" lon="3.126929844465007"><ele>721.5</ele><time>2026-05-02T10:39:33Z</time></trkpt><trkpt lat="45.519489804580644" lon="3.1270863444871493"><ele>720.3333333333334</ele><time>2026-05-02T10:39:35Z</time></trkpt><trkpt lat="45.51944255865989" lon="3.1271580491737994"><ele>719.1666666666667</ele><time>2026-05-02T10:39:36Z</time></trkpt><trkpt lat="45.519377262196386" lon="3.127206067150034"><ele>718.0</ele><time>2026-05-02T10:39:37Z</time></trkpt><trkpt lat="45.519298928973726" lon="3.1272388867128624"><ele>717.25</ele><time>2026-05-02T10:39:38Z</time></trkpt><trkpt lat="45.51920579861451" lon="3.127248339323419"><ele>716.5</ele><time>2026-05-02T10:39:39Z</time></trkpt><trkpt lat="45.51909346235045" lon="3.12725979444712"><ele>715.75</ele><time>2026-05-02T10:39:40Z</time></trkpt><trkpt lat="45.518969636563305" lon="3.127290736426598"><ele>715.0</ele><time>2026-05-02T10:39:41Z</time></trkpt><trkpt lat="45.51880316151403" lon="3.1273161568721872"><ele>717.3333333333334</ele><time>2026-05-02T10:39:42Z</time></trkpt><trkpt lat="45.518648676680435" lon="3.127376061215273"><ele>719.6666666666666</ele><time>2026-05-02T10:39:43Z</time></trkpt><trkpt lat="45.51852218721681" lon="3.1275146365249125"><ele>722.0</ele><time>2026-05-02T10:39:44Z</time></trkpt><trkpt lat="45.51839720524581" lon="3.1277213902234067"><ele>722.0</ele><time>2026-05-02T10:39:45Z</time></trkpt><trkpt lat="45.518296268411" lon="3.127945213340678"><ele>722.0</ele><time>2026-05-02T10:39:46Z</time></trkpt><trkpt lat="45.518170516750644" lon="3.128101476522928"><ele>722.0</ele><time>2026-05-02T10:39:47Z</time></trkpt><trkpt lat="45.51805574922494" lon="3.128262551397452"><ele>722.75</ele><time>2026-05-02T10:39:48Z</time></trkpt><trkpt lat="45.51796922634428" lon="3.1284150480697384"><ele>723.5</ele><time>2026-05-02T10:39:49Z</time></trkpt><trkpt lat="45.5178678425207" lon="3.128552526793013"><ele>724.25</ele><time>2026-05-02T10:39:50Z</time></trkpt><trkpt lat="45.51776717090037" lon="3.1286952309217573"><ele>725.0</ele><time>2026-05-02T10:39:51Z</time></trkpt><trkpt lat="45.51766811007921" lon="3.1288400955033877"><ele>726.25</ele><time>2026-05-02T10:39:52Z</time></trkpt><trkpt lat="45.51756606677144" lon="3.1289836066148373"><ele>727.5</ele><time>2026-05-02T10:39:53Z</time></trkpt><trkpt lat="45.51745868503117" lon="3.1291289128220945"><ele>728.75</ele><time>2026-05-02T10:39:54Z</time></trkpt><trkpt lat="45.51735259744396" lon="3.1292735117285986"><ele>730.0</ele><time>2026-05-02T10:39:55Z</time></trkpt><trkpt lat="45.51725598315296" lon="3.1293877622340656"><ele>730.0</ele><time>2026-05-02T10:39:56Z</time></trkpt><trkpt lat="45.51719858908771" lon="3.1295257782369643"><ele>730.0</ele><time>2026-05-02T10:39:57Z</time></trkpt><trkpt lat="45.51714657293284" lon="3.1296617352680136"><ele>730.0</ele><time>2026-05-02T10:39:58Z</time></trkpt><trkpt lat="45.517123556462465" lon="3.1298186285767957"><ele>730.0</ele><time>2026-05-02T10:39:59Z</time></trkpt><trkpt lat="45.51712934141995" lon="3.129987585641912"><ele>731.25</ele><time>2026-05-02T10:40:00Z</time></trkpt><trkpt lat="45.51715368607374" lon="3.130156128927894"><ele>732.5</ele><time>2026-05-02T10:40:01Z</time></trkpt><trkpt lat="45.51718826955625" lon="3.1303166145633923"><ele>733.75</ele><time>2026-05-02T10:40:02Z</time></trkpt><trkpt lat="45.517238533791506" lon="3.130463770111314"><ele>735.0</ele><time>2026-05-02T10:40:03Z</time></trkpt><trkpt lat="45.51729260487279" lon="3.130596690359155"><ele>735.0</ele><time>2026-05-02T10:40:04Z</time></trkpt><trkpt lat="45.517352076091086" lon="3.130712624708461"><ele>735.0</ele><time>2026-05-02T10:40:05Z</time></trkpt><trkpt lat="45.517400798607206" lon="3.1308179029955903"><ele>735.0</ele><time>2026-05-02T10:40:06Z</time></trkpt><trkpt lat="45.517438916991466" lon="3.1309200605668184"><ele>735.0</ele><time>2026-05-02T10:40:07Z</time></trkpt><trkpt lat="45.517463537850865" lon="3.1310143845940903"><ele>735.0</ele><time>2026-05-02T10:40:08Z</time></trkpt><trkpt lat="45.5174536906677" lon="3.1311885626011606"><ele>735.3333333333334</ele><time>2026-05-02T10:40:10Z</time></trkpt><trkpt lat="45.51743583311124" lon="3.1312811727028764"><ele>735.6666666666666</ele><time>2026-05-02T10:40:11Z</time></trkpt><trkpt lat="45.517406497367325" lon="3.1313828073616587"><ele>736.0</ele><time>2026-05-02T10:40:12Z</time></trkpt><trkpt lat="45.51739643509588" lon="3.131508243870781"><ele>736.3333333333333</ele><time>2026-05-02T10:40:13Z</time></trkpt><trkpt lat="45.517393316542616" lon="3.1316251688060692"><ele>736.6666666666666</ele><time>2026-05-02T10:40:14Z</time></trkpt><trkpt lat="45.51741127936613" lon="3.1317525799722983"><ele>737.0</ele><time>2026-05-02T10:40:15Z</time></trkpt><trkpt lat="45.51741738907555" lon="3.1318606549374177"><ele>737.0</ele><time>2026-05-02T10:40:16Z</time></trkpt><trkpt lat="45.517423704301706" lon="3.1319679109573695"><ele>737.0</ele><time>2026-05-02T10:40:17Z</time></trkpt><trkpt lat="45.517437974527056" lon="3.132091041692983"><ele>737.0</ele><time>2026-05-02T10:40:18Z</time></trkpt><trkpt lat="45.5174546612828" lon="3.132230221215995"><ele>737.0</ele><time>2026-05-02T10:40:19Z</time></trkpt><trkpt lat="45.517528824263046" lon="3.1323490874748403"><ele>737.0</ele><time>2026-05-02T10:40:20Z</time></trkpt><trkpt lat="45.51755905036621" lon="3.132443091631989"><ele>737.0</ele><time>2026-05-02T10:40:21Z</time></trkpt><trkpt lat="45.51751826205386" lon="3.132575051911434"><ele>737.0</ele><time>2026-05-02T10:40:23Z</time></trkpt><trkpt lat="45.517456080123885" lon="3.1326200951775847"><ele>737.0</ele><time>2026-05-02T10:40:24Z</time></trkpt><trkpt lat="45.517377281919266" lon="3.1326373610687672"><ele>737.0</ele><time>2026-05-02T10:40:25Z</time></trkpt><trkpt lat="45.51729346542973" lon="3.132617576559782"><ele>737.0</ele><time>2026-05-02T10:40:26Z</time></trkpt><trkpt lat="45.51720523314229" lon="3.1325569172367604"><ele>737.0</ele><time>2026-05-02T10:40:27Z</time></trkpt><trkpt lat="45.51713463101791" lon="3.132464976399193"><ele>737.0</ele><time>2026-05-02T10:40:28Z</time></trkpt><trkpt lat="45.51706987187397" lon="3.1323501688865574"><ele>734.4000000000001</ele><time>2026-05-02T10:40:29Z</time></trkpt><trkpt lat="45.51703435687339" lon="3.1322093486841074"><ele>731.8000000000001</ele><time>2026-05-02T10:40:30Z</time></trkpt><trkpt lat="45.516970227652976" lon="3.13209218425986"><ele>729.2</ele><time>2026-05-02T10:40:31Z</time></trkpt><trkpt lat="45.51690551732067" lon="3.131968753827378"><ele>726.6</ele><time>2026-05-02T10:40:32Z</time></trkpt><trkpt lat="45.51681432203473" lon="3.1318681674840185"><ele>724.0</ele><time>2026-05-02T10:40:33Z</time></trkpt><trkpt lat="45.51670332796243" lon="3.131784408185125"><ele>724.0</ele><time>2026-05-02T10:40:34Z</time></trkpt><trkpt lat="45.5165809373385" lon="3.1317062523845727"><ele>724.0</ele><time>2026-05-02T10:40:35Z</time></trkpt><trkpt lat="45.51645425211708" lon="3.1316354752612288"><ele>724.0</ele><time>2026-05-02T10:40:36Z</time></trkpt><trkpt lat="45.51632423516359" lon="3.1315784718330306"><ele>724.0</ele><time>2026-05-02T10:40:37Z</time></trkpt><trkpt lat="45.51618649429233" lon="3.1315355598755548"><ele>722.5</ele><time>2026-05-02T10:40:38Z</time></trkpt><trkpt lat="45.51604979873478" lon="3.1314781578411535"><ele>721.0</ele><time>2026-05-02T10:40:39Z</time></trkpt><trkpt lat="45.51592078327538" lon="3.131441739002581"><ele>719.5</ele><time>2026-05-02T10:40:40Z</time></trkpt><trkpt lat="45.515794031633014" lon="3.1314083935884987"><ele>718.0</ele><time>2026-05-02T10:40:41Z</time></trkpt><trkpt lat="45.51565963424415" lon="3.1313830314673243"><ele>718.0</ele><time>2026-05-02T10:40:42Z</time></trkpt><trkpt lat="45.51551982134718" lon="3.1313683418245244"><ele>718.0</ele><time>2026-05-02T10:40:43Z</time></trkpt><trkpt lat="45.51537948101195" lon="3.13137283466851"><ele>718.0</ele><time>2026-05-02T10:40:44Z</time></trkpt><trkpt lat="45.515240692887595" lon="3.131399818226252"><ele>718.0</ele><time>2026-05-02T10:40:45Z</time></trkpt><trkpt lat="45.51509568312947" lon="3.131449057240725"><ele>716.0</ele><time>2026-05-02T10:40:46Z</time></trkpt><trkpt lat="45.51494479293041" lon="3.1315283487616887"><ele>714.0</ele><time>2026-05-02T10:40:47Z</time></trkpt><trkpt lat="45.514802331028626" lon="3.1316191484533906"><ele>712.0</ele><time>2026-05-02T10:40:48Z</time></trkpt><trkpt lat="45.51467025596338" lon="3.131722847306444"><ele>710.0</ele><time>2026-05-02T10:40:49Z</time></trkpt><trkpt lat="45.514564588609545" lon="3.131854058084175"><ele>708.0</ele><time>2026-05-02T10:40:50Z</time></trkpt><trkpt lat="45.514457440338106" lon="3.1319709212411952"><ele>706.0</ele><time>2026-05-02T10:40:51Z</time></trkpt><trkpt lat="45.51433813241263" lon="3.1320539427830068"><ele>704.0</ele><time>2026-05-02T10:40:52Z</time></trkpt><trkpt lat="45.514214881665296" lon="3.1321191945240123"><ele>704.0</ele><time>2026-05-02T10:40:53Z</time></trkpt><trkpt lat="45.51407344680346" lon="3.1321609145192744"><ele>704.0</ele><time>2026-05-02T10:40:54Z</time></trkpt><trkpt lat="45.51391569623155" lon="3.1322202235240013"><ele>704.0</ele><time>2026-05-02T10:40:55Z</time></trkpt><trkpt lat="45.51375492104867" lon="3.1322971814989318"><ele>700.6666666666666</ele><time>2026-05-02T10:40:56Z</time></trkpt><trkpt lat="45.51359467782424" lon="3.1324007480884277"><ele>697.3333333333334</ele><time>2026-05-02T10:40:57Z</time></trkpt><trkpt lat="45.51343276196398" lon="3.132484283547443"><ele>694.0</ele><time>2026-05-02T10:40:58Z</time></trkpt><trkpt lat="45.513269551695444" lon="3.132577128807"><ele>694.0</ele><time>2026-05-02T10:40:59Z</time></trkpt><trkpt lat="45.51310391804488" lon="3.132682013753929"><ele>694.0</ele><time>2026-05-02T10:41:00Z</time></trkpt><trkpt lat="45.51293862756414" lon="3.132808382416259"><ele>694.0</ele><time>2026-05-02T10:41:01Z</time></trkpt><trkpt lat="45.51277659888696" lon="3.13291421683119"><ele>693.0</ele><time>2026-05-02T10:41:02Z</time></trkpt><trkpt lat="45.51263513714555" lon="3.133021036428032"><ele>692.0</ele><time>2026-05-02T10:41:03Z</time></trkpt><trkpt lat="45.5124862194102" lon="3.1331062633581994"><ele>691.0</ele><time>2026-05-02T10:41:04Z</time></trkpt><trkpt lat="45.51231967296253" lon="3.1331813533538937"><ele>689.6666666666667</ele><time>2026-05-02T10:41:05Z</time></trkpt><trkpt lat="45.51214803562052" lon="3.133279304046668"><ele>688.3333333333334</ele><time>2026-05-02T10:41:06Z</time></trkpt><trkpt lat="45.51198733732363" lon="3.1333994079106664"><ele>687.0</ele><time>2026-05-02T10:41:07Z</time></trkpt><trkpt lat="45.51183301984614" lon="3.133549806343437"><ele>686.0</ele><time>2026-05-02T10:41:08Z</time></trkpt><trkpt lat="45.511689628352975" lon="3.1337046680075664"><ele>685.0</ele><time>2026-05-02T10:41:09Z</time></trkpt><trkpt lat="45.51154888981507" lon="3.1338796384059244"><ele>684.0</ele><time>2026-05-02T10:41:10Z</time></trkpt><trkpt lat="45.51142212954957" lon="3.1340468179140393"><ele>682.6666666666666</ele><time>2026-05-02T10:41:11Z</time></trkpt><trkpt lat="45.51129196292731" lon="3.1342032426545283"><ele>681.3333333333333</ele><time>2026-05-02T10:41:12Z</time></trkpt><trkpt lat="45.51114993494565" lon="3.13434933454313"><ele>680.0</ele><time>2026-05-02T10:41:13Z</time></trkpt><trkpt lat="45.511002461770964" lon="3.134494477210563"><ele>680.0</ele><time>2026-05-02T10:41:14Z</time></trkpt><trkpt lat="45.51085089788182" lon="3.13464782848051"><ele>680.0</ele><time>2026-05-02T10:41:15Z</time></trkpt><trkpt lat="45.51071780170437" lon="3.1348052079870588"><ele>680.0</ele><time>2026-05-02T10:41:16Z</time></trkpt><trkpt lat="45.5105969372957" lon="3.134965350440922"><ele>678.3333333333333</ele><time>2026-05-02T10:41:17Z</time></trkpt><trkpt lat="45.510466013921445" lon="3.135139975596126"><ele>676.6666666666666</ele><time>2026-05-02T10:41:18Z</time></trkpt><trkpt lat="45.51034303754123" lon="3.1353040012974507"><ele>675.0</ele><time>2026-05-02T10:41:19Z</time></trkpt><trkpt lat="45.510214031596774" lon="3.135473101466971"><ele>674.3333333333334</ele><time>2026-05-02T10:41:20Z</time></trkpt><trkpt lat="45.51008422948238" lon="3.1356325051300837"><ele>673.6666666666667</ele><time>2026-05-02T10:41:21Z</time></trkpt><trkpt lat="45.50996352439943" lon="3.1358058954090318"><ele>673.0</ele><time>2026-05-02T10:41:22Z</time></trkpt><trkpt lat="45.50985496335712" lon="3.1359913447910026"><ele>672.3333333333334</ele><time>2026-05-02T10:41:23Z</time></trkpt><trkpt lat="45.509780354379316" lon="3.136205740205898"><ele>671.6666666666666</ele><time>2026-05-02T10:41:24Z</time></trkpt><trkpt lat="45.50968836703286" lon="3.1364137837990915"><ele>671.0</ele><time>2026-05-02T10:41:25Z</time></trkpt><trkpt lat="45.509614048386126" lon="3.1366227676687575"><ele>671.6666666666666</ele><time>2026-05-02T10:41:26Z</time></trkpt><trkpt lat="45.50953928703839" lon="3.1368331900864046"><ele>672.3333333333334</ele><time>2026-05-02T10:41:27Z</time></trkpt><trkpt lat="45.50946441247707" lon="3.1370456860381304"><ele>673.0</ele><time>2026-05-02T10:41:28Z</time></trkpt><trkpt lat="45.509393209950865" lon="3.137247760655711"><ele>673.6666666666667</ele><time>2026-05-02T10:41:29Z</time></trkpt><trkpt lat="45.50932158495381" lon="3.1374510341179316"><ele>674.3333333333334</ele><time>2026-05-02T10:41:30Z</time></trkpt><trkpt lat="45.50926197755185" lon="3.1376700105169335"><ele>675.0</ele><time>2026-05-02T10:41:31Z</time></trkpt><trkpt lat="45.509178512313966" lon="3.137857077934031"><ele>675.0</ele><time>2026-05-02T10:41:32Z</time></trkpt><trkpt lat="45.50910832913145" lon="3.1380572975534777"><ele>675.0</ele><time>2026-05-02T10:41:33Z</time></trkpt><trkpt lat="45.509040021333696" lon="3.138255919714281"><ele>675.0</ele><time>2026-05-02T10:41:34Z</time></trkpt><trkpt lat="45.50897083419401" lon="3.1384594185737056"><ele>676.0</ele><time>2026-05-02T10:41:35Z</time></trkpt><trkpt lat="45.50890439616591" lon="3.1386513548278803"><ele>677.0</ele><time>2026-05-02T10:41:36Z</time></trkpt><trkpt lat="45.50883475872989" lon="3.138847413248275"><ele>678.0</ele><time>2026-05-02T10:41:37Z</time></trkpt><trkpt lat="45.508762876095226" lon="3.13904188783924"><ele>681.3333333333334</ele><time>2026-05-02T10:41:38Z</time></trkpt><trkpt lat="45.5086802353689" lon="3.1392270799944746"><ele>684.6666666666667</ele><time>2026-05-02T10:41:39Z</time></trkpt><trkpt lat="45.50858127485985" lon="3.1394040941314474"><ele>688.0</ele><time>2026-05-02T10:41:40Z</time></trkpt><trkpt lat="45.508486034119976" lon="3.139547227602034"><ele>688.0</ele><time>2026-05-02T10:41:41Z</time></trkpt><trkpt lat="45.50840028051546" lon="3.1396695613632803"><ele>688.0</ele><time>2026-05-02T10:41:42Z</time></trkpt><trkpt lat="45.508312163609304" lon="3.139780045794952"><ele>688.0</ele><time>2026-05-02T10:41:43Z</time></trkpt><trkpt lat="45.50821602643554" lon="3.1398991540207892"><ele>688.0</ele><time>2026-05-02T10:41:44Z</time></trkpt><trkpt lat="45.5081455189814" lon="3.140058392169785"><ele>689.0</ele><time>2026-05-02T10:41:45Z</time></trkpt><trkpt lat="45.50806263945206" lon="3.1401766151085333"><ele>690.0</ele><time>2026-05-02T10:41:46Z</time></trkpt><trkpt lat="45.507986803415896" lon="3.140276342700726"><ele>691.0</ele><time>2026-05-02T10:41:47Z</time></trkpt><trkpt lat="45.507914529284214" lon="3.1403483948994926"><ele>692.0</ele><time>2026-05-02T10:41:48Z</time></trkpt><trkpt lat="45.507815076295124" lon="3.140344856118538"><ele>693.0</ele><time>2026-05-02T10:41:49Z</time></trkpt><trkpt lat="45.507725487095136" lon="3.1403470801168623"><ele>693.6666666666666</ele><time>2026-05-02T10:41:50Z</time></trkpt><trkpt lat="45.507626664630344" lon="3.140343462598505"><ele>694.3333333333334</ele><time>2026-05-02T10:41:51Z</time></trkpt><trkpt lat="45.50754746321891" lon="3.1403454935425565"><ele>695.0</ele><time>2026-05-02T10:41:52Z</time></trkpt><trkpt lat="45.50747641796812" lon="3.140370935504036"><ele>695.6666666666667</ele><time>2026-05-02T10:41:53Z</time></trkpt><trkpt lat="45.50739890336891" lon="3.14036399060058"><ele>696.3333333333334</ele><time>2026-05-02T10:41:54Z</time></trkpt><trkpt lat="45.50732806035043" lon="3.140448649380724"><ele>697.0</ele><time>2026-05-02T10:41:55Z</time></trkpt><trkpt lat="45.50725934287788" lon="3.1405150692077464"><ele>697.0</ele><time>2026-05-02T10:41:56Z</time></trkpt><trkpt lat="45.50719437030599" lon="3.1405833119872084"><ele>697.0</ele><time>2026-05-02T10:41:57Z</time></trkpt><trkpt lat="45.50713108351637" lon="3.1406268146542615"><ele>697.0</ele><time>2026-05-02T10:41:58Z</time></trkpt><trkpt lat="45.50706702844344" lon="3.1407084109354346"><ele>697.0</ele><time>2026-05-02T10:42:00Z</time></trkpt><trkpt lat="45.50702112342094" lon="3.1407816519455394"><ele>697.0</ele><time>2026-05-02T10:42:03Z</time></trkpt><trkpt lat="45.50707908243302" lon="3.1409721490003815"><ele>698.0</ele><time>2026-05-02T10:42:11Z</time></trkpt><trkpt lat="45.50715192692212" lon="3.1410763029890005"><ele>699.0</ele><time>2026-05-02T10:42:13Z</time></trkpt><trkpt lat="45.5072363208923" lon="3.1411965375316266"><ele>700.0</ele><time>2026-05-02T10:42:15Z</time></trkpt><trkpt lat="45.50730930624557" lon="3.1412933316241083"><ele>701.0</ele><time>2026-05-02T10:42:17Z</time></trkpt><trkpt lat="45.507400592109576" lon="3.1413926197600857"><ele>702.0</ele><time>2026-05-02T10:42:19Z</time></trkpt><trkpt lat="45.50749067577376" lon="3.141482825336074"><ele>701.6666666666666</ele><time>2026-05-02T10:42:21Z</time></trkpt><trkpt lat="45.507590835466566" lon="3.1415899753362577"><ele>701.3333333333334</ele><time>2026-05-02T10:42:23Z</time></trkpt><trkpt lat="45.50764931863669" lon="3.141650385521308"><ele>701.0</ele><time>2026-05-02T10:42:24Z</time></trkpt><trkpt lat="45.50771377086577" lon="3.141718985861372"><ele>700.6666666666667</ele><time>2026-05-02T10:42:25Z</time></trkpt><trkpt lat="45.50777542147087" lon="3.14178733067803"><ele>700.3333333333334</ele><time>2026-05-02T10:42:26Z</time></trkpt><trkpt lat="45.50783856907581" lon="3.1418545114542673"><ele>700.0</ele><time>2026-05-02T10:42:27Z</time></trkpt><trkpt lat="45.50791074201051" lon="3.1419223070574382"><ele>700.0</ele><time>2026-05-02T10:42:28Z</time></trkpt><trkpt lat="45.50802713604952" lon="3.1420404460764897"><ele>700.0</ele><time>2026-05-02T10:42:30Z</time></trkpt><trkpt lat="45.50810503845046" lon="3.142123513247801"><ele>700.0</ele><time>2026-05-02T10:42:31Z</time></trkpt><trkpt lat="45.50819446379539" lon="3.1422192603319"><ele>700.0</ele><time>2026-05-02T10:42:32Z</time></trkpt><trkpt lat="45.5082779572434" lon="3.1423245261257153"><ele>701.5</ele><time>2026-05-02T10:42:33Z</time></trkpt><trkpt lat="45.50836548768534" lon="3.1424233340326393"><ele>703.0</ele><time>2026-05-02T10:42:34Z</time></trkpt><trkpt lat="45.508451453396326" lon="3.142528646872388"><ele>704.5</ele><time>2026-05-02T10:42:35Z</time></trkpt><trkpt lat="45.50852960477598" lon="3.14264681948218"><ele>706.0</ele><time>2026-05-02T10:42:36Z</time></trkpt><trkpt lat="45.50860120612553" lon="3.1427744207039012"><ele>706.0</ele><time>2026-05-02T10:42:37Z</time></trkpt><trkpt lat="45.5086733977854" lon="3.142915655250437"><ele>706.0</ele><time>2026-05-02T10:42:38Z</time></trkpt><trkpt lat="45.50874908633745" lon="3.1430658160635376"><ele>706.0</ele><time>2026-05-02T10:42:39Z</time></trkpt><trkpt lat="45.50883059011667" lon="3.1432367507942107"><ele>706.0</ele><time>2026-05-02T10:42:40Z</time></trkpt><trkpt lat="45.508917973298495" lon="3.1434174473589582"><ele>704.25</ele><time>2026-05-02T10:42:41Z</time></trkpt><trkpt lat="45.509002593803544" lon="3.1436056171951243"><ele>702.5</ele><time>2026-05-02T10:42:42Z</time></trkpt><trkpt lat="45.509078807503975" lon="3.1437745606633283"><ele>700.75</ele><time>2026-05-02T10:42:43Z</time></trkpt><trkpt lat="45.50914420830934" lon="3.143931219663011"><ele>699.0</ele><time>2026-05-02T10:42:44Z</time></trkpt><trkpt lat="45.50920699644914" lon="3.1440860195176175"><ele>699.0</ele><time>2026-05-02T10:42:45Z</time></trkpt><trkpt lat="45.50924506849852" lon="3.1442417864958485"><ele>699.0</ele><time>2026-05-02T10:42:46Z</time></trkpt><trkpt lat="45.509278900687725" lon="3.1443934955018324"><ele>699.0</ele><time>2026-05-02T10:42:47Z</time></trkpt><trkpt lat="45.509298527593245" lon="3.1445479531260356"><ele>699.0</ele><time>2026-05-02T10:42:48Z</time></trkpt><trkpt lat="45.509303959883276" lon="3.144707143563518"><ele>699.0</ele><time>2026-05-02T10:42:49Z</time></trkpt><trkpt lat="45.50930101433585" lon="3.1448771762838605"><ele>698.5</ele><time>2026-05-02T10:42:50Z</time></trkpt><trkpt lat="45.509291459608875" lon="3.145059473242179"><ele>698.0</ele><time>2026-05-02T10:42:51Z</time></trkpt><trkpt lat="45.50927567262764" lon="3.14526270713262"><ele>697.5</ele><time>2026-05-02T10:42:52Z</time></trkpt><trkpt lat="45.509252026334295" lon="3.145466356001573"><ele>697.0</ele><time>2026-05-02T10:42:53Z</time></trkpt><trkpt lat="45.509209111656965" lon="3.1456667814783494"><ele>695.25</ele><time>2026-05-02T10:42:54Z</time></trkpt><trkpt lat="45.50915704218617" lon="3.1458584387323683"><ele>693.5</ele><time>2026-05-02T10:42:55Z</time></trkpt><trkpt lat="45.50909823532452" lon="3.146034330496577"><ele>691.75</ele><time>2026-05-02T10:42:56Z</time></trkpt><trkpt lat="45.509054126683715" lon="3.146217804230981"><ele>690.0</ele><time>2026-05-02T10:42:57Z</time></trkpt><trkpt lat="45.50898900969166" lon="3.146395958782525"><ele>688.75</ele><time>2026-05-02T10:42:58Z</time></trkpt><trkpt lat="45.50890746158311" lon="3.1465658962482213"><ele>687.5</ele><time>2026-05-02T10:42:59Z</time></trkpt><trkpt lat="45.50885392935532" lon="3.1467674754102783"><ele>686.25</ele><time>2026-05-02T10:43:00Z</time></trkpt><trkpt lat="45.50879335676562" lon="3.1469469297620014"><ele>685.0</ele><time>2026-05-02T10:43:01Z</time></trkpt><trkpt lat="45.50874664992175" lon="3.147118799784206"><ele>685.5</ele><time>2026-05-02T10:43:02Z</time></trkpt><trkpt lat="45.50871050594117" lon="3.147293059513336"><ele>686.0</ele><time>2026-05-02T10:43:03Z</time></trkpt><trkpt lat="45.50868193590422" lon="3.1474810614446582"><ele>686.5</ele><time>2026-05-02T10:43:04Z</time></trkpt><trkpt lat="45.50866603508785" lon="3.147679628476201"><ele>687.0</ele><time>2026-05-02T10:43:05Z</time></trkpt><trkpt lat="45.50865565289231" lon="3.1478662827551576"><ele>687.0</ele><time>2026-05-02T10:43:06Z</time></trkpt><trkpt lat="45.508652956874904" lon="3.1480392284859953"><ele>687.0</ele><time>2026-05-02T10:43:07Z</time></trkpt><trkpt lat="45.50866203570872" lon="3.1482034105355403"><ele>687.0</ele><time>2026-05-02T10:43:08Z</time></trkpt><trkpt lat="45.50869258310653" lon="3.1483570509082184"><ele>687.0</ele><time>2026-05-02T10:43:09Z</time></trkpt><trkpt lat="45.50873624058619" lon="3.1485003718119557"><ele>684.5</ele><time>2026-05-02T10:43:10Z</time></trkpt><trkpt lat="45.508784779754855" lon="3.1486355453625796"><ele>682.0</ele><time>2026-05-02T10:43:11Z</time></trkpt><trkpt lat="45.50884185498082" lon="3.148773566535204"><ele>679.5</ele><time>2026-05-02T10:43:12Z</time></trkpt><trkpt lat="45.508908227423305" lon="3.1489216513118565"><ele>677.0</ele><time>2026-05-02T10:43:13Z</time></trkpt><trkpt lat="45.50897535100841" lon="3.149081014930214"><ele>676.5</ele><time>2026-05-02T10:43:14Z</time></trkpt><trkpt lat="45.50904136318256" lon="3.1492487649466288"><ele>676.0</ele><time>2026-05-02T10:43:15Z</time></trkpt><trkpt lat="45.509099731655574" lon="3.1494205789044916"><ele>675.5</ele><time>2026-05-02T10:43:16Z</time></trkpt><trkpt lat="45.509152233405615" lon="3.149590068754364"><ele>675.0</ele><time>2026-05-02T10:43:17Z</time></trkpt><trkpt lat="45.50919099276783" lon="3.1497559524203624"><ele>673.75</ele><time>2026-05-02T10:43:18Z</time></trkpt><trkpt lat="45.50921706262982" lon="3.1499385461265192"><ele>672.5</ele><time>2026-05-02T10:43:19Z</time></trkpt><trkpt lat="45.50924355663778" lon="3.150142276274133"><ele>671.25</ele><time>2026-05-02T10:43:20Z</time></trkpt><trkpt lat="45.50927469974703" lon="3.150351079364582"><ele>670.0</ele><time>2026-05-02T10:43:21Z</time></trkpt><trkpt lat="45.50930811475611" lon="3.15056678214908"><ele>668.75</ele><time>2026-05-02T10:43:22Z</time></trkpt><trkpt lat="45.509342568310615" lon="3.1507824910456455"><ele>667.5</ele><time>2026-05-02T10:43:23Z</time></trkpt><trkpt lat="45.50934686084693" lon="3.150997072906702"><ele>666.25</ele><time>2026-05-02T10:43:24Z</time></trkpt><trkpt lat="45.50935454253627" lon="3.1511880434912842"><ele>665.0</ele><time>2026-05-02T10:43:25Z</time></trkpt><trkpt lat="45.50934699701622" lon="3.1513750514790204"><ele>664.5</ele><time>2026-05-02T10:43:26Z</time></trkpt><trkpt lat="45.509323042317426" lon="3.151553872800643"><ele>664.0</ele><time>2026-05-02T10:43:27Z</time></trkpt><trkpt lat="45.50928918210363" lon="3.1517436986510563"><ele>663.5</ele><time>2026-05-02T10:43:28Z</time></trkpt><trkpt lat="45.5092497502482" lon="3.1519432574330586"><ele>663.0</ele><time>2026-05-02T10:43:29Z</time></trkpt><trkpt lat="45.50922304796959" lon="3.1521603254618387"><ele>662.6666666666666</ele><time>2026-05-02T10:43:30Z</time></trkpt><trkpt lat="45.509172547692785" lon="3.152384176291677"><ele>662.3333333333333</ele><time>2026-05-02T10:43:31Z</time></trkpt><trkpt lat="45.50912563625387" lon="3.1526062053535107"><ele>662.0</ele><time>2026-05-02T10:43:32Z</time></trkpt><trkpt lat="45.50907163991129" lon="3.152848902083965"><ele>662.0</ele><time>2026-05-02T10:43:33Z</time></trkpt><trkpt lat="45.509024327484724" lon="3.153081482955974"><ele>662.0</ele><time>2026-05-02T10:43:34Z</time></trkpt><trkpt lat="45.5089686030444" lon="3.1533260390634297"><ele>662.0</ele><time>2026-05-02T10:43:35Z</time></trkpt><trkpt lat="45.50891679649088" lon="3.153553818132313"><ele>661.3333333333333</ele><time>2026-05-02T10:43:36Z</time></trkpt><trkpt lat="45.5088728246716" lon="3.153771707618507"><ele>660.6666666666666</ele><time>2026-05-02T10:43:37Z</time></trkpt><trkpt lat="45.508829398649205" lon="3.153986123690213"><ele>660.0</ele><time>2026-05-02T10:43:38Z</time></trkpt><trkpt lat="45.50876679066913" lon="3.1542011308561606"><ele>655.3333333333334</ele><time>2026-05-02T10:43:39Z</time></trkpt><trkpt lat="45.508717261426675" lon="3.1544337656621178"><ele>650.6666666666667</ele><time>2026-05-02T10:43:40Z</time></trkpt><trkpt lat="45.50867071742953" lon="3.1546523738442125"><ele>646.0</ele><time>2026-05-02T10:43:41Z</time></trkpt><trkpt lat="45.50862762276887" lon="3.1548685179022904"><ele>645.0</ele><time>2026-05-02T10:43:42Z</time></trkpt><trkpt lat="45.508610721953836" lon="3.155085443204656"><ele>644.0</ele><time>2026-05-02T10:43:43Z</time></trkpt><trkpt lat="45.508594912261316" lon="3.155318894172364"><ele>643.0</ele><time>2026-05-02T10:43:44Z</time></trkpt><trkpt lat="45.50859595425703" lon="3.155567065409267"><ele>642.6666666666667</ele><time>2026-05-02T10:43:45Z</time></trkpt><trkpt lat="45.50857902156388" lon="3.155829815525638"><ele>642.3333333333334</ele><time>2026-05-02T10:43:46Z</time></trkpt><trkpt lat="45.508576211134354" lon="3.156105109945329"><ele>642.0</ele><time>2026-05-02T10:43:47Z</time></trkpt><trkpt lat="45.5085738520185" lon="3.1563751362842085"><ele>641.3333333333334</ele><time>2026-05-02T10:43:48Z</time></trkpt><trkpt lat="45.5085718982318" lon="3.156635335393947"><ele>640.6666666666667</ele><time>2026-05-02T10:43:49Z</time></trkpt><trkpt lat="45.508570122037604" lon="3.1568718837714878"><ele>640.0</ele><time>2026-05-02T10:43:50Z</time></trkpt><trkpt lat="45.5085683849729" lon="3.1571032204829015"><ele>640.0</ele><time>2026-05-02T10:43:51Z</time></trkpt><trkpt lat="45.508566593177434" lon="3.1573418463183507"><ele>640.0</ele><time>2026-05-02T10:43:52Z</time></trkpt><trkpt lat="45.50858139978611" lon="3.1575832065729217"><ele>640.0</ele><time>2026-05-02T10:43:53Z</time></trkpt><trkpt lat="45.508564223787985" lon="3.1578321327355177"><ele>639.6666666666667</ele><time>2026-05-02T10:43:54Z</time></trkpt><trkpt lat="45.50858918664804" lon="3.1580629821151938"><ele>639.3333333333334</ele><time>2026-05-02T10:43:55Z</time></trkpt><trkpt lat="45.50860930002958" lon="3.158279363434686"><ele>639.0</ele><time>2026-05-02T10:43:56Z</time></trkpt><trkpt lat="45.50864691116849" lon="3.158477050387681"><ele>638.3333333333334</ele><time>2026-05-02T10:43:57Z</time></trkpt><trkpt lat="45.508700951270534" lon="3.1586675675435614"><ele>637.6666666666667</ele><time>2026-05-02T10:43:58Z</time></trkpt><trkpt lat="45.50877394518882" lon="3.1588631517432666"><ele>637.0</ele><time>2026-05-02T10:43:59Z</time></trkpt><trkpt lat="45.50885526595925" lon="3.159052415292164"><ele>639.6666666666667</ele><time>2026-05-02T10:44:00Z</time></trkpt><trkpt lat="45.50895115147844" lon="3.1592304496060986"><ele>642.3333333333334</ele><time>2026-05-02T10:44:01Z</time></trkpt><trkpt lat="45.50906106255292" lon="3.1593908363075722"><ele>645.0</ele><time>2026-05-02T10:44:02Z</time></trkpt><trkpt lat="45.50918487803895" lon="3.15954364683621"><ele>645.0</ele><time>2026-05-02T10:44:03Z</time></trkpt><trkpt lat="45.50932251220401" lon="3.15967181139422"><ele>645.0</ele><time>2026-05-02T10:44:04Z</time></trkpt><trkpt lat="45.509465189420624" lon="3.1597845766191948"><ele>645.0</ele><time>2026-05-02T10:44:05Z</time></trkpt><trkpt lat="45.50962298365677" lon="3.1599059891561514"><ele>646.0</ele><time>2026-05-02T10:44:06Z</time></trkpt><trkpt lat="45.509776157858106" lon="3.1600209761487044"><ele>647.0</ele><time>2026-05-02T10:44:07Z</time></trkpt><trkpt lat="45.50992966345965" lon="3.1601389974956913"><ele>648.0</ele><time>2026-05-02T10:44:08Z</time></trkpt><trkpt lat="45.51007303371134" lon="3.160247406668466"><ele>648.0</ele><time>2026-05-02T10:44:09Z</time></trkpt><trkpt lat="45.5102080300329" lon="3.160354587662026"><ele>648.0</ele><time>2026-05-02T10:44:10Z</time></trkpt><trkpt lat="45.510333350838195" lon="3.160436539825476"><ele>648.0</ele><time>2026-05-02T10:44:11Z</time></trkpt><trkpt lat="45.51047066771719" lon="3.1605048067891754"><ele>648.0</ele><time>2026-05-02T10:44:12Z</time></trkpt><trkpt lat="45.5106159878318" lon="3.1605572110529825"><ele>648.6666666666666</ele><time>2026-05-02T10:44:13Z</time></trkpt><trkpt lat="45.51077168241603" lon="3.1606021224727"><ele>649.3333333333333</ele><time>2026-05-02T10:44:14Z</time></trkpt><trkpt lat="45.510933630233545" lon="3.1606465801262753"><ele>650.0</ele><time>2026-05-02T10:44:15Z</time></trkpt><trkpt lat="45.511097844751646" lon="3.1606992579556543"><ele>648.75</ele><time>2026-05-02T10:44:16Z</time></trkpt><trkpt lat="45.51124689178911" lon="3.1607431376118527"><ele>647.5</ele><time>2026-05-02T10:44:17Z</time></trkpt><trkpt lat="45.511386125165856" lon="3.160798253414731"><ele>646.25</ele><time>2026-05-02T10:44:18Z</time></trkpt><trkpt lat="45.511509083302066" lon="3.1608777290939796"><ele>645.0</ele><time>2026-05-02T10:44:19Z</time></trkpt><trkpt lat="45.51161843156604" lon="3.1609839000467104"><ele>645.0</ele><time>2026-05-02T10:44:20Z</time></trkpt><trkpt lat="45.51172602660359" lon="3.1611074208479337"><ele>645.0</ele><time>2026-05-02T10:44:21Z</time></trkpt><trkpt lat="45.51182796643205" lon="3.1612311029047646"><ele>645.0</ele><time>2026-05-02T10:44:22Z</time></trkpt><trkpt lat="45.51192641240914" lon="3.1613473742018656"><ele>645.0</ele><time>2026-05-02T10:44:23Z</time></trkpt><trkpt lat="45.51202507506549" lon="3.161452339302459"><ele>645.8</ele><time>2026-05-02T10:44:24Z</time></trkpt><trkpt lat="45.51211551212775" lon="3.161558430487452"><ele>646.6</ele><time>2026-05-02T10:44:25Z</time></trkpt><trkpt lat="45.51219759579349" lon="3.1616580891865396"><ele>647.4000000000001</ele><time>2026-05-02T10:44:26Z</time></trkpt><trkpt lat="45.512267776460234" lon="3.1617612938337163"><ele>648.2</ele><time>2026-05-02T10:44:27Z</time></trkpt><trkpt lat="45.512318009018394" lon="3.1618722096040672"><ele>649.0</ele><time>2026-05-02T10:44:28Z</time></trkpt><trkpt lat="45.51235980841037" lon="3.1619804896675725"><ele>648.9999999999999</ele><time>2026-05-02T10:44:29Z</time></trkpt><trkpt lat="45.512391513701594" lon="3.162086685351618"><ele>649.0</ele><time>2026-05-02T10:44:30Z</time></trkpt><trkpt lat="45.512419714954035" lon="3.1621744406401917"><ele>649.0</ele><time>2026-05-02T10:44:31Z</time></trkpt><trkpt lat="45.512449164717545" lon="3.162267686031489"><ele>649.0</ele><time>2026-05-02T10:44:32Z</time></trkpt><trkpt lat="45.5124753667656" lon="3.1623544200731573"><ele>649.0</ele><time>2026-05-02T10:44:33Z</time></trkpt><trkpt lat="45.512500954883315" lon="3.1624371295272264"><ele>648.9999999999999</ele><time>2026-05-02T10:44:34Z</time></trkpt><trkpt lat="45.51252864517138" lon="3.162524525980082"><ele>649.0</ele><time>2026-05-02T10:44:35Z</time></trkpt><trkpt lat="45.512561440101926" lon="3.162611554544618"><ele>648.3333333333334</ele><time>2026-05-02T10:44:36Z</time></trkpt><trkpt lat="45.51259635704252" lon="3.162702529087517"><ele>647.6666666666667</ele><time>2026-05-02T10:44:37Z</time></trkpt><trkpt lat="45.51263438089084" lon="3.1627968203457697"><ele>647.0</ele><time>2026-05-02T10:44:38Z</time></trkpt><trkpt lat="45.51268076942532" lon="3.1629010376994278"><ele>646.3333333333334</ele><time>2026-05-02T10:44:39Z</time></trkpt><trkpt lat="45.51272842365897" lon="3.1630131791703144"><ele>645.6666666666666</ele><time>2026-05-02T10:44:40Z</time></trkpt><trkpt lat="45.51278608901247" lon="3.1631327716882476"><ele>645.0</ele><time>2026-05-02T10:44:41Z</time></trkpt><trkpt lat="45.51285183663739" lon="3.1632694980430656"><ele>645.8</ele><time>2026-05-02T10:44:42Z</time></trkpt><trkpt lat="45.51291639858126" lon="3.1634050974522556"><ele>646.6</ele><time>2026-05-02T10:44:43Z</time></trkpt><trkpt lat="45.51297546603616" lon="3.163547026703236"><ele>647.4000000000001</ele><time>2026-05-02T10:44:44Z</time></trkpt><trkpt lat="45.513039218914514" lon="3.163671853336194"><ele>648.2</ele><time>2026-05-02T10:44:45Z</time></trkpt><trkpt lat="45.513101312518785" lon="3.1637867586649713"><ele>649.0</ele><time>2026-05-02T10:44:46Z</time></trkpt><trkpt lat="45.513161770228066" lon="3.1639212846770257"><ele>647.5</ele><time>2026-05-02T10:44:47Z</time></trkpt><trkpt lat="45.51322938008227" lon="3.1640668338117126"><ele>646.0</ele><time>2026-05-02T10:44:48Z</time></trkpt><trkpt lat="45.51330061872918" lon="3.1642230204851205"><ele>644.5</ele><time>2026-05-02T10:44:49Z</time></trkpt><trkpt lat="45.51335226564767" lon="3.164386981567047"><ele>643.0</ele><time>2026-05-02T10:44:50Z</time></trkpt><trkpt lat="45.51338463395788" lon="3.1645563219298567"><ele>643.0</ele><time>2026-05-02T10:44:51Z</time></trkpt><trkpt lat="45.51340355625362" lon="3.164739380701673"><ele>643.0</ele><time>2026-05-02T10:44:52Z</time></trkpt><trkpt lat="45.51339981829784" lon="3.164936460217402"><ele>643.0</ele><time>2026-05-02T10:44:53Z</time></trkpt><trkpt lat="45.513434788475514" lon="3.1651432704140285"><ele>643.0</ele><time>2026-05-02T10:44:54Z</time></trkpt><trkpt lat="45.51345595519752" lon="3.165364241118641"><ele>642.0</ele><time>2026-05-02T10:44:55Z</time></trkpt><trkpt lat="45.51347897047284" lon="3.165577715710698"><ele>641.0</ele><time>2026-05-02T10:44:56Z</time></trkpt><trkpt lat="45.51348455757246" lon="3.165784815554953"><ele>640.0</ele><time>2026-05-02T10:44:57Z</time></trkpt><trkpt lat="45.51350800482811" lon="3.1660052379316723"><ele>639.0</ele><time>2026-05-02T10:44:58Z</time></trkpt><trkpt lat="45.51353215422766" lon="3.166232260994274"><ele>638.0</ele><time>2026-05-02T10:44:59Z</time></trkpt><trkpt lat="45.51355620013301" lon="3.1664583110711413"><ele>637.0</ele><time>2026-05-02T10:45:00Z</time></trkpt><trkpt lat="45.51357655742282" lon="3.166669401291468"><ele>636.75</ele><time>2026-05-02T10:45:01Z</time></trkpt><trkpt lat="45.51359553362717" lon="3.166868539267787"><ele>636.5</ele><time>2026-05-02T10:45:02Z</time></trkpt><trkpt lat="45.51361652139916" lon="3.1670583822898615"><ele>636.25</ele><time>2026-05-02T10:45:03Z</time></trkpt><trkpt lat="45.51364057217437" lon="3.167239457847715"><ele>636.0</ele><time>2026-05-02T10:45:04Z</time></trkpt><trkpt lat="45.51369195211827" lon="3.167411174642117"><ele>635.75</ele><time>2026-05-02T10:45:05Z</time></trkpt><trkpt lat="45.51373565543594" lon="3.1675815762645683"><ele>635.5</ele><time>2026-05-02T10:45:06Z</time></trkpt><trkpt lat="45.513793430927436" lon="3.167750294774348"><ele>635.25</ele><time>2026-05-02T10:45:07Z</time></trkpt><trkpt lat="45.51385944731008" lon="3.1679123986843774"><ele>635.0</ele><time>2026-05-02T10:45:08Z</time></trkpt><trkpt lat="45.51393138640607" lon="3.168067489375544"><ele>637.0</ele><time>2026-05-02T10:45:09Z</time></trkpt><trkpt lat="45.51400826235522" lon="3.1682204516398293"><ele>639.0</ele><time>2026-05-02T10:45:10Z</time></trkpt><trkpt lat="45.514090639299994" lon="3.1683701058524343"><ele>641.0</ele><time>2026-05-02T10:45:11Z</time></trkpt><trkpt lat="45.514168820428765" lon="3.1685111515433833"><ele>643.0</ele><time>2026-05-02T10:45:12Z</time></trkpt><trkpt lat="45.51424669463076" lon="3.1686427848581387"><ele>643.0</ele><time>2026-05-02T10:45:13Z</time></trkpt><trkpt lat="45.5143364268524" lon="3.1687715955536504"><ele>643.0</ele><time>2026-05-02T10:45:14Z</time></trkpt><trkpt lat="45.51443721337816" lon="3.16890932215237"><ele>643.0</ele><time>2026-05-02T10:45:15Z</time></trkpt><trkpt lat="45.51454330634418" lon="3.169051693451954"><ele>643.0</ele><time>2026-05-02T10:45:16Z</time></trkpt><trkpt lat="45.514656128152424" lon="3.16920036140394"><ele>644.5</ele><time>2026-05-02T10:45:17Z</time></trkpt><trkpt lat="45.514766135893154" lon="3.1693483694700135"><ele>646.0</ele><time>2026-05-02T10:45:18Z</time></trkpt><trkpt lat="45.514865892048086" lon="3.1694934086745636"><ele>647.5</ele><time>2026-05-02T10:45:19Z</time></trkpt><trkpt lat="45.5149568904697" lon="3.169623347262394"><ele>649.0</ele><time>2026-05-02T10:45:20Z</time></trkpt><trkpt lat="45.5150299282225" lon="3.1697628635601296"><ele>648.0</ele><time>2026-05-02T10:45:21Z</time></trkpt><trkpt lat="45.51509321469073" lon="3.1698902302349174"><ele>647.0</ele><time>2026-05-02T10:45:22Z</time></trkpt><trkpt lat="45.51515729644193" lon="3.170013123261783"><ele>646.0</ele><time>2026-05-02T10:45:23Z</time></trkpt><trkpt lat="45.51522250473755" lon="3.1701280775725347"><ele>645.0</ele><time>2026-05-02T10:45:24Z</time></trkpt><trkpt lat="45.515281471864995" lon="3.1702359991067492"><ele>644.0</ele><time>2026-05-02T10:45:25Z</time></trkpt><trkpt lat="45.51530646269966" lon="3.1703681755016437"><ele>644.0</ele><time>2026-05-02T10:45:26Z</time></trkpt><trkpt lat="45.51532281522465" lon="3.1704977862079717"><ele>644.0</ele><time>2026-05-02T10:45:27Z</time></trkpt><trkpt lat="45.51533769650835" lon="3.1706513409913426"><ele>644.0</ele><time>2026-05-02T10:45:28Z</time></trkpt><trkpt lat="45.51536819260853" lon="3.170827488520648"><ele>644.0</ele><time>2026-05-02T10:45:29Z</time></trkpt><trkpt lat="45.51537589173599" lon="3.170996846407828"><ele>644.0</ele><time>2026-05-02T10:45:30Z</time></trkpt><trkpt lat="45.5153998810635" lon="3.1711439717877536"><ele>646.0</ele><time>2026-05-02T10:45:31Z</time></trkpt><trkpt lat="45.515427372330024" lon="3.1712715313102215"><ele>648.0</ele><time>2026-05-02T10:45:32Z</time></trkpt><trkpt lat="45.515462920658294" lon="3.1713985542607226"><ele>650.0</ele><time>2026-05-02T10:45:33Z</time></trkpt><trkpt lat="45.51551000766968" lon="3.1715246770189056"><ele>652.0</ele><time>2026-05-02T10:45:34Z</time></trkpt><trkpt lat="45.51556934377323" lon="3.171669240557991"><ele>654.0</ele><time>2026-05-02T10:45:35Z</time></trkpt><trkpt lat="45.51562032708445" lon="3.171795737564035"><ele>654.0</ele><time>2026-05-02T10:45:36Z</time></trkpt><trkpt lat="45.51566242038707" lon="3.171921131077919"><ele>654.0</ele><time>2026-05-02T10:45:37Z</time></trkpt><trkpt lat="45.5156759793431" lon="3.172044564239564"><ele>654.0</ele><time>2026-05-02T10:45:38Z</time></trkpt><trkpt lat="45.515695167931554" lon="3.1721552693711486"><ele>654.0</ele><time>2026-05-02T10:45:39Z</time></trkpt><trkpt lat="45.5157092728704" lon="3.172265917537948"><ele>654.0</ele><time>2026-05-02T10:45:40Z</time></trkpt><trkpt lat="45.51572111287257" lon="3.1724037180053584"><ele>654.0</ele><time>2026-05-02T10:45:41Z</time></trkpt><trkpt lat="45.51572859058967" lon="3.1725376320953877"><ele>653.6</ele><time>2026-05-02T10:45:42Z</time></trkpt><trkpt lat="45.515736108406486" lon="3.1726999102307643"><ele>653.2</ele><time>2026-05-02T10:45:43Z</time></trkpt><trkpt lat="45.515743554626944" lon="3.172860642822658"><ele>652.8000000000001</ele><time>2026-05-02T10:45:44Z</time></trkpt><trkpt lat="45.51575416436681" lon="3.1730102384500434"><ele>652.4000000000001</ele><time>2026-05-02T10:45:45Z</time></trkpt><trkpt lat="45.515770299711285" lon="3.17313836831363"><ele>652.0</ele><time>2026-05-02T10:45:46Z</time></trkpt><trkpt lat="45.51580301725252" lon="3.173250170257431"><ele>651.1666666666667</ele><time>2026-05-02T10:45:47Z</time></trkpt><trkpt lat="45.51583780932386" lon="3.1733620682865924"><ele>650.3333333333334</ele><time>2026-05-02T10:45:48Z</time></trkpt><trkpt lat="45.51588461795486" lon="3.173464857354635"><ele>649.5</ele><time>2026-05-02T10:45:49Z</time></trkpt><trkpt lat="45.51592011332515" lon="3.1735769983282083"><ele>648.6666666666666</ele><time>2026-05-02T10:45:50Z</time></trkpt><trkpt lat="45.51596660366626" lon="3.1736761311068804"><ele>647.8333333333333</ele><time>2026-05-02T10:45:51Z</time></trkpt><trkpt lat="45.51603585069009" lon="3.173780090047778"><ele>647.0</ele><time>2026-05-02T10:45:52Z</time></trkpt><trkpt lat="45.516132601765236" lon="3.1738701962292017"><ele>647.0</ele><time>2026-05-02T10:45:53Z</time></trkpt><trkpt lat="45.516229208129175" lon="3.1739847396941454"><ele>647.0</ele><time>2026-05-02T10:45:54Z</time></trkpt><trkpt lat="45.516327684082256" lon="3.1741440506311496"><ele>647.0</ele><time>2026-05-02T10:45:55Z</time></trkpt><trkpt lat="45.51644193694427" lon="3.174253053245747"><ele>647.0</ele><time>2026-05-02T10:45:56Z</time></trkpt><trkpt lat="45.51654334266039" lon="3.17436192164126"><ele>646.75</ele><time>2026-05-02T10:45:57Z</time></trkpt><trkpt lat="45.51665858294642" lon="3.1744509865117227"><ele>646.5</ele><time>2026-05-02T10:45:58Z</time></trkpt><trkpt lat="45.51678750258858" lon="3.1745478354089323"><ele>646.25</ele><time>2026-05-02T10:45:59Z</time></trkpt><trkpt lat="45.516933528612284" lon="3.174661614897202"><ele>646.0</ele><time>2026-05-02T10:46:00Z</time></trkpt><trkpt lat="45.51707806324458" lon="3.1747723185972982"><ele>646.25</ele><time>2026-05-02T10:46:01Z</time></trkpt><trkpt lat="45.5171994904074" lon="3.1748904717897046"><ele>646.5</ele><time>2026-05-02T10:46:02Z</time></trkpt><trkpt lat="45.51729003216874" lon="3.175038481805835"><ele>646.75</ele><time>2026-05-02T10:46:03Z</time></trkpt><trkpt lat="45.51732088638817" lon="3.1752304879606545"><ele>647.0</ele><time>2026-05-02T10:46:04Z</time></trkpt><trkpt lat="45.517346611551936" lon="3.175415085261362"><ele>647.0</ele><time>2026-05-02T10:46:05Z</time></trkpt><trkpt lat="45.51733635686376" lon="3.175611759591907"><ele>647.0</ele><time>2026-05-02T10:46:06Z</time></trkpt><trkpt lat="45.517337689467965" lon="3.1758216239149846"><ele>647.0</ele><time>2026-05-02T10:46:07Z</time></trkpt><trkpt lat="45.51726265147605" lon="3.1760024945896523"><ele>647.0</ele><time>2026-05-02T10:46:08Z</time></trkpt><trkpt lat="45.51717427534357" lon="3.176160434823442"><ele>645.75</ele><time>2026-05-02T10:46:09Z</time></trkpt><trkpt lat="45.517095443379695" lon="3.1763162329144525"><ele>644.5</ele><time>2026-05-02T10:46:10Z</time></trkpt><trkpt lat="45.517033171101254" lon="3.176472575815871"><ele>643.25</ele><time>2026-05-02T10:46:11Z</time></trkpt><trkpt lat="45.5169840399306" lon="3.176635003379387"><ele>642.0</ele><time>2026-05-02T10:46:12Z</time></trkpt><trkpt lat="45.51696318237048" lon="3.1768007997538623"><ele>641.25</ele><time>2026-05-02T10:46:13Z</time></trkpt><trkpt lat="45.516975300691584" lon="3.176972920444361"><ele>640.5</ele><time>2026-05-02T10:46:14Z</time></trkpt><trkpt lat="45.51701181446022" lon="3.1771307357064926"><ele>639.75</ele><time>2026-05-02T10:46:15Z</time></trkpt><trkpt lat="45.517083972369306" lon="3.177265144105366"><ele>639.0</ele><time>2026-05-02T10:46:16Z</time></trkpt><trkpt lat="45.51716157638332" lon="3.1773902884512473"><ele>637.5</ele><time>2026-05-02T10:46:17Z</time></trkpt><trkpt lat="45.517250826699836" lon="3.177521477634089"><ele>636.0</ele><time>2026-05-02T10:46:18Z</time></trkpt><trkpt lat="45.517342096200274" lon="3.1776588095695244"><ele>634.5</ele><time>2026-05-02T10:46:19Z</time></trkpt><trkpt lat="45.517439032809826" lon="3.177801344349669"><ele>633.0</ele><time>2026-05-02T10:46:20Z</time></trkpt><trkpt lat="45.51753634105086" lon="3.177938682047371"><ele>633.0</ele><time>2026-05-02T10:46:21Z</time></trkpt><trkpt lat="45.517632061138265" lon="3.1780634564518984"><ele>633.0</ele><time>2026-05-02T10:46:22Z</time></trkpt><trkpt lat="45.517731932956764" lon="3.178174962001173"><ele>633.0</ele><time>2026-05-02T10:46:23Z</time></trkpt><trkpt lat="45.51784630339883" lon="3.178262638222819"><ele>633.0</ele><time>2026-05-02T10:46:24Z</time></trkpt><trkpt lat="45.51797426357352" lon="3.178335096301213"><ele>629.3333333333334</ele><time>2026-05-02T10:46:25Z</time></trkpt><trkpt lat="45.51812621180882" lon="3.1783935452374465"><ele>625.6666666666667</ele><time>2026-05-02T10:46:26Z</time></trkpt><trkpt lat="45.51830967385858" lon="3.178422875190226"><ele>622.0</ele><time>2026-05-02T10:46:27Z</time></trkpt><trkpt lat="45.518529436643476" lon="3.1784063851322553"><ele>619.6666666666667</ele><time>2026-05-02T10:46:28Z</time></trkpt><trkpt lat="45.51875369870346" lon="3.1783533865052775"><ele>617.3333333333334</ele><time>2026-05-02T10:46:29Z</time></trkpt><trkpt lat="45.518956627614294" lon="3.178344969536421"><ele>615.0</ele><time>2026-05-02T10:46:30Z</time></trkpt><trkpt lat="45.519132360443365" lon="3.178357121396956"><ele>615.0</ele><time>2026-05-02T10:46:31Z</time></trkpt><trkpt lat="45.519286276468115" lon="3.178421862037378"><ele>615.0</ele><time>2026-05-02T10:46:32Z</time></trkpt><trkpt lat="45.51942357442536" lon="3.1785288132393337"><ele>615.0</ele><time>2026-05-02T10:46:33Z</time></trkpt><trkpt lat="45.51956563103133" lon="3.1786774612376507"><ele>616.0</ele><time>2026-05-02T10:46:34Z</time></trkpt><trkpt lat="45.519713899653944" lon="3.1788934035692127"><ele>617.0</ele><time>2026-05-02T10:46:35Z</time></trkpt><trkpt lat="45.519853070646974" lon="3.179162515512852"><ele>618.0</ele><time>2026-05-02T10:46:36Z</time></trkpt><trkpt lat="45.51999265673751" lon="3.1793942049924855"><ele>614.6666666666666</ele><time>2026-05-02T10:46:37Z</time></trkpt><trkpt lat="45.52010753963136" lon="3.179629251822404"><ele>611.3333333333333</ele><time>2026-05-02T10:46:38Z</time></trkpt><trkpt lat="45.52022480915136" lon="3.1798523472309848"><ele>608.0</ele><time>2026-05-02T10:46:39Z</time></trkpt><trkpt lat="45.52033676316611" lon="3.1800780421410924"><ele>606.3333333333333</ele><time>2026-05-02T10:46:40Z</time></trkpt><trkpt lat="45.52044789622721" lon="3.180298933113089"><ele>604.6666666666666</ele><time>2026-05-02T10:46:41Z</time></trkpt><trkpt lat="45.5205607632608" lon="3.1805233294825013"><ele>603.0</ele><time>2026-05-02T10:46:42Z</time></trkpt><trkpt lat="45.52067217948784" lon="3.180728437938191"><ele>600.6666666666666</ele><time>2026-05-02T10:46:43Z</time></trkpt><trkpt lat="45.52077643156521" lon="3.1809323111322554"><ele>598.3333333333333</ele><time>2026-05-02T10:46:44Z</time></trkpt><trkpt lat="45.52088393525373" lon="3.181137252031222"><ele>596.0</ele><time>2026-05-02T10:46:45Z</time></trkpt><trkpt lat="45.52098692621209" lon="3.1813339340189954"><ele>596.0</ele><time>2026-05-02T10:46:46Z</time></trkpt><trkpt lat="45.5210834118115" lon="3.1815080549427237"><ele>596.0</ele><time>2026-05-02T10:46:47Z</time></trkpt><trkpt lat="45.521188078790075" lon="3.1816705961325176"><ele>596.0</ele><time>2026-05-02T10:46:48Z</time></trkpt><trkpt lat="45.521310139752714" lon="3.181803946194179"><ele>592.6666666666666</ele><time>2026-05-02T10:46:49Z</time></trkpt><trkpt lat="45.52144757587294" lon="3.181908011021655"><ele>589.3333333333334</ele><time>2026-05-02T10:46:50Z</time></trkpt><trkpt lat="45.5215996698555" lon="3.181985010223884"><ele>586.0</ele><time>2026-05-02T10:46:51Z</time></trkpt><trkpt lat="45.521767477994906" lon="3.1820381326773544"><ele>586.0</ele><time>2026-05-02T10:46:52Z</time></trkpt><trkpt lat="45.521946416295535" lon="3.182069296848196"><ele>586.0</ele><time>2026-05-02T10:46:53Z</time></trkpt><trkpt lat="45.52213373477714" lon="3.1820901371358223"><ele>586.0</ele><time>2026-05-02T10:46:54Z</time></trkpt><trkpt lat="45.522315393364146" lon="3.1821082854894676"><ele>585.0</ele><time>2026-05-02T10:46:55Z</time></trkpt><trkpt lat="45.52248153372551" lon="3.1821319179703123"><ele>584.0</ele><time>2026-05-02T10:46:56Z</time></trkpt><trkpt lat="45.52264367240333" lon="3.182186388691753"><ele>583.0</ele><time>2026-05-02T10:46:57Z</time></trkpt><trkpt lat="45.52279193199516" lon="3.182289114001929"><ele>582.3333333333334</ele><time>2026-05-02T10:46:58Z</time></trkpt><trkpt lat="45.52290503074097" lon="3.1824417720036973"><ele>581.6666666666666</ele><time>2026-05-02T10:46:59Z</time></trkpt><trkpt lat="45.52300974671897" lon="3.1825976260113094"><ele>581.0</ele><time>2026-05-02T10:47:00Z</time></trkpt><trkpt lat="45.52310417501695" lon="3.182771176990804"><ele>581.0</ele><time>2026-05-02T10:47:01Z</time></trkpt><trkpt lat="45.52319353268115" lon="3.18295715024403"><ele>581.0</ele><time>2026-05-02T10:47:02Z</time></trkpt><trkpt lat="45.52329355953699" lon="3.1831483468311945"><ele>581.0</ele><time>2026-05-02T10:47:03Z</time></trkpt><trkpt lat="45.52338050845286" lon="3.183351655284539"><ele>579.3333333333333</ele><time>2026-05-02T10:47:04Z</time></trkpt><trkpt lat="45.52346470309771" lon="3.1835517612222075"><ele>577.6666666666666</ele><time>2026-05-02T10:47:05Z</time></trkpt><trkpt lat="45.52355786475942" lon="3.183755476154001"><ele>576.0</ele><time>2026-05-02T10:47:06Z</time></trkpt><trkpt lat="45.523644551007514" lon="3.18394824481137"><ele>576.6666666666666</ele><time>2026-05-02T10:47:07Z</time></trkpt><trkpt lat="45.52373439927153" lon="3.1841352805645937"><ele>577.3333333333333</ele><time>2026-05-02T10:47:08Z</time></trkpt><trkpt lat="45.52382845846973" lon="3.1843171875928045"><ele>578.0</ele><time>2026-05-02T10:47:09Z</time></trkpt><trkpt lat="45.523930677727314" lon="3.1844886450696266"><ele>578.0</ele><time>2026-05-02T10:47:10Z</time></trkpt><trkpt lat="45.52403979692665" lon="3.184644613996821"><ele>578.0</ele><time>2026-05-02T10:47:11Z</time></trkpt><trkpt lat="45.5241665768944" lon="3.1847863495747304"><ele>578.0</ele><time>2026-05-02T10:47:12Z</time></trkpt><trkpt lat="45.52430132723779" lon="3.184923126120634"><ele>576.6666666666666</ele><time>2026-05-02T10:47:13Z</time></trkpt><trkpt lat="45.52443081975263" lon="3.1850598801332386"><ele>575.3333333333334</ele><time>2026-05-02T10:47:14Z</time></trkpt><trkpt lat="45.52455574958864" lon="3.1852044442543925"><ele>574.0</ele><time>2026-05-02T10:47:15Z</time></trkpt><trkpt lat="45.52469247426998" lon="3.1853523509324306"><ele>574.0</ele><time>2026-05-02T10:47:16Z</time></trkpt><trkpt lat="45.5248145359484" lon="3.1854875170580423"><ele>574.0</ele><time>2026-05-02T10:47:17Z</time></trkpt><trkpt lat="45.524935577971114" lon="3.1856228025276647"><ele>574.0</ele><time>2026-05-02T10:47:18Z</time></trkpt><trkpt lat="45.525055592022284" lon="3.185755520165363"><ele>573.0</ele><time>2026-05-02T10:47:19Z</time></trkpt><trkpt lat="45.52517530546374" lon="3.185883718207089"><ele>572.0</ele><time>2026-05-02T10:47:20Z</time></trkpt><trkpt lat="45.52528627742474" lon="3.186005929087147"><ele>571.0</ele><time>2026-05-02T10:47:21Z</time></trkpt><trkpt lat="45.52540320369712" lon="3.1861317924211248"><ele>570.0</ele><time>2026-05-02T10:47:22Z</time></trkpt><trkpt lat="45.52552138042597" lon="3.186265966592358"><ele>569.3333333333334</ele><time>2026-05-02T10:47:23Z</time></trkpt><trkpt lat="45.52564586784283" lon="3.1864172866705616"><ele>568.6666666666667</ele><time>2026-05-02T10:47:24Z</time></trkpt><trkpt lat="45.52576348470671" lon="3.186585131508499"><ele>568.0</ele><time>2026-05-02T10:47:25Z</time></trkpt><trkpt lat="45.52586703846125" lon="3.1867749872373006"><ele>566.3333333333334</ele><time>2026-05-02T10:47:26Z</time></trkpt><trkpt lat="45.5259597885958" lon="3.1869765618466737"><ele>564.6666666666666</ele><time>2026-05-02T10:47:27Z</time></trkpt><trkpt lat="45.526042911263374" lon="3.1871847295909013"><ele>563.0</ele><time>2026-05-02T10:47:28Z</time></trkpt><trkpt lat="45.52610468836042" lon="3.18740878768575"><ele>561.6666666666666</ele><time>2026-05-02T10:47:29Z</time></trkpt><trkpt lat="45.52614938722017" lon="3.187649291847804"><ele>560.3333333333334</ele><time>2026-05-02T10:47:30Z</time></trkpt><trkpt lat="45.526158015430724" lon="3.1878904288069436"><ele>559.0</ele><time>2026-05-02T10:47:31Z</time></trkpt><trkpt lat="45.526167108059326" lon="3.188139836868423"><ele>557.6666666666667</ele><time>2026-05-02T10:47:32Z</time></trkpt><trkpt lat="45.52617663766887" lon="3.18837887873449"><ele>556.3333333333334</ele><time>2026-05-02T10:47:33Z</time></trkpt><trkpt lat="45.526153034206004" lon="3.188628094327865"><ele>555.0</ele><time>2026-05-02T10:47:34Z</time></trkpt><trkpt lat="45.52611918301287" lon="3.1888600573859347"><ele>555.3333333333334</ele><time>2026-05-02T10:47:35Z</time></trkpt><trkpt lat="45.52607287317706" lon="3.189084586245496"><ele>555.6666666666667</ele><time>2026-05-02T10:47:36Z</time></trkpt><trkpt lat="45.52599466968106" lon="3.189305079239615"><ele>556.0</ele><time>2026-05-02T10:47:37Z</time></trkpt><trkpt lat="45.52593796549252" lon="3.1895157719012777"><ele>556.0</ele><time>2026-05-02T10:47:38Z</time></trkpt><trkpt lat="45.525844322443014" lon="3.1897084657500403"><ele>556.0</ele><time>2026-05-02T10:47:39Z</time></trkpt><trkpt lat="45.525776907180806" lon="3.189918118840099"><ele>556.0</ele><time>2026-05-02T10:47:40Z</time></trkpt><trkpt lat="45.525679128267925" lon="3.1901202958070547"><ele>556.6666666666667</ele><time>2026-05-02T10:47:41Z</time></trkpt><trkpt lat="45.52560840441032" lon="3.1903354961059263"><ele>557.3333333333334</ele><time>2026-05-02T10:47:42Z</time></trkpt><trkpt lat="45.52551877680399" lon="3.1905479702765702"><ele>558.0</ele><time>2026-05-02T10:47:43Z</time></trkpt><trkpt lat="45.52543316187893" lon="3.1907629420260593"><ele>555.6666666666666</ele><time>2026-05-02T10:47:44Z</time></trkpt><trkpt lat="45.52535829698486" lon="3.190971108703738"><ele>553.3333333333333</ele><time>2026-05-02T10:47:45Z</time></trkpt><trkpt lat="45.52528722614212" lon="3.1911858978160375"><ele>551.0</ele><time>2026-05-02T10:47:46Z</time></trkpt><trkpt lat="45.52522510598831" lon="3.1913901524934425"><ele>551.6666666666666</ele><time>2026-05-02T10:47:47Z</time></trkpt><trkpt lat="45.525168249148095" lon="3.1916067157479433"><ele>552.3333333333334</ele><time>2026-05-02T10:47:48Z</time></trkpt><trkpt lat="45.52511921534805" lon="3.191828125833698"><ele>553.0</ele><time>2026-05-02T10:47:49Z</time></trkpt><trkpt lat="45.52507591998577" lon="3.192055792816703"><ele>553.0</ele><time>2026-05-02T10:47:50Z</time></trkpt><trkpt lat="45.52503768270725" lon="3.192286379879251"><ele>553.0</ele><time>2026-05-02T10:47:51Z</time></trkpt><trkpt lat="45.525004342489225" lon="3.192519137391863"><ele>553.0</ele><time>2026-05-02T10:47:52Z</time></trkpt><trkpt lat="45.52497786281782" lon="3.192763674367535"><ele>553.6666666666667</ele><time>2026-05-02T10:47:53Z</time></trkpt><trkpt lat="45.524957682217575" lon="3.1930038840905164"><ele>554.3333333333334</ele><time>2026-05-02T10:47:54Z</time></trkpt><trkpt lat="45.524933164371326" lon="3.19324153466401"><ele>555.0</ele><time>2026-05-02T10:47:55Z</time></trkpt><trkpt lat="45.524920382826664" lon="3.1934804158653796"><ele>555.6666666666666</ele><time>2026-05-02T10:47:56Z</time></trkpt><trkpt lat="45.5249023075748" lon="3.193719406384448"><ele>556.3333333333333</ele><time>2026-05-02T10:47:57Z</time></trkpt><trkpt lat="45.52488856508254" lon="3.193945224749517"><ele>557.0</ele><time>2026-05-02T10:47:58Z</time></trkpt><trkpt lat="45.52487150542179" lon="3.1941935190044393"><ele>557.0</ele><time>2026-05-02T10:47:59Z</time></trkpt><trkpt lat="45.5248490041716" lon="3.194445926584282"><ele>557.0</ele><time>2026-05-02T10:48:00Z</time></trkpt><trkpt lat="45.524835262802306" lon="3.1946886323328387"><ele>557.0</ele><time>2026-05-02T10:48:01Z</time></trkpt><trkpt lat="45.52482118727709" lon="3.194947886787364"><ele>557.0</ele><time>2026-05-02T10:48:02Z</time></trkpt><trkpt lat="45.52478770167486" lon="3.1952017364238388"><ele>557.0</ele><time>2026-05-02T10:48:03Z</time></trkpt><trkpt lat="45.5247833951912" lon="3.195472516004839"><ele>557.0</ele><time>2026-05-02T10:48:04Z</time></trkpt><trkpt lat="45.52476171225666" lon="3.195739935870936"><ele>556.3333333333333</ele><time>2026-05-02T10:48:05Z</time></trkpt><trkpt lat="45.52474386537303" lon="3.196012245073944"><ele>555.6666666666666</ele><time>2026-05-02T10:48:06Z</time></trkpt><trkpt lat="45.524721672665585" lon="3.1962872927915513"><ele>555.0</ele><time>2026-05-02T10:48:07Z</time></trkpt><trkpt lat="45.52469752663848" lon="3.196568544081136"><ele>554.6666666666666</ele><time>2026-05-02T10:48:08Z</time></trkpt><trkpt lat="45.52467374012324" lon="3.1968557143536493"><ele>554.3333333333333</ele><time>2026-05-02T10:48:09Z</time></trkpt><trkpt lat="45.52465358776635" lon="3.1971462470481797"><ele>554.0</ele><time>2026-05-02T10:48:10Z</time></trkpt><trkpt lat="45.52461940502255" lon="3.197434347966906"><ele>554.0</ele><time>2026-05-02T10:48:11Z</time></trkpt><trkpt lat="45.524596997228265" lon="3.1977221000874705"><ele>554.0</ele><time>2026-05-02T10:48:12Z</time></trkpt><trkpt lat="45.52458993630189" lon="3.1980096700217766"><ele>554.0</ele><time>2026-05-02T10:48:13Z</time></trkpt><trkpt lat="45.524560361447" lon="3.1982959896252"><ele>553.6666666666666</ele><time>2026-05-02T10:48:14Z</time></trkpt><trkpt lat="45.52453784762302" lon="3.198578093424403"><ele>553.3333333333334</ele><time>2026-05-02T10:48:15Z</time></trkpt><trkpt lat="45.52451650452745" lon="3.1988329608418002"><ele>553.0</ele><time>2026-05-02T10:48:16Z</time></trkpt><trkpt lat="45.524497407134355" lon="3.199075115427411"><ele>553.0</ele><time>2026-05-02T10:48:17Z</time></trkpt><trkpt lat="45.5244811083894" lon="3.199312880730421"><ele>553.0</ele><time>2026-05-02T10:48:18Z</time></trkpt><trkpt lat="45.52446172860508" lon="3.1995549294325434"><ele>553.0</ele><time>2026-05-02T10:48:19Z</time></trkpt><trkpt lat="45.52444347504656" lon="3.1997934937025385"><ele>553.0</ele><time>2026-05-02T10:48:20Z</time></trkpt><trkpt lat="45.5244216461225" lon="3.2000352518886044"><ele>553.0</ele><time>2026-05-02T10:48:21Z</time></trkpt><trkpt lat="45.524398573441516" lon="3.2002758240686386"><ele>553.0</ele><time>2026-05-02T10:48:22Z</time></trkpt><trkpt lat="45.52436531045735" lon="3.20050935474808"><ele>552.6666666666667</ele><time>2026-05-02T10:48:23Z</time></trkpt><trkpt lat="45.524310221529944" lon="3.2007456486798893"><ele>552.3333333333334</ele><time>2026-05-02T10:48:24Z</time></trkpt><trkpt lat="45.52428212600279" lon="3.2009889839711283"><ele>552.0</ele><time>2026-05-02T10:48:25Z</time></trkpt><trkpt lat="45.52423686606593" lon="3.2012225998519024"><ele>552.0</ele><time>2026-05-02T10:48:26Z</time></trkpt><trkpt lat="45.524191199193254" lon="3.2014569742002017"><ele>552.0</ele><time>2026-05-02T10:48:27Z</time></trkpt><trkpt lat="45.524129448255096" lon="3.2016770818470324"><ele>552.0</ele><time>2026-05-02T10:48:28Z</time></trkpt><trkpt lat="45.5240949177951" lon="3.2019197490483493"><ele>552.3333333333334</ele><time>2026-05-02T10:48:29Z</time></trkpt><trkpt lat="45.524049545357094" lon="3.202141557479388"><ele>552.6666666666667</ele><time>2026-05-02T10:48:30Z</time></trkpt><trkpt lat="45.524006763498996" lon="3.202368059666342"><ele>553.0</ele><time>2026-05-02T10:48:31Z</time></trkpt><trkpt lat="45.52397306312136" lon="3.2025842910753672"><ele>552.3333333333334</ele><time>2026-05-02T10:48:32Z</time></trkpt><trkpt lat="45.52394001649201" lon="3.202806910639323"><ele>551.6666666666666</ele><time>2026-05-02T10:48:33Z</time></trkpt><trkpt lat="45.52391160989426" lon="3.20302726251784"><ele>551.0</ele><time>2026-05-02T10:48:34Z</time></trkpt><trkpt lat="45.52389027586704" lon="3.203251783827119"><ele>550.3333333333333</ele><time>2026-05-02T10:48:35Z</time></trkpt><trkpt lat="45.52387082214866" lon="3.203479078573944"><ele>549.6666666666666</ele><time>2026-05-02T10:48:36Z</time></trkpt><trkpt lat="45.52384539351316" lon="3.203704474532022"><ele>549.0</ele><time>2026-05-02T10:48:37Z</time></trkpt><trkpt lat="45.523829498347574" lon="3.203934186914671"><ele>548.3333333333334</ele><time>2026-05-02T10:48:38Z</time></trkpt><trkpt lat="45.52382915946948" lon="3.204166398344201"><ele>547.6666666666667</ele><time>2026-05-02T10:48:39Z</time></trkpt><trkpt lat="45.523819888154755" lon="3.2043985970533773"><ele>547.0</ele><time>2026-05-02T10:48:40Z</time></trkpt><trkpt lat="45.52381481613495" lon="3.2046317950237193"><ele>547.0</ele><time>2026-05-02T10:48:41Z</time></trkpt><trkpt lat="45.523817715984116" lon="3.20486529380967"><ele>547.0</ele><time>2026-05-02T10:48:42Z</time></trkpt><trkpt lat="45.52382634734155" lon="3.2050960174107836"><ele>547.0</ele><time>2026-05-02T10:48:43Z</time></trkpt><trkpt lat="45.52383474087787" lon="3.2053289818864457"><ele>547.0</ele><time>2026-05-02T10:48:44Z</time></trkpt><trkpt lat="45.52384297329908" lon="3.205557962959679"><ele>547.0</ele><time>2026-05-02T10:48:45Z</time></trkpt><trkpt lat="45.52385883737919" lon="3.205789448932526"><ele>547.0</ele><time>2026-05-02T10:48:46Z</time></trkpt><trkpt lat="45.5238773373115" lon="3.206017549018323"><ele>546.6666666666667</ele><time>2026-05-02T10:48:47Z</time></trkpt><trkpt lat="45.523892511300474" lon="3.2062484149865753"><ele>546.3333333333334</ele><time>2026-05-02T10:48:48Z</time></trkpt><trkpt lat="45.523909441287344" lon="3.206479187367628"><ele>546.0</ele><time>2026-05-02T10:48:49Z</time></trkpt><trkpt lat="45.523929121962766" lon="3.20671672970272"><ele>544.6666666666666</ele><time>2026-05-02T10:48:50Z</time></trkpt><trkpt lat="45.52394419402404" lon="3.206950426931207"><ele>543.3333333333333</ele><time>2026-05-02T10:48:51Z</time></trkpt><trkpt lat="45.52396568215604" lon="3.2071932511979626"><ele>542.0</ele><time>2026-05-02T10:48:52Z</time></trkpt><trkpt lat="45.523981427505014" lon="3.207437026080195"><ele>541.6666666666666</ele><time>2026-05-02T10:48:53Z</time></trkpt><trkpt lat="45.52400781271072" lon="3.207678185568653"><ele>541.3333333333334</ele><time>2026-05-02T10:48:54Z</time></trkpt><trkpt lat="45.52402464150538" lon="3.2079194641084694"><ele>541.0</ele><time>2026-05-02T10:48:55Z</time></trkpt><trkpt lat="45.52404588642892" lon="3.2081394093587945"><ele>540.6666666666667</ele><time>2026-05-02T10:48:56Z</time></trkpt><trkpt lat="45.52406758713131" lon="3.208365940562614"><ele>540.3333333333334</ele><time>2026-05-02T10:48:57Z</time></trkpt><trkpt lat="45.524084652519235" lon="3.2085959469446745"><ele>540.0</ele><time>2026-05-02T10:48:58Z</time></trkpt><trkpt lat="45.524102304219795" lon="3.20883505885199"><ele>539.0</ele><time>2026-05-02T10:48:59Z</time></trkpt><trkpt lat="45.52412293016686" lon="3.2090711518665973"><ele>538.0</ele><time>2026-05-02T10:49:00Z</time></trkpt><trkpt lat="45.52414914277099" lon="3.209305437171258"><ele>537.0</ele><time>2026-05-02T10:49:01Z</time></trkpt><trkpt lat="45.5241760911569" lon="3.209527898121739"><ele>537.0</ele><time>2026-05-02T10:49:02Z</time></trkpt><trkpt lat="45.524201393306264" lon="3.209750198992"><ele>537.0</ele><time>2026-05-02T10:49:03Z</time></trkpt><trkpt lat="45.524233794295824" lon="3.2099627134885242"><ele>537.0</ele><time>2026-05-02T10:49:04Z</time></trkpt><trkpt lat="45.52427007569151" lon="3.2101674179856485"><ele>537.0</ele><time>2026-05-02T10:49:05Z</time></trkpt><trkpt lat="45.52430370410212" lon="3.210380838407358"><ele>537.0</ele><time>2026-05-02T10:49:06Z</time></trkpt><trkpt lat="45.52433542568526" lon="3.2106003526893074"><ele>537.0</ele><time>2026-05-02T10:49:07Z</time></trkpt><trkpt lat="45.52436662474319" lon="3.210825435554685"><ele>536.0</ele><time>2026-05-02T10:49:08Z</time></trkpt><trkpt lat="45.52439254390424" lon="3.21105055314658"><ele>535.0</ele><time>2026-05-02T10:49:09Z</time></trkpt><trkpt lat="45.52441789031648" lon="3.211275926835791"><ele>534.0</ele><time>2026-05-02T10:49:10Z</time></trkpt><trkpt lat="45.52443749089639" lon="3.211515344163858"><ele>533.0</ele><time>2026-05-02T10:49:11Z</time></trkpt><trkpt lat="45.52445236418794" lon="3.211762288744744"><ele>532.0</ele><time>2026-05-02T10:49:12Z</time></trkpt><trkpt lat="45.5244524161843" lon="3.21201332829509"><ele>531.0</ele><time>2026-05-02T10:49:13Z</time></trkpt><trkpt lat="45.52444157795322" lon="3.212274800538586"><ele>530.6666666666666</ele><time>2026-05-02T10:49:14Z</time></trkpt><trkpt lat="45.524433672831684" lon="3.212524892051179"><ele>530.3333333333333</ele><time>2026-05-02T10:49:15Z</time></trkpt><trkpt lat="45.524418944539526" lon="3.21277620514451"><ele>530.0</ele><time>2026-05-02T10:49:16Z</time></trkpt><trkpt lat="45.52440226512289" lon="3.213029150386942"><ele>529.0</ele><time>2026-05-02T10:49:17Z</time></trkpt><trkpt lat="45.5243871288362" lon="3.2132829354073675"><ele>528.0</ele><time>2026-05-02T10:49:18Z</time></trkpt><trkpt lat="45.52437256106911" lon="3.2135381103356657"><ele>527.0</ele><time>2026-05-02T10:49:19Z</time></trkpt><trkpt lat="45.52435528082876" lon="3.2137838588090615"><ele>525.6666666666666</ele><time>2026-05-02T10:49:20Z</time></trkpt><trkpt lat="45.52434193396993" lon="3.214016385127864"><ele>524.3333333333334</ele><time>2026-05-02T10:49:21Z</time></trkpt><trkpt lat="45.52432739990062" lon="3.2142523320714647"><ele>523.0</ele><time>2026-05-02T10:49:22Z</time></trkpt><trkpt lat="45.52431362665938" lon="3.2144879889712175"><ele>523.0</ele><time>2026-05-02T10:49:23Z</time></trkpt><trkpt lat="45.52430042511229" lon="3.214725485357525"><ele>523.0</ele><time>2026-05-02T10:49:24Z</time></trkpt><trkpt lat="45.52429010788768" lon="3.2149489197075316"><ele>523.0</ele><time>2026-05-02T10:49:25Z</time></trkpt><trkpt lat="45.524278828325556" lon="3.2151694894866645"><ele>522.25</ele><time>2026-05-02T10:49:26Z</time></trkpt><trkpt lat="45.524278088919665" lon="3.2153799533406384"><ele>521.5</ele><time>2026-05-02T10:49:27Z</time></trkpt><trkpt lat="45.524286016661584" lon="3.215584396774589"><ele>520.75</ele><time>2026-05-02T10:49:28Z</time></trkpt><trkpt lat="45.52430391774528" lon="3.2157929797260354"><ele>520.0</ele><time>2026-05-02T10:49:29Z</time></trkpt><trkpt lat="45.52433022189731" lon="3.216007637913074"><ele>518.6666666666667</ele><time>2026-05-02T10:49:30Z</time></trkpt><trkpt lat="45.5243688237742" lon="3.2162269246841593"><ele>517.3333333333334</ele><time>2026-05-02T10:49:31Z</time></trkpt><trkpt lat="45.52440883970049" lon="3.2164372927658476"><ele>516.0</ele><time>2026-05-02T10:49:32Z</time></trkpt><trkpt lat="45.5244466056902" lon="3.216635988190149"><ele>515.0</ele><time>2026-05-02T10:49:33Z</time></trkpt><trkpt lat="45.52448147455232" lon="3.216835994946272"><ele>514.0</ele><time>2026-05-02T10:49:34Z</time></trkpt><trkpt lat="45.52451503258854" lon="3.2170236379805233"><ele>513.0</ele><time>2026-05-02T10:49:34.999Z</time></trkpt><trkpt lat="45.52454794933007" lon="3.2172155656479116"><ele>512.0</ele><time>2026-05-02T10:49:35.999Z</time></trkpt><trkpt lat="45.52457879560264" lon="3.2173968749669046"><ele>510.40000000000003</ele><time>2026-05-02T10:49:36.999Z</time></trkpt><trkpt lat="45.524609138255194" lon="3.217572004752619"><ele>508.80000000000007</ele><time>2026-05-02T10:49:37.999Z</time></trkpt><trkpt lat="45.52463843127372" lon="3.217736249856953"><ele>507.2</ele><time>2026-05-02T10:49:38.999Z</time></trkpt><trkpt lat="45.52466122109073" lon="3.217884974888264"><ele>505.6</ele><time>2026-05-02T10:49:39.999Z</time></trkpt><trkpt lat="45.52468201804157" lon="3.21800749460948"><ele>504.0</ele><time>2026-05-02T10:49:40.999Z</time></trkpt><trkpt lat="45.52470164714898" lon="3.2181195283528043"><ele>504.2</ele><time>2026-05-02T10:49:41.999Z</time></trkpt><trkpt lat="45.52471635610433" lon="3.2182147256296303"><ele>504.4</ele><time>2026-05-02T10:49:42.999Z</time></trkpt><trkpt lat="45.52469253619661" lon="3.218378444779099"><ele>504.6</ele><time>2026-05-02T10:49:44.999Z</time></trkpt><trkpt lat="45.52458883720567" lon="3.2184083715098146"><ele>504.8</ele><time>2026-05-02T10:49:47Z</time></trkpt><trkpt lat="45.52451658828371" lon="3.2183586026716076"><ele>505.0</ele><time>2026-05-02T10:49:48Z</time></trkpt><trkpt lat="45.524435300086424" lon="3.218292557836643"><ele>505.0</ele><time>2026-05-02T10:49:49Z</time></trkpt><trkpt lat="45.52434608547302" lon="3.218233982808781"><ele>505.0</ele><time>2026-05-02T10:49:50Z</time></trkpt><trkpt lat="45.52426493764546" lon="3.218148623886601"><ele>505.0</ele><time>2026-05-02T10:49:51Z</time></trkpt><trkpt lat="45.52418273487699" lon="3.2180359616769154"><ele>505.0</ele><time>2026-05-02T10:49:52Z</time></trkpt><trkpt lat="45.52411572559641" lon="3.2179058884489264"><ele>505.0</ele><time>2026-05-02T10:49:53Z</time></trkpt><trkpt lat="45.52405615370209" lon="3.217763666934626"><ele>506.0</ele><time>2026-05-02T10:49:54Z</time></trkpt><trkpt lat="45.524000183359135" lon="3.2176070022435"><ele>507.0</ele><time>2026-05-02T10:49:55Z</time></trkpt><trkpt lat="45.52394056947824" lon="3.217440276632132"><ele>508.0</ele><time>2026-05-02T10:49:56Z</time></trkpt><trkpt lat="45.52387711729418" lon="3.2172701258711935"><ele>509.0</ele><time>2026-05-02T10:49:57Z</time></trkpt><trkpt lat="45.52381042543488" lon="3.2171052185775806"><ele>509.75</ele><time>2026-05-02T10:49:58Z</time></trkpt><trkpt lat="45.523738293047764" lon="3.216930337047721"><ele>510.5</ele><time>2026-05-02T10:49:59Z</time></trkpt><trkpt lat="45.52366721153365" lon="3.2167579200084204"><ele>511.25</ele><time>2026-05-02T10:50:00Z</time></trkpt><trkpt lat="45.52359903723686" lon="3.216589599702754"><ele>512.0</ele><time>2026-05-02T10:50:01Z</time></trkpt><trkpt lat="45.52352454416042" lon="3.21640996564351"><ele>514.25</ele><time>2026-05-02T10:50:02Z</time></trkpt><trkpt lat="45.52345455316423" lon="3.216225891900138"><ele>516.5</ele><time>2026-05-02T10:50:03Z</time></trkpt><trkpt lat="45.523385205128086" lon="3.2160473935465483"><ele>518.75</ele><time>2026-05-02T10:50:04Z</time></trkpt><trkpt lat="45.5233069236094" lon="3.215861814863492"><ele>521.0</ele><time>2026-05-02T10:50:05Z</time></trkpt><trkpt lat="45.5232263240889" lon="3.21567233113263"><ele>522.6666666666666</ele><time>2026-05-02T10:50:06Z</time></trkpt><trkpt lat="45.52314363337918" lon="3.215470998771178"><ele>524.3333333333334</ele><time>2026-05-02T10:50:07Z</time></trkpt><trkpt lat="45.52306313146066" lon="3.2152639328822974"><ele>526.0</ele><time>2026-05-02T10:50:08Z</time></trkpt><trkpt lat="45.522981211412365" lon="3.2150560634107404"><ele>525.6666666666667</ele><time>2026-05-02T10:50:09Z</time></trkpt><trkpt lat="45.522896019938926" lon="3.2148389063470386"><ele>525.3333333333334</ele><time>2026-05-02T10:50:10Z</time></trkpt><trkpt lat="45.52280572428905" lon="3.2146355398725786"><ele>525.0</ele><time>2026-05-02T10:50:11Z</time></trkpt><trkpt lat="45.52271598495789" lon="3.2144169486610474"><ele>526.6666666666666</ele><time>2026-05-02T10:50:12Z</time></trkpt><trkpt lat="45.522630089631235" lon="3.2142106355885196"><ele>528.3333333333333</ele><time>2026-05-02T10:50:13Z</time></trkpt><trkpt lat="45.52254828692901" lon="3.2140149538096656"><ele>530.0</ele><time>2026-05-02T10:50:14Z</time></trkpt><trkpt lat="45.52246579572607" lon="3.213811579145429"><ele>531.0</ele><time>2026-05-02T10:50:15Z</time></trkpt><trkpt lat="45.522378814913104" lon="3.2136173946361084"><ele>532.0</ele><time>2026-05-02T10:50:16Z</time></trkpt><trkpt lat="45.52228578233438" lon="3.213423698110154"><ele>533.0</ele><time>2026-05-02T10:50:17Z</time></trkpt><trkpt lat="45.5221732144004" lon="3.213262675444236"><ele>534.0</ele><time>2026-05-02T10:50:18Z</time></trkpt><trkpt lat="45.52204546123378" lon="3.2131104542854105"><ele>535.0</ele><time>2026-05-02T10:50:19Z</time></trkpt><trkpt lat="45.52190982739324" lon="3.212987856245448"><ele>536.0</ele><time>2026-05-02T10:50:20Z</time></trkpt><trkpt lat="45.521773626407594" lon="3.2128648843849494"><ele>536.0</ele><time>2026-05-02T10:50:21Z</time></trkpt><trkpt lat="45.52165279345698" lon="3.2127472919943925"><ele>536.0</ele><time>2026-05-02T10:50:22Z</time></trkpt><trkpt lat="45.521531139504745" lon="3.2126383506492724"><ele>536.0</ele><time>2026-05-02T10:50:23Z</time></trkpt><trkpt lat="45.52139490700256" lon="3.2125411349243906"><ele>536.0</ele><time>2026-05-02T10:50:24Z</time></trkpt><trkpt lat="45.5212422016216" lon="3.2124909636816863"><ele>536.0</ele><time>2026-05-02T10:50:25Z</time></trkpt><trkpt lat="45.521074437720024" lon="3.2124837107982835"><ele>536.0</ele><time>2026-05-02T10:50:26Z</time></trkpt><trkpt lat="45.52090917002536" lon="3.2125162618143572"><ele>536.0</ele><time>2026-05-02T10:50:27Z</time></trkpt><trkpt lat="45.52074994405786" lon="3.2125815073537876"><ele>536.0</ele><time>2026-05-02T10:50:28Z</time></trkpt><trkpt lat="45.520570012215906" lon="3.2126285373490853"><ele>536.0</ele><time>2026-05-02T10:50:29Z</time></trkpt><trkpt lat="45.52040950018958" lon="3.2126845825243637"><ele>536.0</ele><time>2026-05-02T10:50:30Z</time></trkpt><trkpt lat="45.520242445684914" lon="3.2127429119996935"><ele>536.6666666666666</ele><time>2026-05-02T10:50:31Z</time></trkpt><trkpt lat="45.52007078921138" lon="3.2128015187898953"><ele>537.3333333333334</ele><time>2026-05-02T10:50:32Z</time></trkpt><trkpt lat="45.51989231996816" lon="3.2128556879728074"><ele>538.0</ele><time>2026-05-02T10:50:33Z</time></trkpt><trkpt lat="45.519721468856" lon="3.212897900706663"><ele>538.6666666666667</ele><time>2026-05-02T10:50:34Z</time></trkpt><trkpt lat="45.519545149924475" lon="3.2129238890946437"><ele>539.3333333333334</ele><time>2026-05-02T10:50:35Z</time></trkpt><trkpt lat="45.519379548371155" lon="3.2129291178939425"><ele>540.0</ele><time>2026-05-02T10:50:36Z</time></trkpt><trkpt lat="45.5192125544299" lon="3.2129512561881217"><ele>540.0</ele><time>2026-05-02T10:50:37Z</time></trkpt><trkpt lat="45.519046175954784" lon="3.2129341574401176"><ele>540.0</ele><time>2026-05-02T10:50:38Z</time></trkpt><trkpt lat="45.51889301803985" lon="3.212937473670696"><ele>540.0</ele><time>2026-05-02T10:50:39Z</time></trkpt><trkpt lat="45.51873943782612" lon="3.212946450038867"><ele>540.6666666666666</ele><time>2026-05-02T10:50:40Z</time></trkpt><trkpt lat="45.51859091282406" lon="3.212977468840773"><ele>541.3333333333333</ele><time>2026-05-02T10:50:41Z</time></trkpt><trkpt lat="45.51844656048031" lon="3.213028547049573"><ele>542.0</ele><time>2026-05-02T10:50:42Z</time></trkpt><trkpt lat="45.518303169322145" lon="3.213106212512704"><ele>542.6666666666666</ele><time>2026-05-02T10:50:43Z</time></trkpt><trkpt lat="45.51816717329695" lon="3.2132044986321078"><ele>543.3333333333334</ele><time>2026-05-02T10:50:44Z</time></trkpt><trkpt lat="45.518036801817665" lon="3.2133252825301626"><ele>544.0</ele><time>2026-05-02T10:50:45Z</time></trkpt><trkpt lat="45.51790656726507" lon="3.213461739531283"><ele>542.6666666666667</ele><time>2026-05-02T10:50:46Z</time></trkpt><trkpt lat="45.517763663361286" lon="3.2135694508583788"><ele>541.3333333333334</ele><time>2026-05-02T10:50:47Z</time></trkpt><trkpt lat="45.51762312425145" lon="3.2136942084062965"><ele>540.0</ele><time>2026-05-02T10:50:48Z</time></trkpt><trkpt lat="45.51748248059557" lon="3.213816015335112"><ele>540.0</ele><time>2026-05-02T10:50:49Z</time></trkpt><trkpt lat="45.517335218954386" lon="3.2139379947586666"><ele>540.0</ele><time>2026-05-02T10:50:50Z</time></trkpt><trkpt lat="45.5171870091415" lon="3.2140607596419195"><ele>540.0</ele><time>2026-05-02T10:50:51Z</time></trkpt><trkpt lat="45.51703648295163" lon="3.2141878439724048"><ele>540.0</ele><time>2026-05-02T10:50:52Z</time></trkpt><trkpt lat="45.516883163674585" lon="3.2143173658583732"><ele>540.0</ele><time>2026-05-02T10:50:53Z</time></trkpt><trkpt lat="45.5167343575895" lon="3.214440057937209"><ele>540.0</ele><time>2026-05-02T10:50:54Z</time></trkpt><trkpt lat="45.516582923126116" lon="3.2145640535693327"><ele>540.0</ele><time>2026-05-02T10:50:55Z</time></trkpt><trkpt lat="45.51643297154394" lon="3.2146866453386433"><ele>540.0</ele><time>2026-05-02T10:50:56Z</time></trkpt><trkpt lat="45.51628019834354" lon="3.2148112001024494"><ele>540.0</ele><time>2026-05-02T10:50:57Z</time></trkpt><trkpt lat="45.51614285301116" lon="3.21495943374925"><ele>541.3333333333334</ele><time>2026-05-02T10:50:58Z</time></trkpt><trkpt lat="45.51599114621794" lon="3.215097339909256"><ele>542.6666666666667</ele><time>2026-05-02T10:50:59Z</time></trkpt><trkpt lat="45.51584301770018" lon="3.2152403782041583"><ele>544.0</ele><time>2026-05-02T10:51:00Z</time></trkpt><trkpt lat="45.5156924467032" lon="3.2153636377496713"><ele>544.0</ele><time>2026-05-02T10:51:01Z</time></trkpt><trkpt lat="45.51554603613252" lon="3.2155058463312196"><ele>544.0</ele><time>2026-05-02T10:51:02Z</time></trkpt><trkpt lat="45.515394389509964" lon="3.215649784020935"><ele>544.0</ele><time>2026-05-02T10:51:03Z</time></trkpt><trkpt lat="45.515245807176115" lon="3.2157908132428883"><ele>546.6666666666667</ele><time>2026-05-02T10:51:04Z</time></trkpt><trkpt lat="45.51510311391809" lon="3.21593277977113"><ele>549.3333333333334</ele><time>2026-05-02T10:51:05Z</time></trkpt><trkpt lat="45.51496230656415" lon="3.216071755079194"><ele>552.0</ele><time>2026-05-02T10:51:06Z</time></trkpt><trkpt lat="45.51481933030903" lon="3.2162224199909732"><ele>552.0</ele><time>2026-05-02T10:51:07Z</time></trkpt><trkpt lat="45.51466753742824" lon="3.2163480178308896"><ele>552.0</ele><time>2026-05-02T10:51:08Z</time></trkpt><trkpt lat="45.5145197312185" lon="3.2164858236875866"><ele>552.0</ele><time>2026-05-02T10:51:09Z</time></trkpt><trkpt lat="45.51436488584181" lon="3.2166297099149053"><ele>552.3333333333334</ele><time>2026-05-02T10:51:10Z</time></trkpt><trkpt lat="45.51421810816093" lon="3.2167588296480614"><ele>552.6666666666667</ele><time>2026-05-02T10:51:11Z</time></trkpt><trkpt lat="45.51408252320496" lon="3.2168680671669816"><ele>553.0</ele><time>2026-05-02T10:51:12Z</time></trkpt><trkpt lat="45.51394538508283" lon="3.2169766303330625"><ele>553.0</ele><time>2026-05-02T10:51:13Z</time></trkpt><trkpt lat="45.513798197564086" lon="3.2170627732294848"><ele>553.0</ele><time>2026-05-02T10:51:14Z</time></trkpt><trkpt lat="45.513650210708114" lon="3.217177643600835"><ele>553.0</ele><time>2026-05-02T10:51:15Z</time></trkpt><trkpt lat="45.51349573129212" lon="3.2173010873999055"><ele>552.6666666666667</ele><time>2026-05-02T10:51:16Z</time></trkpt><trkpt lat="45.51334862454598" lon="3.2174514678832833"><ele>552.3333333333334</ele><time>2026-05-02T10:51:17Z</time></trkpt><trkpt lat="45.51318317666415" lon="3.2175895587927514"><ele>552.0</ele><time>2026-05-02T10:51:18Z</time></trkpt><trkpt lat="45.51300882119807" lon="3.217736636303659"><ele>553.0</ele><time>2026-05-02T10:51:19Z</time></trkpt><trkpt lat="45.51282689832956" lon="3.217888398480047"><ele>554.0</ele><time>2026-05-02T10:51:20Z</time></trkpt><trkpt lat="45.51264272180153" lon="3.2179852173747707"><ele>555.0</ele><time>2026-05-02T10:51:21Z</time></trkpt><trkpt lat="45.51248651297631" lon="3.218062134066499"><ele>555.0</ele><time>2026-05-02T10:51:22Z</time></trkpt><trkpt lat="45.512331580064334" lon="3.2181180025932337"><ele>555.0</ele><time>2026-05-02T10:51:23Z</time></trkpt><trkpt lat="45.51216189959555" lon="3.218150479084586"><ele>555.0</ele><time>2026-05-02T10:51:24Z</time></trkpt><trkpt lat="45.51196151788056" lon="3.218165581079526"><ele>555.3333333333334</ele><time>2026-05-02T10:51:25Z</time></trkpt><trkpt lat="45.51175913830031" lon="3.2181733314380954"><ele>555.6666666666667</ele><time>2026-05-02T10:51:26Z</time></trkpt><trkpt lat="45.51157420710115" lon="3.2182078857887286"><ele>556.0</ele><time>2026-05-02T10:51:27Z</time></trkpt><trkpt lat="45.51141297598821" lon="3.218196528762256"><ele>556.0</ele><time>2026-05-02T10:51:28Z</time></trkpt><trkpt lat="45.511259766469834" lon="3.2182171404438646"><ele>556.0</ele><time>2026-05-02T10:51:29Z</time></trkpt><trkpt lat="45.51113686485761" lon="3.2182862583592216"><ele>556.0</ele><time>2026-05-02T10:51:30Z</time></trkpt><trkpt lat="45.51105630755225" lon="3.2183146053785396"><ele>556.0</ele><time>2026-05-02T10:51:31Z</time></trkpt><trkpt lat="45.51097134662522" lon="3.2183228742419425"><ele>556.0</ele><time>2026-05-02T10:51:33Z</time></trkpt><trkpt lat="45.51093311453463" lon="3.2181999197322506"><ele>556.0</ele><time>2026-05-02T10:51:35Z</time></trkpt><trkpt lat="45.51089876942753" lon="3.2183623539515596"><ele>556.0</ele><time>2026-05-02T10:51:37Z</time></trkpt><trkpt lat="45.5109609268301" lon="3.218327022787179"><ele>556.0</ele><time>2026-05-02T10:51:45.999Z</time></trkpt><trkpt lat="45.51086417693426" lon="3.2181822104278424"><ele>556.0</ele><time>2026-05-02T10:51:48.999Z</time></trkpt><trkpt lat="45.51075334441086" lon="3.218125298690935"><ele>556.0</ele><time>2026-05-02T10:51:50.999Z</time></trkpt><trkpt lat="45.5106498686053" lon="3.218106728025768"><ele>556.0</ele><time>2026-05-02T10:51:52.999Z</time></trkpt><trkpt lat="45.510579447903524" lon="3.218097430690952"><ele>556.0</ele><time>2026-05-02T10:51:53.999Z</time></trkpt><trkpt lat="45.51051044751371" lon="3.2180903117749713"><ele>556.0</ele><time>2026-05-02T10:51:54.999Z</time></trkpt><trkpt lat="45.51042947272703" lon="3.218081957438624"><ele>556.0</ele><time>2026-05-02T10:51:55.999Z</time></trkpt><trkpt lat="45.51034047130639" lon="3.218072774984772"><ele>556.0</ele><time>2026-05-02T10:51:56.999Z</time></trkpt><trkpt lat="45.51025101002781" lon="3.2180622798797147"><ele>556.0</ele><time>2026-05-02T10:51:57.999Z</time></trkpt><trkpt lat="45.510173999676894" lon="3.2180520295193293"><ele>556.0</ele><time>2026-05-02T10:51:58.999Z</time></trkpt><trkpt lat="45.51006555307384" lon="3.2180375967533688"><ele>556.0</ele><time>2026-05-02T10:52:00.999Z</time></trkpt><trkpt lat="45.51003530876244" lon="3.218166914237917"><ele>556.0</ele><time>2026-05-02T10:52:07Z</time></trkpt><trkpt lat="45.51033338181106" lon="3.218101138512277"><ele>556.0</ele><time>2026-05-02T10:52:10Z</time></trkpt><trkpt lat="45.51046300291339" lon="3.218112910481736"><ele>556.0</ele><time>2026-05-02T10:52:11Z</time></trkpt><trkpt lat="45.51059406802377" lon="3.2181328190595826"><ele>556.0</ele><time>2026-05-02T10:52:12Z</time></trkpt><trkpt lat="45.51070400423613" lon="3.2181532050662494"><ele>556.0</ele><time>2026-05-02T10:52:13Z</time></trkpt><trkpt lat="45.51079550020824" lon="3.218183470137948"><ele>556.0</ele><time>2026-05-02T10:52:14Z</time></trkpt><trkpt lat="45.51086214398104" lon="3.218236327959076"><ele>556.0</ele><time>2026-05-02T10:52:15Z</time></trkpt><trkpt lat="45.51091826742509" lon="3.218361554806644"><ele>556.0</ele><time>2026-05-02T10:52:17Z</time></trkpt><trkpt lat="45.51088422471195" lon="3.2184532515291306"><ele>556.0</ele><time>2026-05-02T10:52:26Z</time></trkpt><trkpt lat="45.510783738281454" lon="3.2185910881380653"><ele>556.0</ele><time>2026-05-02T10:52:28Z</time></trkpt><trkpt lat="45.51071061711523" lon="3.218650735377897"><ele>556.0</ele><time>2026-05-02T10:52:29Z</time></trkpt><trkpt lat="45.51060591308748" lon="3.2187224606052434"><ele>556.0</ele><time>2026-05-02T10:52:30Z</time></trkpt><trkpt lat="45.51049338938104" lon="3.2188031973349367"><ele>556.0</ele><time>2026-05-02T10:52:31Z</time></trkpt><trkpt lat="45.51037011624106" lon="3.21885524881196"><ele>556.0</ele><time>2026-05-02T10:52:32Z</time></trkpt><trkpt lat="45.510243215220555" lon="3.2189080155737813"><ele>556.0</ele><time>2026-05-02T10:52:33Z</time></trkpt><trkpt lat="45.510108203478666" lon="3.218959989444506"><ele>556.0</ele><time>2026-05-02T10:52:34Z</time></trkpt><trkpt lat="45.50997861884566" lon="3.219010096924199"><ele>556.0</ele><time>2026-05-02T10:52:35Z</time></trkpt><trkpt lat="45.509849060043784" lon="3.219060277707533"><ele>556.0</ele><time>2026-05-02T10:52:36Z</time></trkpt><trkpt lat="45.50972820264015" lon="3.2191071011306533"><ele>556.25</ele><time>2026-05-02T10:52:37Z</time></trkpt><trkpt lat="45.50960913781333" lon="3.219152602464827"><ele>556.5</ele><time>2026-05-02T10:52:38Z</time></trkpt><trkpt lat="45.50949512507688" lon="3.219217788076479"><ele>556.75</ele><time>2026-05-02T10:52:39Z</time></trkpt><trkpt lat="45.509372539605195" lon="3.2192607879398407"><ele>557.0</ele><time>2026-05-02T10:52:40Z</time></trkpt><trkpt lat="45.50924851173096" lon="3.2192839529671677"><ele>557.0</ele><time>2026-05-02T10:52:41Z</time></trkpt><trkpt lat="45.509113022537484" lon="3.21933200232122"><ele>557.0</ele><time>2026-05-02T10:52:42Z</time></trkpt><trkpt lat="45.508986350492776" lon="3.219376924792725"><ele>557.0</ele><time>2026-05-02T10:52:43Z</time></trkpt><trkpt lat="45.50887228000736" lon="3.2194165790610816"><ele>557.0</ele><time>2026-05-02T10:52:44Z</time></trkpt><trkpt lat="45.50876945351608" lon="3.219451939701552"><ele>557.0</ele><time>2026-05-02T10:52:45Z</time></trkpt><trkpt lat="45.50867525982806" lon="3.2194821329758216"><ele>557.0</ele><time>2026-05-02T10:52:46Z</time></trkpt><trkpt lat="45.508589036127745" lon="3.219526157852788"><ele>557.0</ele><time>2026-05-02T10:52:47Z</time></trkpt><trkpt lat="45.50849774086734" lon="3.2195170907499318"><ele>557.0</ele><time>2026-05-02T10:52:48Z</time></trkpt><trkpt lat="45.50839559745879" lon="3.2195308883405915"><ele>557.0</ele><time>2026-05-02T10:52:49Z</time></trkpt><trkpt lat="45.50829888417768" lon="3.219550827629695"><ele>557.0</ele><time>2026-05-02T10:52:50Z</time></trkpt><trkpt lat="45.50821066849458" lon="3.2196016125641136"><ele>557.0</ele><time>2026-05-02T10:52:51Z</time></trkpt><trkpt lat="45.50814168841902" lon="3.219695339509424"><ele>557.0</ele><time>2026-05-02T10:52:52Z</time></trkpt><trkpt lat="45.50808202623251" lon="3.219789158702244"><ele>557.0</ele><time>2026-05-02T10:52:53Z</time></trkpt><trkpt lat="45.50800979772231" lon="3.2199017338654135"><ele>557.0</ele><time>2026-05-02T10:52:54Z</time></trkpt><trkpt lat="45.50797615288397" lon="3.220084026259653"><ele>557.0</ele><time>2026-05-02T10:52:55Z</time></trkpt><trkpt lat="45.507928572466774" lon="3.220272704027255"><ele>557.0</ele><time>2026-05-02T10:52:56Z</time></trkpt><trkpt lat="45.50788007662097" lon="3.220471594635994"><ele>557.0</ele><time>2026-05-02T10:52:57Z</time></trkpt><trkpt lat="45.507813252423674" lon="3.2206643548359537"><ele>557.0</ele><time>2026-05-02T10:52:58Z</time></trkpt><trkpt lat="45.5077615007617" lon="3.2208697745751307"><ele>556.6666666666666</ele><time>2026-05-02T10:52:59Z</time></trkpt><trkpt lat="45.50770999225228" lon="3.2210743343472563"><ele>556.3333333333334</ele><time>2026-05-02T10:53:00Z</time></trkpt><trkpt lat="45.507673235972504" lon="3.221292142363693"><ele>556.0</ele><time>2026-05-02T10:53:01Z</time></trkpt><trkpt lat="45.507621105859386" lon="3.221502284590775"><ele>555.3333333333334</ele><time>2026-05-02T10:53:02Z</time></trkpt><trkpt lat="45.50756880662159" lon="3.2217181557978356"><ele>554.6666666666666</ele><time>2026-05-02T10:53:03Z</time></trkpt><trkpt lat="45.50751699187818" lon="3.221934155847704"><ele>554.0</ele><time>2026-05-02T10:53:04Z</time></trkpt><trkpt lat="45.50746421101473" lon="3.222153399430907"><ele>554.3333333333333</ele><time>2026-05-02T10:53:05Z</time></trkpt><trkpt lat="45.50739444448256" lon="3.2223638752458186"><ele>554.6666666666666</ele><time>2026-05-02T10:53:06Z</time></trkpt><trkpt lat="45.507363320661646" lon="3.2226003206392493"><ele>555.0</ele><time>2026-05-02T10:53:07Z</time></trkpt><trkpt lat="45.50732886267223" lon="3.222836273753094"><ele>555.0</ele><time>2026-05-02T10:53:08Z</time></trkpt><trkpt lat="45.50730515766787" lon="3.22308287865032"><ele>555.0</ele><time>2026-05-02T10:53:09Z</time></trkpt><trkpt lat="45.50729853793748" lon="3.223326960756726"><ele>555.0</ele><time>2026-05-02T10:53:10Z</time></trkpt><trkpt lat="45.50729397054841" lon="3.2235813819060173"><ele>554.6666666666666</ele><time>2026-05-02T10:53:11Z</time></trkpt><trkpt lat="45.507296152646276" lon="3.223827378009851"><ele>554.3333333333333</ele><time>2026-05-02T10:53:12Z</time></trkpt><trkpt lat="45.50730854293283" lon="3.224074785734848"><ele>554.0</ele><time>2026-05-02T10:53:13Z</time></trkpt><trkpt lat="45.50733724825264" lon="3.2243269625018858"><ele>554.0</ele><time>2026-05-02T10:53:14Z</time></trkpt><trkpt lat="45.50737199704791" lon="3.2245755298961822"><ele>554.0</ele><time>2026-05-02T10:53:15Z</time></trkpt><trkpt lat="45.507398822837146" lon="3.2248081790143375"><ele>554.0</ele><time>2026-05-02T10:53:16Z</time></trkpt><trkpt lat="45.507419730536554" lon="3.2250283659227175"><ele>554.0</ele><time>2026-05-02T10:53:17Z</time></trkpt><trkpt lat="45.50743572329218" lon="3.225249313462073"><ele>554.0</ele><time>2026-05-02T10:53:18Z</time></trkpt><trkpt lat="45.50745904152462" lon="3.225485070983241"><ele>554.0</ele><time>2026-05-02T10:53:19Z</time></trkpt><trkpt lat="45.507477780382494" lon="3.2257249426375822"><ele>554.0</ele><time>2026-05-02T10:53:20Z</time></trkpt><trkpt lat="45.50749015493396" lon="3.225972600756615"><ele>554.0</ele><time>2026-05-02T10:53:21Z</time></trkpt><trkpt lat="45.5074998056103" lon="3.2262101997833"><ele>554.0</ele><time>2026-05-02T10:53:22Z</time></trkpt><trkpt lat="45.50750027274442" lon="3.2264241492905708"><ele>554.25</ele><time>2026-05-02T10:53:23Z</time></trkpt><trkpt lat="45.50748322312374" lon="3.2266265136205985"><ele>554.5</ele><time>2026-05-02T10:53:24Z</time></trkpt><trkpt lat="45.507498865448156" lon="3.226834179083646"><ele>554.75</ele><time>2026-05-02T10:53:25Z</time></trkpt><trkpt lat="45.50748558330237" lon="3.2270417495439148"><ele>555.0</ele><time>2026-05-02T10:53:26Z</time></trkpt><trkpt lat="45.507458611795684" lon="3.2272578212716247"><ele>555.0</ele><time>2026-05-02T10:53:27Z</time></trkpt><trkpt lat="45.507419774326216" lon="3.2274621014961067"><ele>555.0</ele><time>2026-05-02T10:53:28Z</time></trkpt><trkpt lat="45.50735369721904" lon="3.227659621103579"><ele>555.0</ele><time>2026-05-02T10:53:29Z</time></trkpt><trkpt lat="45.50733088224859" lon="3.2278532429566758"><ele>555.0</ele><time>2026-05-02T10:53:30Z</time></trkpt><trkpt lat="45.507272743083334" lon="3.2280290453647487"><ele>555.0</ele><time>2026-05-02T10:53:31Z</time></trkpt><trkpt lat="45.50720661201217" lon="3.228214669868078"><ele>555.0</ele><time>2026-05-02T10:53:32Z</time></trkpt><trkpt lat="45.50712453888415" lon="3.228398257681712"><ele>555.0</ele><time>2026-05-02T10:53:33Z</time></trkpt><trkpt lat="45.507030026265845" lon="3.2285918596569743"><ele>555.0</ele><time>2026-05-02T10:53:34Z</time></trkpt><trkpt lat="45.50693063349641" lon="3.2287867805101658"><ele>555.0</ele><time>2026-05-02T10:53:35Z</time></trkpt><trkpt lat="45.506830840114844" lon="3.228953481815425"><ele>555.0</ele><time>2026-05-02T10:53:36Z</time></trkpt><trkpt lat="45.50672812641937" lon="3.2291160427573224"><ele>555.5</ele><time>2026-05-02T10:53:37Z</time></trkpt><trkpt lat="45.50662772871595" lon="3.229267386412738"><ele>556.0</ele><time>2026-05-02T10:53:38Z</time></trkpt><trkpt lat="45.50653105211855" lon="3.2293921720031236"><ele>556.5</ele><time>2026-05-02T10:53:39Z</time></trkpt><trkpt lat="45.50642524317048" lon="3.2294774470455585"><ele>557.0</ele><time>2026-05-02T10:53:40Z</time></trkpt><trkpt lat="45.5063031878784" lon="3.229515504782209"><ele>556.6666666666666</ele><time>2026-05-02T10:53:41Z</time></trkpt><trkpt lat="45.50616219526055" lon="3.2295393490161017"><ele>556.3333333333334</ele><time>2026-05-02T10:53:42Z</time></trkpt><trkpt lat="45.50600475818549" lon="3.2295690643398913"><ele>556.0</ele><time>2026-05-02T10:53:43Z</time></trkpt><trkpt lat="45.50582603284486" lon="3.2296056894140217"><ele>556.0</ele><time>2026-05-02T10:53:44Z</time></trkpt><trkpt lat="45.50563856341964" lon="3.2296435907448426"><ele>556.0</ele><time>2026-05-02T10:53:45Z</time></trkpt><trkpt lat="45.50547479143144" lon="3.2297067086771123"><ele>556.0</ele><time>2026-05-02T10:53:46Z</time></trkpt><trkpt lat="45.505331541863825" lon="3.2297586968875587"><ele>556.0</ele><time>2026-05-02T10:53:47Z</time></trkpt><trkpt lat="45.5052059335472" lon="3.2298564793122804"><ele>556.0</ele><time>2026-05-02T10:53:48Z</time></trkpt><trkpt lat="45.50508835341409" lon="3.2300221287432946"><ele>556.0</ele><time>2026-05-02T10:53:49Z</time></trkpt><trkpt lat="45.50497930515785" lon="3.230265194470192"><ele>556.0</ele><time>2026-05-02T10:53:50Z</time></trkpt><trkpt lat="45.50488270032043" lon="3.2305497879832386"><ele>556.0</ele><time>2026-05-02T10:53:51Z</time></trkpt><trkpt lat="45.50475891827234" lon="3.230829287740376"><ele>556.0</ele><time>2026-05-02T10:53:52Z</time></trkpt><trkpt lat="45.50463624280036" lon="3.231144992840045"><ele>556.0</ele><time>2026-05-02T10:53:53Z</time></trkpt><trkpt lat="45.50451470308533" lon="3.2314577749983466"><ele>555.6666666666667</ele><time>2026-05-02T10:53:54Z</time></trkpt><trkpt lat="45.50440666546624" lon="3.2317396643291048"><ele>555.3333333333334</ele><time>2026-05-02T10:53:55Z</time></trkpt><trkpt lat="45.50431497824834" lon="3.232007942815224"><ele>555.0</ele><time>2026-05-02T10:53:56Z</time></trkpt><trkpt lat="45.50424837671569" lon="3.2322734568082816"><ele>555.0</ele><time>2026-05-02T10:53:57Z</time></trkpt><trkpt lat="45.504172992024756" lon="3.2325218038462613"><ele>555.0</ele><time>2026-05-02T10:53:58Z</time></trkpt><trkpt lat="45.50410586072806" lon="3.2327679749970155"><ele>555.0</ele><time>2026-05-02T10:53:59Z</time></trkpt><trkpt lat="45.50402645922358" lon="3.2329975945604756"><ele>555.0</ele><time>2026-05-02T10:54:00Z</time></trkpt><trkpt lat="45.503959102500616" lon="3.2332326611778193"><ele>555.0</ele><time>2026-05-02T10:54:01Z</time></trkpt><trkpt lat="45.503888430505675" lon="3.233479297606429"><ele>555.0</ele><time>2026-05-02T10:54:02Z</time></trkpt><trkpt lat="45.50381756761474" lon="3.2337245884960897"><ele>554.5</ele><time>2026-05-02T10:54:03Z</time></trkpt><trkpt lat="45.50374432163721" lon="3.2339763234392045"><ele>554.0</ele><time>2026-05-02T10:54:04Z</time></trkpt><trkpt lat="45.503596851894464" lon="3.234483153619993"><ele>554.0</ele><time>2026-05-02T10:54:06Z</time></trkpt><trkpt lat="45.50353383909384" lon="3.2347540753676283"><ele>554.0</ele><time>2026-05-02T10:54:07Z</time></trkpt><trkpt lat="45.50346382838682" lon="3.23499912197256"><ele>554.0</ele><time>2026-05-02T10:54:08Z</time></trkpt><trkpt lat="45.50339726135737" lon="3.2352404223128777"><ele>553.0</ele><time>2026-05-02T10:54:09Z</time></trkpt><trkpt lat="45.50331437921588" lon="3.2354581607896726"><ele>552.0</ele><time>2026-05-02T10:54:10Z</time></trkpt><trkpt lat="45.503236534720926" lon="3.235668617430111"><ele>551.0</ele><time>2026-05-02T10:54:11Z</time></trkpt><trkpt lat="45.50314891950179" lon="3.235859745251399"><ele>550.6666666666666</ele><time>2026-05-02T10:54:12Z</time></trkpt><trkpt lat="45.503054844879124" lon="3.2360425235511894"><ele>550.3333333333334</ele><time>2026-05-02T10:54:13Z</time></trkpt><trkpt lat="45.50294319604076" lon="3.2362505572050138"><ele>550.0</ele><time>2026-05-02T10:54:14Z</time></trkpt><trkpt lat="45.50284532221576" lon="3.2364366732769514"><ele>549.6666666666667</ele><time>2026-05-02T10:54:15Z</time></trkpt><trkpt lat="45.502770944417115" lon="3.236646335070452"><ele>549.3333333333334</ele><time>2026-05-02T10:54:16Z</time></trkpt><trkpt lat="45.50269217571343" lon="3.2368573144107633"><ele>549.0</ele><time>2026-05-02T10:54:17Z</time></trkpt><trkpt lat="45.50262800385373" lon="3.2370828506283487"><ele>549.0</ele><time>2026-05-02T10:54:18Z</time></trkpt><trkpt lat="45.502554636054384" lon="3.2372739013832286"><ele>549.0</ele><time>2026-05-02T10:54:19Z</time></trkpt><trkpt lat="45.50249793865708" lon="3.237466899942124"><ele>549.0</ele><time>2026-05-02T10:54:20Z</time></trkpt><trkpt lat="45.50244382605333" lon="3.2376516942618485"><ele>549.0</ele><time>2026-05-02T10:54:21Z</time></trkpt><trkpt lat="45.50240853948487" lon="3.237842409653024"><ele>548.0</ele><time>2026-05-02T10:54:22Z</time></trkpt></trkseg></trk></gpx>